<?xml version="1.0" encoding="utf-8"?>
<gpx xmlns:xsi="http://www.w3.org/2001/XMLSchema-instance" xmlns:xsd="http://www.w3.org/2001/XMLSchema" version="1.1" creator="Shapelink.com" xmlns="http://www.topografix.com/GPX/1/1" xmlns:gpxtpx="http://www.garmin.com/xmlschemas/TrackPointExtension/v1">
  <metadata>
    <name>Löpning 8.82 km, 2018-03-18</name>
    <desc></desc>
    <author><name>Bengt-Åke Forslund</name></author> 
    <time>2018-03-18T09:57:11Z</time>
  </metadata>
  <trk>
    <name>Löpning 8.82 km, 2018-03-18</name>
    <trkseg>
      <trkpt lat="62.635961577428" lon="17.968127233791">
        <ele>60.8</ele>
        <time>2018-03-18T09:57:11Z</time>
      </trkpt>
      <trkpt lat="62.635965852197" lon="17.968161515762">
        <ele>60.8</ele>
        <time>2018-03-18T09:57:12Z</time>
      </trkpt>
      <trkpt lat="62.635978844142" lon="17.968197138837">
        <ele>60.8</ele>
        <time>2018-03-18T09:57:13Z</time>
      </trkpt>
      <trkpt lat="62.635990830259" lon="17.968242820192">
        <ele>60.8</ele>
        <time>2018-03-18T09:57:14Z</time>
      </trkpt>
      <trkpt lat="62.636002564919" lon="17.968292357221">
        <ele>60.8</ele>
        <time>2018-03-18T09:57:15Z</time>
      </trkpt>
      <trkpt lat="62.636024776954" lon="17.968335607825">
        <ele>60.4</ele>
        <time>2018-03-18T09:57:16Z</time>
      </trkpt>
      <trkpt lat="62.636043887686" lon="17.968376846773">
        <ele>60</ele>
        <time>2018-03-18T09:57:17Z</time>
      </trkpt>
      <trkpt lat="62.636066770273" lon="17.968422779585">
        <ele>60</ele>
        <time>2018-03-18T09:57:18Z</time>
      </trkpt>
      <trkpt lat="62.636091915973" lon="17.968454882262">
        <ele>60.2</ele>
        <time>2018-03-18T09:57:19Z</time>
      </trkpt>
      <trkpt lat="62.63611898951" lon="17.968479944143">
        <ele>60.2</ele>
        <time>2018-03-18T09:57:20Z</time>
      </trkpt>
      <trkpt lat="62.636143883753" lon="17.968488661319">
        <ele>60.4</ele>
        <time>2018-03-18T09:57:21Z</time>
      </trkpt>
      <trkpt lat="62.636172466032" lon="17.968496875581">
        <ele>60.6</ele>
        <time>2018-03-18T09:57:22Z</time>
      </trkpt>
      <trkpt lat="62.636199204293" lon="17.968502575273">
        <ele>60.6</ele>
        <time>2018-03-18T09:57:23Z</time>
      </trkpt>
      <trkpt lat="62.636234240635" lon="17.968516405408">
        <ele>61</ele>
        <time>2018-03-18T09:57:24Z</time>
      </trkpt>
      <trkpt lat="62.636264666932" lon="17.968536689606">
        <ele>61.2</ele>
        <time>2018-03-18T09:57:25Z</time>
      </trkpt>
      <trkpt lat="62.63629333303" lon="17.968557476718">
        <ele>61.4</ele>
        <time>2018-03-18T09:57:26Z</time>
      </trkpt>
      <trkpt lat="62.636324429879" lon="17.968591088137">
        <ele>61.2</ele>
        <time>2018-03-18T09:57:27Z</time>
      </trkpt>
      <trkpt lat="62.636354772357" lon="17.968637356225">
        <ele>61.2</ele>
        <time>2018-03-18T09:57:28Z</time>
      </trkpt>
      <trkpt lat="62.636377487306" lon="17.96867465568">
        <ele>61</ele>
        <time>2018-03-18T09:57:29Z</time>
      </trkpt>
      <trkpt lat="62.636401124264" lon="17.968722013415">
        <ele>61</ele>
        <time>2018-03-18T09:57:30Z</time>
      </trkpt>
      <trkpt lat="62.636427191973" lon="17.968777166317">
        <ele>61</ele>
        <time>2018-03-18T09:57:31Z</time>
      </trkpt>
      <trkpt lat="62.636451583302" lon="17.968820081645">
        <ele>60.8</ele>
        <time>2018-03-18T09:57:32Z</time>
      </trkpt>
      <trkpt lat="62.636477315735" lon="17.968873641986">
        <ele>61</ele>
        <time>2018-03-18T09:57:33Z</time>
      </trkpt>
      <trkpt lat="62.636503886358" lon="17.968936338598">
        <ele>61</ele>
        <time>2018-03-18T09:57:34Z</time>
      </trkpt>
      <trkpt lat="62.63652970261" lon="17.968990318034">
        <ele>61</ele>
        <time>2018-03-18T09:57:35Z</time>
      </trkpt>
      <trkpt lat="62.636554596853" lon="17.969056954139">
        <ele>61</ele>
        <time>2018-03-18T09:57:36Z</time>
      </trkpt>
      <trkpt lat="62.636576557431" lon="17.969125769538">
        <ele>61.2</ele>
        <time>2018-03-18T09:57:37Z</time>
      </trkpt>
      <trkpt lat="62.63659340505" lon="17.969191399815">
        <ele>61.2</ele>
        <time>2018-03-18T09:57:38Z</time>
      </trkpt>
      <trkpt lat="62.636612431963" lon="17.969270692589">
        <ele>61.2</ele>
        <time>2018-03-18T09:57:39Z</time>
      </trkpt>
      <trkpt lat="62.636630033953" lon="17.969338083065">
        <ele>61.4</ele>
        <time>2018-03-18T09:57:40Z</time>
      </trkpt>
      <trkpt lat="62.636647635943" lon="17.969401701686">
        <ele>61.2</ele>
        <time>2018-03-18T09:57:41Z</time>
      </trkpt>
      <trkpt lat="62.636665740847" lon="17.969473199293">
        <ele>61.4</ele>
        <time>2018-03-18T09:57:42Z</time>
      </trkpt>
      <trkpt lat="62.636682672285" lon="17.969531872593">
        <ele>61.4</ele>
        <time>2018-03-18T09:57:43Z</time>
      </trkpt>
      <trkpt lat="62.636699100809" lon="17.969589791522">
        <ele>61.6</ele>
        <time>2018-03-18T09:57:44Z</time>
      </trkpt>
      <trkpt lat="62.636715696971" lon="17.969650895573">
        <ele>61.4</ele>
        <time>2018-03-18T09:57:45Z</time>
      </trkpt>
      <trkpt lat="62.636732376952" lon="17.969710993796">
        <ele>61.4</ele>
        <time>2018-03-18T09:57:46Z</time>
      </trkpt>
      <trkpt lat="62.636749056933" lon="17.969752316563">
        <ele>61.6</ele>
        <time>2018-03-18T09:57:47Z</time>
      </trkpt>
      <trkpt lat="62.636765820733" lon="17.969824484722">
        <ele>61.6</ele>
        <time>2018-03-18T09:57:48Z</time>
      </trkpt>
      <trkpt lat="62.636786272569" lon="17.969872261552">
        <ele>61.6</ele>
        <time>2018-03-18T09:57:49Z</time>
      </trkpt>
      <trkpt lat="62.636807227319" lon="17.969910483016">
        <ele>61.6</ele>
        <time>2018-03-18T09:57:50Z</time>
      </trkpt>
      <trkpt lat="62.636832121562" lon="17.969972676714">
        <ele>61.8</ele>
        <time>2018-03-18T09:57:51Z</time>
      </trkpt>
      <trkpt lat="62.636856680529" lon="17.970000169346">
        <ele>62</ele>
        <time>2018-03-18T09:57:52Z</time>
      </trkpt>
      <trkpt lat="62.636881323315" lon="17.97003336167">
        <ele>62.2</ele>
        <time>2018-03-18T09:57:53Z</time>
      </trkpt>
      <trkpt lat="62.636910995241" lon="17.970077282826">
        <ele>62.2</ele>
        <time>2018-03-18T09:57:54Z</time>
      </trkpt>
      <trkpt lat="62.636935135113" lon="17.970101925612">
        <ele>62.4</ele>
        <time>2018-03-18T09:57:55Z</time>
      </trkpt>
      <trkpt lat="62.636966986333" lon="17.970123970009">
        <ele>62.4</ele>
        <time>2018-03-18T09:57:56Z</time>
      </trkpt>
      <trkpt lat="62.637000094838" lon="17.970139895619">
        <ele>62.4</ele>
        <time>2018-03-18T09:57:57Z</time>
      </trkpt>
      <trkpt lat="62.637035885551" lon="17.970148445157">
        <ele>61.8</ele>
        <time>2018-03-18T09:57:58Z</time>
      </trkpt>
      <trkpt lat="62.637069413151" lon="17.970144589483">
        <ele>62</ele>
        <time>2018-03-18T09:57:59Z</time>
      </trkpt>
      <trkpt lat="62.637098665982" lon="17.970123718552">
        <ele>62</ele>
        <time>2018-03-18T09:58:00Z</time>
      </trkpt>
      <trkpt lat="62.637133786143" lon="17.970100500689">
        <ele>62</ele>
        <time>2018-03-18T09:58:01Z</time>
      </trkpt>
      <trkpt lat="62.637169828313" lon="17.97007694755">
        <ele>62</ele>
        <time>2018-03-18T09:58:02Z</time>
      </trkpt>
      <trkpt lat="62.637202098628" lon="17.970047946176">
        <ele>61.8</ele>
        <time>2018-03-18T09:58:03Z</time>
      </trkpt>
      <trkpt lat="62.637239230445" lon="17.970023135752">
        <ele>61.6</ele>
        <time>2018-03-18T09:58:04Z</time>
      </trkpt>
      <trkpt lat="62.637279463565" lon="17.969996732767">
        <ele>61.6</ele>
        <time>2018-03-18T09:58:05Z</time>
      </trkpt>
      <trkpt lat="62.637316008649" lon="17.969979968967">
        <ele>61.2</ele>
        <time>2018-03-18T09:58:06Z</time>
      </trkpt>
      <trkpt lat="62.637355403579" lon="17.96995541">
        <ele>60.8</ele>
        <time>2018-03-18T09:58:07Z</time>
      </trkpt>
      <trkpt lat="62.637398402726" lon="17.969934622888">
        <ele>60.4</ele>
        <time>2018-03-18T09:58:08Z</time>
      </trkpt>
      <trkpt lat="62.637438468208" lon="17.969931689223">
        <ele>60</ele>
        <time>2018-03-18T09:58:09Z</time>
      </trkpt>
      <trkpt lat="62.637474929473" lon="17.969940741675">
        <ele>60</ele>
        <time>2018-03-18T09:58:10Z</time>
      </trkpt>
      <trkpt lat="62.637509798177" lon="17.969970245963">
        <ele>59.8</ele>
        <time>2018-03-18T09:58:11Z</time>
      </trkpt>
      <trkpt lat="62.637539637741" lon="17.970019615354">
        <ele>59.6</ele>
        <time>2018-03-18T09:58:12Z</time>
      </trkpt>
      <trkpt lat="62.637566962735" lon="17.970073008057">
        <ele>59.6</ele>
        <time>2018-03-18T09:58:13Z</time>
      </trkpt>
      <trkpt lat="62.637592443711" lon="17.970129669701">
        <ele>59.6</ele>
        <time>2018-03-18T09:58:14Z</time>
      </trkpt>
      <trkpt lat="62.637618259963" lon="17.970190689933">
        <ele>59.6</ele>
        <time>2018-03-18T09:58:15Z</time>
      </trkpt>
      <trkpt lat="62.637646590785" lon="17.97026134935">
        <ele>59.6</ele>
        <time>2018-03-18T09:58:16Z</time>
      </trkpt>
      <trkpt lat="62.637672574675" lon="17.970321615211">
        <ele>59.6</ele>
        <time>2018-03-18T09:58:17Z</time>
      </trkpt>
      <trkpt lat="62.637690344303" lon="17.970410379532">
        <ele>59.4</ele>
        <time>2018-03-18T09:58:18Z</time>
      </trkpt>
      <trkpt lat="62.637709119759" lon="17.970481625682">
        <ele>59.6</ele>
        <time>2018-03-18T09:58:19Z</time>
      </trkpt>
      <trkpt lat="62.637726386473" lon="17.97054046662">
        <ele>59.6</ele>
        <time>2018-03-18T09:58:20Z</time>
      </trkpt>
      <trkpt lat="62.637739797513" lon="17.970608695286">
        <ele>59.8</ele>
        <time>2018-03-18T09:58:21Z</time>
      </trkpt>
      <trkpt lat="62.637754884933" lon="17.970668793509">
        <ele>59.8</ele>
        <time>2018-03-18T09:58:22Z</time>
      </trkpt>
      <trkpt lat="62.637770475267" lon="17.9707181629">
        <ele>59.8</ele>
        <time>2018-03-18T09:58:23Z</time>
      </trkpt>
      <trkpt lat="62.637782293746" lon="17.970794773466">
        <ele>60.2</ele>
        <time>2018-03-18T09:58:24Z</time>
      </trkpt>
      <trkpt lat="62.637796878252" lon="17.970855877517">
        <ele>60.2</ele>
        <time>2018-03-18T09:58:25Z</time>
      </trkpt>
      <trkpt lat="62.637809032007" lon="17.970925531106">
        <ele>60.4</ele>
        <time>2018-03-18T09:58:26Z</time>
      </trkpt>
      <trkpt lat="62.637819174106" lon="17.970995687609">
        <ele>60.6</ele>
        <time>2018-03-18T09:58:27Z</time>
      </trkpt>
      <trkpt lat="62.637832585146" lon="17.971061988438">
        <ele>60.6</ele>
        <time>2018-03-18T09:58:28Z</time>
      </trkpt>
      <trkpt lat="62.637843733073" lon="17.971124936507">
        <ele>60.8</ele>
        <time>2018-03-18T09:58:29Z</time>
      </trkpt>
      <trkpt lat="62.637859323407" lon="17.971186878748">
        <ele>60.8</ele>
        <time>2018-03-18T09:58:30Z</time>
      </trkpt>
      <trkpt lat="62.637876338664" lon="17.971251754654">
        <ele>60.8</ele>
        <time>2018-03-18T09:58:31Z</time>
      </trkpt>
      <trkpt lat="62.637888324781" lon="17.971321072967">
        <ele>61</ele>
        <time>2018-03-18T09:58:32Z</time>
      </trkpt>
      <trkpt lat="62.637901316726" lon="17.97137865662">
        <ele>61</ele>
        <time>2018-03-18T09:58:33Z</time>
      </trkpt>
      <trkpt lat="62.637910872092" lon="17.971442526698">
        <ele>61</ele>
        <time>2018-03-18T09:58:34Z</time>
      </trkpt>
      <trkpt lat="62.637917829069" lon="17.971509246622">
        <ele>61</ele>
        <time>2018-03-18T09:58:35Z</time>
      </trkpt>
      <trkpt lat="62.637931407747" lon="17.971575966546">
        <ele>61.2</ele>
        <time>2018-03-18T09:58:36Z</time>
      </trkpt>
      <trkpt lat="62.637941130751" lon="17.971646458325">
        <ele>61.4</ele>
        <time>2018-03-18T09:58:37Z</time>
      </trkpt>
      <trkpt lat="62.637948506823" lon="17.971717872113">
        <ele>61.4</ele>
        <time>2018-03-18T09:58:38Z</time>
      </trkpt>
      <trkpt lat="62.637953955058" lon="17.971796745792">
        <ele>61.6</ele>
        <time>2018-03-18T09:58:39Z</time>
      </trkpt>
      <trkpt lat="62.637957726913" lon="17.971863800992">
        <ele>61.6</ele>
        <time>2018-03-18T09:58:40Z</time>
      </trkpt>
      <trkpt lat="62.637961247311" lon="17.971923144844">
        <ele>61.6</ele>
        <time>2018-03-18T09:58:41Z</time>
      </trkpt>
      <trkpt lat="62.637961582587" lon="17.972012998812">
        <ele>61.6</ele>
        <time>2018-03-18T09:58:42Z</time>
      </trkpt>
      <trkpt lat="62.637958732741" lon="17.972085669885">
        <ele>61.6</ele>
        <time>2018-03-18T09:58:43Z</time>
      </trkpt>
      <trkpt lat="62.637960995854" lon="17.972153814732">
        <ele>61.6</ele>
        <time>2018-03-18T09:58:44Z</time>
      </trkpt>
      <trkpt lat="62.637963929519" lon="17.972222127217">
        <ele>61.6</ele>
        <time>2018-03-18T09:58:45Z</time>
      </trkpt>
      <trkpt lat="62.637973149609" lon="17.972292870453">
        <ele>61.6</ele>
        <time>2018-03-18T09:58:46Z</time>
      </trkpt>
      <trkpt lat="62.637980274224" lon="17.972349113002">
        <ele>61.8</ele>
        <time>2018-03-18T09:58:47Z</time>
      </trkpt>
      <trkpt lat="62.63798144769" lon="17.972420610609">
        <ele>61.8</ele>
        <time>2018-03-18T09:58:48Z</time>
      </trkpt>
      <trkpt lat="62.637989326676" lon="17.972480122099">
        <ele>62</ele>
        <time>2018-03-18T09:58:49Z</time>
      </trkpt>
      <trkpt lat="62.637990919237" lon="17.972539130675">
        <ele>62</ele>
        <time>2018-03-18T09:58:50Z</time>
      </trkpt>
      <trkpt lat="62.638000474603" lon="17.972607191703">
        <ele>62.2</ele>
        <time>2018-03-18T09:58:51Z</time>
      </trkpt>
      <trkpt lat="62.63800324063" lon="17.97267198379">
        <ele>62.2</ele>
        <time>2018-03-18T09:58:52Z</time>
      </trkpt>
      <trkpt lat="62.638011203435" lon="17.972731411461">
        <ele>62.4</ele>
        <time>2018-03-18T09:58:53Z</time>
      </trkpt>
      <trkpt lat="62.638012376901" lon="17.972791677322">
        <ele>62.4</ele>
        <time>2018-03-18T09:58:54Z</time>
      </trkpt>
      <trkpt lat="62.638016903127" lon="17.972844818568">
        <ele>62.6</ele>
        <time>2018-03-18T09:58:55Z</time>
      </trkpt>
      <trkpt lat="62.638016316394" lon="17.97290416242">
        <ele>62.8</ele>
        <time>2018-03-18T09:58:56Z</time>
      </trkpt>
      <trkpt lat="62.638017908955" lon="17.972958896227">
        <ele>63</ele>
        <time>2018-03-18T09:58:57Z</time>
      </trkpt>
      <trkpt lat="62.638021345534" lon="17.973017820984">
        <ele>63.4</ele>
        <time>2018-03-18T09:58:58Z</time>
      </trkpt>
      <trkpt lat="62.638023273371" lon="17.973075572275">
        <ele>63.4</ele>
        <time>2018-03-18T09:58:59Z</time>
      </trkpt>
      <trkpt lat="62.63802670995" lon="17.973125779856">
        <ele>63.6</ele>
        <time>2018-03-18T09:59:00Z</time>
      </trkpt>
      <trkpt lat="62.638025955579" lon="17.97318663245">
        <ele>63.6</ele>
        <time>2018-03-18T09:59:01Z</time>
      </trkpt>
      <trkpt lat="62.638032996375" lon="17.973239689877">
        <ele>63.8</ele>
        <time>2018-03-18T09:59:02Z</time>
      </trkpt>
      <trkpt lat="62.638033164013" lon="17.973295261874">
        <ele>63.8</ele>
        <time>2018-03-18T09:59:03Z</time>
      </trkpt>
      <trkpt lat="62.638038276972" lon="17.973352007337">
        <ele>64</ele>
        <time>2018-03-18T09:59:04Z</time>
      </trkpt>
      <trkpt lat="62.638037187325" lon="17.973405819135">
        <ele>64.2</ele>
        <time>2018-03-18T09:59:05Z</time>
      </trkpt>
      <trkpt lat="62.638037941696" lon="17.973476059457">
        <ele>64.6</ele>
        <time>2018-03-18T09:59:06Z</time>
      </trkpt>
      <trkpt lat="62.638033918384" lon="17.973537079689">
        <ele>64.8</ele>
        <time>2018-03-18T09:59:07Z</time>
      </trkpt>
      <trkpt lat="62.638035343307" lon="17.973600027758">
        <ele>64.8</ele>
        <time>2018-03-18T09:59:08Z</time>
      </trkpt>
      <trkpt lat="62.638033666927" lon="17.973664903664">
        <ele>65</ele>
        <time>2018-03-18T09:59:09Z</time>
      </trkpt>
      <trkpt lat="62.638034086022" lon="17.973730366303">
        <ele>65.2</ele>
        <time>2018-03-18T09:59:10Z</time>
      </trkpt>
      <trkpt lat="62.638029559796" lon="17.973800774263">
        <ele>65.2</ele>
        <time>2018-03-18T09:59:11Z</time>
      </trkpt>
      <trkpt lat="62.638025955579" lon="17.973871601318">
        <ele>65.2</ele>
        <time>2018-03-18T09:59:12Z</time>
      </trkpt>
      <trkpt lat="62.638027464321" lon="17.973939913803">
        <ele>65.4</ele>
        <time>2018-03-18T09:59:13Z</time>
      </trkpt>
      <trkpt lat="62.6380309009" lon="17.974012165781">
        <ele>65.4</ele>
        <time>2018-03-18T09:59:14Z</time>
      </trkpt>
      <trkpt lat="62.638036516773" lon="17.974072180185">
        <ele>65.4</ele>
        <time>2018-03-18T09:59:15Z</time>
      </trkpt>
      <trkpt lat="62.638039534257" lon="17.974147617285">
        <ele>65.4</ele>
        <time>2018-03-18T09:59:16Z</time>
      </trkpt>
      <trkpt lat="62.638046910329" lon="17.974210230078">
        <ele>65.2</ele>
        <time>2018-03-18T09:59:17Z</time>
      </trkpt>
      <trkpt lat="62.638051939469" lon="17.974289774309">
        <ele>65.2</ele>
        <time>2018-03-18T09:59:18Z</time>
      </trkpt>
      <trkpt lat="62.638054789315" lon="17.974372336024">
        <ele>65</ele>
        <time>2018-03-18T09:59:19Z</time>
      </trkpt>
      <trkpt lat="62.638055459867" lon="17.974431009324">
        <ele>65</ele>
        <time>2018-03-18T09:59:20Z</time>
      </trkpt>
      <trkpt lat="62.638053699668" lon="17.974514409229">
        <ele>64.8</ele>
        <time>2018-03-18T09:59:21Z</time>
      </trkpt>
      <trkpt lat="62.638052610021" lon="17.974587164121">
        <ele>65</ele>
        <time>2018-03-18T09:59:22Z</time>
      </trkpt>
      <trkpt lat="62.638042216465" lon="17.974662014488">
        <ele>65</ele>
        <time>2018-03-18T09:59:23Z</time>
      </trkpt>
      <trkpt lat="62.638029056882" lon="17.97473057843">
        <ele>65</ele>
        <time>2018-03-18T09:59:24Z</time>
      </trkpt>
      <trkpt lat="62.638015226747" lon="17.974776427423">
        <ele>65</ele>
        <time>2018-03-18T09:59:25Z</time>
      </trkpt>
      <trkpt lat="62.637995361644" lon="17.974835519818">
        <ele>65.2</ele>
        <time>2018-03-18T09:59:26Z</time>
      </trkpt>
      <trkpt lat="62.637985890097" lon="17.974882709915">
        <ele>65.2</ele>
        <time>2018-03-18T09:59:27Z</time>
      </trkpt>
      <trkpt lat="62.637969796849" lon="17.974933168953">
        <ele>65.2</ele>
        <time>2018-03-18T09:59:28Z</time>
      </trkpt>
      <trkpt lat="62.637953535963" lon="17.974979269403">
        <ele>65.4</ele>
        <time>2018-03-18T09:59:29Z</time>
      </trkpt>
      <trkpt lat="62.637936604525" lon="17.975019251066">
        <ele>65.2</ele>
        <time>2018-03-18T09:59:30Z</time>
      </trkpt>
      <trkpt lat="62.637915901232" lon="17.975059651824">
        <ele>65.4</ele>
        <time>2018-03-18T09:59:31Z</time>
      </trkpt>
      <trkpt lat="62.637901484364" lon="17.97509938203">
        <ele>65.4</ele>
        <time>2018-03-18T09:59:32Z</time>
      </trkpt>
      <trkpt lat="62.637882792727" lon="17.975137268218">
        <ele>65.6</ele>
        <time>2018-03-18T09:59:33Z</time>
      </trkpt>
      <trkpt lat="62.637866950936" lon="17.975179177718">
        <ele>65.6</ele>
        <time>2018-03-18T09:59:34Z</time>
      </trkpt>
      <trkpt lat="62.637850354774" lon="17.975205413065">
        <ele>65.8</ele>
        <time>2018-03-18T09:59:35Z</time>
      </trkpt>
      <trkpt lat="62.637829148567" lon="17.975244891814">
        <ele>65.8</ele>
        <time>2018-03-18T09:59:36Z</time>
      </trkpt>
      <trkpt lat="62.637810959844" lon="17.975279928156">
        <ele>66.2</ele>
        <time>2018-03-18T09:59:37Z</time>
      </trkpt>
      <trkpt lat="62.637791849112" lon="17.975315215955">
        <ele>66.4</ele>
        <time>2018-03-18T09:59:38Z</time>
      </trkpt>
      <trkpt lat="62.637776761692" lon="17.975349833202">
        <ele>66.6</ele>
        <time>2018-03-18T09:59:39Z</time>
      </trkpt>
      <trkpt lat="62.637760249349" lon="17.975372883427">
        <ele>67</ele>
        <time>2018-03-18T09:59:40Z</time>
      </trkpt>
      <trkpt lat="62.637742395902" lon="17.975393754358">
        <ele>67.4</ele>
        <time>2018-03-18T09:59:41Z</time>
      </trkpt>
      <trkpt lat="62.637723536627" lon="17.975419319153">
        <ele>67.8</ele>
        <time>2018-03-18T09:59:42Z</time>
      </trkpt>
      <trkpt lat="62.637705096447" lon="17.975450332183">
        <ele>68</ele>
        <time>2018-03-18T09:59:43Z</time>
      </trkpt>
      <trkpt lat="62.637683554964" lon="17.975468688544">
        <ele>68.4</ele>
        <time>2018-03-18T09:59:44Z</time>
      </trkpt>
      <trkpt lat="62.637663522223" lon="17.975487128724">
        <ele>68.6</ele>
        <time>2018-03-18T09:59:45Z</time>
      </trkpt>
      <trkpt lat="62.637639885265" lon="17.975505485085">
        <ele>69</ele>
        <time>2018-03-18T09:59:46Z</time>
      </trkpt>
      <trkpt lat="62.637616415945" lon="17.975521326876">
        <ele>69</ele>
        <time>2018-03-18T09:59:47Z</time>
      </trkpt>
      <trkpt lat="62.637592695168" lon="17.975538928866">
        <ele>69.2</ele>
        <time>2018-03-18T09:59:48Z</time>
      </trkpt>
      <trkpt lat="62.637567298011" lon="17.975556698494">
        <ele>69.4</ele>
        <time>2018-03-18T09:59:49Z</time>
      </trkpt>
      <trkpt lat="62.637551540039" lon="17.975574468122">
        <ele>69.6</ele>
        <time>2018-03-18T09:59:50Z</time>
      </trkpt>
      <trkpt lat="62.637529244185" lon="17.975590309913">
        <ele>69.6</ele>
        <time>2018-03-18T09:59:51Z</time>
      </trkpt>
      <trkpt lat="62.63750954672" lon="17.975613779233">
        <ele>69.8</ele>
        <time>2018-03-18T09:59:52Z</time>
      </trkpt>
      <trkpt lat="62.637492028549" lon="17.975632638508">
        <ele>69.8</ele>
        <time>2018-03-18T09:59:53Z</time>
      </trkpt>
      <trkpt lat="62.63747015179" lon="17.975644708444">
        <ele>70</ele>
        <time>2018-03-18T09:59:54Z</time>
      </trkpt>
      <trkpt lat="62.637449616135" lon="17.975665579375">
        <ele>70.4</ele>
        <time>2018-03-18T09:59:55Z</time>
      </trkpt>
      <trkpt lat="62.637426985005" lon="17.975690389799">
        <ele>70.4</ele>
        <time>2018-03-18T09:59:56Z</time>
      </trkpt>
      <trkpt lat="62.63740561116" lon="17.975703549382">
        <ele>70.6</ele>
        <time>2018-03-18T09:59:57Z</time>
      </trkpt>
      <trkpt lat="62.637385243143" lon="17.975732886032">
        <ele>71</ele>
        <time>2018-03-18T09:59:58Z</time>
      </trkpt>
      <trkpt lat="62.637364204574" lon="17.975753924601">
        <ele>71.4</ele>
        <time>2018-03-18T09:59:59Z</time>
      </trkpt>
      <trkpt lat="62.637344255652" lon="17.975779908491">
        <ele>71.4</ele>
        <time>2018-03-18T10:00:00Z</time>
      </trkpt>
      <trkpt lat="62.63732598311" lon="17.975808574589">
        <ele>71.6</ele>
        <time>2018-03-18T10:00:01Z</time>
      </trkpt>
      <trkpt lat="62.637307375292" lon="17.975833133556">
        <ele>71.8</ele>
        <time>2018-03-18T10:00:02Z</time>
      </trkpt>
      <trkpt lat="62.637292036415" lon="17.975868086079">
        <ele>72</ele>
        <time>2018-03-18T10:00:03Z</time>
      </trkpt>
      <trkpt lat="62.637275524072" lon="17.97589650072">
        <ele>72</ele>
        <time>2018-03-18T10:00:04Z</time>
      </trkpt>
      <trkpt lat="62.637261274842" lon="17.975918880393">
        <ele>72.2</ele>
        <time>2018-03-18T10:00:05Z</time>
      </trkpt>
      <trkpt lat="62.637247277069" lon="17.975954754925">
        <ele>72.4</ele>
        <time>2018-03-18T10:00:06Z</time>
      </trkpt>
      <trkpt lat="62.637231602916" lon="17.975995490959">
        <ele>72.6</ele>
        <time>2018-03-18T10:00:07Z</time>
      </trkpt>
      <trkpt lat="62.637217688962" lon="17.976031700767">
        <ele>72.8</ele>
        <time>2018-03-18T10:00:08Z</time>
      </trkpt>
      <trkpt lat="62.637210815804" lon="17.976073274991">
        <ele>73</ele>
        <time>2018-03-18T10:00:09Z</time>
      </trkpt>
      <trkpt lat="62.637198662049" lon="17.976110909722">
        <ele>73.2</ele>
        <time>2018-03-18T10:00:10Z</time>
      </trkpt>
      <trkpt lat="62.637189441959" lon="17.976160195294">
        <ele>73.4</ele>
        <time>2018-03-18T10:00:11Z</time>
      </trkpt>
      <trkpt lat="62.637176952928" lon="17.976206966296">
        <ele>73.6</ele>
        <time>2018-03-18T10:00:12Z</time>
      </trkpt>
      <trkpt lat="62.637168654847" lon="17.976263711759">
        <ele>73.8</ele>
        <time>2018-03-18T10:00:13Z</time>
      </trkpt>
      <trkpt lat="62.637161530232" lon="17.976309979847">
        <ele>74</ele>
        <time>2018-03-18T10:00:14Z</time>
      </trkpt>
      <trkpt lat="62.637159434757" lon="17.976361947627">
        <ele>74.2</ele>
        <time>2018-03-18T10:00:15Z</time>
      </trkpt>
      <trkpt lat="62.637152896875" lon="17.976410981742">
        <ele>74.2</ele>
        <time>2018-03-18T10:00:16Z</time>
      </trkpt>
      <trkpt lat="62.637146191355" lon="17.976463368617">
        <ele>74.4</ele>
        <time>2018-03-18T10:00:17Z</time>
      </trkpt>
      <trkpt lat="62.63713739036" lon="17.976510307257">
        <ele>74.6</ele>
        <time>2018-03-18T10:00:18Z</time>
      </trkpt>
      <trkpt lat="62.63713236122" lon="17.976563029408">
        <ele>74.6</ele>
        <time>2018-03-18T10:00:19Z</time>
      </trkpt>
      <trkpt lat="62.637122889673" lon="17.976603681623">
        <ele>74.6</ele>
        <time>2018-03-18T10:00:20Z</time>
      </trkpt>
      <trkpt lat="62.637118195809" lon="17.976657828697">
        <ele>74.6</ele>
        <time>2018-03-18T10:00:21Z</time>
      </trkpt>
      <trkpt lat="62.637112579936" lon="17.97670703045">
        <ele>74.6</ele>
        <time>2018-03-18T10:00:22Z</time>
      </trkpt>
      <trkpt lat="62.637107886072" lon="17.976753801452">
        <ele>74.8</ele>
        <time>2018-03-18T10:00:23Z</time>
      </trkpt>
      <trkpt lat="62.637104281855" lon="17.976811636562">
        <ele>74.6</ele>
        <time>2018-03-18T10:00:24Z</time>
      </trkpt>
      <trkpt lat="62.6371088919" lon="17.97686461017">
        <ele>74.8</ele>
        <time>2018-03-18T10:00:25Z</time>
      </trkpt>
      <trkpt lat="62.637105790597" lon="17.976928396429">
        <ele>75</ele>
        <time>2018-03-18T10:00:26Z</time>
      </trkpt>
      <trkpt lat="62.637107047882" lon="17.976983716969">
        <ele>75</ele>
        <time>2018-03-18T10:00:27Z</time>
      </trkpt>
      <trkpt lat="62.637104868588" lon="17.977048089961">
        <ele>75</ele>
        <time>2018-03-18T10:00:28Z</time>
      </trkpt>
      <trkpt lat="62.637109227176" lon="17.977099973922">
        <ele>75</ele>
        <time>2018-03-18T10:00:29Z</time>
      </trkpt>
      <trkpt lat="62.637107886072" lon="17.977161916163">
        <ele>75</ele>
        <time>2018-03-18T10:00:30Z</time>
      </trkpt>
      <trkpt lat="62.637106461149" lon="17.9772308992">
        <ele>74.8</ele>
        <time>2018-03-18T10:00:31Z</time>
      </trkpt>
      <trkpt lat="62.637097492516" lon="17.977296026563">
        <ele>74.8</ele>
        <time>2018-03-18T10:00:32Z</time>
      </trkpt>
      <trkpt lat="62.637086763684" lon="17.977360651012">
        <ele>74.6</ele>
        <time>2018-03-18T10:00:33Z</time>
      </trkpt>
      <trkpt lat="62.637075531938" lon="17.977417228837">
        <ele>74.6</ele>
        <time>2018-03-18T10:00:34Z</time>
      </trkpt>
      <trkpt lat="62.637059941604" lon="17.977470705359">
        <ele>74.6</ele>
        <time>2018-03-18T10:00:35Z</time>
      </trkpt>
      <trkpt lat="62.637045021822" lon="17.977534575437">
        <ele>74.4</ele>
        <time>2018-03-18T10:00:36Z</time>
      </trkpt>
      <trkpt lat="62.637024318529" lon="17.977591907633">
        <ele>74.4</ele>
        <time>2018-03-18T10:00:37Z</time>
      </trkpt>
      <trkpt lat="62.637009063471" lon="17.977647898725">
        <ele>74.4</ele>
        <time>2018-03-18T10:00:38Z</time>
      </trkpt>
      <trkpt lat="62.636992802585" lon="17.977707494034">
        <ele>74.4</ele>
        <time>2018-03-18T10:00:39Z</time>
      </trkpt>
      <trkpt lat="62.636987102893" lon="17.977762646936">
        <ele>74.4</ele>
        <time>2018-03-18T10:00:40Z</time>
      </trkpt>
      <trkpt lat="62.636977715165" lon="17.977821068779">
        <ele>74.4</ele>
        <time>2018-03-18T10:00:41Z</time>
      </trkpt>
      <trkpt lat="62.636975703509" lon="17.977878317156">
        <ele>74.6</ele>
        <time>2018-03-18T10:00:42Z</time>
      </trkpt>
      <trkpt lat="62.636966483419" lon="17.977942187234">
        <ele>74.6</ele>
        <time>2018-03-18T10:00:43Z</time>
      </trkpt>
      <trkpt lat="62.636960699908" lon="17.977998262145">
        <ele>74.8</ele>
        <time>2018-03-18T10:00:44Z</time>
      </trkpt>
      <trkpt lat="62.6369496358" lon="17.978054420875">
        <ele>74.8</ele>
        <time>2018-03-18T10:00:45Z</time>
      </trkpt>
      <trkpt lat="62.636938655511" lon="17.978120302609">
        <ele>74.8</ele>
        <time>2018-03-18T10:00:46Z</time>
      </trkpt>
      <trkpt lat="62.63692784286" lon="17.978178808271">
        <ele>75</ele>
        <time>2018-03-18T10:00:47Z</time>
      </trkpt>
      <trkpt lat="62.636917114028" lon="17.978248964774">
        <ele>75</ele>
        <time>2018-03-18T10:00:48Z</time>
      </trkpt>
      <trkpt lat="62.636905966101" lon="17.978309565911">
        <ele>75.2</ele>
        <time>2018-03-18T10:00:49Z</time>
      </trkpt>
      <trkpt lat="62.636888615568" lon="17.978368239211">
        <ele>75</ele>
        <time>2018-03-18T10:00:50Z</time>
      </trkpt>
      <trkpt lat="62.636870510664" lon="17.978431606375">
        <ele>75.2</ele>
        <time>2018-03-18T10:00:51Z</time>
      </trkpt>
      <trkpt lat="62.636849975009" lon="17.97849488972">
        <ele>75</ele>
        <time>2018-03-18T10:00:52Z</time>
      </trkpt>
      <trkpt lat="62.636828684983" lon="17.978559597988">
        <ele>75</ele>
        <time>2018-03-18T10:00:53Z</time>
      </trkpt>
      <trkpt lat="62.636815190124" lon="17.978605949895">
        <ele>74.8</ele>
        <time>2018-03-18T10:00:54Z</time>
      </trkpt>
      <trkpt lat="62.636794319193" lon="17.978648949042">
        <ele>74.8</ele>
        <time>2018-03-18T10:00:55Z</time>
      </trkpt>
      <trkpt lat="62.636770011683" lon="17.978693708388">
        <ele>74.6</ele>
        <time>2018-03-18T10:00:56Z</time>
      </trkpt>
      <trkpt lat="62.636748051105" lon="17.978725894884">
        <ele>74.6</ele>
        <time>2018-03-18T10:00:57Z</time>
      </trkpt>
      <trkpt lat="62.63671829536" lon="17.97875305224">
        <ele>74.6</ele>
        <time>2018-03-18T10:00:58Z</time>
      </trkpt>
      <trkpt lat="62.636696250963" lon="17.978777108293">
        <ele>74.8</ele>
        <time>2018-03-18T10:00:59Z</time>
      </trkpt>
      <trkpt lat="62.636669847978" lon="17.978796554301">
        <ele>74.8</ele>
        <time>2018-03-18T10:01:00Z</time>
      </trkpt>
      <trkpt lat="62.636638751129" lon="17.978811222626">
        <ele>75</ele>
        <time>2018-03-18T10:01:01Z</time>
      </trkpt>
      <trkpt lat="62.636611090859" lon="17.978811390264">
        <ele>75.4</ele>
        <time>2018-03-18T10:01:02Z</time>
      </trkpt>
      <trkpt lat="62.636582340942" lon="17.978805103839">
        <ele>75.8</ele>
        <time>2018-03-18T10:01:03Z</time>
      </trkpt>
      <trkpt lat="62.636557027604" lon="17.978802170174">
        <ele>76</ele>
        <time>2018-03-18T10:01:04Z</time>
      </trkpt>
      <trkpt lat="62.636533390646" lon="17.978796302844">
        <ele>76.4</ele>
        <time>2018-03-18T10:01:05Z</time>
      </trkpt>
      <trkpt lat="62.636502377616" lon="17.978796470482">
        <ele>76.8</ele>
        <time>2018-03-18T10:01:06Z</time>
      </trkpt>
      <trkpt lat="62.636475890812" lon="17.978786076926">
        <ele>77</ele>
        <time>2018-03-18T10:01:07Z</time>
      </trkpt>
      <trkpt lat="62.636450409836" lon="17.978787585668">
        <ele>77.2</ele>
        <time>2018-03-18T10:01:08Z</time>
      </trkpt>
      <trkpt lat="62.636427527249" lon="17.978791692799">
        <ele>77.4</ele>
        <time>2018-03-18T10:01:09Z</time>
      </trkpt>
      <trkpt lat="62.636406321042" lon="17.978798146862">
        <ele>77.6</ele>
        <time>2018-03-18T10:01:10Z</time>
      </trkpt>
      <trkpt lat="62.636384947197" lon="17.978809797703">
        <ele>78</ele>
        <time>2018-03-18T10:01:11Z</time>
      </trkpt>
      <trkpt lat="62.636365585008" lon="17.978822789648">
        <ele>78.2</ele>
        <time>2018-03-18T10:01:12Z</time>
      </trkpt>
      <trkpt lat="62.636343875887" lon="17.978835530136">
        <ele>78.4</ele>
        <time>2018-03-18T10:01:13Z</time>
      </trkpt>
      <trkpt lat="62.636323675508" lon="17.978844331131">
        <ele>78.6</ele>
        <time>2018-03-18T10:01:14Z</time>
      </trkpt>
      <trkpt lat="62.636306324975" lon="17.978856736343">
        <ele>78.8</ele>
        <time>2018-03-18T10:01:15Z</time>
      </trkpt>
      <trkpt lat="62.636283610026" lon="17.978870566478">
        <ele>79.2</ele>
        <time>2018-03-18T10:01:16Z</time>
      </trkpt>
      <trkpt lat="62.636262655276" lon="17.978888503744">
        <ele>79.4</ele>
        <time>2018-03-18T10:01:17Z</time>
      </trkpt>
      <trkpt lat="62.636242622535" lon="17.97892069024">
        <ele>79.6</ele>
        <time>2018-03-18T10:01:18Z</time>
      </trkpt>
      <trkpt lat="62.63622543964" lon="17.978953295831">
        <ele>79.8</ele>
        <time>2018-03-18T10:01:19Z</time>
      </trkpt>
      <trkpt lat="62.636209849306" lon="17.978978776807">
        <ele>80</ele>
        <time>2018-03-18T10:01:20Z</time>
      </trkpt>
      <trkpt lat="62.636193923696" lon="17.979003838688">
        <ele>80</ele>
        <time>2018-03-18T10:01:21Z</time>
      </trkpt>
      <trkpt lat="62.636180764113" lon="17.979016327719">
        <ele>80.2</ele>
        <time>2018-03-18T10:01:22Z</time>
      </trkpt>
      <trkpt lat="62.636168191263" lon="17.97902797856">
        <ele>80.4</ele>
        <time>2018-03-18T10:01:23Z</time>
      </trkpt>
      <trkpt lat="62.636155199318" lon="17.979045412912">
        <ele>80.6</ele>
        <time>2018-03-18T10:01:24Z</time>
      </trkpt>
      <trkpt lat="62.636143129382" lon="17.979067038214">
        <ele>80.8</ele>
        <time>2018-03-18T10:01:25Z</time>
      </trkpt>
      <trkpt lat="62.636128880152" lon="17.979092435371">
        <ele>81.2</ele>
        <time>2018-03-18T10:01:26Z</time>
      </trkpt>
      <trkpt lat="62.636115050017" lon="17.979116742881">
        <ele>81.6</ele>
        <time>2018-03-18T10:01:27Z</time>
      </trkpt>
      <trkpt lat="62.636100465511" lon="17.979148007368">
        <ele>82</ele>
        <time>2018-03-18T10:01:28Z</time>
      </trkpt>
      <trkpt lat="62.636088311756" lon="17.979191760886">
        <ele>82.4</ele>
        <time>2018-03-18T10:01:29Z</time>
      </trkpt>
      <trkpt lat="62.636077247648" lon="17.979231742549">
        <ele>82.8</ele>
        <time>2018-03-18T10:01:30Z</time>
      </trkpt>
      <trkpt lat="62.636065596807" lon="17.97927440642">
        <ele>83.2</ele>
        <time>2018-03-18T10:01:31Z</time>
      </trkpt>
      <trkpt lat="62.636053862147" lon="17.979320925965">
        <ele>83.6</ele>
        <time>2018-03-18T10:01:32Z</time>
      </trkpt>
      <trkpt lat="62.636040367288" lon="17.979361326723">
        <ele>84</ele>
        <time>2018-03-18T10:01:33Z</time>
      </trkpt>
      <trkpt lat="62.636030728103" lon="17.979404074413">
        <ele>84.2</ele>
        <time>2018-03-18T10:01:34Z</time>
      </trkpt>
      <trkpt lat="62.636022094746" lon="17.979446738284">
        <ele>84.4</ele>
        <time>2018-03-18T10:01:35Z</time>
      </trkpt>
      <trkpt lat="62.636015975959" lon="17.979510105448">
        <ele>84.6</ele>
        <time>2018-03-18T10:01:36Z</time>
      </trkpt>
      <trkpt lat="62.636016227416" lon="17.979576490096">
        <ele>84.6</ele>
        <time>2018-03-18T10:01:37Z</time>
      </trkpt>
      <trkpt lat="62.636016562692" lon="17.979678497819">
        <ele>84.6</ele>
        <time>2018-03-18T10:01:38Z</time>
      </trkpt>
      <trkpt lat="62.636013209932" lon="17.979809255459">
        <ele>84.2</ele>
        <time>2018-03-18T10:01:39Z</time>
      </trkpt>
      <trkpt lat="62.63601002481" lon="17.979939677823">
        <ele>83.8</ele>
        <time>2018-03-18T10:01:40Z</time>
      </trkpt>
      <trkpt lat="62.636012371742" lon="17.980085439064">
        <ele>83.2</ele>
        <time>2018-03-18T10:01:41Z</time>
      </trkpt>
      <trkpt lat="62.636021591832" lon="17.980214520324">
        <ele>82.6</ele>
        <time>2018-03-18T10:01:42Z</time>
      </trkpt>
      <trkpt lat="62.636038271813" lon="17.980362125583">
        <ele>81.4</ele>
        <time>2018-03-18T10:01:43Z</time>
      </trkpt>
      <trkpt lat="62.636058556011" lon="17.980491877395">
        <ele>80.8</ele>
        <time>2018-03-18T10:01:44Z</time>
      </trkpt>
      <trkpt lat="62.636076158001" lon="17.980605703597">
        <ele>80</ele>
        <time>2018-03-18T10:01:45Z</time>
      </trkpt>
      <trkpt lat="62.636094849638" lon="17.980724810396">
        <ele>79.4</ele>
        <time>2018-03-18T10:01:46Z</time>
      </trkpt>
      <trkpt lat="62.636115217655" lon="17.980830338517">
        <ele>78.6</ele>
        <time>2018-03-18T10:01:47Z</time>
      </trkpt>
      <trkpt lat="62.63613491512" lon="17.980944583814">
        <ele>78.2</ele>
        <time>2018-03-18T10:01:48Z</time>
      </trkpt>
      <trkpt lat="62.636151008368" lon="17.98104885465">
        <ele>77.8</ele>
        <time>2018-03-18T10:01:49Z</time>
      </trkpt>
      <trkpt lat="62.636167939806" lon="17.981146168509">
        <ele>77.4</ele>
        <time>2018-03-18T10:01:50Z</time>
      </trkpt>
      <trkpt lat="62.636185625615" lon="17.981254546476">
        <ele>77.2</ele>
        <time>2018-03-18T10:01:51Z</time>
      </trkpt>
      <trkpt lat="62.636190487117" lon="17.981355045457">
        <ele>76.8</ele>
        <time>2018-03-18T10:01:52Z</time>
      </trkpt>
      <trkpt lat="62.63620280851" lon="17.981437104258">
        <ele>76.8</ele>
        <time>2018-03-18T10:01:53Z</time>
      </trkpt>
      <trkpt lat="62.636213453523" lon="17.981524778932">
        <ele>76.8</ele>
        <time>2018-03-18T10:01:54Z</time>
      </trkpt>
      <trkpt lat="62.636221751604" lon="17.981600216032">
        <ele>77</ele>
        <time>2018-03-18T10:01:55Z</time>
      </trkpt>
      <trkpt lat="62.636235581739" lon="17.981677580969">
        <ele>77.2</ele>
        <time>2018-03-18T10:01:56Z</time>
      </trkpt>
      <trkpt lat="62.636246645847" lon="17.981762824892">
        <ele>77.6</ele>
        <time>2018-03-18T10:01:57Z</time>
      </trkpt>
      <trkpt lat="62.636257123222" lon="17.981845554245">
        <ele>77.8</ele>
        <time>2018-03-18T10:01:58Z</time>
      </trkpt>
      <trkpt lat="62.636267852054" lon="17.981924176467">
        <ele>77.8</ele>
        <time>2018-03-18T10:01:59Z</time>
      </trkpt>
      <trkpt lat="62.636277575058" lon="17.981998691558">
        <ele>77.8</ele>
        <time>2018-03-18T10:02:00Z</time>
      </trkpt>
      <trkpt lat="62.636286711329" lon="17.982069099518">
        <ele>77.8</ele>
        <time>2018-03-18T10:02:01Z</time>
      </trkpt>
      <trkpt lat="62.636286962786" lon="17.982146967369">
        <ele>77.8</ele>
        <time>2018-03-18T10:02:02Z</time>
      </trkpt>
      <trkpt lat="62.636291908107" lon="17.982224416125">
        <ele>77.8</ele>
        <time>2018-03-18T10:02:03Z</time>
      </trkpt>
      <trkpt lat="62.636296601971" lon="17.982287280375">
        <ele>77.8</ele>
        <time>2018-03-18T10:02:04Z</time>
      </trkpt>
      <trkpt lat="62.636298445989" lon="17.982350815177">
        <ele>77.8</ele>
        <time>2018-03-18T10:02:05Z</time>
      </trkpt>
      <trkpt lat="62.63629920036" lon="17.982422731879">
        <ele>78</ele>
        <time>2018-03-18T10:02:06Z</time>
      </trkpt>
      <trkpt lat="62.636297021066" lon="17.982491295821">
        <ele>77.8</ele>
        <time>2018-03-18T10:02:07Z</time>
      </trkpt>
      <trkpt lat="62.636292997754" lon="17.982564805084">
        <ele>77.8</ele>
        <time>2018-03-18T10:02:08Z</time>
      </trkpt>
      <trkpt lat="62.636292327202" lon="17.982630351542">
        <ele>78</ele>
        <time>2018-03-18T10:02:09Z</time>
      </trkpt>
      <trkpt lat="62.636287717157" lon="17.982700591864">
        <ele>77.8</ele>
        <time>2018-03-18T10:02:10Z</time>
      </trkpt>
      <trkpt lat="62.636290147908" lon="17.982774268765">
        <ele>77.8</ele>
        <time>2018-03-18T10:02:11Z</time>
      </trkpt>
      <trkpt lat="62.636289309718" lon="17.982832858246">
        <ele>77.8</ele>
        <time>2018-03-18T10:02:12Z</time>
      </trkpt>
      <trkpt lat="62.636288890623" lon="17.982891950641">
        <ele>77.6</ele>
        <time>2018-03-18T10:02:13Z</time>
      </trkpt>
      <trkpt lat="62.636294255039" lon="17.98295070776">
        <ele>77.6</ele>
        <time>2018-03-18T10:02:14Z</time>
      </trkpt>
      <trkpt lat="62.636294506496" lon="17.983018768788">
        <ele>77.6</ele>
        <time>2018-03-18T10:02:15Z</time>
      </trkpt>
      <trkpt lat="62.636292997754" lon="17.983089428205">
        <ele>77.6</ele>
        <time>2018-03-18T10:02:16Z</time>
      </trkpt>
      <trkpt lat="62.636292830116" lon="17.983148185324">
        <ele>77.6</ele>
        <time>2018-03-18T10:02:17Z</time>
      </trkpt>
      <trkpt lat="62.636294674134" lon="17.983223287148">
        <ele>77.6</ele>
        <time>2018-03-18T10:02:18Z</time>
      </trkpt>
      <trkpt lat="62.63629500941" lon="17.983283133914">
        <ele>77.6</ele>
        <time>2018-03-18T10:02:19Z</time>
      </trkpt>
      <trkpt lat="62.636295512324" lon="17.983338873549">
        <ele>77.6</ele>
        <time>2018-03-18T10:02:20Z</time>
      </trkpt>
      <trkpt lat="62.636291824288" lon="17.983404336188">
        <ele>77.6</ele>
        <time>2018-03-18T10:02:21Z</time>
      </trkpt>
      <trkpt lat="62.636282604198" lon="17.983460914013">
        <ele>77.6</ele>
        <time>2018-03-18T10:02:22Z</time>
      </trkpt>
      <trkpt lat="62.636274306117" lon="17.983508607024">
        <ele>78</ele>
        <time>2018-03-18T10:02:23Z</time>
      </trkpt>
      <trkpt lat="62.636261230353" lon="17.983571890369">
        <ele>78</ele>
        <time>2018-03-18T10:02:24Z</time>
      </trkpt>
      <trkpt lat="62.636255195385" lon="17.983622684683">
        <ele>78</ele>
        <time>2018-03-18T10:02:25Z</time>
      </trkpt>
      <trkpt lat="62.636249998607" lon="17.983686806218">
        <ele>78.2</ele>
        <time>2018-03-18T10:02:26Z</time>
      </trkpt>
      <trkpt lat="62.636248406046" lon="17.983756040712">
        <ele>78.2</ele>
        <time>2018-03-18T10:02:27Z</time>
      </trkpt>
      <trkpt lat="62.636245807657" lon="17.983818821143">
        <ele>78.2</ele>
        <time>2018-03-18T10:02:28Z</time>
      </trkpt>
      <trkpt lat="62.63623549792" lon="17.983882607402">
        <ele>78.2</ele>
        <time>2018-03-18T10:02:29Z</time>
      </trkpt>
      <trkpt lat="62.636231474608" lon="17.983950919887">
        <ele>78.4</ele>
        <time>2018-03-18T10:02:30Z</time>
      </trkpt>
      <trkpt lat="62.636221500147" lon="17.984021244028">
        <ele>78.6</ele>
        <time>2018-03-18T10:02:31Z</time>
      </trkpt>
      <trkpt lat="62.636215129903" lon="17.984091987264">
        <ele>78.8</ele>
        <time>2018-03-18T10:02:32Z</time>
      </trkpt>
      <trkpt lat="62.636213537342" lon="17.984148648908">
        <ele>79</ele>
        <time>2018-03-18T10:02:33Z</time>
      </trkpt>
      <trkpt lat="62.636207083279" lon="17.984206148742">
        <ele>79.2</ele>
        <time>2018-03-18T10:02:34Z</time>
      </trkpt>
      <trkpt lat="62.636208424383" lon="17.984260295816">
        <ele>79.4</ele>
        <time>2018-03-18T10:02:35Z</time>
      </trkpt>
      <trkpt lat="62.636202976148" lon="17.984325842274">
        <ele>79.4</ele>
        <time>2018-03-18T10:02:36Z</time>
      </trkpt>
      <trkpt lat="62.636200210121" lon="17.98439407094">
        <ele>79.6</ele>
        <time>2018-03-18T10:02:37Z</time>
      </trkpt>
      <trkpt lat="62.636193001687" lon="17.984459785036">
        <ele>79.6</ele>
        <time>2018-03-18T10:02:38Z</time>
      </trkpt>
      <trkpt lat="62.636178920095" lon="17.98452399039">
        <ele>79.6</ele>
        <time>2018-03-18T10:02:39Z</time>
      </trkpt>
      <trkpt lat="62.636165592874" lon="17.984573527419">
        <ele>79.6</ele>
        <time>2018-03-18T10:02:40Z</time>
      </trkpt>
      <trkpt lat="62.636158300621" lon="17.984638487144">
        <ele>79.6</ele>
        <time>2018-03-18T10:02:41Z</time>
      </trkpt>
      <trkpt lat="62.636149415807" lon="17.984701183756">
        <ele>79.8</ele>
        <time>2018-03-18T10:02:42Z</time>
      </trkpt>
      <trkpt lat="62.636145476314" lon="17.984767652223">
        <ele>79.8</ele>
        <time>2018-03-18T10:02:43Z</time>
      </trkpt>
      <trkpt lat="62.63614078245" lon="17.984827666627">
        <ele>79.8</ele>
        <time>2018-03-18T10:02:44Z</time>
      </trkpt>
      <trkpt lat="62.636138770794" lon="17.984884747366">
        <ele>80</ele>
        <time>2018-03-18T10:02:45Z</time>
      </trkpt>
      <trkpt lat="62.636140698631" lon="17.984943336847">
        <ele>80.2</ele>
        <time>2018-03-18T10:02:46Z</time>
      </trkpt>
      <trkpt lat="62.636135166577" lon="17.985003267432">
        <ele>80.4</ele>
        <time>2018-03-18T10:02:47Z</time>
      </trkpt>
      <trkpt lat="62.636137345871" lon="17.985061856913">
        <ele>80.8</ele>
        <time>2018-03-18T10:02:48Z</time>
      </trkpt>
      <trkpt lat="62.63613491512" lon="17.985118350919">
        <ele>81</ele>
        <time>2018-03-18T10:02:49Z</time>
      </trkpt>
      <trkpt lat="62.636128293419" lon="17.985181215169">
        <ele>81</ele>
        <time>2018-03-18T10:02:50Z</time>
      </trkpt>
      <trkpt lat="62.636127790505" lon="17.985239469374">
        <ele>81.2</ele>
        <time>2018-03-18T10:02:51Z</time>
      </trkpt>
      <trkpt lat="62.636125862668" lon="17.985300070511">
        <ele>81.2</ele>
        <time>2018-03-18T10:02:52Z</time>
      </trkpt>
      <trkpt lat="62.636121420261" lon="17.985353630852">
        <ele>81.4</ele>
        <time>2018-03-18T10:02:53Z</time>
      </trkpt>
      <trkpt lat="62.636109601782" lon="17.985415405455">
        <ele>81.2</ele>
        <time>2018-03-18T10:02:54Z</time>
      </trkpt>
      <trkpt lat="62.636107841583" lon="17.985473240565">
        <ele>81.4</ele>
        <time>2018-03-18T10:02:55Z</time>
      </trkpt>
      <trkpt lat="62.636100297873" lon="17.985540295765">
        <ele>81.4</ele>
        <time>2018-03-18T10:02:56Z</time>
      </trkpt>
      <trkpt lat="62.63609216743" lon="17.985603243834">
        <ele>81.4</ele>
        <time>2018-03-18T10:02:57Z</time>
      </trkpt>
      <trkpt lat="62.636084791358" lon="17.985659318745">
        <ele>81.6</ele>
        <time>2018-03-18T10:02:58Z</time>
      </trkpt>
      <trkpt lat="62.636075906544" lon="17.985718662597">
        <ele>81.6</ele>
        <time>2018-03-18T10:02:59Z</time>
      </trkpt>
      <trkpt lat="62.636062160228" lon="17.985769289273">
        <ele>81.6</ele>
        <time>2018-03-18T10:03:00Z</time>
      </trkpt>
      <trkpt lat="62.636038104175" lon="17.985817652836">
        <ele>81.8</ele>
        <time>2018-03-18T10:03:01Z</time>
      </trkpt>
      <trkpt lat="62.636016227416" lon="17.985868195693">
        <ele>81.6</ele>
        <time>2018-03-18T10:03:02Z</time>
      </trkpt>
      <trkpt lat="62.635994015381" lon="17.985907925899">
        <ele>81.8</ele>
        <time>2018-03-18T10:03:03Z</time>
      </trkpt>
      <trkpt lat="62.635968702043" lon="17.985935334712">
        <ele>81.8</ele>
        <time>2018-03-18T10:03:04Z</time>
      </trkpt>
      <trkpt lat="62.635945735637" lon="17.98596400081">
        <ele>82</ele>
        <time>2018-03-18T10:03:05Z</time>
      </trkpt>
      <trkpt lat="62.635916566625" lon="17.985988643596">
        <ele>82</ele>
        <time>2018-03-18T10:03:06Z</time>
      </trkpt>
      <trkpt lat="62.635888822536" lon="17.986006832319">
        <ele>82.4</ele>
        <time>2018-03-18T10:03:07Z</time>
      </trkpt>
      <trkpt lat="62.635860994628" lon="17.986020830092">
        <ele>82.4</ele>
        <time>2018-03-18T10:03:08Z</time>
      </trkpt>
      <trkpt lat="62.635832663806" lon="17.98603440877">
        <ele>82.6</ele>
        <time>2018-03-18T10:03:09Z</time>
      </trkpt>
      <trkpt lat="62.635807518106" lon="17.986047484534">
        <ele>82.8</ele>
        <time>2018-03-18T10:03:10Z</time>
      </trkpt>
      <trkpt lat="62.63577952256" lon="17.986072378777">
        <ele>83</ele>
        <time>2018-03-18T10:03:11Z</time>
      </trkpt>
      <trkpt lat="62.635755550326" lon="17.986094087898">
        <ele>83.2</ele>
        <time>2018-03-18T10:03:12Z</time>
      </trkpt>
      <trkpt lat="62.635731410454" lon="17.986118814503">
        <ele>83.2</ele>
        <time>2018-03-18T10:03:13Z</time>
      </trkpt>
      <trkpt lat="62.635711964446" lon="17.986160304908">
        <ele>83.4</ele>
        <time>2018-03-18T10:03:14Z</time>
      </trkpt>
      <trkpt lat="62.635694278637" lon="17.986194586879">
        <ele>83.4</ele>
        <time>2018-03-18T10:03:15Z</time>
      </trkpt>
      <trkpt lat="62.635673323887" lon="17.986227863022">
        <ele>83.6</ele>
        <time>2018-03-18T10:03:16Z</time>
      </trkpt>
      <trkpt lat="62.635658068829" lon="17.986264156649">
        <ele>83.6</ele>
        <time>2018-03-18T10:03:17Z</time>
      </trkpt>
      <trkpt lat="62.635639796287" lon="17.986301120828">
        <ele>83.8</ele>
        <time>2018-03-18T10:03:18Z</time>
      </trkpt>
      <trkpt lat="62.635618422442" lon="17.986336743903">
        <ele>83.8</ele>
        <time>2018-03-18T10:03:19Z</time>
      </trkpt>
      <trkpt lat="62.635603837936" lon="17.986377060842">
        <ele>84</ele>
        <time>2018-03-18T10:03:20Z</time>
      </trkpt>
      <trkpt lat="62.63558841524" lon="17.986422909835">
        <ele>84.2</ele>
        <time>2018-03-18T10:03:21Z</time>
      </trkpt>
      <trkpt lat="62.635570477974" lon="17.986462640041">
        <ele>84.4</ele>
        <time>2018-03-18T10:03:22Z</time>
      </trkpt>
      <trkpt lat="62.635555306735" lon="17.986508740491">
        <ele>84.6</ele>
        <time>2018-03-18T10:03:23Z</time>
      </trkpt>
      <trkpt lat="62.63553812384" lon="17.986558193701">
        <ele>84.8</ele>
        <time>2018-03-18T10:03:24Z</time>
      </trkpt>
      <trkpt lat="62.635520857126" lon="17.986600270839">
        <ele>84.8</ele>
        <time>2018-03-18T10:03:25Z</time>
      </trkpt>
      <trkpt lat="62.635509541561" lon="17.986646455108">
        <ele>85</ele>
        <time>2018-03-18T10:03:26Z</time>
      </trkpt>
      <trkpt lat="62.635497974539" lon="17.986691633549">
        <ele>85.2</ele>
        <time>2018-03-18T10:03:27Z</time>
      </trkpt>
      <trkpt lat="62.635488000078" lon="17.98674016475">
        <ele>85.2</ele>
        <time>2018-03-18T10:03:28Z</time>
      </trkpt>
      <trkpt lat="62.635474756676" lon="17.986775620187">
        <ele>85.4</ele>
        <time>2018-03-18T10:03:29Z</time>
      </trkpt>
      <trkpt lat="62.635471823011" lon="17.986824067569">
        <ele>85.6</ele>
        <time>2018-03-18T10:03:30Z</time>
      </trkpt>
      <trkpt lat="62.635459501618" lon="17.986874694245">
        <ele>85.6</ele>
        <time>2018-03-18T10:03:31Z</time>
      </trkpt>
      <trkpt lat="62.63543837923" lon="17.986913586261">
        <ele>85.6</ele>
        <time>2018-03-18T10:03:32Z</time>
      </trkpt>
      <trkpt lat="62.63541910086" lon="17.986949293155">
        <ele>85.8</ele>
        <time>2018-03-18T10:03:33Z</time>
      </trkpt>
      <trkpt lat="62.635396972644" lon="17.986983072212">
        <ele>85.8</ele>
        <time>2018-03-18T10:03:34Z</time>
      </trkpt>
      <trkpt lat="62.635383980699" lon="17.987030765223">
        <ele>86</ele>
        <time>2018-03-18T10:03:35Z</time>
      </trkpt>
      <trkpt lat="62.635370988754" lon="17.987080972804">
        <ele>86</ele>
        <time>2018-03-18T10:03:36Z</time>
      </trkpt>
      <trkpt lat="62.635362523035" lon="17.987137047715">
        <ele>86</ele>
        <time>2018-03-18T10:03:37Z</time>
      </trkpt>
      <trkpt lat="62.635347938529" lon="17.987181387966">
        <ele>86.2</ele>
        <time>2018-03-18T10:03:38Z</time>
      </trkpt>
      <trkpt lat="62.635328743978" lon="17.987224722389">
        <ele>86.4</ele>
        <time>2018-03-18T10:03:39Z</time>
      </trkpt>
      <trkpt lat="62.635312315454" lon="17.987262776215">
        <ele>86.4</ele>
        <time>2018-03-18T10:03:40Z</time>
      </trkpt>
      <trkpt lat="62.635291109247" lon="17.987300830041">
        <ele>86.6</ele>
        <time>2018-03-18T10:03:41Z</time>
      </trkpt>
      <trkpt lat="62.635276273284" lon="17.987356150581">
        <ele>86.6</ele>
        <time>2018-03-18T10:03:42Z</time>
      </trkpt>
      <trkpt lat="62.635254564163" lon="17.98740149666">
        <ele>86.8</ele>
        <time>2018-03-18T10:03:43Z</time>
      </trkpt>
      <trkpt lat="62.635233944689" lon="17.987450027861">
        <ele>86.8</ele>
        <time>2018-03-18T10:03:44Z</time>
      </trkpt>
      <trkpt lat="62.635215336871" lon="17.987485483298">
        <ele>86.8</ele>
        <time>2018-03-18T10:03:45Z</time>
      </trkpt>
      <trkpt lat="62.635197986338" lon="17.987537870173">
        <ele>87</ele>
        <time>2018-03-18T10:03:46Z</time>
      </trkpt>
      <trkpt lat="62.635184156203" lon="17.987584724994">
        <ele>87</ele>
        <time>2018-03-18T10:03:47Z</time>
      </trkpt>
      <trkpt lat="62.63517518757" lon="17.987645326131">
        <ele>87.2</ele>
        <time>2018-03-18T10:03:48Z</time>
      </trkpt>
      <trkpt lat="62.635165296928" lon="17.98769570135">
        <ele>87.2</ele>
        <time>2018-03-18T10:03:49Z</time>
      </trkpt>
      <trkpt lat="62.635159764874" lon="17.98774766913">
        <ele>87.2</ele>
        <time>2018-03-18T10:03:50Z</time>
      </trkpt>
      <trkpt lat="62.635158759046" lon="17.987796954702">
        <ele>87.2</ele>
        <time>2018-03-18T10:03:51Z</time>
      </trkpt>
      <trkpt lat="62.635150460965" lon="17.987849341577">
        <ele>87.2</ele>
        <time>2018-03-18T10:03:52Z</time>
      </trkpt>
      <trkpt lat="62.635138977762" lon="17.987903237194">
        <ele>87.4</ele>
        <time>2018-03-18T10:03:53Z</time>
      </trkpt>
      <trkpt lat="62.635131266414" lon="17.987944476142">
        <ele>87.6</ele>
        <time>2018-03-18T10:03:54Z</time>
      </trkpt>
      <trkpt lat="62.635120034668" lon="17.988006334564">
        <ele>87.6</ele>
        <time>2018-03-18T10:03:55Z</time>
      </trkpt>
      <trkpt lat="62.6351139997" lon="17.988056039231">
        <ele>87.8</ele>
        <time>2018-03-18T10:03:56Z</time>
      </trkpt>
      <trkpt lat="62.635094805149" lon="17.988111862685">
        <ele>88.2</ele>
        <time>2018-03-18T10:03:57Z</time>
      </trkpt>
      <trkpt lat="62.635085082145" lon="17.988169446338">
        <ele>88.2</ele>
        <time>2018-03-18T10:03:58Z</time>
      </trkpt>
      <trkpt lat="62.635069659449" lon="17.988213199856">
        <ele>88.2</ele>
        <time>2018-03-18T10:03:59Z</time>
      </trkpt>
      <trkpt lat="62.635046776862" lon="17.988251505139">
        <ele>88.2</ele>
        <time>2018-03-18T10:04:00Z</time>
      </trkpt>
      <trkpt lat="62.635023558999" lon="17.988284362187">
        <ele>88.4</ele>
        <time>2018-03-18T10:04:01Z</time>
      </trkpt>
      <trkpt lat="62.635002771887" lon="17.988319985262">
        <ele>88.6</ele>
        <time>2018-03-18T10:04:02Z</time>
      </trkpt>
      <trkpt lat="62.634979302567" lon="17.988355189242">
        <ele>88.8</ele>
        <time>2018-03-18T10:04:03Z</time>
      </trkpt>
      <trkpt lat="62.634956336161" lon="17.988387375738">
        <ele>89</ele>
        <time>2018-03-18T10:04:04Z</time>
      </trkpt>
      <trkpt lat="62.634933705031" lon="17.988411934705">
        <ele>89</ele>
        <time>2018-03-18T10:04:05Z</time>
      </trkpt>
      <trkpt lat="62.634902524363" lon="17.98843833769">
        <ele>89.2</ele>
        <time>2018-03-18T10:04:06Z</time>
      </trkpt>
      <trkpt lat="62.63487679193" lon="17.988463567209">
        <ele>89.4</ele>
        <time>2018-03-18T10:04:07Z</time>
      </trkpt>
      <trkpt lat="62.634851730049" lon="17.988473960765">
        <ele>89.4</ele>
        <time>2018-03-18T10:04:08Z</time>
      </trkpt>
      <trkpt lat="62.63482482415" lon="17.988487371805">
        <ele>89.6</ele>
        <time>2018-03-18T10:04:09Z</time>
      </trkpt>
      <trkpt lat="62.634803115029" lon="17.988508410374">
        <ele>89.8</ele>
        <time>2018-03-18T10:04:10Z</time>
      </trkpt>
      <trkpt lat="62.634778304605" lon="17.988524838898">
        <ele>89.8</ele>
        <time>2018-03-18T10:04:11Z</time>
      </trkpt>
      <trkpt lat="62.634751985439" lon="17.988544704001">
        <ele>90</ele>
        <time>2018-03-18T10:04:12Z</time>
      </trkpt>
      <trkpt lat="62.634728180843" lon="17.988556187204">
        <ele>90</ele>
        <time>2018-03-18T10:04:13Z</time>
      </trkpt>
      <trkpt lat="62.634706471722" lon="17.988578399239">
        <ele>90.2</ele>
        <time>2018-03-18T10:04:14Z</time>
      </trkpt>
      <trkpt lat="62.634683924411" lon="17.988596336505">
        <ele>90.2</ele>
        <time>2018-03-18T10:04:15Z</time>
      </trkpt>
      <trkpt lat="62.634656012684" lon="17.988614944323">
        <ele>90.2</ele>
        <time>2018-03-18T10:04:16Z</time>
      </trkpt>
      <trkpt lat="62.634634722658" lon="17.988635647616">
        <ele>90.4</ele>
        <time>2018-03-18T10:04:17Z</time>
      </trkpt>
      <trkpt lat="62.634611001881" lon="17.988652243778">
        <ele>90.4</ele>
        <time>2018-03-18T10:04:18Z</time>
      </trkpt>
      <trkpt lat="62.634589963312" lon="17.98866800175">
        <ele>90.6</ele>
        <time>2018-03-18T10:04:19Z</time>
      </trkpt>
      <trkpt lat="62.634575127349" lon="17.988681915704">
        <ele>91</ele>
        <time>2018-03-18T10:04:20Z</time>
      </trkpt>
      <trkpt lat="62.634557860635" lon="17.98869566202">
        <ele>91</ele>
        <time>2018-03-18T10:04:21Z</time>
      </trkpt>
      <trkpt lat="62.634539588093" lon="17.988713012553">
        <ele>91.2</ele>
        <time>2018-03-18T10:04:22Z</time>
      </trkpt>
      <trkpt lat="62.634521734646" lon="17.988737906796">
        <ele>91.4</ele>
        <time>2018-03-18T10:04:23Z</time>
      </trkpt>
      <trkpt lat="62.634498432964" lon="17.988775457708">
        <ele>91.6</ele>
        <time>2018-03-18T10:04:24Z</time>
      </trkpt>
      <trkpt lat="62.634475382739" lon="17.988822647805">
        <ele>91.6</ele>
        <time>2018-03-18T10:04:25Z</time>
      </trkpt>
      <trkpt lat="62.634451997238" lon="17.988865227857">
        <ele>91.6</ele>
        <time>2018-03-18T10:04:26Z</time>
      </trkpt>
      <trkpt lat="62.634430623393" lon="17.988903030226">
        <ele>91.8</ele>
        <time>2018-03-18T10:04:27Z</time>
      </trkpt>
      <trkpt lat="62.634418302" lon="17.988937396016">
        <ele>91.8</ele>
        <time>2018-03-18T10:04:28Z</time>
      </trkpt>
      <trkpt lat="62.634404220408" lon="17.988965643019">
        <ele>91.8</ele>
        <time>2018-03-18T10:04:29Z</time>
      </trkpt>
      <trkpt lat="62.634386869875" lon="17.989007552519">
        <ele>91.8</ele>
        <time>2018-03-18T10:04:30Z</time>
      </trkpt>
      <trkpt lat="62.634369603161" lon="17.98905189277">
        <ele>92</ele>
        <time>2018-03-18T10:04:31Z</time>
      </trkpt>
      <trkpt lat="62.634346888212" lon="17.989094221365">
        <ele>92</ele>
        <time>2018-03-18T10:04:32Z</time>
      </trkpt>
      <trkpt lat="62.63433029205" lon="17.989128084241">
        <ele>92.2</ele>
        <time>2018-03-18T10:04:33Z</time>
      </trkpt>
      <trkpt lat="62.634311600413" lon="17.989156498882">
        <ele>92.2</ele>
        <time>2018-03-18T10:04:34Z</time>
      </trkpt>
      <trkpt lat="62.634291064758" lon="17.989185667894">
        <ele>92.4</ele>
        <time>2018-03-18T10:04:35Z</time>
      </trkpt>
      <trkpt lat="62.634272205483" lon="17.989220201322">
        <ele>92.4</ele>
        <time>2018-03-18T10:04:36Z</time>
      </trkpt>
      <trkpt lat="62.634256866606" lon="17.989238054769">
        <ele>92.6</ele>
        <time>2018-03-18T10:04:37Z</time>
      </trkpt>
      <trkpt lat="62.634236498589" lon="17.989256159673">
        <ele>92.6</ele>
        <time>2018-03-18T10:04:38Z</time>
      </trkpt>
      <trkpt lat="62.63421965097" lon="17.989275354224">
        <ele>92.6</ele>
        <time>2018-03-18T10:04:39Z</time>
      </trkpt>
      <trkpt lat="62.634201629885" lon="17.989294800232">
        <ele>93</ele>
        <time>2018-03-18T10:04:40Z</time>
      </trkpt>
      <trkpt lat="62.634180088402" lon="17.989320616484">
        <ele>93</ele>
        <time>2018-03-18T10:04:41Z</time>
      </trkpt>
      <trkpt lat="62.634160642394" lon="17.989341655053">
        <ele>93.2</ele>
        <time>2018-03-18T10:04:42Z</time>
      </trkpt>
      <trkpt lat="62.634143040404" lon="17.989359592319">
        <ele>93.2</ele>
        <time>2018-03-18T10:04:43Z</time>
      </trkpt>
      <trkpt lat="62.634127952984" lon="17.989383061639">
        <ele>93.2</ele>
        <time>2018-03-18T10:04:44Z</time>
      </trkpt>
      <trkpt lat="62.63411236265" lon="17.989410386633">
        <ele>93.2</ele>
        <time>2018-03-18T10:04:45Z</time>
      </trkpt>
      <trkpt lat="62.634090904986" lon="17.9894433275">
        <ele>93.4</ele>
        <time>2018-03-18T10:04:46Z</time>
      </trkpt>
      <trkpt lat="62.634071878073" lon="17.989468640838">
        <ele>93.2</ele>
        <time>2018-03-18T10:04:47Z</time>
      </trkpt>
      <trkpt lat="62.634049666038" lon="17.989496468746">
        <ele>93.4</ele>
        <time>2018-03-18T10:04:48Z</time>
      </trkpt>
      <trkpt lat="62.634031728772" lon="17.989517423496">
        <ele>93.4</ele>
        <time>2018-03-18T10:04:49Z</time>
      </trkpt>
      <trkpt lat="62.634013791506" lon="17.989535863676">
        <ele>93.4</ele>
        <time>2018-03-18T10:04:50Z</time>
      </trkpt>
      <trkpt lat="62.633999877552" lon="17.989550280544">
        <ele>93.6</ele>
        <time>2018-03-18T10:04:51Z</time>
      </trkpt>
      <trkpt lat="62.633987723797" lon="17.989569056">
        <ele>93.6</ele>
        <time>2018-03-18T10:04:52Z</time>
      </trkpt>
      <trkpt lat="62.633973977481" lon="17.989590262207">
        <ele>93.8</ele>
        <time>2018-03-18T10:04:53Z</time>
      </trkpt>
      <trkpt lat="62.633954112378" lon="17.989610462586">
        <ele>94</ele>
        <time>2018-03-18T10:04:54Z</time>
      </trkpt>
      <trkpt lat="62.633938605863" lon="17.989624879454">
        <ele>94.2</ele>
        <time>2018-03-18T10:04:55Z</time>
      </trkpt>
      <trkpt lat="62.633914717448" lon="17.989648097317">
        <ele>94.4</ele>
        <time>2018-03-18T10:04:56Z</time>
      </trkpt>
      <trkpt lat="62.633892170137" lon="17.989674500302">
        <ele>94.4</ele>
        <time>2018-03-18T10:04:57Z</time>
      </trkpt>
      <trkpt lat="62.633869455188" lon="17.989701322382">
        <ele>94.6</ele>
        <time>2018-03-18T10:04:58Z</time>
      </trkpt>
      <trkpt lat="62.633850763551" lon="17.989725965168">
        <ele>94.6</ele>
        <time>2018-03-18T10:04:59Z</time>
      </trkpt>
      <trkpt lat="62.633833161561" lon="17.989754463628">
        <ele>94.8</ele>
        <time>2018-03-18T10:05:00Z</time>
      </trkpt>
      <trkpt lat="62.633808686413" lon="17.989798384784">
        <ele>95</ele>
        <time>2018-03-18T10:05:01Z</time>
      </trkpt>
      <trkpt lat="62.633794772459" lon="17.98982638033">
        <ele>95</ele>
        <time>2018-03-18T10:05:02Z</time>
      </trkpt>
      <trkpt lat="62.633775829365" lon="17.989864266518">
        <ele>95</ele>
        <time>2018-03-18T10:05:03Z</time>
      </trkpt>
      <trkpt lat="62.633755880443" lon="17.989907768579">
        <ele>95</ele>
        <time>2018-03-18T10:05:04Z</time>
      </trkpt>
      <trkpt lat="62.633741631213" lon="17.989948923708">
        <ele>95.2</ele>
        <time>2018-03-18T10:05:05Z</time>
      </trkpt>
      <trkpt lat="62.633720844101" lon="17.989998879832">
        <ele>95</ele>
        <time>2018-03-18T10:05:06Z</time>
      </trkpt>
      <trkpt lat="62.633703661206" lon="17.990036682201">
        <ele>95</ele>
        <time>2018-03-18T10:05:07Z</time>
      </trkpt>
      <trkpt lat="62.633689747252" lon="17.99006610267">
        <ele>95</ele>
        <time>2018-03-18T10:05:08Z</time>
      </trkpt>
      <trkpt lat="62.633670049787" lon="17.990104994686">
        <ele>95</ele>
        <time>2018-03-18T10:05:09Z</time>
      </trkpt>
      <trkpt lat="62.633651190512" lon="17.990146485091">
        <ele>95.2</ele>
        <time>2018-03-18T10:05:10Z</time>
      </trkpt>
      <trkpt lat="62.633634678169" lon="17.990178755406">
        <ele>95.2</ele>
        <time>2018-03-18T10:05:11Z</time>
      </trkpt>
      <trkpt lat="62.633618249645" lon="17.990210606626">
        <ele>95.2</ele>
        <time>2018-03-18T10:05:12Z</time>
      </trkpt>
      <trkpt lat="62.633599809465" lon="17.990234914136">
        <ele>95.4</ele>
        <time>2018-03-18T10:05:13Z</time>
      </trkpt>
      <trkpt lat="62.633579441448" lon="17.990260981845">
        <ele>95.4</ele>
        <time>2018-03-18T10:05:14Z</time>
      </trkpt>
      <trkpt lat="62.633557732327" lon="17.990283110061">
        <ele>95.4</ele>
        <time>2018-03-18T10:05:15Z</time>
      </trkpt>
      <trkpt lat="62.633535604111" lon="17.990300879689">
        <ele>95.6</ele>
        <time>2018-03-18T10:05:16Z</time>
      </trkpt>
      <trkpt lat="62.633515739008" lon="17.990320158059">
        <ele>95.6</ele>
        <time>2018-03-18T10:05:17Z</time>
      </trkpt>
      <trkpt lat="62.63349545481" lon="17.990339017334">
        <ele>95.8</ele>
        <time>2018-03-18T10:05:18Z</time>
      </trkpt>
      <trkpt lat="62.633467962178" lon="17.990360642636">
        <ele>96</ele>
        <time>2018-03-18T10:05:19Z</time>
      </trkpt>
      <trkpt lat="62.63344432522" lon="17.990375646237">
        <ele>96.2</ele>
        <time>2018-03-18T10:05:20Z</time>
      </trkpt>
      <trkpt lat="62.633421274995" lon="17.990394589331">
        <ele>96.2</ele>
        <time>2018-03-18T10:05:21Z</time>
      </trkpt>
      <trkpt lat="62.633394117639" lon="17.990413280968">
        <ele>96.2</ele>
        <time>2018-03-18T10:05:22Z</time>
      </trkpt>
      <trkpt lat="62.633371570328" lon="17.99042652437">
        <ele>96.4</ele>
        <time>2018-03-18T10:05:23Z</time>
      </trkpt>
      <trkpt lat="62.633342317497" lon="17.990443623446">
        <ele>96.6</ele>
        <time>2018-03-18T10:05:24Z</time>
      </trkpt>
      <trkpt lat="62.633318009987" lon="17.990464410558">
        <ele>96.6</ele>
        <time>2018-03-18T10:05:25Z</time>
      </trkpt>
      <trkpt lat="62.633298815436" lon="17.99048100672">
        <ele>96.6</ele>
        <time>2018-03-18T10:05:26Z</time>
      </trkpt>
      <trkpt lat="62.633274675564" lon="17.990503386393">
        <ele>96.4</ele>
        <time>2018-03-18T10:05:27Z</time>
      </trkpt>
      <trkpt lat="62.633252798805" lon="17.990539009468">
        <ele>96.4</ele>
        <time>2018-03-18T10:05:28Z</time>
      </trkpt>
      <trkpt lat="62.633231089684" lon="17.990571615059">
        <ele>96.2</ele>
        <time>2018-03-18T10:05:29Z</time>
      </trkpt>
      <trkpt lat="62.633209045287" lon="17.990607992505">
        <ele>96.2</ele>
        <time>2018-03-18T10:05:30Z</time>
      </trkpt>
      <trkpt lat="62.633189264003" lon="17.990646800702">
        <ele>96.2</ele>
        <time>2018-03-18T10:05:31Z</time>
      </trkpt>
      <trkpt lat="62.633167806339" lon="17.990685105985">
        <ele>96.2</ele>
        <time>2018-03-18T10:05:32Z</time>
      </trkpt>
      <trkpt lat="62.633146683951" lon="17.990724668553">
        <ele>96.2</ele>
        <time>2018-03-18T10:05:33Z</time>
      </trkpt>
      <trkpt lat="62.633132853816" lon="17.990754759574">
        <ele>96.2</ele>
        <time>2018-03-18T10:05:34Z</time>
      </trkpt>
      <trkpt lat="62.633117012025" lon="17.990791723753">
        <ele>96.2</ele>
        <time>2018-03-18T10:05:35Z</time>
      </trkpt>
      <trkpt lat="62.633103768623" lon="17.990841176963">
        <ele>96.2</ele>
        <time>2018-03-18T10:05:36Z</time>
      </trkpt>
      <trkpt lat="62.633087004823" lon="17.990889372888">
        <ele>96.2</ele>
        <time>2018-03-18T10:05:37Z</time>
      </trkpt>
      <trkpt lat="62.633074348154" lon="17.990933545501">
        <ele>96</ele>
        <time>2018-03-18T10:05:38Z</time>
      </trkpt>
      <trkpt lat="62.633062194399" lon="17.990972940431">
        <ele>96</ele>
        <time>2018-03-18T10:05:39Z</time>
      </trkpt>
      <trkpt lat="62.633046520246" lon="17.991022645098">
        <ele>96.2</ele>
        <time>2018-03-18T10:05:40Z</time>
      </trkpt>
      <trkpt lat="62.633036378147" lon="17.99106773972">
        <ele>96.4</ele>
        <time>2018-03-18T10:05:41Z</time>
      </trkpt>
      <trkpt lat="62.633016596863" lon="17.991120713328">
        <ele>96.2</ele>
        <time>2018-03-18T10:05:42Z</time>
      </trkpt>
      <trkpt lat="62.632992792267" lon="17.991173435479">
        <ele>96.2</ele>
        <time>2018-03-18T10:05:43Z</time>
      </trkpt>
      <trkpt lat="62.632977537209" lon="17.991206543984">
        <ele>96.2</ele>
        <time>2018-03-18T10:05:44Z</time>
      </trkpt>
      <trkpt lat="62.632958761753" lon="17.991250632778">
        <ele>96.2</ele>
        <time>2018-03-18T10:05:45Z</time>
      </trkpt>
      <trkpt lat="62.632939399564" lon="17.991302349101">
        <ele>96.2</ele>
        <time>2018-03-18T10:05:46Z</time>
      </trkpt>
      <trkpt lat="62.632922468126" lon="17.991346689352">
        <ele>96.2</ele>
        <time>2018-03-18T10:05:47Z</time>
      </trkpt>
      <trkpt lat="62.63289614896" lon="17.991406117023">
        <ele>96.4</ele>
        <time>2018-03-18T10:05:48Z</time>
      </trkpt>
      <trkpt lat="62.632874858934" lon="17.991455234957">
        <ele>96.4</ele>
        <time>2018-03-18T10:05:49Z</time>
      </trkpt>
      <trkpt lat="62.632852814537" lon="17.991499072294">
        <ele>96.4</ele>
        <time>2018-03-18T10:05:50Z</time>
      </trkpt>
      <trkpt lat="62.632832027425" lon="17.991549279875">
        <ele>96.4</ele>
        <time>2018-03-18T10:05:51Z</time>
      </trkpt>
      <trkpt lat="62.632812413779" lon="17.991603007854">
        <ele>96.2</ele>
        <time>2018-03-18T10:05:52Z</time>
      </trkpt>
      <trkpt lat="62.632789615011" lon="17.99165363453">
        <ele>96.2</ele>
        <time>2018-03-18T10:05:53Z</time>
      </trkpt>
      <trkpt lat="62.632774946686" lon="17.991703758292">
        <ele>96.2</ele>
        <time>2018-03-18T10:05:54Z</time>
      </trkpt>
      <trkpt lat="62.632761870922" lon="17.991750361656">
        <ele>96</ele>
        <time>2018-03-18T10:05:55Z</time>
      </trkpt>
      <trkpt lat="62.632746532045" lon="17.991806855662">
        <ele>96</ele>
        <time>2018-03-18T10:05:56Z</time>
      </trkpt>
      <trkpt lat="62.632742005819" lon="17.991871228654">
        <ele>96</ele>
        <time>2018-03-18T10:05:57Z</time>
      </trkpt>
      <trkpt lat="62.632748711339" lon="17.991936272198">
        <ele>95.8</ele>
        <time>2018-03-18T10:05:58Z</time>
      </trkpt>
      <trkpt lat="62.632762373836" lon="17.991990000177">
        <ele>95.6</ele>
        <time>2018-03-18T10:05:59Z</time>
      </trkpt>
      <trkpt lat="62.632782322758" lon="17.992025036519">
        <ele>95.6</ele>
        <time>2018-03-18T10:06:00Z</time>
      </trkpt>
      <trkpt lat="62.632808725743" lon="17.992038447559">
        <ele>95.4</ele>
        <time>2018-03-18T10:06:01Z</time>
      </trkpt>
      <trkpt lat="62.632834877271" lon="17.992046997097">
        <ele>95.4</ele>
        <time>2018-03-18T10:06:02Z</time>
      </trkpt>
      <trkpt lat="62.632862872817" lon="17.992057809748">
        <ele>95.2</ele>
        <time>2018-03-18T10:06:03Z</time>
      </trkpt>
      <trkpt lat="62.632886845051" lon="17.992069460589">
        <ele>95.2</ele>
        <time>2018-03-18T10:06:04Z</time>
      </trkpt>
      <trkpt lat="62.632909057086" lon="17.992078261584">
        <ele>95.2</ele>
        <time>2018-03-18T10:06:05Z</time>
      </trkpt>
      <trkpt lat="62.632935962985" lon="17.992091002072">
        <ele>95.2</ele>
        <time>2018-03-18T10:06:06Z</time>
      </trkpt>
      <trkpt lat="62.632957085373" lon="17.992099216334">
        <ele>95.4</ele>
        <time>2018-03-18T10:06:07Z</time>
      </trkpt>
      <trkpt lat="62.632982733987" lon="17.992116902143">
        <ele>95.8</ele>
        <time>2018-03-18T10:06:08Z</time>
      </trkpt>
      <trkpt lat="62.633002012357" lon="17.992133246848">
        <ele>96</ele>
        <time>2018-03-18T10:06:09Z</time>
      </trkpt>
      <trkpt lat="62.633027912428" lon="17.992152022304">
        <ele>96.4</ele>
        <time>2018-03-18T10:06:10Z</time>
      </trkpt>
      <trkpt lat="62.633058087268" lon="17.992174821072">
        <ele>96.6</ele>
        <time>2018-03-18T10:06:11Z</time>
      </trkpt>
      <trkpt lat="62.633088681203" lon="17.992198038935">
        <ele>96.8</ele>
        <time>2018-03-18T10:06:12Z</time>
      </trkpt>
      <trkpt lat="62.633122711717" lon="17.992218993685">
        <ele>96.8</ele>
        <time>2018-03-18T10:06:13Z</time>
      </trkpt>
      <trkpt lat="62.633150288168" lon="17.992227710861">
        <ele>96.8</ele>
        <time>2018-03-18T10:06:14Z</time>
      </trkpt>
      <trkpt lat="62.633179708637" lon="17.992246402498">
        <ele>96.8</ele>
        <time>2018-03-18T10:06:15Z</time>
      </trkpt>
      <trkpt lat="62.633211811314" lon="17.992247575964">
        <ele>96.6</ele>
        <time>2018-03-18T10:06:16Z</time>
      </trkpt>
      <trkpt lat="62.633241399421" lon="17.992251012543">
        <ele>96.6</ele>
        <time>2018-03-18T10:06:17Z</time>
      </trkpt>
      <trkpt lat="62.633272077175" lon="17.992258304796">
        <ele>96.6</ele>
        <time>2018-03-18T10:06:18Z</time>
      </trkpt>
      <trkpt lat="62.633304598947" lon="17.992264172126">
        <ele>96.6</ele>
        <time>2018-03-18T10:06:19Z</time>
      </trkpt>
      <trkpt lat="62.633335695796" lon="17.992283366677">
        <ele>96.6</ele>
        <time>2018-03-18T10:06:20Z</time>
      </trkpt>
      <trkpt lat="62.63337307907" lon="17.992304489065">
        <ele>96.6</ele>
        <time>2018-03-18T10:06:21Z</time>
      </trkpt>
      <trkpt lat="62.633409205059" lon="17.992329970041">
        <ele>96.6</ele>
        <time>2018-03-18T10:06:22Z</time>
      </trkpt>
      <trkpt lat="62.633444911953" lon="17.992358217044">
        <ele>96.4</ele>
        <time>2018-03-18T10:06:23Z</time>
      </trkpt>
      <trkpt lat="62.633480283571" lon="17.99239459449">
        <ele>95.8</ele>
        <time>2018-03-18T10:06:24Z</time>
      </trkpt>
      <trkpt lat="62.633514900818" lon="17.992422590036">
        <ele>95.2</ele>
        <time>2018-03-18T10:06:25Z</time>
      </trkpt>
      <trkpt lat="62.63355161354" lon="17.992469612495">
        <ele>94.4</ele>
        <time>2018-03-18T10:06:26Z</time>
      </trkpt>
      <trkpt lat="62.633583967674" lon="17.992513701289">
        <ele>94</ele>
        <time>2018-03-18T10:06:27Z</time>
      </trkpt>
      <trkpt lat="62.633615986532" lon="17.99256307068">
        <ele>93.6</ele>
        <time>2018-03-18T10:06:28Z</time>
      </trkpt>
      <trkpt lat="62.633641718965" lon="17.992618475039">
        <ele>93.6</ele>
        <time>2018-03-18T10:06:29Z</time>
      </trkpt>
      <trkpt lat="62.633670133606" lon="17.99267119719">
        <ele>93.6</ele>
        <time>2018-03-18T10:06:30Z</time>
      </trkpt>
      <trkpt lat="62.633695614582" lon="17.992740934598">
        <ele>93.6</ele>
        <time>2018-03-18T10:06:31Z</time>
      </trkpt>
      <trkpt lat="62.633727298164" lon="17.99280530759">
        <ele>93.4</ele>
        <time>2018-03-18T10:06:32Z</time>
      </trkpt>
      <trkpt lat="62.633764765257" lon="17.992866579279">
        <ele>93.2</ele>
        <time>2018-03-18T10:06:33Z</time>
      </trkpt>
      <trkpt lat="62.633801142703" lon="17.992932544832">
        <ele>92.8</ele>
        <time>2018-03-18T10:06:34Z</time>
      </trkpt>
      <trkpt lat="62.633836765778" lon="17.99298216568">
        <ele>92.6</ele>
        <time>2018-03-18T10:06:35Z</time>
      </trkpt>
      <trkpt lat="62.633882530952" lon="17.993036731849">
        <ele>92.4</ele>
        <time>2018-03-18T10:06:36Z</time>
      </trkpt>
      <trkpt lat="62.633922764072" lon="17.993087526163">
        <ele>92</ele>
        <time>2018-03-18T10:06:37Z</time>
      </trkpt>
      <trkpt lat="62.633959476794" lon="17.99315148006">
        <ele>91.8</ele>
        <time>2018-03-18T10:06:38Z</time>
      </trkpt>
      <trkpt lat="62.63400004519" lon="17.993209482808">
        <ele>91.6</ele>
        <time>2018-03-18T10:06:39Z</time>
      </trkpt>
      <trkpt lat="62.634037428464" lon="17.993263043149">
        <ele>91.2</ele>
        <time>2018-03-18T10:06:40Z</time>
      </trkpt>
      <trkpt lat="62.634075733747" lon="17.993316519671">
        <ele>91</ele>
        <time>2018-03-18T10:06:41Z</time>
      </trkpt>
      <trkpt lat="62.634120241636" lon="17.993374187143">
        <ele>90.8</ele>
        <time>2018-03-18T10:06:42Z</time>
      </trkpt>
      <trkpt lat="62.634165252439" lon="17.993413079159">
        <ele>90.6</ele>
        <time>2018-03-18T10:06:43Z</time>
      </trkpt>
      <trkpt lat="62.634209425052" lon="17.99344484656">
        <ele>90.2</ele>
        <time>2018-03-18T10:06:44Z</time>
      </trkpt>
      <trkpt lat="62.634251166914" lon="17.993470495174">
        <ele>90.2</ele>
        <time>2018-03-18T10:06:45Z</time>
      </trkpt>
      <trkpt lat="62.634300033391" lon="17.993502011118">
        <ele>89.8</ele>
        <time>2018-03-18T10:06:46Z</time>
      </trkpt>
      <trkpt lat="62.634345630927" lon="17.993529168474">
        <ele>89.4</ele>
        <time>2018-03-18T10:06:47Z</time>
      </trkpt>
      <trkpt lat="62.634395838508" lon="17.993557331658">
        <ele>89</ele>
        <time>2018-03-18T10:06:48Z</time>
      </trkpt>
      <trkpt lat="62.634443363881" lon="17.993585913937">
        <ele>88.8</ele>
        <time>2018-03-18T10:06:49Z</time>
      </trkpt>
      <trkpt lat="62.634490302521" lon="17.993615166768">
        <ele>88.4</ele>
        <time>2018-03-18T10:06:50Z</time>
      </trkpt>
      <trkpt lat="62.634549981649" lon="17.993642743219">
        <ele>87.8</ele>
        <time>2018-03-18T10:06:51Z</time>
      </trkpt>
      <trkpt lat="62.634609157863" lon="17.993666631634">
        <ele>87.4</ele>
        <time>2018-03-18T10:06:52Z</time>
      </trkpt>
      <trkpt lat="62.63466556805" lon="17.993682641063">
        <ele>86.8</ele>
        <time>2018-03-18T10:06:53Z</time>
      </trkpt>
      <trkpt lat="62.634726504463" lon="17.993702841442">
        <ele>86.2</ele>
        <time>2018-03-18T10:06:54Z</time>
      </trkpt>
      <trkpt lat="62.634769000696" lon="17.993715330473">
        <ele>86</ele>
        <time>2018-03-18T10:06:55Z</time>
      </trkpt>
      <trkpt lat="62.63482650053" lon="17.993720275794">
        <ele>85.6</ele>
        <time>2018-03-18T10:06:56Z</time>
      </trkpt>
      <trkpt lat="62.63488182107" lon="17.993719605242">
        <ele>85.4</ele>
        <time>2018-03-18T10:06:57Z</time>
      </trkpt>
      <trkpt lat="62.634931106642" lon="17.993724215287">
        <ele>85</ele>
        <time>2018-03-18T10:06:58Z</time>
      </trkpt>
      <trkpt lat="62.634976704178" lon="17.993729914979">
        <ele>84.8</ele>
        <time>2018-03-18T10:06:59Z</time>
      </trkpt>
      <trkpt lat="62.635018613678" lon="17.9937432422">
        <ele>84.2</ele>
        <time>2018-03-18T10:07:00Z</time>
      </trkpt>
      <trkpt lat="62.635070497639" lon="17.993759083991">
        <ele>83.8</ele>
        <time>2018-03-18T10:07:01Z</time>
      </trkpt>
      <trkpt lat="62.635119196478" lon="17.99376671152">
        <ele>83.4</ele>
        <time>2018-03-18T10:07:02Z</time>
      </trkpt>
      <trkpt lat="62.635168314412" lon="17.993766543882">
        <ele>83.2</ele>
        <time>2018-03-18T10:07:03Z</time>
      </trkpt>
      <trkpt lat="62.635221874753" lon="17.993774925782">
        <ele>82.6</ele>
        <time>2018-03-18T10:07:04Z</time>
      </trkpt>
      <trkpt lat="62.635270573592" lon="17.993782553311">
        <ele>82</ele>
        <time>2018-03-18T10:07:05Z</time>
      </trkpt>
      <trkpt lat="62.635324553028" lon="17.993788085365">
        <ele>81.4</ele>
        <time>2018-03-18T10:07:06Z</time>
      </trkpt>
      <trkpt lat="62.635372581315" lon="17.99378766627">
        <ele>80.4</ele>
        <time>2018-03-18T10:07:07Z</time>
      </trkpt>
      <trkpt lat="62.635423710905" lon="17.993784816424">
        <ele>80</ele>
        <time>2018-03-18T10:07:08Z</time>
      </trkpt>
      <trkpt lat="62.635475091952" lon="17.993790935211">
        <ele>80</ele>
        <time>2018-03-18T10:07:09Z</time>
      </trkpt>
      <trkpt lat="62.63552136004" lon="17.993810045943">
        <ele>80</ele>
        <time>2018-03-18T10:07:10Z</time>
      </trkpt>
      <trkpt lat="62.635569053051" lon="17.99382287025">
        <ele>79.8</ele>
        <time>2018-03-18T10:07:11Z</time>
      </trkpt>
      <trkpt lat="62.635621607564" lon="17.993833431444">
        <ele>79.6</ele>
        <time>2018-03-18T10:07:12Z</time>
      </trkpt>
      <trkpt lat="62.635673826801" lon="17.993855308203">
        <ele>79.4</ele>
        <time>2018-03-18T10:07:13Z</time>
      </trkpt>
      <trkpt lat="62.635730823721" lon="17.993889757812">
        <ele>78.6</ele>
        <time>2018-03-18T10:07:14Z</time>
      </trkpt>
      <trkpt lat="62.635780528388" lon="17.993910293467">
        <ele>78.2</ele>
        <time>2018-03-18T10:07:15Z</time>
      </trkpt>
      <trkpt lat="62.635830819788" lon="17.993921357575">
        <ele>78</ele>
        <time>2018-03-18T10:07:16Z</time>
      </trkpt>
      <trkpt lat="62.635878764256" lon="17.993917669539">
        <ele>77.8</ele>
        <time>2018-03-18T10:07:17Z</time>
      </trkpt>
      <trkpt lat="62.635928385104" lon="17.993901743929">
        <ele>77.8</ele>
        <time>2018-03-18T10:07:18Z</time>
      </trkpt>
      <trkpt lat="62.635976078115" lon="17.993881292093">
        <ele>77.8</ele>
        <time>2018-03-18T10:07:19Z</time>
      </trkpt>
      <trkpt lat="62.636022010927" lon="17.993850949615">
        <ele>77.8</ele>
        <time>2018-03-18T10:07:20Z</time>
      </trkpt>
      <trkpt lat="62.636080516589" lon="17.993812392875">
        <ele>77.8</ele>
        <time>2018-03-18T10:07:21Z</time>
      </trkpt>
      <trkpt lat="62.63612904779" lon="17.993772830307">
        <ele>77.8</ele>
        <time>2018-03-18T10:07:22Z</time>
      </trkpt>
      <trkpt lat="62.63616508996" lon="17.993720443432">
        <ele>77</ele>
        <time>2018-03-18T10:07:23Z</time>
      </trkpt>
      <trkpt lat="62.636212447695" lon="17.993664536159">
        <ele>76.6</ele>
        <time>2018-03-18T10:07:24Z</time>
      </trkpt>
      <trkpt lat="62.636255530661" lon="17.993606868687">
        <ele>76.2</ele>
        <time>2018-03-18T10:07:25Z</time>
      </trkpt>
      <trkpt lat="62.636287884795" lon="17.99354459117">
        <ele>75.6</ele>
        <time>2018-03-18T10:07:26Z</time>
      </trkpt>
      <trkpt lat="62.636327363544" lon="17.993481224006">
        <ele>75.2</ele>
        <time>2018-03-18T10:07:27Z</time>
      </trkpt>
      <trkpt lat="62.636366339379" lon="17.993430010597">
        <ele>75.4</ele>
        <time>2018-03-18T10:07:28Z</time>
      </trkpt>
      <trkpt lat="62.636408248879" lon="17.99337779136">
        <ele>75.4</ele>
        <time>2018-03-18T10:07:29Z</time>
      </trkpt>
      <trkpt lat="62.636457953546" lon="17.993317609318">
        <ele>75</ele>
        <time>2018-03-18T10:07:30Z</time>
      </trkpt>
      <trkpt lat="62.636515537199" lon="17.993254661249">
        <ele>74.6</ele>
        <time>2018-03-18T10:07:31Z</time>
      </trkpt>
      <trkpt lat="62.636573037033" lon="17.993197412872">
        <ele>73.6</ele>
        <time>2018-03-18T10:07:32Z</time>
      </trkpt>
      <trkpt lat="62.636626848831" lon="17.993137566106">
        <ele>72.6</ele>
        <time>2018-03-18T10:07:33Z</time>
      </trkpt>
      <trkpt lat="62.636670267073" lon="17.993078473711">
        <ele>71.8</ele>
        <time>2018-03-18T10:07:34Z</time>
      </trkpt>
      <trkpt lat="62.636705890148" lon="17.993019381316">
        <ele>70.8</ele>
        <time>2018-03-18T10:07:35Z</time>
      </trkpt>
      <trkpt lat="62.636732041676" lon="17.992953080487">
        <ele>70.2</ele>
        <time>2018-03-18T10:07:36Z</time>
      </trkpt>
      <trkpt lat="62.636755259539" lon="17.992881666699">
        <ele>70.4</ele>
        <time>2018-03-18T10:07:37Z</time>
      </trkpt>
      <trkpt lat="62.636773699719" lon="17.992805391409">
        <ele>70.4</ele>
        <time>2018-03-18T10:07:38Z</time>
      </trkpt>
      <trkpt lat="62.636791553166" lon="17.992758536588">
        <ele>70.4</ele>
        <time>2018-03-18T10:07:39Z</time>
      </trkpt>
      <trkpt lat="62.636801108532" lon="17.992715788898">
        <ele>70.6</ele>
        <time>2018-03-18T10:07:40Z</time>
      </trkpt>
      <trkpt lat="62.636807814052" lon="17.992668850258">
        <ele>71.2</ele>
        <time>2018-03-18T10:07:41Z</time>
      </trkpt>
      <trkpt lat="62.636815022486" lon="17.992615289917">
        <ele>71.2</ele>
        <time>2018-03-18T10:07:42Z</time>
      </trkpt>
      <trkpt lat="62.636816279771" lon="17.992567010173">
        <ele>71.2</ele>
        <time>2018-03-18T10:07:43Z</time>
      </trkpt>
      <trkpt lat="62.636818459065" lon="17.992519233343">
        <ele>71.2</ele>
        <time>2018-03-18T10:07:44Z</time>
      </trkpt>
      <trkpt lat="62.636821560368" lon="17.992456033817">
        <ele>71</ele>
        <time>2018-03-18T10:07:45Z</time>
      </trkpt>
      <trkpt lat="62.63682642187" lon="17.992384452391">
        <ele>71.2</ele>
        <time>2018-03-18T10:07:46Z</time>
      </trkpt>
      <trkpt lat="62.63683061282" lon="17.992323432159">
        <ele>71.4</ele>
        <time>2018-03-18T10:07:47Z</time>
      </trkpt>
      <trkpt lat="62.636831283372" lon="17.992251515457">
        <ele>71.4</ele>
        <time>2018-03-18T10:07:48Z</time>
      </trkpt>
      <trkpt lat="62.636835809598" lon="17.992189489397">
        <ele>71.8</ele>
        <time>2018-03-18T10:07:49Z</time>
      </trkpt>
      <trkpt lat="62.636841760747" lon="17.992143472766">
        <ele>72</ele>
        <time>2018-03-18T10:07:50Z</time>
      </trkpt>
      <trkpt lat="62.63685408214" lon="17.992087649312">
        <ele>71.8</ele>
        <time>2018-03-18T10:07:51Z</time>
      </trkpt>
      <trkpt lat="62.636866487352" lon="17.992041884138">
        <ele>72</ele>
        <time>2018-03-18T10:07:52Z</time>
      </trkpt>
      <trkpt lat="62.636873444329" lon="17.99199561605">
        <ele>71.8</ele>
        <time>2018-03-18T10:07:53Z</time>
      </trkpt>
      <trkpt lat="62.636889118482" lon="17.99193358999">
        <ele>71.6</ele>
        <time>2018-03-18T10:07:54Z</time>
      </trkpt>
      <trkpt lat="62.636906636653" lon="17.991873994681">
        <ele>71.6</ele>
        <time>2018-03-18T10:07:55Z</time>
      </trkpt>
      <trkpt lat="62.636923819548" lon="17.991820685797">
        <ele>71.6</ele>
        <time>2018-03-18T10:07:56Z</time>
      </trkpt>
      <trkpt lat="62.63694376847" lon="17.991757150995">
        <ele>71.6</ele>
        <time>2018-03-18T10:07:57Z</time>
      </trkpt>
      <trkpt lat="62.63695885589" lon="17.991715073857">
        <ele>71.6</ele>
        <time>2018-03-18T10:07:58Z</time>
      </trkpt>
      <trkpt lat="62.63697059055" lon="17.991678025859">
        <ele>71.6</ele>
        <time>2018-03-18T10:07:59Z</time>
      </trkpt>
      <trkpt lat="62.636990288015" lon="17.991629494658">
        <ele>71.8</ele>
        <time>2018-03-18T10:08:00Z</time>
      </trkpt>
      <trkpt lat="62.637008728195" lon="17.991576018136">
        <ele>72</ele>
        <time>2018-03-18T10:08:01Z</time>
      </trkpt>
      <trkpt lat="62.63702758747" lon="17.991524469451">
        <ele>72.2</ele>
        <time>2018-03-18T10:08:02Z</time>
      </trkpt>
      <trkpt lat="62.637050470057" lon="17.991464957961">
        <ele>72.4</ele>
        <time>2018-03-18T10:08:03Z</time>
      </trkpt>
      <trkpt lat="62.637069413151" lon="17.991410978525">
        <ele>72.4</ele>
        <time>2018-03-18T10:08:04Z</time>
      </trkpt>
      <trkpt lat="62.637086428408" lon="17.991362950238">
        <ele>72.6</ele>
        <time>2018-03-18T10:08:05Z</time>
      </trkpt>
      <trkpt lat="62.637104030398" lon="17.991310647182">
        <ele>72.8</ele>
        <time>2018-03-18T10:08:06Z</time>
      </trkpt>
      <trkpt lat="62.637125990976" lon="17.991250632778">
        <ele>72.8</ele>
        <time>2018-03-18T10:08:07Z</time>
      </trkpt>
      <trkpt lat="62.637142503319" lon="17.991176536782">
        <ele>72.8</ele>
        <time>2018-03-18T10:08:08Z</time>
      </trkpt>
      <trkpt lat="62.63715331597" lon="17.991109984496">
        <ele>72.6</ele>
        <time>2018-03-18T10:08:09Z</time>
      </trkpt>
      <trkpt lat="62.637173013435" lon="17.99104175583">
        <ele>72.4</ele>
        <time>2018-03-18T10:08:10Z</time>
      </trkpt>
      <trkpt lat="62.637191118339" lon="17.990983753082">
        <ele>72.2</ele>
        <time>2018-03-18T10:08:11Z</time>
      </trkpt>
      <trkpt lat="62.637205535207" lon="17.990927594352">
        <ele>72</ele>
        <time>2018-03-18T10:08:12Z</time>
      </trkpt>
      <trkpt lat="62.637223221016" lon="17.990866909396">
        <ele>72</ele>
        <time>2018-03-18T10:08:13Z</time>
      </trkpt>
      <trkpt lat="62.637231100002" lon="17.990802452585">
        <ele>72</ele>
        <time>2018-03-18T10:08:14Z</time>
      </trkpt>
      <trkpt lat="62.637238727531" lon="17.99074336019">
        <ele>72.2</ele>
        <time>2018-03-18T10:08:15Z</time>
      </trkpt>
      <trkpt lat="62.637242583205" lon="17.990674712429">
        <ele>72.4</ele>
        <time>2018-03-18T10:08:16Z</time>
      </trkpt>
      <trkpt lat="62.637252641485" lon="17.990609668885">
        <ele>72.4</ele>
        <time>2018-03-18T10:08:17Z</time>
      </trkpt>
      <trkpt lat="62.637264879059" lon="17.990521491297">
        <ele>72.4</ele>
        <time>2018-03-18T10:08:18Z</time>
      </trkpt>
      <trkpt lat="62.637266220163" lon="17.990438929582">
        <ele>72.2</ele>
        <time>2018-03-18T10:08:19Z</time>
      </trkpt>
      <trkpt lat="62.637271752217" lon="17.990367264337">
        <ele>72.2</ele>
        <time>2018-03-18T10:08:20Z</time>
      </trkpt>
      <trkpt lat="62.637284660343" lon="17.990287552468">
        <ele>72</ele>
        <time>2018-03-18T10:08:21Z</time>
      </trkpt>
      <trkpt lat="62.637293377519" lon="17.990216725413">
        <ele>71.8</ele>
        <time>2018-03-18T10:08:22Z</time>
      </trkpt>
      <trkpt lat="62.63730335198" lon="17.99015327443">
        <ele>71.6</ele>
        <time>2018-03-18T10:08:23Z</time>
      </trkpt>
      <trkpt lat="62.637315421916" lon="17.990094014397">
        <ele>71.6</ele>
        <time>2018-03-18T10:08:24Z</time>
      </trkpt>
      <trkpt lat="62.637322295074" lon="17.990046321386">
        <ele>71.6</ele>
        <time>2018-03-18T10:08:25Z</time>
      </trkpt>
      <trkpt lat="62.637335035562" lon="17.989988821552">
        <ele>71.6</ele>
        <time>2018-03-18T10:08:26Z</time>
      </trkpt>
      <trkpt lat="62.637348362783" lon="17.98992612494">
        <ele>71.6</ele>
        <time>2018-03-18T10:08:27Z</time>
      </trkpt>
      <trkpt lat="62.637364036936" lon="17.989878096653">
        <ele>71.6</ele>
        <time>2018-03-18T10:08:28Z</time>
      </trkpt>
      <trkpt lat="62.637382812392" lon="17.98984398232">
        <ele>71.6</ele>
        <time>2018-03-18T10:08:29Z</time>
      </trkpt>
      <trkpt lat="62.637406030255" lon="17.989794696748">
        <ele>71.6</ele>
        <time>2018-03-18T10:08:30Z</time>
      </trkpt>
      <trkpt lat="62.637428829023" lon="17.989728647376">
        <ele>71.6</ele>
        <time>2018-03-18T10:08:31Z</time>
      </trkpt>
      <trkpt lat="62.637452465981" lon="17.989667878601">
        <ele>72</ele>
        <time>2018-03-18T10:08:32Z</time>
      </trkpt>
      <trkpt lat="62.637473839826" lon="17.989595458985">
        <ele>72.2</ele>
        <time>2018-03-18T10:08:33Z</time>
      </trkpt>
      <trkpt lat="62.637492028549" lon="17.989537288599">
        <ele>72.2</ele>
        <time>2018-03-18T10:08:34Z</time>
      </trkpt>
      <trkpt lat="62.637508289435" lon="17.989477944747">
        <ele>72.4</ele>
        <time>2018-03-18T10:08:35Z</time>
      </trkpt>
      <trkpt lat="62.637540727388" lon="17.989401334181">
        <ele>72.4</ele>
        <time>2018-03-18T10:08:36Z</time>
      </trkpt>
      <trkpt lat="62.637562520328" lon="17.989334614257">
        <ele>72</ele>
        <time>2018-03-18T10:08:37Z</time>
      </trkpt>
      <trkpt lat="62.637591018788" lon="17.98926646941">
        <ele>71.8</ele>
        <time>2018-03-18T10:08:38Z</time>
      </trkpt>
      <trkpt lat="62.637622786189" lon="17.989187847188">
        <ele>71.8</ele>
        <time>2018-03-18T10:08:39Z</time>
      </trkpt>
      <trkpt lat="62.637648602441" lon="17.989115343753">
        <ele>71.8</ele>
        <time>2018-03-18T10:08:40Z</time>
      </trkpt>
      <trkpt lat="62.63767131739" lon="17.989041499214">
        <ele>71.2</ele>
        <time>2018-03-18T10:08:41Z</time>
      </trkpt>
      <trkpt lat="62.63768640481" lon="17.988971677987">
        <ele>70.8</ele>
        <time>2018-03-18T10:08:42Z</time>
      </trkpt>
      <trkpt lat="62.637703420067" lon="17.988905963891">
        <ele>70</ele>
        <time>2018-03-18T10:08:43Z</time>
      </trkpt>
      <trkpt lat="62.637714651813" lon="17.988850475713">
        <ele>70</ele>
        <time>2018-03-18T10:08:44Z</time>
      </trkpt>
      <trkpt lat="62.63772663793" lon="17.988802866521">
        <ele>69.4</ele>
        <time>2018-03-18T10:08:45Z</time>
      </trkpt>
      <trkpt lat="62.637739462237" lon="17.988755341148">
        <ele>68.8</ele>
        <time>2018-03-18T10:08:46Z</time>
      </trkpt>
      <trkpt lat="62.637751280716" lon="17.988694153278">
        <ele>68.2</ele>
        <time>2018-03-18T10:08:47Z</time>
      </trkpt>
      <trkpt lat="62.63776100372" lon="17.988628103906">
        <ele>68.6</ele>
        <time>2018-03-18T10:08:48Z</time>
      </trkpt>
      <trkpt lat="62.63777357657" lon="17.988569262968">
        <ele>68.8</ele>
        <time>2018-03-18T10:08:49Z</time>
      </trkpt>
      <trkpt lat="62.637790256551" lon="17.988495250791">
        <ele>69</ele>
        <time>2018-03-18T10:08:50Z</time>
      </trkpt>
      <trkpt lat="62.637805930704" lon="17.988412772895">
        <ele>69.2</ele>
        <time>2018-03-18T10:08:51Z</time>
      </trkpt>
      <trkpt lat="62.637816408079" lon="17.988346220609">
        <ele>69.8</ele>
        <time>2018-03-18T10:08:52Z</time>
      </trkpt>
      <trkpt lat="62.637831663137" lon="17.988277656667">
        <ele>69.8</ele>
        <time>2018-03-18T10:08:53Z</time>
      </trkpt>
      <trkpt lat="62.637842056693" lon="17.988202554843">
        <ele>69.6</ele>
        <time>2018-03-18T10:08:54Z</time>
      </trkpt>
      <trkpt lat="62.637853372258" lon="17.98814245662">
        <ele>69.4</ele>
        <time>2018-03-18T10:08:55Z</time>
      </trkpt>
      <trkpt lat="62.637866950936" lon="17.988070204642">
        <ele>69</ele>
        <time>2018-03-18T10:08:56Z</time>
      </trkpt>
      <trkpt lat="62.637886816039" lon="17.987976411181">
        <ele>68.4</ele>
        <time>2018-03-18T10:08:57Z</time>
      </trkpt>
      <trkpt lat="62.637907267875" lon="17.987880019331">
        <ele>68.2</ele>
        <time>2018-03-18T10:08:58Z</time>
      </trkpt>
      <trkpt lat="62.637925037503" lon="17.987787147879">
        <ele>68</ele>
        <time>2018-03-18T10:08:59Z</time>
      </trkpt>
      <trkpt lat="62.637947417176" lon="17.98771414153">
        <ele>67.2</ele>
        <time>2018-03-18T10:09:00Z</time>
      </trkpt>
      <trkpt lat="62.637967282279" lon="17.987636525136">
        <ele>66.4</ele>
        <time>2018-03-18T10:09:01Z</time>
      </trkpt>
      <trkpt lat="62.63799066778" lon="17.987565111348">
        <ele>66</ele>
        <time>2018-03-18T10:09:02Z</time>
      </trkpt>
      <trkpt lat="62.638010281426" lon="17.987495038664">
        <ele>66</ele>
        <time>2018-03-18T10:09:03Z</time>
      </trkpt>
      <trkpt lat="62.638021513172" lon="17.987429827482">
        <ele>65.8</ele>
        <time>2018-03-18T10:09:04Z</time>
      </trkpt>
      <trkpt lat="62.638030146529" lon="17.987371489458">
        <ele>66</ele>
        <time>2018-03-18T10:09:05Z</time>
      </trkpt>
      <trkpt lat="62.638050346908" lon="17.987286916087">
        <ele>66.2</ele>
        <time>2018-03-18T10:09:06Z</time>
      </trkpt>
      <trkpt lat="62.638064093224" lon="17.987211311349">
        <ele>66.6</ele>
        <time>2018-03-18T10:09:07Z</time>
      </trkpt>
      <trkpt lat="62.638083120137" lon="17.987131934756">
        <ele>66.6</ele>
        <time>2018-03-18T10:09:08Z</time>
      </trkpt>
      <trkpt lat="62.638101057403" lon="17.987053144896">
        <ele>66.2</ele>
        <time>2018-03-18T10:09:09Z</time>
      </trkpt>
      <trkpt lat="62.63810969076" lon="17.986986424972">
        <ele>66</ele>
        <time>2018-03-18T10:09:10Z</time>
      </trkpt>
      <trkpt lat="62.638115222814" lon="17.986899839945">
        <ele>65.6</ele>
        <time>2018-03-18T10:09:11Z</time>
      </trkpt>
      <trkpt lat="62.638112456787" lon="17.986790791426">
        <ele>65.2</ele>
        <time>2018-03-18T10:09:12Z</time>
      </trkpt>
      <trkpt lat="62.638110193674" lon="17.986707642978">
        <ele>65.4</ele>
        <time>2018-03-18T10:09:13Z</time>
      </trkpt>
      <trkpt lat="62.638110780407" lon="17.986636815923">
        <ele>65.2</ele>
        <time>2018-03-18T10:09:14Z</time>
      </trkpt>
      <trkpt lat="62.638113965529" lon="17.986581998297">
        <ele>65.2</ele>
        <time>2018-03-18T10:09:15Z</time>
      </trkpt>
      <trkpt lat="62.638113378796" lon="17.986508069939">
        <ele>65.4</ele>
        <time>2018-03-18T10:09:16Z</time>
      </trkpt>
      <trkpt lat="62.638114133167" lon="17.986441685291">
        <ele>65.4</ele>
        <time>2018-03-18T10:09:17Z</time>
      </trkpt>
      <trkpt lat="62.638112456787" lon="17.986377731394">
        <ele>65.4</ele>
        <time>2018-03-18T10:09:18Z</time>
      </trkpt>
      <trkpt lat="62.638114552262" lon="17.986301288466">
        <ele>65.6</ele>
        <time>2018-03-18T10:09:19Z</time>
      </trkpt>
      <trkpt lat="62.638117988841" lon="17.986230042316">
        <ele>65.6</ele>
        <time>2018-03-18T10:09:20Z</time>
      </trkpt>
      <trkpt lat="62.638120419592" lon="17.986164914953">
        <ele>65.6</ele>
        <time>2018-03-18T10:09:21Z</time>
      </trkpt>
      <trkpt lat="62.638130394053" lon="17.986094171717">
        <ele>65.6</ele>
        <time>2018-03-18T10:09:22Z</time>
      </trkpt>
      <trkpt lat="62.6381398656" lon="17.986040527557">
        <ele>65.6</ele>
        <time>2018-03-18T10:09:23Z</time>
      </trkpt>
      <trkpt lat="62.638146738758" lon="17.985995265297">
        <ele>66</ele>
        <time>2018-03-18T10:09:24Z</time>
      </trkpt>
      <trkpt lat="62.638158892513" lon="17.985938519834">
        <ele>65.8</ele>
        <time>2018-03-18T10:09:25Z</time>
      </trkpt>
      <trkpt lat="62.638173644657" lon="17.985882193466">
        <ele>65.6</ele>
        <time>2018-03-18T10:09:26Z</time>
      </trkpt>
      <trkpt lat="62.63818848062" lon="17.985830225686">
        <ele>65</ele>
        <time>2018-03-18T10:09:27Z</time>
      </trkpt>
      <trkpt lat="62.638201137289" lon="17.985787226539">
        <ele>64.6</ele>
        <time>2018-03-18T10:09:28Z</time>
      </trkpt>
      <trkpt lat="62.638213374863" lon="17.985753866577">
        <ele>64.2</ele>
        <time>2018-03-18T10:09:29Z</time>
      </trkpt>
      <trkpt lat="62.638224103695" lon="17.985720506615">
        <ele>63.8</ele>
        <time>2018-03-18T10:09:30Z</time>
      </trkpt>
      <trkpt lat="62.638233910518" lon="17.985681279323">
        <ele>63.8</ele>
        <time>2018-03-18T10:09:31Z</time>
      </trkpt>
      <trkpt lat="62.638239777848" lon="17.985642722583">
        <ele>64.6</ele>
        <time>2018-03-18T10:09:32Z</time>
      </trkpt>
      <trkpt lat="62.638243465884" lon="17.985615649046">
        <ele>65.2</ele>
        <time>2018-03-18T10:09:33Z</time>
      </trkpt>
      <trkpt lat="62.638249919947" lon="17.985595448667">
        <ele>65.4</ele>
        <time>2018-03-18T10:09:34Z</time>
      </trkpt>
      <trkpt lat="62.638257798933" lon="17.985579523057">
        <ele>65.4</ele>
        <time>2018-03-18T10:09:35Z</time>
      </trkpt>
      <trkpt lat="62.638266767566" lon="17.985564267999">
        <ele>65.4</ele>
        <time>2018-03-18T10:09:36Z</time>
      </trkpt>
      <trkpt lat="62.638276155294" lon="17.985550437864">
        <ele>65.2</ele>
        <time>2018-03-18T10:09:37Z</time>
      </trkpt>
      <trkpt lat="62.63828822523" lon="17.985531410951">
        <ele>65.2</ele>
        <time>2018-03-18T10:09:38Z</time>
      </trkpt>
      <trkpt lat="62.638297277682" lon="17.985517664635">
        <ele>65.2</ele>
        <time>2018-03-18T10:09:39Z</time>
      </trkpt>
      <trkpt lat="62.63830834179" lon="17.985503163948">
        <ele>65.4</ele>
        <time>2018-03-18T10:09:40Z</time>
      </trkpt>
      <trkpt lat="62.638320244088" lon="17.985489417632">
        <ele>65</ele>
        <time>2018-03-18T10:09:41Z</time>
      </trkpt>
      <trkpt lat="62.638333068395" lon="17.985453291643">
        <ele>64.8</ele>
        <time>2018-03-18T10:09:42Z</time>
      </trkpt>
      <trkpt lat="62.63835108948" lon="17.985416495102">
        <ele>64.2</ele>
        <time>2018-03-18T10:09:43Z</time>
      </trkpt>
      <trkpt lat="62.638369194384" lon="17.985381207303">
        <ele>63.4</ele>
        <time>2018-03-18T10:09:44Z</time>
      </trkpt>
      <trkpt lat="62.638387886021" lon="17.985339716898">
        <ele>63.6</ele>
        <time>2018-03-18T10:09:45Z</time>
      </trkpt>
      <trkpt lat="62.638403979269" lon="17.985292862077">
        <ele>63.4</ele>
        <time>2018-03-18T10:09:46Z</time>
      </trkpt>
      <trkpt lat="62.638425436933" lon="17.985240391383">
        <ele>63.2</ele>
        <time>2018-03-18T10:09:47Z</time>
      </trkpt>
      <trkpt lat="62.638445385855" lon="17.985182975368">
        <ele>63.2</ele>
        <time>2018-03-18T10:09:48Z</time>
      </trkpt>
      <trkpt lat="62.638467933166" lon="17.985124721163">
        <ele>63.6</ele>
        <time>2018-03-18T10:09:49Z</time>
      </trkpt>
      <trkpt lat="62.638495928712" lon="17.98506713751">
        <ele>64</ele>
        <time>2018-03-18T10:09:50Z</time>
      </trkpt>
      <trkpt lat="62.638526522647" lon="17.985011984608">
        <ele>63.8</ele>
        <time>2018-03-18T10:09:51Z</time>
      </trkpt>
      <trkpt lat="62.638558625324" lon="17.984951970204">
        <ele>63.8</ele>
        <time>2018-03-18T10:09:52Z</time>
      </trkpt>
      <trkpt lat="62.638585531223" lon="17.98489530856">
        <ele>63.4</ele>
        <time>2018-03-18T10:09:53Z</time>
      </trkpt>
      <trkpt lat="62.63861009019" lon="17.984835964708">
        <ele>63.6</ele>
        <time>2018-03-18T10:09:54Z</time>
      </trkpt>
      <trkpt lat="62.638638085736" lon="17.984777710503">
        <ele>63.2</ele>
        <time>2018-03-18T10:09:55Z</time>
      </trkpt>
      <trkpt lat="62.638660549228" lon="17.984709649475">
        <ele>63</ele>
        <time>2018-03-18T10:09:56Z</time>
      </trkpt>
      <trkpt lat="62.638688628593" lon="17.98463546966">
        <ele>63</ele>
        <time>2018-03-18T10:09:57Z</time>
      </trkpt>
      <trkpt lat="62.638716959415" lon="17.984564474967">
        <ele>63.2</ele>
        <time>2018-03-18T10:09:58Z</time>
      </trkpt>
      <trkpt lat="62.638738836174" lon="17.984499431423">
        <ele>63.2</ele>
        <time>2018-03-18T10:09:59Z</time>
      </trkpt>
      <trkpt lat="62.638760042381" lon="17.984425251608">
        <ele>63</ele>
        <time>2018-03-18T10:10:00Z</time>
      </trkpt>
      <trkpt lat="62.638771693222" lon="17.984325674636">
        <ele>62.4</ele>
        <time>2018-03-18T10:10:01Z</time>
      </trkpt>
      <trkpt lat="62.638773369602" lon="17.984235150116">
        <ele>62</ele>
        <time>2018-03-18T10:10:02Z</time>
      </trkpt>
      <trkpt lat="62.638767753729" lon="17.984159964473">
        <ele>61.6</ele>
        <time>2018-03-18T10:10:03Z</time>
      </trkpt>
      <trkpt lat="62.638765909711" lon="17.984074133817">
        <ele>61.6</ele>
        <time>2018-03-18T10:10:04Z</time>
      </trkpt>
      <trkpt lat="62.638759371829" lon="17.984010599015">
        <ele>61.2</ele>
        <time>2018-03-18T10:10:05Z</time>
      </trkpt>
      <trkpt lat="62.638757946906" lon="17.983946980394">
        <ele>61.2</ele>
        <time>2018-03-18T10:10:06Z</time>
      </trkpt>
      <trkpt lat="62.638756102888" lon="17.983872884398">
        <ele>61.2</ele>
        <time>2018-03-18T10:10:07Z</time>
      </trkpt>
      <trkpt lat="62.638753923594" lon="17.983805242465">
        <ele>61</ele>
        <time>2018-03-18T10:10:08Z</time>
      </trkpt>
      <trkpt lat="62.638753504499" lon="17.983754364332">
        <ele>60.8</ele>
        <time>2018-03-18T10:10:09Z</time>
      </trkpt>
      <trkpt lat="62.638751073748" lon="17.983706587502">
        <ele>61</ele>
        <time>2018-03-18T10:10:10Z</time>
      </trkpt>
      <trkpt lat="62.638752750128" lon="17.983642633605">
        <ele>60.6</ele>
        <time>2018-03-18T10:10:11Z</time>
      </trkpt>
      <trkpt lat="62.638751660481" lon="17.98357096836">
        <ele>60.6</ele>
        <time>2018-03-18T10:10:12Z</time>
      </trkpt>
      <trkpt lat="62.638754175051" lon="17.983512462698">
        <ele>60.4</ele>
        <time>2018-03-18T10:10:13Z</time>
      </trkpt>
      <trkpt lat="62.638750989929" lon="17.983456471606">
        <ele>60.4</ele>
        <time>2018-03-18T10:10:14Z</time>
      </trkpt>
      <trkpt lat="62.638753253042" lon="17.983402743627">
        <ele>60.4</ele>
        <time>2018-03-18T10:10:15Z</time>
      </trkpt>
      <trkpt lat="62.638761048209" lon="17.983338370635">
        <ele>60.6</ele>
        <time>2018-03-18T10:10:16Z</time>
      </trkpt>
      <trkpt lat="62.638764736245" lon="17.98328598376">
        <ele>61</ele>
        <time>2018-03-18T10:10:17Z</time>
      </trkpt>
      <trkpt lat="62.638770603575" lon="17.98323150141">
        <ele>61</ele>
        <time>2018-03-18T10:10:18Z</time>
      </trkpt>
      <trkpt lat="62.638771357946" lon="17.983179449811">
        <ele>61.2</ele>
        <time>2018-03-18T10:10:19Z</time>
      </trkpt>
      <trkpt lat="62.638776470905" lon="17.983126140927">
        <ele>61</ele>
        <time>2018-03-18T10:10:20Z</time>
      </trkpt>
      <trkpt lat="62.63877521362" lon="17.983059169546">
        <ele>61.2</ele>
        <time>2018-03-18T10:10:21Z</time>
      </trkpt>
      <trkpt lat="62.638780913312" lon="17.983003597549">
        <ele>61.2</ele>
        <time>2018-03-18T10:10:22Z</time>
      </trkpt>
      <trkpt lat="62.638785439538" lon="17.982942493498">
        <ele>61.6</ele>
        <time>2018-03-18T10:10:23Z</time>
      </trkpt>
      <trkpt lat="62.638790049583" lon="17.98288281437">
        <ele>61.6</ele>
        <time>2018-03-18T10:10:24Z</time>
      </trkpt>
      <trkpt lat="62.638789714307" lon="17.982826990916">
        <ele>61.6</ele>
        <time>2018-03-18T10:10:25Z</time>
      </trkpt>
      <trkpt lat="62.638789127574" lon="17.982769155806">
        <ele>61.4</ele>
        <time>2018-03-18T10:10:26Z</time>
      </trkpt>
      <trkpt lat="62.638795916913" lon="17.982708722307">
        <ele>61.6</ele>
        <time>2018-03-18T10:10:27Z</time>
      </trkpt>
      <trkpt lat="62.638804969365" lon="17.982652647396">
        <ele>61.4</ele>
        <time>2018-03-18T10:10:28Z</time>
      </trkpt>
      <trkpt lat="62.638813099808" lon="17.982603864738">
        <ele>61.4</ele>
        <time>2018-03-18T10:10:29Z</time>
      </trkpt>
      <trkpt lat="62.638812848351" lon="17.982544688524">
        <ele>61.4</ele>
        <time>2018-03-18T10:10:30Z</time>
      </trkpt>
      <trkpt lat="62.638818715681" lon="17.982485679948">
        <ele>61.4</ele>
        <time>2018-03-18T10:10:31Z</time>
      </trkpt>
      <trkpt lat="62.638827851952" lon="17.982425665544">
        <ele>61.6</ele>
        <time>2018-03-18T10:10:32Z</time>
      </trkpt>
      <trkpt lat="62.63883472511" lon="17.982371015556">
        <ele>61.2</ele>
        <time>2018-03-18T10:10:33Z</time>
      </trkpt>
      <trkpt lat="62.638845705399" lon="17.982304882365">
        <ele>61.2</ele>
        <time>2018-03-18T10:10:34Z</time>
      </trkpt>
      <trkpt lat="62.638857859154" lon="17.98225668644">
        <ele>61.2</ele>
        <time>2018-03-18T10:10:35Z</time>
      </trkpt>
      <trkpt lat="62.638878478628" lon="17.982197929321">
        <ele>61.2</ele>
        <time>2018-03-18T10:10:36Z</time>
      </trkpt>
      <trkpt lat="62.63889758936" lon="17.982138250193">
        <ele>61</ele>
        <time>2018-03-18T10:10:37Z</time>
      </trkpt>
      <trkpt lat="62.638914269341" lon="17.982079325436">
        <ele>60.8</ele>
        <time>2018-03-18T10:10:38Z</time>
      </trkpt>
      <trkpt lat="62.638929105304" lon="17.982027273837">
        <ele>60.8</ele>
        <time>2018-03-18T10:10:39Z</time>
      </trkpt>
      <trkpt lat="62.638946539656" lon="17.981969354908">
        <ele>60.2</ele>
        <time>2018-03-18T10:10:40Z</time>
      </trkpt>
      <trkpt lat="62.638960705067" lon="17.981910849246">
        <ele>60.4</ele>
        <time>2018-03-18T10:10:41Z</time>
      </trkpt>
      <trkpt lat="62.638982917102" lon="17.981842033847">
        <ele>60.6</ele>
        <time>2018-03-18T10:10:42Z</time>
      </trkpt>
      <trkpt lat="62.63900487768" lon="17.981776822665">
        <ele>60.6</ele>
        <time>2018-03-18T10:10:43Z</time>
      </trkpt>
      <trkpt lat="62.639025580973" lon="17.981716305347">
        <ele>60.6</ele>
        <time>2018-03-18T10:10:44Z</time>
      </trkpt>
      <trkpt lat="62.639048715017" lon="17.981651848536">
        <ele>60.8</ele>
        <time>2018-03-18T10:10:45Z</time>
      </trkpt>
      <trkpt lat="62.639067993387" lon="17.981581692033">
        <ele>60.8</ele>
        <time>2018-03-18T10:10:46Z</time>
      </trkpt>
      <trkpt lat="62.639089199594" lon="17.981507679856">
        <ele>60.8</ele>
        <time>2018-03-18T10:10:47Z</time>
      </trkpt>
      <trkpt lat="62.639108477964" lon="17.981435427878">
        <ele>60.8</ele>
        <time>2018-03-18T10:10:48Z</time>
      </trkpt>
      <trkpt lat="62.639128343067" lon="17.981365355194">
        <ele>60.8</ele>
        <time>2018-03-18T10:10:49Z</time>
      </trkpt>
      <trkpt lat="62.639153907862" lon="17.981296036881">
        <ele>60.4</ele>
        <time>2018-03-18T10:10:50Z</time>
      </trkpt>
      <trkpt lat="62.639176371354" lon="17.981229652233">
        <ele>60.2</ele>
        <time>2018-03-18T10:10:51Z</time>
      </trkpt>
      <trkpt lat="62.639206294737" lon="17.981153963676">
        <ele>60.2</ele>
        <time>2018-03-18T10:10:52Z</time>
      </trkpt>
      <trkpt lat="62.639231021342" lon="17.981085986467">
        <ele>59.8</ele>
        <time>2018-03-18T10:10:53Z</time>
      </trkpt>
      <trkpt lat="62.639259855078" lon="17.981024128045">
        <ele>59.4</ele>
        <time>2018-03-18T10:10:54Z</time>
      </trkpt>
      <trkpt lat="62.639287515348" lon="17.980966460573">
        <ele>59.4</ele>
        <time>2018-03-18T10:10:55Z</time>
      </trkpt>
      <trkpt lat="62.639309056831" lon="17.980909798929">
        <ele>59</ele>
        <time>2018-03-18T10:10:56Z</time>
      </trkpt>
      <trkpt lat="62.63933428635" lon="17.980845928851">
        <ele>58.4</ele>
        <time>2018-03-18T10:10:57Z</time>
      </trkpt>
      <trkpt lat="62.639354905824" lon="17.980775939986">
        <ele>58.4</ele>
        <time>2018-03-18T10:10:58Z</time>
      </trkpt>
      <trkpt lat="62.639374938565" lon="17.980713746288">
        <ele>58.4</ele>
        <time>2018-03-18T10:10:59Z</time>
      </trkpt>
      <trkpt lat="62.639394216935" lon="17.980634453514">
        <ele>58.4</ele>
        <time>2018-03-18T10:11:00Z</time>
      </trkpt>
      <trkpt lat="62.639407795613" lon="17.98055599893">
        <ele>58.6</ele>
        <time>2018-03-18T10:11:01Z</time>
      </trkpt>
      <trkpt lat="62.63942564906" lon="17.980479472183">
        <ele>58.8</ele>
        <time>2018-03-18T10:11:02Z</time>
      </trkpt>
      <trkpt lat="62.639446184715" lon="17.980406046739">
        <ele>58.6</ele>
        <time>2018-03-18T10:11:03Z</time>
      </trkpt>
      <trkpt lat="62.639467642379" lon="17.98031879116">
        <ele>58.6</ele>
        <time>2018-03-18T10:11:04Z</time>
      </trkpt>
      <trkpt lat="62.639483567989" lon="17.980249389028">
        <ele>58.6</ele>
        <time>2018-03-18T10:11:05Z</time>
      </trkpt>
      <trkpt lat="62.639497901038" lon="17.980163306915">
        <ele>58.6</ele>
        <time>2018-03-18T10:11:06Z</time>
      </trkpt>
      <trkpt lat="62.639509887155" lon="17.980073872042">
        <ele>58.6</ele>
        <time>2018-03-18T10:11:07Z</time>
      </trkpt>
      <trkpt lat="62.639521035082" lon="17.979996339467">
        <ele>58.4</ele>
        <time>2018-03-18T10:11:08Z</time>
      </trkpt>
      <trkpt lat="62.639533440294" lon="17.979931631199">
        <ele>58</ele>
        <time>2018-03-18T10:11:09Z</time>
      </trkpt>
      <trkpt lat="62.639546264601" lon="17.979868264035">
        <ele>57.8</ele>
        <time>2018-03-18T10:11:10Z</time>
      </trkpt>
      <trkpt lat="62.639557999261" lon="17.97980581888">
        <ele>57.6</ele>
        <time>2018-03-18T10:11:11Z</time>
      </trkpt>
      <trkpt lat="62.639569482464" lon="17.979745385381">
        <ele>57.4</ele>
        <time>2018-03-18T10:11:12Z</time>
      </trkpt>
      <trkpt lat="62.639585575712" lon="17.979686209167">
        <ele>57.2</ele>
        <time>2018-03-18T10:11:13Z</time>
      </trkpt>
      <trkpt lat="62.639592532689" lon="17.979632062093">
        <ele>57.2</ele>
        <time>2018-03-18T10:11:14Z</time>
      </trkpt>
      <trkpt lat="62.639609547946" lon="17.979577663562">
        <ele>57.2</ele>
        <time>2018-03-18T10:11:15Z</time>
      </trkpt>
      <trkpt lat="62.639632346714" lon="17.979514212579">
        <ele>57.2</ele>
        <time>2018-03-18T10:11:16Z</time>
      </trkpt>
      <trkpt lat="62.639646763582" lon="17.979462077161">
        <ele>57.2</ele>
        <time>2018-03-18T10:11:17Z</time>
      </trkpt>
      <trkpt lat="62.63966956235" lon="17.979398961454">
        <ele>57</ele>
        <time>2018-03-18T10:11:18Z</time>
      </trkpt>
      <trkpt lat="62.639689175996" lon="17.979337605946">
        <ele>57</ele>
        <time>2018-03-18T10:11:19Z</time>
      </trkpt>
      <trkpt lat="62.639704514873" lon="17.979276585714">
        <ele>56.8</ele>
        <time>2018-03-18T10:11:20Z</time>
      </trkpt>
      <trkpt lat="62.639732091324" lon="17.979202992632">
        <ele>56.8</ele>
        <time>2018-03-18T10:11:21Z</time>
      </trkpt>
      <trkpt lat="62.639748938943" lon="17.979125543876">
        <ele>56.8</ele>
        <time>2018-03-18T10:11:22Z</time>
      </trkpt>
      <trkpt lat="62.639766289476" lon="17.979064188368">
        <ele>56.6</ele>
        <time>2018-03-18T10:11:23Z</time>
      </trkpt>
      <trkpt lat="62.639790345529" lon="17.978999396281">
        <ele>56.4</ele>
        <time>2018-03-18T10:11:24Z</time>
      </trkpt>
      <trkpt lat="62.639808618071" lon="17.978946422673">
        <ele>56.2</ele>
        <time>2018-03-18T10:11:25Z</time>
      </trkpt>
      <trkpt lat="62.639835188694" lon="17.978890263943">
        <ele>56.2</ele>
        <time>2018-03-18T10:11:26Z</time>
      </trkpt>
      <trkpt lat="62.639860585851" lon="17.978849779366">
        <ele>55.8</ele>
        <time>2018-03-18T10:11:27Z</time>
      </trkpt>
      <trkpt lat="62.639885563913" lon="17.978817509051">
        <ele>55.8</ele>
        <time>2018-03-18T10:11:28Z</time>
      </trkpt>
      <trkpt lat="62.639919762065" lon="17.978780377234">
        <ele>55.6</ele>
        <time>2018-03-18T10:11:29Z</time>
      </trkpt>
      <trkpt lat="62.639956726244" lon="17.978723212676">
        <ele>55.4</ele>
        <time>2018-03-18T10:11:30Z</time>
      </trkpt>
      <trkpt lat="62.63999561826" lon="17.978670322887">
        <ele>55.6</ele>
        <time>2018-03-18T10:11:31Z</time>
      </trkpt>
      <trkpt lat="62.640034761733" lon="17.978619025659">
        <ele>55.4</ele>
        <time>2018-03-18T10:11:32Z</time>
      </trkpt>
      <trkpt lat="62.640067786419" lon="17.978550964631">
        <ele>55.4</ele>
        <time>2018-03-18T10:11:33Z</time>
      </trkpt>
      <trkpt lat="62.640114892697" lon="17.978493297159">
        <ele>55.4</ele>
        <time>2018-03-18T10:11:34Z</time>
      </trkpt>
      <trkpt lat="62.640147163012" lon="17.978458176998">
        <ele>55</ele>
        <time>2018-03-18T10:11:35Z</time>
      </trkpt>
      <trkpt lat="62.640192760548" lon="17.978396989128">
        <ele>54.6</ele>
        <time>2018-03-18T10:11:36Z</time>
      </trkpt>
      <trkpt lat="62.640234586229" lon="17.97833898638">
        <ele>54.6</ele>
        <time>2018-03-18T10:11:37Z</time>
      </trkpt>
      <trkpt lat="62.640265012526" lon="17.978283833478">
        <ele>54</ele>
        <time>2018-03-18T10:11:38Z</time>
      </trkpt>
      <trkpt lat="62.640306000017" lon="17.978228848214">
        <ele>53.4</ele>
        <time>2018-03-18T10:11:39Z</time>
      </trkpt>
      <trkpt lat="62.640342126006" lon="17.97818056847">
        <ele>53.4</ele>
        <time>2018-03-18T10:11:40Z</time>
      </trkpt>
      <trkpt lat="62.640380179832" lon="17.978126672853">
        <ele>52.8</ele>
        <time>2018-03-18T10:11:41Z</time>
      </trkpt>
      <trkpt lat="62.640420832047" lon="17.978071939046">
        <ele>52.6</ele>
        <time>2018-03-18T10:11:42Z</time>
      </trkpt>
      <trkpt lat="62.640450168697" lon="17.978015193583">
        <ele>52.6</ele>
        <time>2018-03-18T10:11:43Z</time>
      </trkpt>
      <trkpt lat="62.640485288858" lon="17.977960208319">
        <ele>52.4</ele>
        <time>2018-03-18T10:11:44Z</time>
      </trkpt>
      <trkpt lat="62.640514374051" lon="17.97789809844">
        <ele>52.2</ele>
        <time>2018-03-18T10:11:45Z</time>
      </trkpt>
      <trkpt lat="62.6405538528" lon="17.977830707964">
        <ele>52</ele>
        <time>2018-03-18T10:11:46Z</time>
      </trkpt>
      <trkpt lat="62.640586961305" lon="17.977777315261">
        <ele>51.8</ele>
        <time>2018-03-18T10:11:47Z</time>
      </trkpt>
      <trkpt lat="62.640625434226" lon="17.977708583681">
        <ele>51.6</ele>
        <time>2018-03-18T10:11:48Z</time>
      </trkpt>
      <trkpt lat="62.640691483598" lon="17.977596182402">
        <ele>50.4</ele>
        <time>2018-03-18T10:11:50Z</time>
      </trkpt>
      <trkpt lat="62.640729118329" lon="17.9775326476">
        <ele>49.8</ele>
        <time>2018-03-18T10:11:51Z</time>
      </trkpt>
      <trkpt lat="62.64074915107" lon="17.977463161649">
        <ele>49.6</ele>
        <time>2018-03-18T10:11:52Z</time>
      </trkpt>
      <trkpt lat="62.640789468009" lon="17.977388898015">
        <ele>49.4</ele>
        <time>2018-03-18T10:11:53Z</time>
      </trkpt>
      <trkpt lat="62.640833472984" lon="17.977336594959">
        <ele>49.4</ele>
        <time>2018-03-18T10:11:54Z</time>
      </trkpt>
      <trkpt lat="62.64086565948" lon="17.977274065985">
        <ele>49.2</ele>
        <time>2018-03-18T10:11:55Z</time>
      </trkpt>
      <trkpt lat="62.640904719134" lon="17.977211956106">
        <ele>49</ele>
        <time>2018-03-18T10:11:56Z</time>
      </trkpt>
      <trkpt lat="62.640924751875" lon="17.977165688018">
        <ele>48.8</ele>
        <time>2018-03-18T10:11:57Z</time>
      </trkpt>
      <trkpt lat="62.640955597267" lon="17.977114306971">
        <ele>48.4</ele>
        <time>2018-03-18T10:11:58Z</time>
      </trkpt>
      <trkpt lat="62.640985939745" lon="17.977060662811">
        <ele>48.2</ele>
        <time>2018-03-18T10:11:59Z</time>
      </trkpt>
      <trkpt lat="62.641008403237" lon="17.977021184062">
        <ele>47.6</ele>
        <time>2018-03-18T10:12:00Z</time>
      </trkpt>
      <trkpt lat="62.641047127615" lon="17.97695513469">
        <ele>47.4</ele>
        <time>2018-03-18T10:12:01Z</time>
      </trkpt>
      <trkpt lat="62.641086271088" lon="17.976907022584">
        <ele>47</ele>
        <time>2018-03-18T10:12:02Z</time>
      </trkpt>
      <trkpt lat="62.641123905819" lon="17.976878775581">
        <ele>46.6</ele>
        <time>2018-03-18T10:12:03Z</time>
      </trkpt>
      <trkpt lat="62.641166821147" lon="17.976860000125">
        <ele>46.2</ele>
        <time>2018-03-18T10:12:04Z</time>
      </trkpt>
      <trkpt lat="62.641203366231" lon="17.976842565773">
        <ele>46</ele>
        <time>2018-03-18T10:12:05Z</time>
      </trkpt>
      <trkpt lat="62.641252819441" lon="17.976810798372">
        <ele>45.8</ele>
        <time>2018-03-18T10:12:06Z</time>
      </trkpt>
      <trkpt lat="62.6412998419" lon="17.976792861106">
        <ele>45.8</ele>
        <time>2018-03-18T10:12:07Z</time>
      </trkpt>
      <trkpt lat="62.641352312594" lon="17.976767212492">
        <ele>45.2</ele>
        <time>2018-03-18T10:12:08Z</time>
      </trkpt>
      <trkpt lat="62.641405789116" lon="17.97674055805">
        <ele>45.2</ele>
        <time>2018-03-18T10:12:09Z</time>
      </trkpt>
      <trkpt lat="62.641457840715" lon="17.976701414577">
        <ele>44.8</ele>
        <time>2018-03-18T10:12:10Z</time>
      </trkpt>
      <trkpt lat="62.64151190397" lon="17.976659085982">
        <ele>44.4</ele>
        <time>2018-03-18T10:12:11Z</time>
      </trkpt>
      <trkpt lat="62.64156387175" lon="17.976606280012">
        <ele>43.4</ele>
        <time>2018-03-18T10:12:12Z</time>
      </trkpt>
      <trkpt lat="62.641612905865" lon="17.976559173734">
        <ele>42.4</ele>
        <time>2018-03-18T10:12:13Z</time>
      </trkpt>
      <trkpt lat="62.641663113446" lon="17.976500584253">
        <ele>41.4</ele>
        <time>2018-03-18T10:12:14Z</time>
      </trkpt>
      <trkpt lat="62.641711644647" lon="17.976438306736">
        <ele>40.6</ele>
        <time>2018-03-18T10:12:15Z</time>
      </trkpt>
      <trkpt lat="62.64176000821" lon="17.976362869636">
        <ele>40</ele>
        <time>2018-03-18T10:12:16Z</time>
      </trkpt>
      <trkpt lat="62.641805689565" lon="17.976293467504">
        <ele>39.6</ele>
        <time>2018-03-18T10:12:17Z</time>
      </trkpt>
      <trkpt lat="62.641852460567" lon="17.976221886078">
        <ele>39.4</ele>
        <time>2018-03-18T10:12:18Z</time>
      </trkpt>
      <trkpt lat="62.641902835786" lon="17.976142677123">
        <ele>39</ele>
        <time>2018-03-18T10:12:19Z</time>
      </trkpt>
      <trkpt lat="62.641943823277" lon="17.976073023534">
        <ele>39</ele>
        <time>2018-03-18T10:12:20Z</time>
      </trkpt>
      <trkpt lat="62.641988079709" lon="17.975994485131">
        <ele>38.8</ele>
        <time>2018-03-18T10:12:21Z</time>
      </trkpt>
      <trkpt lat="62.642032084684" lon="17.975913767434">
        <ele>38.6</ele>
        <time>2018-03-18T10:12:22Z</time>
      </trkpt>
      <trkpt lat="62.642075000012" lon="17.975845538768">
        <ele>38.4</ele>
        <time>2018-03-18T10:12:23Z</time>
      </trkpt>
      <trkpt lat="62.642124117946" lon="17.975775466084">
        <ele>38.4</ele>
        <time>2018-03-18T10:12:24Z</time>
      </trkpt>
      <trkpt lat="62.642169631663" lon="17.975720397001">
        <ele>38.2</ele>
        <time>2018-03-18T10:12:25Z</time>
      </trkpt>
      <trkpt lat="62.642220425977" lon="17.975653928534">
        <ele>38</ele>
        <time>2018-03-18T10:12:26Z</time>
      </trkpt>
      <trkpt lat="62.642269376273" lon="17.975583688212">
        <ele>37.8</ele>
        <time>2018-03-18T10:12:27Z</time>
      </trkpt>
      <trkpt lat="62.642317823655" lon="17.975509508397">
        <ele>37.4</ele>
        <time>2018-03-18T10:12:28Z</time>
      </trkpt>
      <trkpt lat="62.642355290748" lon="17.975424013017">
        <ele>37</ele>
        <time>2018-03-18T10:12:29Z</time>
      </trkpt>
      <trkpt lat="62.642390662366" lon="17.975337344171">
        <ele>36.6</ele>
        <time>2018-03-18T10:12:30Z</time>
      </trkpt>
      <trkpt lat="62.642425279613" lon="17.97523181605">
        <ele>35.8</ele>
        <time>2018-03-18T10:12:31Z</time>
      </trkpt>
      <trkpt lat="62.6424481622" lon="17.975152439457">
        <ele>35</ele>
        <time>2018-03-18T10:12:32Z</time>
      </trkpt>
      <trkpt lat="62.642470458054" lon="17.975068704276">
        <ele>34.6</ele>
        <time>2018-03-18T10:12:33Z</time>
      </trkpt>
      <trkpt lat="62.642497196315" lon="17.97497700629">
        <ele>34</ele>
        <time>2018-03-18T10:12:34Z</time>
      </trkpt>
      <trkpt lat="62.642525694775" lon="17.974897964973">
        <ele>33.8</ele>
        <time>2018-03-18T10:12:35Z</time>
      </trkpt>
      <trkpt lat="62.642554947606" lon="17.974789167911">
        <ele>33.6</ele>
        <time>2018-03-18T10:12:36Z</time>
      </trkpt>
      <trkpt lat="62.642578165469" lon="17.974695961183">
        <ele>33.4</ele>
        <time>2018-03-18T10:12:37Z</time>
      </trkpt>
      <trkpt lat="62.642592666156" lon="17.974605352844">
        <ele>33.4</ele>
        <time>2018-03-18T10:12:38Z</time>
      </trkpt>
      <trkpt lat="62.642619823512" lon="17.974506027329">
        <ele>33</ele>
        <time>2018-03-18T10:12:39Z</time>
      </trkpt>
      <trkpt lat="62.642639604796" lon="17.974433272437">
        <ele>32.8</ele>
        <time>2018-03-18T10:12:40Z</time>
      </trkpt>
      <trkpt lat="62.642659805175" lon="17.974343586107">
        <ele>32.6</ele>
        <time>2018-03-18T10:12:41Z</time>
      </trkpt>
      <trkpt lat="62.642677407165" lon="17.974242248936">
        <ele>32.6</ele>
        <time>2018-03-18T10:12:42Z</time>
      </trkpt>
      <trkpt lat="62.642695847345" lon="17.974167901483">
        <ele>32.6</ele>
        <time>2018-03-18T10:12:43Z</time>
      </trkpt>
      <trkpt lat="62.642711270041" lon="17.974095900962">
        <ele>32.4</ele>
        <time>2018-03-18T10:12:44Z</time>
      </trkpt>
      <trkpt lat="62.642726022185" lon="17.974019206577">
        <ele>32.4</ele>
        <time>2018-03-18T10:12:45Z</time>
      </trkpt>
      <trkpt lat="62.642727447108" lon="17.97394016526">
        <ele>32.2</ele>
        <time>2018-03-18T10:12:46Z</time>
      </trkpt>
      <trkpt lat="62.642733482076" lon="17.97385550807">
        <ele>32</ele>
        <time>2018-03-18T10:12:47Z</time>
      </trkpt>
      <trkpt lat="62.642740606691" lon="17.973783507549">
        <ele>31.6</ele>
        <time>2018-03-18T10:12:48Z</time>
      </trkpt>
      <trkpt lat="62.642745300555" lon="17.973691055192">
        <ele>31.4</ele>
        <time>2018-03-18T10:12:49Z</time>
      </trkpt>
      <trkpt lat="62.642742618347" lon="17.973590975306">
        <ele>30.8</ele>
        <time>2018-03-18T10:12:50Z</time>
      </trkpt>
      <trkpt lat="62.642748401858" lon="17.973512353084">
        <ele>30.6</ele>
        <time>2018-03-18T10:12:51Z</time>
      </trkpt>
      <trkpt lat="62.642748318039" lon="17.973447477178">
        <ele>30.4</ele>
        <time>2018-03-18T10:12:52Z</time>
      </trkpt>
      <trkpt lat="62.642743540356" lon="17.973367849128">
        <ele>30</ele>
        <time>2018-03-18T10:12:53Z</time>
      </trkpt>
      <trkpt lat="62.64273147042" lon="17.97328553887">
        <ele>29.8</ele>
        <time>2018-03-18T10:12:54Z</time>
      </trkpt>
      <trkpt lat="62.642725267814" lon="17.973242204447">
        <ele>29.8</ele>
        <time>2018-03-18T10:12:55Z</time>
      </trkpt>
      <trkpt lat="62.64271973576" lon="17.973167940813">
        <ele>29.8</ele>
        <time>2018-03-18T10:12:56Z</time>
      </trkpt>
      <trkpt lat="62.642707079091" lon="17.973096610844">
        <ele>29.8</ele>
        <time>2018-03-18T10:12:57Z</time>
      </trkpt>
      <trkpt lat="62.642702385227" lon="17.973045984168">
        <ele>30</ele>
        <time>2018-03-18T10:12:58Z</time>
      </trkpt>
      <trkpt lat="62.642699116286" lon="17.972990244533">
        <ele>30</ele>
        <time>2018-03-18T10:12:59Z</time>
      </trkpt>
      <trkpt lat="62.642686459617" lon="17.972943641169">
        <ele>30</ele>
        <time>2018-03-18T10:13:00Z</time>
      </trkpt>
      <trkpt lat="62.642675898423" lon="17.972887230982">
        <ele>30</ele>
        <time>2018-03-18T10:13:01Z</time>
      </trkpt>
      <trkpt lat="62.642668103256" lon="17.972842220179">
        <ele>30.2</ele>
        <time>2018-03-18T10:13:02Z</time>
      </trkpt>
      <trkpt lat="62.642659553718" lon="17.97279855048">
        <ele>30</ele>
        <time>2018-03-18T10:13:03Z</time>
      </trkpt>
      <trkpt lat="62.642645807402" lon="17.972749767822">
        <ele>30.2</ele>
        <time>2018-03-18T10:13:04Z</time>
      </trkpt>
      <trkpt lat="62.64263843133" lon="17.972699895517">
        <ele>30.4</ele>
        <time>2018-03-18T10:13:05Z</time>
      </trkpt>
      <trkpt lat="62.64262753486" lon="17.972650861402">
        <ele>30.4</ele>
        <time>2018-03-18T10:13:06Z</time>
      </trkpt>
      <trkpt lat="62.642621583711" lon="17.972599731812">
        <ele>30.6</ele>
        <time>2018-03-18T10:13:07Z</time>
      </trkpt>
      <trkpt lat="62.642610268146" lon="17.972552876991">
        <ele>30.8</ele>
        <time>2018-03-18T10:13:08Z</time>
      </trkpt>
      <trkpt lat="62.642603562626" lon="17.972483055764">
        <ele>31</ele>
        <time>2018-03-18T10:13:09Z</time>
      </trkpt>
      <trkpt lat="62.6425906545" lon="17.972436787676">
        <ele>31</ele>
        <time>2018-03-18T10:13:10Z</time>
      </trkpt>
      <trkpt lat="62.642583194609" lon="17.97237191177">
        <ele>31.2</ele>
        <time>2018-03-18T10:13:11Z</time>
      </trkpt>
      <trkpt lat="62.642574142157" lon="17.972302006724">
        <ele>31.4</ele>
        <time>2018-03-18T10:13:12Z</time>
      </trkpt>
      <trkpt lat="62.642564419153" lon="17.972253307885">
        <ele>31.4</ele>
        <time>2018-03-18T10:13:13Z</time>
      </trkpt>
      <trkpt lat="62.642558300366" lon="17.972183570477">
        <ele>31.2</ele>
        <time>2018-03-18T10:13:14Z</time>
      </trkpt>
      <trkpt lat="62.642548745" lon="17.9721263221">
        <ele>31.6</ele>
        <time>2018-03-18T10:13:15Z</time>
      </trkpt>
      <trkpt lat="62.642541033652" lon="17.972069073723">
        <ele>31.8</ele>
        <time>2018-03-18T10:13:16Z</time>
      </trkpt>
      <trkpt lat="62.642532735571" lon="17.972009143138">
        <ele>31.6</ele>
        <time>2018-03-18T10:13:17Z</time>
      </trkpt>
      <trkpt lat="62.642522425834" lon="17.97195952229">
        <ele>31.8</ele>
        <time>2018-03-18T10:13:18Z</time>
      </trkpt>
      <trkpt lat="62.642517564332" lon="17.97189498166">
        <ele>31.8</ele>
        <time>2018-03-18T10:13:19Z</time>
      </trkpt>
      <trkpt lat="62.64251773197" lon="17.971837230369">
        <ele>32</ele>
        <time>2018-03-18T10:13:20Z</time>
      </trkpt>
      <trkpt lat="62.642525108042" lon="17.971779143802">
        <ele>31.8</ele>
        <time>2018-03-18T10:13:21Z</time>
      </trkpt>
      <trkpt lat="62.642546481887" lon="17.971742095804">
        <ele>32</ele>
        <time>2018-03-18T10:13:22Z</time>
      </trkpt>
      <trkpt lat="62.642568107189" lon="17.971737234302">
        <ele>32</ele>
        <time>2018-03-18T10:13:23Z</time>
      </trkpt>
      <trkpt lat="62.642600042228" lon="17.971759865432">
        <ele>32.2</ele>
        <time>2018-03-18T10:13:24Z</time>
      </trkpt>
      <trkpt lat="62.64261999115" lon="17.97180026619">
        <ele>32.2</ele>
        <time>2018-03-18T10:13:25Z</time>
      </trkpt>
      <trkpt lat="62.642643628108" lon="17.971865477372">
        <ele>31.6</ele>
        <time>2018-03-18T10:13:26Z</time>
      </trkpt>
      <trkpt lat="62.642672880939" lon="17.97193856754">
        <ele>31.6</ele>
        <time>2018-03-18T10:13:27Z</time>
      </trkpt>
      <trkpt lat="62.642694757698" lon="17.9720005936">
        <ele>31.6</ele>
        <time>2018-03-18T10:13:28Z</time>
      </trkpt>
      <trkpt lat="62.642717556466" lon="17.972076701252">
        <ele>31.6</ele>
        <time>2018-03-18T10:13:29Z</time>
      </trkpt>
      <trkpt lat="62.642738259759" lon="17.97214057133">
        <ele>31.2</ele>
        <time>2018-03-18T10:13:30Z</time>
      </trkpt>
      <trkpt lat="62.642758460138" lon="17.9722269049">
        <ele>31.4</ele>
        <time>2018-03-18T10:13:31Z</time>
      </trkpt>
      <trkpt lat="62.642780336897" lon="17.972301252353">
        <ele>31.6</ele>
        <time>2018-03-18T10:13:32Z</time>
      </trkpt>
      <trkpt lat="62.64280355476" lon="17.972367804639">
        <ele>31.6</ele>
        <time>2018-03-18T10:13:33Z</time>
      </trkpt>
      <trkpt lat="62.642822497854" lon="17.972461179005">
        <ele>31.6</ele>
        <time>2018-03-18T10:13:34Z</time>
      </trkpt>
      <trkpt lat="62.642842279138" lon="17.972527982748">
        <ele>31.6</ele>
        <time>2018-03-18T10:13:35Z</time>
      </trkpt>
      <trkpt lat="62.64286138987" lon="17.972625799521">
        <ele>31.4</ele>
        <time>2018-03-18T10:13:36Z</time>
      </trkpt>
      <trkpt lat="62.642878740403" lon="17.972711462539">
        <ele>31.2</ele>
        <time>2018-03-18T10:13:37Z</time>
      </trkpt>
      <trkpt lat="62.64289659385" lon="17.972778014825">
        <ele>31</ele>
        <time>2018-03-18T10:13:38Z</time>
      </trkpt>
      <trkpt lat="62.642906735949" lon="17.972846830224">
        <ele>30.8</ele>
        <time>2018-03-18T10:13:39Z</time>
      </trkpt>
      <trkpt lat="62.642923751206" lon="17.972913214872">
        <ele>30.6</ele>
        <time>2018-03-18T10:13:40Z</time>
      </trkpt>
      <trkpt lat="62.642931211097" lon="17.973025280875">
        <ele>30.4</ele>
        <time>2018-03-18T10:13:41Z</time>
      </trkpt>
      <trkpt lat="62.642945376508" lon="17.97311454811">
        <ele>30</ele>
        <time>2018-03-18T10:13:42Z</time>
      </trkpt>
      <trkpt lat="62.642969684018" lon="17.973196187816">
        <ele>29.8</ele>
        <time>2018-03-18T10:13:43Z</time>
      </trkpt>
      <trkpt lat="62.642984352343" lon="17.973295345693">
        <ele>29.8</ele>
        <time>2018-03-18T10:13:44Z</time>
      </trkpt>
      <trkpt lat="62.643014191907" lon="17.973374889924">
        <ele>29.4</ele>
        <time>2018-03-18T10:13:45Z</time>
      </trkpt>
      <trkpt lat="62.643019556323" lon="17.973476059457">
        <ele>29.4</ele>
        <time>2018-03-18T10:13:46Z</time>
      </trkpt>
      <trkpt lat="62.643026597119" lon="17.973569936737">
        <ele>29.2</ele>
        <time>2018-03-18T10:13:47Z</time>
      </trkpt>
      <trkpt lat="62.643037577408" lon="17.973651744081">
        <ele>29.2</ele>
        <time>2018-03-18T10:13:48Z</time>
      </trkpt>
      <trkpt lat="62.643036152485" lon="17.973745118447">
        <ele>29</ele>
        <time>2018-03-18T10:13:49Z</time>
      </trkpt>
      <trkpt lat="62.643038331779" lon="17.973817621882">
        <ele>29</ele>
        <time>2018-03-18T10:13:50Z</time>
      </trkpt>
      <trkpt lat="62.643031123345" lon="17.973913091723">
        <ele>29</ele>
        <time>2018-03-18T10:13:51Z</time>
      </trkpt>
      <trkpt lat="62.643027519128" lon="17.97401057322">
        <ele>29</ele>
        <time>2018-03-18T10:13:52Z</time>
      </trkpt>
      <trkpt lat="62.643025423653" lon="17.974074024203">
        <ele>29</ele>
        <time>2018-03-18T10:13:53Z</time>
      </trkpt>
      <trkpt lat="62.643017712305" lon="17.974182737446">
        <ele>29</ele>
        <time>2018-03-18T10:13:54Z</time>
      </trkpt>
      <trkpt lat="62.643011006785" lon="17.974259850926">
        <ele>28.8</ele>
        <time>2018-03-18T10:13:55Z</time>
      </trkpt>
      <trkpt lat="62.643001199962" lon="17.974350794541">
        <ele>28.8</ele>
        <time>2018-03-18T10:13:56Z</time>
      </trkpt>
      <trkpt lat="62.642998266297" lon="17.974421873053">
        <ele>28.6</ele>
        <time>2018-03-18T10:13:57Z</time>
      </trkpt>
      <trkpt lat="62.642994242985" lon="17.974490939909">
        <ele>28.6</ele>
        <time>2018-03-18T10:13:58Z</time>
      </trkpt>
      <trkpt lat="62.642985358171" lon="17.974573585443">
        <ele>28.6</ele>
        <time>2018-03-18T10:13:59Z</time>
      </trkpt>
      <trkpt lat="62.642983849429" lon="17.974663942325">
        <ele>28.6</ele>
        <time>2018-03-18T10:14:00Z</time>
      </trkpt>
      <trkpt lat="62.642979155565" lon="17.974735020837">
        <ele>28.6</ele>
        <time>2018-03-18T10:14:01Z</time>
      </trkpt>
      <trkpt lat="62.642977730642" lon="17.97483199942">
        <ele>28.6</ele>
        <time>2018-03-18T10:14:02Z</time>
      </trkpt>
      <trkpt lat="62.642976305719" lon="17.97488899634">
        <ele>28.6</ele>
        <time>2018-03-18T10:14:03Z</time>
      </trkpt>
      <trkpt lat="62.642972617683" lon="17.974982538344">
        <ele>28.6</ele>
        <time>2018-03-18T10:14:04Z</time>
      </trkpt>
      <trkpt lat="62.642965660706" lon="17.975046743698">
        <ele>28.6</ele>
        <time>2018-03-18T10:14:05Z</time>
      </trkpt>
      <trkpt lat="62.642979490841" lon="17.975154283475">
        <ele>28.6</ele>
        <time>2018-03-18T10:14:06Z</time>
      </trkpt>
      <trkpt lat="62.642967504724" lon="17.975234079163">
        <ele>28.4</ele>
        <time>2018-03-18T10:14:07Z</time>
      </trkpt>
      <trkpt lat="62.642953423132" lon="17.975311192643">
        <ele>28.4</ele>
        <time>2018-03-18T10:14:08Z</time>
      </trkpt>
      <trkpt lat="62.642933977124" lon="17.975381097689">
        <ele>28.4</ele>
        <time>2018-03-18T10:14:09Z</time>
      </trkpt>
      <trkpt lat="62.642918722066" lon="17.975433233107">
        <ele>28.2</ele>
        <time>2018-03-18T10:14:10Z</time>
      </trkpt>
      <trkpt lat="62.642903718465" lon="17.975504898352">
        <ele>28.4</ele>
        <time>2018-03-18T10:14:11Z</time>
      </trkpt>
      <trkpt lat="62.642890475063" lon="17.975569438982">
        <ele>28.4</ele>
        <time>2018-03-18T10:14:12Z</time>
      </trkpt>
      <trkpt lat="62.642880919697" lon="17.975627274092">
        <ele>28.4</ele>
        <time>2018-03-18T10:14:13Z</time>
      </trkpt>
      <trkpt lat="62.642864491173" lon="17.975691814722">
        <ele>28.4</ele>
        <time>2018-03-18T10:14:14Z</time>
      </trkpt>
      <trkpt lat="62.642865413182" lon="17.975750907117">
        <ele>28.6</ele>
        <time>2018-03-18T10:14:15Z</time>
      </trkpt>
      <trkpt lat="62.642857115101" lon="17.975820728344">
        <ele>28.8</ele>
        <time>2018-03-18T10:14:16Z</time>
      </trkpt>
      <trkpt lat="62.642860048766" lon="17.97588895701">
        <ele>29</ele>
        <time>2018-03-18T10:14:17Z</time>
      </trkpt>
      <trkpt lat="62.642857282739" lon="17.97595601221">
        <ele>29.2</ele>
        <time>2018-03-18T10:14:18Z</time>
      </trkpt>
      <trkpt lat="62.642845128984" lon="17.976044944169">
        <ele>29.4</ele>
        <time>2018-03-18T10:14:19Z</time>
      </trkpt>
      <trkpt lat="62.642851247771" lon="17.976100935261">
        <ele>29.4</ele>
        <time>2018-03-18T10:14:20Z</time>
      </trkpt>
      <trkpt lat="62.642843033509" lon="17.976185173356">
        <ele>29.4</ele>
        <time>2018-03-18T10:14:21Z</time>
      </trkpt>
      <trkpt lat="62.642847475916" lon="17.976251474185">
        <ele>29.4</ele>
        <time>2018-03-18T10:14:22Z</time>
      </trkpt>
      <trkpt lat="62.642849990486" lon="17.976318529385">
        <ele>29.4</ele>
        <time>2018-03-18T10:14:23Z</time>
      </trkpt>
      <trkpt lat="62.642849571391" lon="17.976392290105">
        <ele>29.2</ele>
        <time>2018-03-18T10:14:24Z</time>
      </trkpt>
      <trkpt lat="62.642855606359" lon="17.976436043623">
        <ele>29.4</ele>
        <time>2018-03-18T10:14:25Z</time>
      </trkpt>
      <trkpt lat="62.64285803711" lon="17.976506367764">
        <ele>29.4</ele>
        <time>2018-03-18T10:14:26Z</time>
      </trkpt>
      <trkpt lat="62.642856863644" lon="17.976564454331">
        <ele>29.4</ele>
        <time>2018-03-18T10:14:27Z</time>
      </trkpt>
      <trkpt lat="62.642848062649" lon="17.976622289441">
        <ele>29.4</ele>
        <time>2018-03-18T10:14:28Z</time>
      </trkpt>
      <trkpt lat="62.642836663265" lon="17.976708287735">
        <ele>29.4</ele>
        <time>2018-03-18T10:14:29Z</time>
      </trkpt>
      <trkpt lat="62.642834400152" lon="17.976782802826">
        <ele>29.6</ele>
        <time>2018-03-18T10:14:30Z</time>
      </trkpt>
      <trkpt lat="62.642828868098" lon="17.976834602968">
        <ele>29.4</ele>
        <time>2018-03-18T10:14:31Z</time>
      </trkpt>
      <trkpt lat="62.642822916949" lon="17.97690149053">
        <ele>29.4</ele>
        <time>2018-03-18T10:14:32Z</time>
      </trkpt>
      <trkpt lat="62.642814870325" lon="17.976942980935">
        <ele>29.4</ele>
        <time>2018-03-18T10:14:33Z</time>
      </trkpt>
      <trkpt lat="62.642802548932" lon="17.976997379466">
        <ele>29.4</ele>
        <time>2018-03-18T10:14:34Z</time>
      </trkpt>
      <trkpt lat="62.642799782905" lon="17.977038869871">
        <ele>29.4</ele>
        <time>2018-03-18T10:14:35Z</time>
      </trkpt>
      <trkpt lat="62.642788802616" lon="17.977100393017">
        <ele>29.4</ele>
        <time>2018-03-18T10:14:36Z</time>
      </trkpt>
      <trkpt lat="62.642781426544" lon="17.977154456272">
        <ele>29.8</ele>
        <time>2018-03-18T10:14:37Z</time>
      </trkpt>
      <trkpt lat="62.642772709368" lon="17.977209022441">
        <ele>30</ele>
        <time>2018-03-18T10:14:38Z</time>
      </trkpt>
      <trkpt lat="62.642772206454" lon="17.977260906402">
        <ele>30.4</ele>
        <time>2018-03-18T10:14:39Z</time>
      </trkpt>
      <trkpt lat="62.642760723251" lon="17.977307928861">
        <ele>30.6</ele>
        <time>2018-03-18T10:14:40Z</time>
      </trkpt>
      <trkpt lat="62.642757370491" lon="17.977358974632">
        <ele>30.6</ele>
        <time>2018-03-18T10:14:41Z</time>
      </trkpt>
      <trkpt lat="62.64274404327" lon="17.97741111005">
        <ele>30.6</ele>
        <time>2018-03-18T10:14:42Z</time>
      </trkpt>
      <trkpt lat="62.642725770728" lon="17.97745637231">
        <ele>30.4</ele>
        <time>2018-03-18T10:14:43Z</time>
      </trkpt>
      <trkpt lat="62.642713365516" lon="17.977512195764">
        <ele>30.4</ele>
        <time>2018-03-18T10:14:44Z</time>
      </trkpt>
      <trkpt lat="62.64269626644" lon="17.977549914314">
        <ele>30.4</ele>
        <time>2018-03-18T10:14:45Z</time>
      </trkpt>
      <trkpt lat="62.642676485156" lon="17.977588219597">
        <ele>30.4</ele>
        <time>2018-03-18T10:14:46Z</time>
      </trkpt>
      <trkpt lat="62.642667097428" lon="17.977622920663">
        <ele>30.6</ele>
        <time>2018-03-18T10:14:47Z</time>
      </trkpt>
      <trkpt lat="62.642644131022" lon="17.977655693892">
        <ele>30.6</ele>
        <time>2018-03-18T10:14:48Z</time>
      </trkpt>
      <trkpt lat="62.642624601195" lon="17.977690981691">
        <ele>30.8</ele>
        <time>2018-03-18T10:14:49Z</time>
      </trkpt>
      <trkpt lat="62.642610268146" lon="17.977719899246">
        <ele>31</ele>
        <time>2018-03-18T10:14:50Z</time>
      </trkpt>
      <trkpt lat="62.642592247061" lon="17.977743452385">
        <ele>31</ele>
        <time>2018-03-18T10:14:51Z</time>
      </trkpt>
      <trkpt lat="62.642572968691" lon="17.977765412963">
        <ele>31.2</ele>
        <time>2018-03-18T10:14:52Z</time>
      </trkpt>
      <trkpt lat="62.642556875443" lon="17.977789469016">
        <ele>31.4</ele>
        <time>2018-03-18T10:14:53Z</time>
      </trkpt>
      <trkpt lat="62.64253533396" lon="17.977817045467">
        <ele>31.6</ele>
        <time>2018-03-18T10:14:54Z</time>
      </trkpt>
      <trkpt lat="62.642523180205" lon="17.977855937483">
        <ele>31.8</ele>
        <time>2018-03-18T10:14:55Z</time>
      </trkpt>
      <trkpt lat="62.64249761541" lon="17.977886112323">
        <ele>31.8</ele>
        <time>2018-03-18T10:14:56Z</time>
      </trkpt>
      <trkpt lat="62.642473726995" lon="17.977916287163">
        <ele>32.2</ele>
        <time>2018-03-18T10:14:57Z</time>
      </trkpt>
      <trkpt lat="62.642458471937" lon="17.977954089532">
        <ele>32.4</ele>
        <time>2018-03-18T10:14:58Z</time>
      </trkpt>
      <trkpt lat="62.642439612662" lon="17.977974457549">
        <ele>32.6</ele>
        <time>2018-03-18T10:14:59Z</time>
      </trkpt>
      <trkpt lat="62.64242972202" lon="17.977995496118">
        <ele>32.8</ele>
        <time>2018-03-18T10:15:00Z</time>
      </trkpt>
      <trkpt lat="62.642412203849" lon="17.978041764206">
        <ele>32.8</ele>
        <time>2018-03-18T10:15:01Z</time>
      </trkpt>
      <trkpt lat="62.642392757841" lon="17.978085433905">
        <ele>33</ele>
        <time>2018-03-18T10:15:02Z</time>
      </trkpt>
      <trkpt lat="62.642382364285" lon="17.978125415568">
        <ele>33.2</ele>
        <time>2018-03-18T10:15:03Z</time>
      </trkpt>
      <trkpt lat="62.642367779779" lon="17.978160200453">
        <ele>33.6</ele>
        <time>2018-03-18T10:15:04Z</time>
      </trkpt>
      <trkpt lat="62.642358559689" lon="17.978186603438">
        <ele>33.8</ele>
        <time>2018-03-18T10:15:05Z</time>
      </trkpt>
      <trkpt lat="62.642344561916" lon="17.978223819074">
        <ele>34</ele>
        <time>2018-03-18T10:15:06Z</time>
      </trkpt>
      <trkpt lat="62.64233500655" lon="17.978274026655">
        <ele>34.2</ele>
        <time>2018-03-18T10:15:07Z</time>
      </trkpt>
      <trkpt lat="62.642324864451" lon="17.978315684698">
        <ele>34.4</ele>
        <time>2018-03-18T10:15:08Z</time>
      </trkpt>
      <trkpt lat="62.642303909701" lon="17.978358767664">
        <ele>34.4</ele>
        <time>2018-03-18T10:15:09Z</time>
      </trkpt>
      <trkpt lat="62.642284798969" lon="17.97839682149">
        <ele>34.6</ele>
        <time>2018-03-18T10:15:10Z</time>
      </trkpt>
      <trkpt lat="62.642263508943" lon="17.978438563352">
        <ele>34.6</ele>
        <time>2018-03-18T10:15:11Z</time>
      </trkpt>
      <trkpt lat="62.642240626356" lon="17.97848399325">
        <ele>34.8</ele>
        <time>2018-03-18T10:15:12Z</time>
      </trkpt>
      <trkpt lat="62.642223359642" lon="17.978516431203">
        <ele>34.8</ele>
        <time>2018-03-18T10:15:13Z</time>
      </trkpt>
      <trkpt lat="62.642207517851" lon="17.978552389554">
        <ele>34.8</ele>
        <time>2018-03-18T10:15:14Z</time>
      </trkpt>
      <trkpt lat="62.642196789019" lon="17.978580217462">
        <ele>34.8</ele>
        <time>2018-03-18T10:15:15Z</time>
      </trkpt>
      <trkpt lat="62.642179689943" lon="17.978606788085">
        <ele>34.8</ele>
        <time>2018-03-18T10:15:16Z</time>
      </trkpt>
      <trkpt lat="62.642166949455" lon="17.978630425043">
        <ele>35</ele>
        <time>2018-03-18T10:15:17Z</time>
      </trkpt>
      <trkpt lat="62.642148593094" lon="17.97865163125">
        <ele>35.2</ele>
        <time>2018-03-18T10:15:18Z</time>
      </trkpt>
      <trkpt lat="62.642133421855" lon="17.978680381167">
        <ele>35.4</ele>
        <time>2018-03-18T10:15:19Z</time>
      </trkpt>
      <trkpt lat="62.642123363575" lon="17.978696558234">
        <ele>35.8</ele>
        <time>2018-03-18T10:15:20Z</time>
      </trkpt>
      <trkpt lat="62.642105761585" lon="17.978709717817">
        <ele>35.8</ele>
        <time>2018-03-18T10:15:21Z</time>
      </trkpt>
      <trkpt lat="62.642087656681" lon="17.978730588748">
        <ele>36</ele>
        <time>2018-03-18T10:15:22Z</time>
      </trkpt>
      <trkpt lat="62.642066031379" lon="17.978736539897">
        <ele>36</ele>
        <time>2018-03-18T10:15:23Z</time>
      </trkpt>
      <trkpt lat="62.642042142964" lon="17.978752968421">
        <ele>36.2</ele>
        <time>2018-03-18T10:15:24Z</time>
      </trkpt>
      <trkpt lat="62.642031917046" lon="17.978758332837">
        <ele>36.4</ele>
        <time>2018-03-18T10:15:25Z</time>
      </trkpt>
      <trkpt lat="62.642008363907" lon="17.978764032529">
        <ele>36.4</ele>
        <time>2018-03-18T10:15:26Z</time>
      </trkpt>
      <trkpt lat="62.641990175184" lon="17.978760344493">
        <ele>36.8</ele>
        <time>2018-03-18T10:15:27Z</time>
      </trkpt>
      <trkpt lat="62.641971651185" lon="17.978776940655">
        <ele>36.8</ele>
        <time>2018-03-18T10:15:28Z</time>
      </trkpt>
      <trkpt lat="62.641956312308" lon="17.978782305071">
        <ele>37.2</ele>
        <time>2018-03-18T10:15:29Z</time>
      </trkpt>
      <trkpt lat="62.641941643983" lon="17.978791022247">
        <ele>37.2</ele>
        <time>2018-03-18T10:15:30Z</time>
      </trkpt>
      <trkpt lat="62.641923371441" lon="17.978803427459">
        <ele>37.6</ele>
        <time>2018-03-18T10:15:31Z</time>
      </trkpt>
      <trkpt lat="62.64190585327" lon="17.978803427459">
        <ele>37.6</ele>
        <time>2018-03-18T10:15:32Z</time>
      </trkpt>
      <trkpt lat="62.641891771678" lon="17.978822957286">
        <ele>37.8</ele>
        <time>2018-03-18T10:15:33Z</time>
      </trkpt>
      <trkpt lat="62.641875343154" lon="17.978831087729">
        <ele>38</ele>
        <time>2018-03-18T10:15:34Z</time>
      </trkpt>
      <trkpt lat="62.641868050901" lon="17.978835949231">
        <ele>38.2</ele>
        <time>2018-03-18T10:15:35Z</time>
      </trkpt>
      <trkpt lat="62.641856148603" lon="17.978847348615">
        <ele>38.2</ele>
        <time>2018-03-18T10:15:36Z</time>
      </trkpt>
      <trkpt lat="62.641842569925" lon="17.978856401067">
        <ele>38.4</ele>
        <time>2018-03-18T10:15:37Z</time>
      </trkpt>
      <trkpt lat="62.641835696767" lon="17.978866878442">
        <ele>38.6</ele>
        <time>2018-03-18T10:15:38Z</time>
      </trkpt>
      <trkpt lat="62.641815161112" lon="17.97887458979">
        <ele>38.8</ele>
        <time>2018-03-18T10:15:39Z</time>
      </trkpt>
      <trkpt lat="62.641808036497" lon="17.978873667781">
        <ele>39</ele>
        <time>2018-03-18T10:15:40Z</time>
      </trkpt>
      <trkpt lat="62.641792278525" lon="17.978883139328">
        <ele>39.4</ele>
        <time>2018-03-18T10:15:41Z</time>
      </trkpt>
      <trkpt lat="62.641782555521" lon="17.978885234803">
        <ele>39.4</ele>
        <time>2018-03-18T10:15:42Z</time>
      </trkpt>
      <trkpt lat="62.641770485585" lon="17.978894203436">
        <ele>39.8</ele>
        <time>2018-03-18T10:15:43Z</time>
      </trkpt>
      <trkpt lat="62.641754392337" lon="17.978898645843">
        <ele>40</ele>
        <time>2018-03-18T10:15:44Z</time>
      </trkpt>
      <trkpt lat="62.641740646021" lon="17.978900322223">
        <ele>40.2</ele>
        <time>2018-03-18T10:15:45Z</time>
      </trkpt>
      <trkpt lat="62.641724552773" lon="17.978906776286">
        <ele>40.4</ele>
        <time>2018-03-18T10:15:46Z</time>
      </trkpt>
      <trkpt lat="62.641709968267" lon="17.978905183725">
        <ele>40.6</ele>
        <time>2018-03-18T10:15:47Z</time>
      </trkpt>
      <trkpt lat="62.641695216123" lon="17.978906189553">
        <ele>40.8</ele>
        <time>2018-03-18T10:15:48Z</time>
      </trkpt>
      <trkpt lat="62.64167283645" lon="17.978907782114">
        <ele>41</ele>
        <time>2018-03-18T10:15:49Z</time>
      </trkpt>
      <trkpt lat="62.641658168125" lon="17.97890979377">
        <ele>41.2</ele>
        <time>2018-03-18T10:15:50Z</time>
      </trkpt>
      <trkpt lat="62.641639811764" lon="17.978909039399">
        <ele>41.4</ele>
        <time>2018-03-18T10:15:51Z</time>
      </trkpt>
      <trkpt lat="62.641622125955" lon="17.978901914784">
        <ele>41.4</ele>
        <time>2018-03-18T10:15:52Z</time>
      </trkpt>
      <trkpt lat="62.641607625268" lon="17.978906776286">
        <ele>41.6</ele>
        <time>2018-03-18T10:15:53Z</time>
      </trkpt>
      <trkpt lat="62.641589604183" lon="17.978904680811">
        <ele>41.8</ele>
        <time>2018-03-18T10:15:54Z</time>
      </trkpt>
      <trkpt lat="62.641574432944" lon="17.97889722092">
        <ele>42</ele>
        <time>2018-03-18T10:15:55Z</time>
      </trkpt>
      <trkpt lat="62.64155548985" lon="17.978904429354">
        <ele>42.4</ele>
        <time>2018-03-18T10:15:56Z</time>
      </trkpt>
      <trkpt lat="62.641535540928" lon="17.978897975291">
        <ele>42.4</ele>
        <time>2018-03-18T10:15:57Z</time>
      </trkpt>
      <trkpt lat="62.641517855119" lon="17.978905938096">
        <ele>42.6</ele>
        <time>2018-03-18T10:15:58Z</time>
      </trkpt>
      <trkpt lat="62.641496648912" lon="17.978893113789">
        <ele>42.8</ele>
        <time>2018-03-18T10:15:59Z</time>
      </trkpt>
      <trkpt lat="62.64147502361" lon="17.978909290856">
        <ele>43</ele>
        <time>2018-03-18T10:16:00Z</time>
      </trkpt>
      <trkpt lat="62.641458343629" lon="17.978899651671">
        <ele>43.4</ele>
        <time>2018-03-18T10:16:01Z</time>
      </trkpt>
      <trkpt lat="62.641439651992" lon="17.97888297169">
        <ele>43.4</ele>
        <time>2018-03-18T10:16:02Z</time>
      </trkpt>
      <trkpt lat="62.641419535432" lon="17.97888716264">
        <ele>43.6</ele>
        <time>2018-03-18T10:16:03Z</time>
      </trkpt>
      <trkpt lat="62.641398496863" lon="17.978869644469">
        <ele>44</ele>
        <time>2018-03-18T10:16:04Z</time>
      </trkpt>
      <trkpt lat="62.641373434982" lon="17.978891856504">
        <ele>44.2</ele>
        <time>2018-03-18T10:16:05Z</time>
      </trkpt>
      <trkpt lat="62.641351558223" lon="17.978884396613">
        <ele>44.2</ele>
        <time>2018-03-18T10:16:06Z</time>
      </trkpt>
      <trkpt lat="62.641335716432" lon="17.978882301138">
        <ele>44.4</ele>
        <time>2018-03-18T10:16:07Z</time>
      </trkpt>
      <trkpt lat="62.641315264596" lon="17.97887794255">
        <ele>44.8</ele>
        <time>2018-03-18T10:16:08Z</time>
      </trkpt>
      <trkpt lat="62.641297075873" lon="17.978889258115">
        <ele>45</ele>
        <time>2018-03-18T10:16:09Z</time>
      </trkpt>
      <trkpt lat="62.641281150263" lon="17.978904177897">
        <ele>45.2</ele>
        <time>2018-03-18T10:16:10Z</time>
      </trkpt>
      <trkpt lat="62.641254914916" lon="17.978894622531">
        <ele>45.4</ele>
        <time>2018-03-18T10:16:11Z</time>
      </trkpt>
      <trkpt lat="62.641235720365" lon="17.978901914784">
        <ele>45.4</ele>
        <time>2018-03-18T10:16:12Z</time>
      </trkpt>
      <trkpt lat="62.641211496674" lon="17.978894873988">
        <ele>45.6</ele>
        <time>2018-03-18T10:16:13Z</time>
      </trkpt>
      <trkpt lat="62.641185764241" lon="17.978889928667">
        <ele>45.6</ele>
        <time>2018-03-18T10:16:14Z</time>
      </trkpt>
      <trkpt lat="62.641167910794" lon="17.978910883417">
        <ele>45.6</ele>
        <time>2018-03-18T10:16:15Z</time>
      </trkpt>
      <trkpt lat="62.641137149221" lon="17.97891230834">
        <ele>45.8</ele>
        <time>2018-03-18T10:16:16Z</time>
      </trkpt>
      <trkpt lat="62.641111584426" lon="17.978911218693">
        <ele>46</ele>
        <time>2018-03-18T10:16:17Z</time>
      </trkpt>
      <trkpt lat="62.641093311884" lon="17.978936699669">
        <ele>46.4</ele>
        <time>2018-03-18T10:16:18Z</time>
      </trkpt>
      <trkpt lat="62.641067327994" lon="17.978946422673">
        <ele>46.4</ele>
        <time>2018-03-18T10:16:19Z</time>
      </trkpt>
      <trkpt lat="62.641049726004" lon="17.978972155106">
        <ele>46.6</ele>
        <time>2018-03-18T10:16:20Z</time>
      </trkpt>
      <trkpt lat="62.641033632756" lon="17.978995792064">
        <ele>46.6</ele>
        <time>2018-03-18T10:16:21Z</time>
      </trkpt>
      <trkpt lat="62.641005469572" lon="17.97907743177">
        <ele>47</ele>
        <time>2018-03-18T10:16:23Z</time>
      </trkpt>
      <trkpt lat="62.640989795419" lon="17.979133841957">
        <ele>47</ele>
        <time>2018-03-18T10:16:24Z</time>
      </trkpt>
      <trkpt lat="62.640982922261" lon="17.979191760886">
        <ele>47.2</ele>
        <time>2018-03-18T10:16:25Z</time>
      </trkpt>
      <trkpt lat="62.640974791818" lon="17.979250601824">
        <ele>47.6</ele>
        <time>2018-03-18T10:16:26Z</time>
      </trkpt>
      <trkpt lat="62.640964230624" lon="17.979305922364">
        <ele>47.6</ele>
        <time>2018-03-18T10:16:27Z</time>
      </trkpt>
      <trkpt lat="62.640961380778" lon="17.979357219592">
        <ele>47.8</ele>
        <time>2018-03-18T10:16:28Z</time>
      </trkpt>
      <trkpt lat="62.640964230624" lon="17.97939678216">
        <ele>47.8</ele>
        <time>2018-03-18T10:16:29Z</time>
      </trkpt>
      <trkpt lat="62.64096205133" lon="17.9794604846">
        <ele>47.8</ele>
        <time>2018-03-18T10:16:30Z</time>
      </trkpt>
      <trkpt lat="62.640955429629" lon="17.979509770172">
        <ele>47.8</ele>
        <time>2018-03-18T10:16:31Z</time>
      </trkpt>
      <trkpt lat="62.640953837068" lon="17.979548410731">
        <ele>48</ele>
        <time>2018-03-18T10:16:32Z</time>
      </trkpt>
      <trkpt lat="62.640943862607" lon="17.979614208646">
        <ele>47.8</ele>
        <time>2018-03-18T10:16:33Z</time>
      </trkpt>
      <trkpt lat="62.640937073268" lon="17.979675647973">
        <ele>47.8</ele>
        <time>2018-03-18T10:16:34Z</time>
      </trkpt>
      <trkpt lat="62.640938749648" lon="17.979711522505">
        <ele>48</ele>
        <time>2018-03-18T10:16:35Z</time>
      </trkpt>
      <trkpt lat="62.640936151259" lon="17.979769609072">
        <ele>48</ele>
        <time>2018-03-18T10:16:36Z</time>
      </trkpt>
      <trkpt lat="62.640937408544" lon="17.979812943495">
        <ele>48</ele>
        <time>2018-03-18T10:16:37Z</time>
      </trkpt>
      <trkpt lat="62.640935396888" lon="17.979857367565">
        <ele>48</ele>
        <time>2018-03-18T10:16:38Z</time>
      </trkpt>
      <trkpt lat="62.640925925341" lon="17.979914448304">
        <ele>48</ele>
        <time>2018-03-18T10:16:39Z</time>
      </trkpt>
      <trkpt lat="62.640931792671" lon="17.979943365859">
        <ele>48</ele>
        <time>2018-03-18T10:16:40Z</time>
      </trkpt>
      <trkpt lat="62.640925757703" lon="17.979993489621">
        <ele>48</ele>
        <time>2018-03-18T10:16:41Z</time>
      </trkpt>
      <trkpt lat="62.640921231477" lon="17.98004805579">
        <ele>48.2</ele>
        <time>2018-03-18T10:16:42Z</time>
      </trkpt>
      <trkpt lat="62.640927434083" lon="17.980095916439">
        <ele>48.2</ele>
        <time>2018-03-18T10:16:43Z</time>
      </trkpt>
      <trkpt lat="62.640922824038" lon="17.98015869687">
        <ele>48.2</ele>
        <time>2018-03-18T10:16:44Z</time>
      </trkpt>
      <trkpt lat="62.640931373576" lon="17.980213514496">
        <ele>48.2</ele>
        <time>2018-03-18T10:16:45Z</time>
      </trkpt>
      <trkpt lat="62.640923243133" lon="17.980276965479">
        <ele>48.2</ele>
        <time>2018-03-18T10:16:46Z</time>
      </trkpt>
      <trkpt lat="62.64092433278" lon="17.980334046218">
        <ele>48.2</ele>
        <time>2018-03-18T10:16:47Z</time>
      </trkpt>
      <trkpt lat="62.640923075495" lon="17.980405208549">
        <ele>48.2</ele>
        <time>2018-03-18T10:16:48Z</time>
      </trkpt>
      <trkpt lat="62.640926176798" lon="17.980470838826">
        <ele>48.2</ele>
        <time>2018-03-18T10:16:49Z</time>
      </trkpt>
      <trkpt lat="62.640932127947" lon="17.980531859058">
        <ele>48</ele>
        <time>2018-03-18T10:16:50Z</time>
      </trkpt>
      <trkpt lat="62.640940342209" lon="17.980606038873">
        <ele>48</ele>
        <time>2018-03-18T10:16:51Z</time>
      </trkpt>
      <trkpt lat="62.640946796272" lon="17.980663957802">
        <ele>47.8</ele>
        <time>2018-03-18T10:16:52Z</time>
      </trkpt>
      <trkpt lat="62.640952412145" lon="17.980741574196">
        <ele>47.8</ele>
        <time>2018-03-18T10:16:53Z</time>
      </trkpt>
      <trkpt lat="62.640958950027" lon="17.980825560834">
        <ele>47.6</ele>
        <time>2018-03-18T10:16:54Z</time>
      </trkpt>
      <trkpt lat="62.640972863981" lon="17.980881971021">
        <ele>47.4</ele>
        <time>2018-03-18T10:16:55Z</time>
      </trkpt>
      <trkpt lat="62.64099222617" lon="17.98096587384">
        <ele>47.2</ele>
        <time>2018-03-18T10:16:56Z</time>
      </trkpt>
      <trkpt lat="62.641005721029" lon="17.981035611248">
        <ele>47</ele>
        <time>2018-03-18T10:16:57Z</time>
      </trkpt>
      <trkpt lat="62.641027178693" lon="17.981096715299">
        <ele>46.4</ele>
        <time>2018-03-18T10:16:58Z</time>
      </trkpt>
      <trkpt lat="62.6410483849" lon="17.981175924254">
        <ele>46.2</ele>
        <time>2018-03-18T10:16:59Z</time>
      </trkpt>
      <trkpt lat="62.641063639958" lon="17.981278853986">
        <ele>45.8</ele>
        <time>2018-03-18T10:17:00Z</time>
      </trkpt>
      <trkpt lat="62.641072776229" lon="17.981386226125">
        <ele>45.6</ele>
        <time>2018-03-18T10:17:01Z</time>
      </trkpt>
      <trkpt lat="62.641070848392" lon="17.98145118585">
        <ele>45</ele>
        <time>2018-03-18T10:17:02Z</time>
      </trkpt>
      <trkpt lat="62.641059784284" lon="17.981556713971">
        <ele>44.6</ele>
        <time>2018-03-18T10:17:03Z</time>
      </trkpt>
      <trkpt lat="62.641056431524" lon="17.981636761116">
        <ele>44.4</ele>
        <time>2018-03-18T10:17:04Z</time>
      </trkpt>
      <trkpt lat="62.641054922782" lon="17.981709767465">
        <ele>44.2</ele>
        <time>2018-03-18T10:17:05Z</time>
      </trkpt>
      <trkpt lat="62.641047714348" lon="17.981798028872">
        <ele>44.2</ele>
        <time>2018-03-18T10:17:06Z</time>
      </trkpt>
      <trkpt lat="62.641042852846" lon="17.981878411293">
        <ele>44.2</ele>
        <time>2018-03-18T10:17:07Z</time>
      </trkpt>
      <trkpt lat="62.641042266113" lon="17.981962565569">
        <ele>44.4</ele>
        <time>2018-03-18T10:17:08Z</time>
      </trkpt>
      <trkpt lat="62.641047295253" lon="17.982026770923">
        <ele>44.6</ele>
        <time>2018-03-18T10:17:09Z</time>
      </trkpt>
      <trkpt lat="62.641055593334" lon="17.982105979878">
        <ele>44.4</ele>
        <time>2018-03-18T10:17:10Z</time>
      </trkpt>
      <trkpt lat="62.641087276916" lon="17.982172448345">
        <ele>44.4</ele>
        <time>2018-03-18T10:17:11Z</time>
      </trkpt>
      <trkpt lat="62.641087612192" lon="17.982244532685">
        <ele>44.2</ele>
        <time>2018-03-18T10:17:12Z</time>
      </trkpt>
      <trkpt lat="62.64109616173" lon="17.982323406364">
        <ele>44.4</ele>
        <time>2018-03-18T10:17:13Z</time>
      </trkpt>
      <trkpt lat="62.641102531974" lon="17.982385432424">
        <ele>44.4</ele>
        <time>2018-03-18T10:17:14Z</time>
      </trkpt>
      <trkpt lat="62.64110789639" lon="17.982461120981">
        <ele>44.4</ele>
        <time>2018-03-18T10:17:15Z</time>
      </trkpt>
      <trkpt lat="62.641119882507" lon="17.982542341592">
        <ele>44.4</ele>
        <time>2018-03-18T10:17:16Z</time>
      </trkpt>
      <trkpt lat="62.641127342398" lon="17.98260285891">
        <ele>44.4</ele>
        <time>2018-03-18T10:17:17Z</time>
      </trkpt>
      <trkpt lat="62.641137065402" lon="17.982682403141">
        <ele>44.2</ele>
        <time>2018-03-18T10:17:18Z</time>
      </trkpt>
      <trkpt lat="62.641153577745" lon="17.982766138322">
        <ele>44.2</ele>
        <time>2018-03-18T10:17:19Z</time>
      </trkpt>
      <trkpt lat="62.641161624369" lon="17.982844676725">
        <ele>44.2</ele>
        <time>2018-03-18T10:17:20Z</time>
      </trkpt>
      <trkpt lat="62.641180902739" lon="17.982931010295">
        <ele>44</ele>
        <time>2018-03-18T10:17:21Z</time>
      </trkpt>
      <trkpt lat="62.641191631571" lon="17.98300099916">
        <ele>44</ele>
        <time>2018-03-18T10:17:22Z</time>
      </trkpt>
      <trkpt lat="62.641192721218" lon="17.983069060188">
        <ele>44</ele>
        <time>2018-03-18T10:17:23Z</time>
      </trkpt>
      <trkpt lat="62.641194732874" lon="17.983151705722">
        <ele>43.8</ele>
        <time>2018-03-18T10:17:24Z</time>
      </trkpt>
      <trkpt lat="62.641199175281" lon="17.983229238297">
        <ele>43.8</ele>
        <time>2018-03-18T10:17:25Z</time>
      </trkpt>
      <trkpt lat="62.641204372059" lon="17.983299310981">
        <ele>43.4</ele>
        <time>2018-03-18T10:17:26Z</time>
      </trkpt>
      <trkpt lat="62.641221806411" lon="17.983375837728">
        <ele>43.4</ele>
        <time>2018-03-18T10:17:27Z</time>
      </trkpt>
      <trkpt lat="62.641241503876" lon="17.983464434411">
        <ele>43</ele>
        <time>2018-03-18T10:17:28Z</time>
      </trkpt>
      <trkpt lat="62.641246700654" lon="17.983554456017">
        <ele>42.8</ele>
        <time>2018-03-18T10:17:29Z</time>
      </trkpt>
      <trkpt lat="62.641247203568" lon="17.98365059641">
        <ele>42.4</ele>
        <time>2018-03-18T10:17:30Z</time>
      </trkpt>
      <trkpt lat="62.641260530789" lon="17.983758220006">
        <ele>42</ele>
        <time>2018-03-18T10:17:31Z</time>
      </trkpt>
      <trkpt lat="62.641254412002" lon="17.98387187857">
        <ele>41.4</ele>
        <time>2018-03-18T10:17:32Z</time>
      </trkpt>
      <trkpt lat="62.641248879948" lon="17.983967851325">
        <ele>41</ele>
        <time>2018-03-18T10:17:33Z</time>
      </trkpt>
      <trkpt lat="62.64124535955" lon="17.984079582052">
        <ele>40.8</ele>
        <time>2018-03-18T10:17:34Z</time>
      </trkpt>
      <trkpt lat="62.641242593523" lon="17.984177650282">
        <ele>40.8</ele>
        <time>2018-03-18T10:17:35Z</time>
      </trkpt>
      <trkpt lat="62.64123865403" lon="17.984291476484">
        <ele>41</ele>
        <time>2018-03-18T10:17:36Z</time>
      </trkpt>
      <trkpt lat="62.641237145288" lon="17.984395244406">
        <ele>40.6</ele>
        <time>2018-03-18T10:17:37Z</time>
      </trkpt>
      <trkpt lat="62.641234546899" lon="17.984500018156">
        <ele>40</ele>
        <time>2018-03-18T10:17:38Z</time>
      </trkpt>
      <trkpt lat="62.641239073125" lon="17.984603869897">
        <ele>39.6</ele>
        <time>2018-03-18T10:17:39Z</time>
      </trkpt>
      <trkpt lat="62.641236474736" lon="17.984725658904">
        <ele>39.2</ele>
        <time>2018-03-18T10:17:40Z</time>
      </trkpt>
      <trkpt lat="62.641234798356" lon="17.984804616402">
        <ele>39.2</ele>
        <time>2018-03-18T10:17:41Z</time>
      </trkpt>
      <trkpt lat="62.641225075352" lon="17.984906037392">
        <ele>38.8</ele>
        <time>2018-03-18T10:17:42Z</time>
      </trkpt>
      <trkpt lat="62.641211412855" lon="17.985000752862">
        <ele>38.8</ele>
        <time>2018-03-18T10:17:43Z</time>
      </trkpt>
      <trkpt lat="62.64119842091" lon="17.985080213274">
        <ele>38.8</ele>
        <time>2018-03-18T10:17:44Z</time>
      </trkpt>
      <trkpt lat="62.641189536096" lon="17.98515933841">
        <ele>38.8</ele>
        <time>2018-03-18T10:17:45Z</time>
      </trkpt>
      <trkpt lat="62.641187775897" lon="17.985226896524">
        <ele>39</ele>
        <time>2018-03-18T10:17:46Z</time>
      </trkpt>
      <trkpt lat="62.64117662797" lon="17.985327479324">
        <ele>39</ele>
        <time>2018-03-18T10:17:47Z</time>
      </trkpt>
      <trkpt lat="62.641167575518" lon="17.985428062124">
        <ele>38.8</ele>
        <time>2018-03-18T10:17:48Z</time>
      </trkpt>
      <trkpt lat="62.641158439247" lon="17.985515066246">
        <ele>38.8</ele>
        <time>2018-03-18T10:17:49Z</time>
      </trkpt>
      <trkpt lat="62.641147878053" lon="17.985602489463">
        <ele>38.6</ele>
        <time>2018-03-18T10:17:50Z</time>
      </trkpt>
      <trkpt lat="62.641136059574" lon="17.985673819432">
        <ele>38.4</ele>
        <time>2018-03-18T10:17:51Z</time>
      </trkpt>
      <trkpt lat="62.64111879286" lon="17.98575026236">
        <ele>38.2</ele>
        <time>2018-03-18T10:17:52Z</time>
      </trkpt>
      <trkpt lat="62.641101107051" lon="17.98581564118">
        <ele>38.2</ele>
        <time>2018-03-18T10:17:53Z</time>
      </trkpt>
      <trkpt lat="62.641085097622" lon="17.985889988633">
        <ele>38</ele>
        <time>2018-03-18T10:17:54Z</time>
      </trkpt>
      <trkpt lat="62.641057856447" lon="17.985978082402">
        <ele>38</ele>
        <time>2018-03-18T10:17:55Z</time>
      </trkpt>
      <trkpt lat="62.641045702692" lon="17.986052429855">
        <ele>38</ele>
        <time>2018-03-18T10:17:56Z</time>
      </trkpt>
      <trkpt lat="62.641032040195" lon="17.986112444259">
        <ele>38</ele>
        <time>2018-03-18T10:17:57Z</time>
      </trkpt>
      <trkpt lat="62.641010917807" lon="17.986183019857">
        <ele>38</ele>
        <time>2018-03-18T10:17:58Z</time>
      </trkpt>
      <trkpt lat="62.641006307762" lon="17.986234484723">
        <ele>38</ele>
        <time>2018-03-18T10:17:59Z</time>
      </trkpt>
      <trkpt lat="62.640980072415" lon="17.986303216303">
        <ele>38.2</ele>
        <time>2018-03-18T10:18:00Z</time>
      </trkpt>
      <trkpt lat="62.6409729478" lon="17.986355267902">
        <ele>38.2</ele>
        <time>2018-03-18T10:18:01Z</time>
      </trkpt>
      <trkpt lat="62.640962135149" lon="17.986431040278">
        <ele>38.2</ele>
        <time>2018-03-18T10:18:02Z</time>
      </trkpt>
      <trkpt lat="62.640952244507" lon="17.986514104907">
        <ele>38.2</ele>
        <time>2018-03-18T10:18:03Z</time>
      </trkpt>
      <trkpt lat="62.640949394661" lon="17.986576801519">
        <ele>38.2</ele>
        <time>2018-03-18T10:18:04Z</time>
      </trkpt>
      <trkpt lat="62.640943192055" lon="17.986632122059">
        <ele>38.2</ele>
        <time>2018-03-18T10:18:05Z</time>
      </trkpt>
      <trkpt lat="62.640938498191" lon="17.98671669543">
        <ele>38</ele>
        <time>2018-03-18T10:18:06Z</time>
      </trkpt>
      <trkpt lat="62.640941431856" lon="17.986769836676">
        <ele>38</ele>
        <time>2018-03-18T10:18:07Z</time>
      </trkpt>
      <trkpt lat="62.64093020011" lon="17.986852566029">
        <ele>38</ele>
        <time>2018-03-18T10:18:08Z</time>
      </trkpt>
      <trkpt lat="62.640929278101" lon="17.986908808578">
        <ele>38.2</ele>
        <time>2018-03-18T10:18:09Z</time>
      </trkpt>
      <trkpt lat="62.640923829866" lon="17.98696312329">
        <ele>38.2</ele>
        <time>2018-03-18T10:18:10Z</time>
      </trkpt>
      <trkpt lat="62.64092098002" lon="17.987026993368">
        <ele>38</ele>
        <time>2018-03-18T10:18:11Z</time>
      </trkpt>
      <trkpt lat="62.64091762726" lon="17.98707795532">
        <ele>38.2</ele>
        <time>2018-03-18T10:18:12Z</time>
      </trkpt>
      <trkpt lat="62.640910754102" lon="17.987145597253">
        <ele>38</ele>
        <time>2018-03-18T10:18:13Z</time>
      </trkpt>
      <trkpt lat="62.640903797125" lon="17.987216759584">
        <ele>38</ele>
        <time>2018-03-18T10:18:14Z</time>
      </trkpt>
      <trkpt lat="62.640904048582" lon="17.987280294386">
        <ele>37.8</ele>
        <time>2018-03-18T10:18:15Z</time>
      </trkpt>
      <trkpt lat="62.640890972818" lon="17.987362353187">
        <ele>38</ele>
        <time>2018-03-18T10:18:16Z</time>
      </trkpt>
      <trkpt lat="62.640883596746" lon="17.987420942668">
        <ele>37.8</ele>
        <time>2018-03-18T10:18:17Z</time>
      </trkpt>
      <trkpt lat="62.640874711932" lon="17.987492356456">
        <ele>37.8</ele>
        <time>2018-03-18T10:18:18Z</time>
      </trkpt>
      <trkpt lat="62.640885021669" lon="17.98755488543">
        <ele>37.8</ele>
        <time>2018-03-18T10:18:19Z</time>
      </trkpt>
      <trkpt lat="62.640877226502" lon="17.98762696977">
        <ele>37.8</ele>
        <time>2018-03-18T10:18:20Z</time>
      </trkpt>
      <trkpt lat="62.640870940077" lon="17.987695114617">
        <ele>37.6</ele>
        <time>2018-03-18T10:18:21Z</time>
      </trkpt>
      <trkpt lat="62.640856523209" lon="17.987755799573">
        <ele>37.6</ele>
        <time>2018-03-18T10:18:22Z</time>
      </trkpt>
      <trkpt lat="62.64084554292" lon="17.98782645899">
        <ele>37.4</ele>
        <time>2018-03-18T10:18:23Z</time>
      </trkpt>
      <trkpt lat="62.64084051378" lon="17.987879013503">
        <ele>37.4</ele>
        <time>2018-03-18T10:18:24Z</time>
      </trkpt>
      <trkpt lat="62.640830120224" lon="17.987943135038">
        <ele>37.4</ele>
        <time>2018-03-18T10:18:25Z</time>
      </trkpt>
      <trkpt lat="62.640815451899" lon="17.988016811939">
        <ele>37.2</ele>
        <time>2018-03-18T10:18:26Z</time>
      </trkpt>
      <trkpt lat="62.640797849909" lon="17.988069450271">
        <ele>37.2</ele>
        <time>2018-03-18T10:18:27Z</time>
      </trkpt>
      <trkpt lat="62.640776978978" lon="17.988140612602">
        <ele>37.4</ele>
        <time>2018-03-18T10:18:28Z</time>
      </trkpt>
      <trkpt lat="62.640771195467" lon="17.988189898174">
        <ele>37.4</ele>
        <time>2018-03-18T10:18:29Z</time>
      </trkpt>
      <trkpt lat="62.640757113875" lon="17.988250415492">
        <ele>37.4</ele>
        <time>2018-03-18T10:18:30Z</time>
      </trkpt>
      <trkpt lat="62.640748731975" lon="17.988310513715">
        <ele>37.4</ele>
        <time>2018-03-18T10:18:31Z</time>
      </trkpt>
      <trkpt lat="62.64074076917" lon="17.988357452355">
        <ele>37.4</ele>
        <time>2018-03-18T10:18:32Z</time>
      </trkpt>
      <trkpt lat="62.640720568791" lon="17.988407408479">
        <ele>37.2</ele>
        <time>2018-03-18T10:18:33Z</time>
      </trkpt>
      <trkpt lat="62.64070305062" lon="17.988453089834">
        <ele>37.2</ele>
        <time>2018-03-18T10:18:34Z</time>
      </trkpt>
      <trkpt lat="62.640682766422" lon="17.988494580239">
        <ele>37.2</ele>
        <time>2018-03-18T10:18:35Z</time>
      </trkpt>
      <trkpt lat="62.640659716197" lon="17.988527521106">
        <ele>37</ele>
        <time>2018-03-18T10:18:36Z</time>
      </trkpt>
      <trkpt lat="62.640641611293" lon="17.98856238981">
        <ele>37.2</ele>
        <time>2018-03-18T10:18:37Z</time>
      </trkpt>
      <trkpt lat="62.640618896344" lon="17.988601700921">
        <ele>37.2</ele>
        <time>2018-03-18T10:18:38Z</time>
      </trkpt>
      <trkpt lat="62.64060079144" lon="17.988638329824">
        <ele>37.4</ele>
        <time>2018-03-18T10:18:39Z</time>
      </trkpt>
      <trkpt lat="62.640578411767" lon="17.988673198528">
        <ele>37.6</ele>
        <time>2018-03-18T10:18:40Z</time>
      </trkpt>
      <trkpt lat="62.640552679334" lon="17.988716281494">
        <ele>37.8</ele>
        <time>2018-03-18T10:18:41Z</time>
      </trkpt>
      <trkpt lat="62.640536418448" lon="17.988754586777">
        <ele>37.8</ele>
        <time>2018-03-18T10:18:42Z</time>
      </trkpt>
      <trkpt lat="62.640515212241" lon="17.988785935083">
        <ele>37.8</ele>
        <time>2018-03-18T10:18:43Z</time>
      </trkpt>
      <trkpt lat="62.640496269147" lon="17.988824240366">
        <ele>38</ele>
        <time>2018-03-18T10:18:44Z</time>
      </trkpt>
      <trkpt lat="62.640482941926" lon="17.988855169577">
        <ele>38.2</ele>
        <time>2018-03-18T10:18:45Z</time>
      </trkpt>
      <trkpt lat="62.6404616519" lon="17.98889179848">
        <ele>38.2</ele>
        <time>2018-03-18T10:18:46Z</time>
      </trkpt>
      <trkpt lat="62.640454611104" lon="17.988933288885">
        <ele>38.6</ele>
        <time>2018-03-18T10:18:47Z</time>
      </trkpt>
      <trkpt lat="62.640435165096" lon="17.988983580285">
        <ele>38.6</ele>
        <time>2018-03-18T10:18:48Z</time>
      </trkpt>
      <trkpt lat="62.640412785423" lon="17.989025489785">
        <ele>38.8</ele>
        <time>2018-03-18T10:18:49Z</time>
      </trkpt>
      <trkpt lat="62.640396524537" lon="17.98906865657">
        <ele>38.8</ele>
        <time>2018-03-18T10:18:50Z</time>
      </trkpt>
      <trkpt lat="62.640370456828" lon="17.989119953798">
        <ele>38.8</ele>
        <time>2018-03-18T10:18:51Z</time>
      </trkpt>
      <trkpt lat="62.640356291417" lon="17.989162030936">
        <ele>39</ele>
        <time>2018-03-18T10:18:52Z</time>
      </trkpt>
      <trkpt lat="62.640332989735" lon="17.989197234916">
        <ele>39.2</ele>
        <time>2018-03-18T10:18:53Z</time>
      </trkpt>
      <trkpt lat="62.640318489048" lon="17.989241742805">
        <ele>39.2</ele>
        <time>2018-03-18T10:18:54Z</time>
      </trkpt>
      <trkpt lat="62.640296025556" lon="17.989280383364">
        <ele>39.2</ele>
        <time>2018-03-18T10:18:55Z</time>
      </trkpt>
      <trkpt lat="62.640279932308" lon="17.989339308121">
        <ele>39.2</ele>
        <time>2018-03-18T10:18:56Z</time>
      </trkpt>
      <trkpt lat="62.640259899567" lon="17.98938213963">
        <ele>39.2</ele>
        <time>2018-03-18T10:18:57Z</time>
      </trkpt>
      <trkpt lat="62.640235843514" lon="17.989426144605">
        <ele>39.2</ele>
        <time>2018-03-18T10:18:58Z</time>
      </trkpt>
      <trkpt lat="62.640220001723" lon="17.989463695517">
        <ele>39.6</ele>
        <time>2018-03-18T10:18:59Z</time>
      </trkpt>
      <trkpt lat="62.640203154104" lon="17.989501665524">
        <ele>39.6</ele>
        <time>2018-03-18T10:19:00Z</time>
      </trkpt>
      <trkpt lat="62.64018840196" lon="17.989537120961">
        <ele>39.8</ele>
        <time>2018-03-18T10:19:01Z</time>
      </trkpt>
      <trkpt lat="62.640171219065" lon="17.989582047945">
        <ele>39.8</ele>
        <time>2018-03-18T10:19:02Z</time>
      </trkpt>
      <trkpt lat="62.640164010631" lon="17.98962437654">
        <ele>40</ele>
        <time>2018-03-18T10:19:03Z</time>
      </trkpt>
      <trkpt lat="62.640150431953" lon="17.989665028755">
        <ele>40</ele>
        <time>2018-03-18T10:19:04Z</time>
      </trkpt>
      <trkpt lat="62.640142050053" lon="17.989706854436">
        <ele>40.2</ele>
        <time>2018-03-18T10:19:05Z</time>
      </trkpt>
      <trkpt lat="62.640129477203" lon="17.989754128352">
        <ele>40.2</ele>
        <time>2018-03-18T10:19:06Z</time>
      </trkpt>
      <trkpt lat="62.640118161638" lon="17.989797630413">
        <ele>40.2</ele>
        <time>2018-03-18T10:19:07Z</time>
      </trkpt>
      <trkpt lat="62.64010793572" lon="17.989834594592">
        <ele>40.2</ele>
        <time>2018-03-18T10:19:08Z</time>
      </trkpt>
      <trkpt lat="62.640097961259" lon="17.989873821884">
        <ele>40.4</ele>
        <time>2018-03-18T10:19:09Z</time>
      </trkpt>
      <trkpt lat="62.640089914635" lon="17.989913468271">
        <ele>40.4</ele>
        <time>2018-03-18T10:19:10Z</time>
      </trkpt>
      <trkpt lat="62.640082454744" lon="17.989968788811">
        <ele>40.4</ele>
        <time>2018-03-18T10:19:11Z</time>
      </trkpt>
      <trkpt lat="62.640073486111" lon="17.990020672772">
        <ele>40.6</ele>
        <time>2018-03-18T10:19:12Z</time>
      </trkpt>
      <trkpt lat="62.64005848251" lon="17.990075155122">
        <ele>40.6</ele>
        <time>2018-03-18T10:19:13Z</time>
      </trkpt>
      <trkpt lat="62.640048256592" lon="17.990124273056">
        <ele>40.4</ele>
        <time>2018-03-18T10:19:14Z</time>
      </trkpt>
      <trkpt lat="62.640036773389" lon="17.990161572511">
        <ele>40.2</ele>
        <time>2018-03-18T10:19:15Z</time>
      </trkpt>
      <trkpt lat="62.640023949082" lon="17.99021027135">
        <ele>40.2</ele>
        <time>2018-03-18T10:19:16Z</time>
      </trkpt>
      <trkpt lat="62.640014309897" lon="17.990248995728">
        <ele>40.2</ele>
        <time>2018-03-18T10:19:17Z</time>
      </trkpt>
      <trkpt lat="62.63999645645" lon="17.990290821409">
        <ele>40.2</ele>
        <time>2018-03-18T10:19:18Z</time>
      </trkpt>
      <trkpt lat="62.639988242188" lon="17.990332730909">
        <ele>40.4</ele>
        <time>2018-03-18T10:19:19Z</time>
      </trkpt>
      <trkpt lat="62.639969466732" lon="17.99036952745">
        <ele>40.4</ele>
        <time>2018-03-18T10:19:20Z</time>
      </trkpt>
      <trkpt lat="62.639960833375" lon="17.990420070307">
        <ele>40.6</ele>
        <time>2018-03-18T10:19:21Z</time>
      </trkpt>
      <trkpt lat="62.639938788978" lon="17.990462147445">
        <ele>40.6</ele>
        <time>2018-03-18T10:19:22Z</time>
      </trkpt>
      <trkpt lat="62.639929065974" lon="17.99050615242">
        <ele>40.8</ele>
        <time>2018-03-18T10:19:23Z</time>
      </trkpt>
      <trkpt lat="62.639905261378" lon="17.990544876798">
        <ele>40.8</ele>
        <time>2018-03-18T10:19:24Z</time>
      </trkpt>
      <trkpt lat="62.639883887533" lon="17.990594497646">
        <ele>41</ele>
        <time>2018-03-18T10:19:25Z</time>
      </trkpt>
      <trkpt lat="62.639861340222" lon="17.990637999707">
        <ele>41</ele>
        <time>2018-03-18T10:19:26Z</time>
      </trkpt>
      <trkpt lat="62.639840301653" lon="17.9906754668">
        <ele>41.4</ele>
        <time>2018-03-18T10:19:27Z</time>
      </trkpt>
      <trkpt lat="62.639823873129" lon="17.990713855902">
        <ele>41.6</ele>
        <time>2018-03-18T10:19:28Z</time>
      </trkpt>
      <trkpt lat="62.639805935863" lon="17.990755765402">
        <ele>41.8</ele>
        <time>2018-03-18T10:19:29Z</time>
      </trkpt>
      <trkpt lat="62.639791602814" lon="17.990796249979">
        <ele>42</ele>
        <time>2018-03-18T10:19:30Z</time>
      </trkpt>
      <trkpt lat="62.639768971684" lon="17.990832627425">
        <ele>42</ele>
        <time>2018-03-18T10:19:31Z</time>
      </trkpt>
      <trkpt lat="62.63975841049" lon="17.990867747586">
        <ele>42.4</ele>
        <time>2018-03-18T10:19:32Z</time>
      </trkpt>
      <trkpt lat="62.639742317242" lon="17.990909824724">
        <ele>42.4</ele>
        <time>2018-03-18T10:19:33Z</time>
      </trkpt>
      <trkpt lat="62.639727146003" lon="17.990947962369">
        <ele>42.4</ele>
        <time>2018-03-18T10:19:34Z</time>
      </trkpt>
      <trkpt lat="62.639715578981" lon="17.990983333987">
        <ele>42.4</ele>
        <time>2018-03-18T10:19:35Z</time>
      </trkpt>
      <trkpt lat="62.639702419398" lon="17.991034295939">
        <ele>42.4</ele>
        <time>2018-03-18T10:19:36Z</time>
      </trkpt>
      <trkpt lat="62.639697054982" lon="17.991078384733">
        <ele>42.6</ele>
        <time>2018-03-18T10:19:37Z</time>
      </trkpt>
      <trkpt lat="62.639679536811" lon="17.991124233726">
        <ele>42.6</ele>
        <time>2018-03-18T10:19:38Z</time>
      </trkpt>
      <trkpt lat="62.639672747472" lon="17.991173016384">
        <ele>42.8</ele>
        <time>2018-03-18T10:19:39Z</time>
      </trkpt>
      <trkpt lat="62.639663946477" lon="17.991221547585">
        <ele>43.2</ele>
        <time>2018-03-18T10:19:40Z</time>
      </trkpt>
      <trkpt lat="62.639656318948" lon="17.99127477265">
        <ele>43.2</ele>
        <time>2018-03-18T10:19:41Z</time>
      </trkpt>
      <trkpt lat="62.639654055835" lon="17.991333697407">
        <ele>43.2</ele>
        <time>2018-03-18T10:19:42Z</time>
      </trkpt>
      <trkpt lat="62.639642824089" lon="17.991385665187">
        <ele>43.4</ele>
        <time>2018-03-18T10:19:43Z</time>
      </trkpt>
      <trkpt lat="62.639641147709" lon="17.99144324884">
        <ele>43.6</ele>
        <time>2018-03-18T10:19:44Z</time>
      </trkpt>
      <trkpt lat="62.639633352542" lon="17.991489014014">
        <ele>43.6</ele>
        <time>2018-03-18T10:19:45Z</time>
      </trkpt>
      <trkpt lat="62.639623042805" lon="17.991543161088">
        <ele>43.8</ele>
        <time>2018-03-18T10:19:46Z</time>
      </trkpt>
      <trkpt lat="62.639618013665" lon="17.991586327873">
        <ele>44</ele>
        <time>2018-03-18T10:19:47Z</time>
      </trkpt>
      <trkpt lat="62.639605356996" lon="17.99163519435">
        <ele>44.2</ele>
        <time>2018-03-18T10:19:48Z</time>
      </trkpt>
      <trkpt lat="62.639604351168" lon="17.991678612592">
        <ele>44.6</ele>
        <time>2018-03-18T10:19:49Z</time>
      </trkpt>
      <trkpt lat="62.639597310372" lon="17.991724713042">
        <ele>44.8</ele>
        <time>2018-03-18T10:19:50Z</time>
      </trkpt>
      <trkpt lat="62.639596388363" lon="17.991775842632">
        <ele>44.8</ele>
        <time>2018-03-18T10:19:51Z</time>
      </trkpt>
      <trkpt lat="62.639594209069" lon="17.991820350521">
        <ele>45</ele>
        <time>2018-03-18T10:19:52Z</time>
      </trkpt>
      <trkpt lat="62.639591526861" lon="17.991872737396">
        <ele>45</ele>
        <time>2018-03-18T10:19:53Z</time>
      </trkpt>
      <trkpt lat="62.63958741973" lon="17.991918921665">
        <ele>44.8</ele>
        <time>2018-03-18T10:19:54Z</time>
      </trkpt>
      <trkpt lat="62.639574427785" lon="17.991973990748">
        <ele>44.6</ele>
        <time>2018-03-18T10:19:55Z</time>
      </trkpt>
      <trkpt lat="62.639570572111" lon="17.992016486981">
        <ele>44.6</ele>
        <time>2018-03-18T10:19:56Z</time>
      </trkpt>
      <trkpt lat="62.639557161071" lon="17.992076417566">
        <ele>44.6</ele>
        <time>2018-03-18T10:19:57Z</time>
      </trkpt>
      <trkpt lat="62.639559927098" lon="17.992131151373">
        <ele>44.4</ele>
        <time>2018-03-18T10:19:58Z</time>
      </trkpt>
      <trkpt lat="62.639538553253" lon="17.992182364782">
        <ele>44.4</ele>
        <time>2018-03-18T10:19:59Z</time>
      </trkpt>
      <trkpt lat="62.639532183009" lon="17.99223952934">
        <ele>44.4</ele>
        <time>2018-03-18T10:20:00Z</time>
      </trkpt>
      <trkpt lat="62.639514329562" lon="17.992295771889">
        <ele>44.4</ele>
        <time>2018-03-18T10:20:01Z</time>
      </trkpt>
      <trkpt lat="62.639504103644" lon="17.992348577859">
        <ele>44.4</ele>
        <time>2018-03-18T10:20:02Z</time>
      </trkpt>
      <trkpt lat="62.639487339844" lon="17.992400042725">
        <ele>44.4</ele>
        <time>2018-03-18T10:20:03Z</time>
      </trkpt>
      <trkpt lat="62.639484070903" lon="17.992443377148">
        <ele>44.4</ele>
        <time>2018-03-18T10:20:04Z</time>
      </trkpt>
      <trkpt lat="62.639477449202" lon="17.992494758195">
        <ele>44.4</ele>
        <time>2018-03-18T10:20:05Z</time>
      </trkpt>
      <trkpt lat="62.639480466686" lon="17.992560304653">
        <ele>44.4</ele>
        <time>2018-03-18T10:20:06Z</time>
      </trkpt>
      <trkpt lat="62.639477784478" lon="17.992624174731">
        <ele>44.4</ele>
        <time>2018-03-18T10:20:07Z</time>
      </trkpt>
      <trkpt lat="62.639489854414" lon="17.992689721189">
        <ele>44.8</ele>
        <time>2018-03-18T10:20:08Z</time>
      </trkpt>
      <trkpt lat="62.639492871898" lon="17.992734983449">
        <ele>44.8</ele>
        <time>2018-03-18T10:20:09Z</time>
      </trkpt>
      <trkpt lat="62.639497565762" lon="17.992799691717">
        <ele>45</ele>
        <time>2018-03-18T10:20:10Z</time>
      </trkpt>
      <trkpt lat="62.639495805563" lon="17.992859203207">
        <ele>45.2</ele>
        <time>2018-03-18T10:20:11Z</time>
      </trkpt>
      <trkpt lat="62.639492285165" lon="17.992921648362">
        <ele>45.2</ele>
        <time>2018-03-18T10:20:12Z</time>
      </trkpt>
      <trkpt lat="62.639492201346" lon="17.992977890911">
        <ele>45.2</ele>
        <time>2018-03-18T10:20:13Z</time>
      </trkpt>
      <trkpt lat="62.639488010396" lon="17.993037737677">
        <ele>45.2</ele>
        <time>2018-03-18T10:20:14Z</time>
      </trkpt>
      <trkpt lat="62.639486501654" lon="17.99310035047">
        <ele>45.2</ele>
        <time>2018-03-18T10:20:15Z</time>
      </trkpt>
      <trkpt lat="62.639482813618" lon="17.993154916639">
        <ele>45.2</ele>
        <time>2018-03-18T10:20:16Z</time>
      </trkpt>
      <trkpt lat="62.639480718143" lon="17.993214176672">
        <ele>45.4</ele>
        <time>2018-03-18T10:20:17Z</time>
      </trkpt>
      <trkpt lat="62.63947929322" lon="17.993273688162">
        <ele>45.4</ele>
        <time>2018-03-18T10:20:18Z</time>
      </trkpt>
      <trkpt lat="62.639473844985" lon="17.99333588186">
        <ele>45.6</ele>
        <time>2018-03-18T10:20:19Z</time>
      </trkpt>
      <trkpt lat="62.639477784478" lon="17.993391956771">
        <ele>45.6</ele>
        <time>2018-03-18T10:20:20Z</time>
      </trkpt>
      <trkpt lat="62.639462026506" lon="17.993466304224">
        <ele>45.6</ele>
        <time>2018-03-18T10:20:21Z</time>
      </trkpt>
      <trkpt lat="62.639455237167" lon="17.993527575913">
        <ele>45.8</ele>
        <time>2018-03-18T10:20:22Z</time>
      </trkpt>
      <trkpt lat="62.639438473367" lon="17.99358985343">
        <ele>45.8</ele>
        <time>2018-03-18T10:20:23Z</time>
      </trkpt>
      <trkpt lat="62.639429504734" lon="17.993653472051">
        <ele>45.8</ele>
        <time>2018-03-18T10:20:24Z</time>
      </trkpt>
      <trkpt lat="62.639407544156" lon="17.993709882238">
        <ele>45.8</ele>
        <time>2018-03-18T10:20:25Z</time>
      </trkpt>
      <trkpt lat="62.639396060953" lon="17.99377257885">
        <ele>45.8</ele>
        <time>2018-03-18T10:20:26Z</time>
      </trkpt>
      <trkpt lat="62.639372675452" lon="17.993815075083">
        <ele>45.8</ele>
        <time>2018-03-18T10:20:27Z</time>
      </trkpt>
      <trkpt lat="62.639350463417" lon="17.993851703986">
        <ele>46</ele>
        <time>2018-03-18T10:20:28Z</time>
      </trkpt>
      <trkpt lat="62.639332861427" lon="17.99388741088">
        <ele>45.8</ele>
        <time>2018-03-18T10:20:29Z</time>
      </trkpt>
      <trkpt lat="62.639308721555" lon="17.993927727819">
        <ele>45.8</ele>
        <time>2018-03-18T10:20:30Z</time>
      </trkpt>
      <trkpt lat="62.639293466497" lon="17.993974750278">
        <ele>46</ele>
        <time>2018-03-18T10:20:31Z</time>
      </trkpt>
      <trkpt lat="62.639274271946" lon="17.994010960086">
        <ele>46.2</ele>
        <time>2018-03-18T10:20:32Z</time>
      </trkpt>
      <trkpt lat="62.639257089051" lon="17.994049852102">
        <ele>46.4</ele>
        <time>2018-03-18T10:20:33Z</time>
      </trkpt>
      <trkpt lat="62.639244767658" lon="17.994085139901">
        <ele>46.8</ele>
        <time>2018-03-18T10:20:34Z</time>
      </trkpt>
      <trkpt lat="62.639236050482" lon="17.994125289202">
        <ele>47</ele>
        <time>2018-03-18T10:20:35Z</time>
      </trkpt>
      <trkpt lat="62.639223729089" lon="17.994181196475">
        <ele>47.2</ele>
        <time>2018-03-18T10:20:36Z</time>
      </trkpt>
      <trkpt lat="62.639205959461" lon="17.99421681955">
        <ele>47.6</ele>
        <time>2018-03-18T10:20:37Z</time>
      </trkpt>
      <trkpt lat="62.639197409923" lon="17.994271972452">
        <ele>47.8</ele>
        <time>2018-03-18T10:20:38Z</time>
      </trkpt>
      <trkpt lat="62.639181903408" lon="17.994316061246">
        <ele>48</ele>
        <time>2018-03-18T10:20:39Z</time>
      </trkpt>
      <trkpt lat="62.639168157092" lon="17.994367274655">
        <ele>48</ele>
        <time>2018-03-18T10:20:40Z</time>
      </trkpt>
      <trkpt lat="62.639151728568" lon="17.994409351793">
        <ele>48</ele>
        <time>2018-03-18T10:20:41Z</time>
      </trkpt>
      <trkpt lat="62.639133204569" lon="17.994455200786">
        <ele>48.2</ele>
        <time>2018-03-18T10:20:42Z</time>
      </trkpt>
      <trkpt lat="62.639120380262" lon="17.994494511897">
        <ele>48.2</ele>
        <time>2018-03-18T10:20:43Z</time>
      </trkpt>
      <trkpt lat="62.639100179883" lon="17.994538600691">
        <ele>48.2</ele>
        <time>2018-03-18T10:20:44Z</time>
      </trkpt>
      <trkpt lat="62.639090456879" lon="17.994574475223">
        <ele>48.2</ele>
        <time>2018-03-18T10:20:45Z</time>
      </trkpt>
      <trkpt lat="62.639065143541" lon="17.994617055275">
        <ele>48.4</ele>
        <time>2018-03-18T10:20:46Z</time>
      </trkpt>
      <trkpt lat="62.639055420537" lon="17.99465854568">
        <ele>48.4</ele>
        <time>2018-03-18T10:20:47Z</time>
      </trkpt>
      <trkpt lat="62.639029352828" lon="17.994708334166">
        <ele>48.4</ele>
        <time>2018-03-18T10:20:48Z</time>
      </trkpt>
      <trkpt lat="62.6390115832" lon="17.994748315829">
        <ele>48.6</ele>
        <time>2018-03-18T10:20:49Z</time>
      </trkpt>
      <trkpt lat="62.638989371165" lon="17.994789219501">
        <ele>48.6</ele>
        <time>2018-03-18T10:20:50Z</time>
      </trkpt>
      <trkpt lat="62.638973529374" lon="17.994837834521">
        <ele>48.6</ele>
        <time>2018-03-18T10:20:51Z</time>
      </trkpt>
      <trkpt lat="62.63894955714" lon="17.994879744021">
        <ele>48.6</ele>
        <time>2018-03-18T10:20:52Z</time>
      </trkpt>
      <trkpt lat="62.638935391729" lon="17.994922491711">
        <ele>48.6</ele>
        <time>2018-03-18T10:20:53Z</time>
      </trkpt>
      <trkpt lat="62.638913850246" lon="17.994956186949">
        <ele>48.6</ele>
        <time>2018-03-18T10:20:54Z</time>
      </trkpt>
      <trkpt lat="62.638900606844" lon="17.994983595762">
        <ele>48.4</ele>
        <time>2018-03-18T10:20:55Z</time>
      </trkpt>
      <trkpt lat="62.638882753397" lon="17.995014692611">
        <ele>48.6</ele>
        <time>2018-03-18T10:20:56Z</time>
      </trkpt>
      <trkpt lat="62.638866911606" lon="17.995060457785">
        <ele>48.6</ele>
        <time>2018-03-18T10:20:57Z</time>
      </trkpt>
      <trkpt lat="62.638850734539" lon="17.995094153023">
        <ele>48.8</ele>
        <time>2018-03-18T10:20:58Z</time>
      </trkpt>
      <trkpt lat="62.638834389834" lon="17.995134805238">
        <ele>48.8</ele>
        <time>2018-03-18T10:20:59Z</time>
      </trkpt>
      <trkpt lat="62.638819553871" lon="17.995174116349">
        <ele>49.2</ele>
        <time>2018-03-18T10:21:00Z</time>
      </trkpt>
      <trkpt lat="62.638803963537" lon="17.99520085461">
        <ele>49.2</ele>
        <time>2018-03-18T10:21:01Z</time>
      </trkpt>
      <trkpt lat="62.638784349891" lon="17.995248212345">
        <ele>49.4</ele>
        <time>2018-03-18T10:21:02Z</time>
      </trkpt>
      <trkpt lat="62.638757863087" lon="17.995274866787">
        <ele>49.4</ele>
        <time>2018-03-18T10:21:03Z</time>
      </trkpt>
      <trkpt lat="62.63874084783" lon="17.995308310568">
        <ele>49.6</ele>
        <time>2018-03-18T10:21:04Z</time>
      </trkpt>
      <trkpt lat="62.638723413478" lon="17.995334378277">
        <ele>49.6</ele>
        <time>2018-03-18T10:21:05Z</time>
      </trkpt>
      <trkpt lat="62.638694076828" lon="17.99537938908">
        <ele>49.6</ele>
        <time>2018-03-18T10:21:06Z</time>
      </trkpt>
      <trkpt lat="62.638676810114" lon="17.995410988843">
        <ele>49.6</ele>
        <time>2018-03-18T10:21:07Z</time>
      </trkpt>
      <trkpt lat="62.638654430441" lon="17.995451892515">
        <ele>49.6</ele>
        <time>2018-03-18T10:21:08Z</time>
      </trkpt>
      <trkpt lat="62.638640935582" lon="17.995482234993">
        <ele>49.6</ele>
        <time>2018-03-18T10:21:09Z</time>
      </trkpt>
      <trkpt lat="62.63862014847" lon="17.99551685224">
        <ele>49.8</ele>
        <time>2018-03-18T10:21:10Z</time>
      </trkpt>
      <trkpt lat="62.63860589924" lon="17.995560186663">
        <ele>50</ele>
        <time>2018-03-18T10:21:11Z</time>
      </trkpt>
      <trkpt lat="62.638583603386" lon="17.99560067124">
        <ele>50.2</ele>
        <time>2018-03-18T10:21:12Z</time>
      </trkpt>
      <trkpt lat="62.638565498482" lon="17.995638557428">
        <ele>50.6</ele>
        <time>2018-03-18T10:21:13Z</time>
      </trkpt>
      <trkpt lat="62.638550494881" lon="17.995675605426">
        <ele>51.2</ele>
        <time>2018-03-18T10:21:14Z</time>
      </trkpt>
      <trkpt lat="62.638532473796" lon="17.995709049207">
        <ele>51.4</ele>
        <time>2018-03-18T10:21:15Z</time>
      </trkpt>
      <trkpt lat="62.638520655317" lon="17.995757077494">
        <ele>51.4</ele>
        <time>2018-03-18T10:21:16Z</time>
      </trkpt>
      <trkpt lat="62.638497940368" lon="17.995807368894">
        <ele>51.4</ele>
        <time>2018-03-18T10:21:17Z</time>
      </trkpt>
      <trkpt lat="62.638480589835" lon="17.995853636982">
        <ele>51.2</ele>
        <time>2018-03-18T10:21:18Z</time>
      </trkpt>
      <trkpt lat="62.638463826035" lon="17.99589068498">
        <ele>51</ele>
        <time>2018-03-18T10:21:19Z</time>
      </trkpt>
      <trkpt lat="62.638448906253" lon="17.995928487349">
        <ele>51</ele>
        <time>2018-03-18T10:21:20Z</time>
      </trkpt>
      <trkpt lat="62.638435243756" lon="17.99596276932">
        <ele>51</ele>
        <time>2018-03-18T10:21:21Z</time>
      </trkpt>
      <trkpt lat="62.638415211015" lon="17.995991435418">
        <ele>51</ele>
        <time>2018-03-18T10:21:22Z</time>
      </trkpt>
      <trkpt lat="62.638399033948" lon="17.996017000213">
        <ele>51.2</ele>
        <time>2018-03-18T10:21:23Z</time>
      </trkpt>
      <trkpt lat="62.638378163017" lon="17.996059496446">
        <ele>51.8</ele>
        <time>2018-03-18T10:21:24Z</time>
      </trkpt>
      <trkpt lat="62.638361650674" lon="17.996095454797">
        <ele>52.2</ele>
        <time>2018-03-18T10:21:25Z</time>
      </trkpt>
      <trkpt lat="62.638342875218" lon="17.996131161691">
        <ele>52.4</ele>
        <time>2018-03-18T10:21:26Z</time>
      </trkpt>
      <trkpt lat="62.638319908812" lon="17.996169299336">
        <ele>53</ele>
        <time>2018-03-18T10:21:27Z</time>
      </trkpt>
      <trkpt lat="62.638308677066" lon="17.99620081528">
        <ele>53.2</ele>
        <time>2018-03-18T10:21:28Z</time>
      </trkpt>
      <trkpt lat="62.638287470859" lon="17.996241383676">
        <ele>53.2</ele>
        <time>2018-03-18T10:21:29Z</time>
      </trkpt>
      <trkpt lat="62.638268527765" lon="17.996273402534">
        <ele>53.4</ele>
        <time>2018-03-18T10:21:30Z</time>
      </trkpt>
      <trkpt lat="62.638250841956" lon="17.996305672849">
        <ele>53.4</ele>
        <time>2018-03-18T10:21:31Z</time>
      </trkpt>
      <trkpt lat="62.638235838355" lon="17.996338697535">
        <ele>53.2</ele>
        <time>2018-03-18T10:21:32Z</time>
      </trkpt>
      <trkpt lat="62.638219828926" lon="17.996385468537">
        <ele>53.2</ele>
        <time>2018-03-18T10:21:33Z</time>
      </trkpt>
      <trkpt lat="62.638206334067" lon="17.996421929802">
        <ele>53</ele>
        <time>2018-03-18T10:21:34Z</time>
      </trkpt>
      <trkpt lat="62.638186971878" lon="17.996455373583">
        <ele>53</ele>
        <time>2018-03-18T10:21:35Z</time>
      </trkpt>
      <trkpt lat="62.638166939137" lon="17.996508682467">
        <ele>53</ele>
        <time>2018-03-18T10:21:36Z</time>
      </trkpt>
      <trkpt lat="62.638145397654" lon="17.996542712981">
        <ele>53.2</ele>
        <time>2018-03-18T10:21:37Z</time>
      </trkpt>
      <trkpt lat="62.638130813148" lon="17.996576240581">
        <ele>53.2</ele>
        <time>2018-03-18T10:21:38Z</time>
      </trkpt>
      <trkpt lat="62.638113630253" lon="17.996614294407">
        <ele>53.4</ele>
        <time>2018-03-18T10:21:39Z</time>
      </trkpt>
      <trkpt lat="62.638089993295" lon="17.996654695165">
        <ele>53.4</ele>
        <time>2018-03-18T10:21:40Z</time>
      </trkpt>
      <trkpt lat="62.638071301658" lon="17.996687300756">
        <ele>53.6</ele>
        <time>2018-03-18T10:21:41Z</time>
      </trkpt>
      <trkpt lat="62.638046910329" lon="17.996715212483">
        <ele>53.6</ele>
        <time>2018-03-18T10:21:42Z</time>
      </trkpt>
      <trkpt lat="62.638032912556" lon="17.996745890237">
        <ele>53.8</ele>
        <time>2018-03-18T10:21:43Z</time>
      </trkpt>
      <trkpt lat="62.63801162253" lon="17.99677329905">
        <ele>53.8</ele>
        <time>2018-03-18T10:21:44Z</time>
      </trkpt>
      <trkpt lat="62.638000139327" lon="17.996791823049">
        <ele>54</ele>
        <time>2018-03-18T10:21:45Z</time>
      </trkpt>
      <trkpt lat="62.637980693319" lon="17.996811771971">
        <ele>53.8</ele>
        <time>2018-03-18T10:21:46Z</time>
      </trkpt>
      <trkpt lat="62.637959151836" lon="17.996837336766">
        <ele>54</ele>
        <time>2018-03-18T10:21:47Z</time>
      </trkpt>
      <trkpt lat="62.637941046932" lon="17.996864577941">
        <ele>54.4</ele>
        <time>2018-03-18T10:21:48Z</time>
      </trkpt>
      <trkpt lat="62.637917912888" lon="17.996885951786">
        <ele>54.6</ele>
        <time>2018-03-18T10:21:49Z</time>
      </trkpt>
      <trkpt lat="62.637898383061" lon="17.996915875169">
        <ele>54.8</ele>
        <time>2018-03-18T10:21:50Z</time>
      </trkpt>
      <trkpt lat="62.637871393343" lon="17.996941691421">
        <ele>54.8</ele>
        <time>2018-03-18T10:21:51Z</time>
      </trkpt>
      <trkpt lat="62.637861670339" lon="17.996977985048">
        <ele>55</ele>
        <time>2018-03-18T10:21:52Z</time>
      </trkpt>
      <trkpt lat="62.637842391969" lon="17.997008914259">
        <ele>55</ele>
        <time>2018-03-18T10:21:53Z</time>
      </trkpt>
      <trkpt lat="62.63783057349" lon="17.997051997225">
        <ele>55</ele>
        <time>2018-03-18T10:21:54Z</time>
      </trkpt>
      <trkpt lat="62.637810624568" lon="17.997088039395">
        <ele>54.8</ele>
        <time>2018-03-18T10:21:55Z</time>
      </trkpt>
      <trkpt lat="62.637799644279" lon="17.99713455894">
        <ele>55</ele>
        <time>2018-03-18T10:21:56Z</time>
      </trkpt>
      <trkpt lat="62.637781036461" lon="17.997169930558">
        <ele>55.2</ele>
        <time>2018-03-18T10:21:57Z</time>
      </trkpt>
      <trkpt lat="62.637766451955" lon="17.997209074031">
        <ele>55</ele>
        <time>2018-03-18T10:21:58Z</time>
      </trkpt>
      <trkpt lat="62.637744323739" lon="17.997247044038">
        <ele>55</ele>
        <time>2018-03-18T10:21:59Z</time>
      </trkpt>
      <trkpt lat="62.637730661242" lon="17.997284259674">
        <ele>55</ele>
        <time>2018-03-18T10:22:00Z</time>
      </trkpt>
      <trkpt lat="62.637707946293" lon="17.997334802531">
        <ele>55</ele>
        <time>2018-03-18T10:22:01Z</time>
      </trkpt>
      <trkpt lat="62.637690931036" lon="17.997374029823">
        <ele>54.8</ele>
        <time>2018-03-18T10:22:02Z</time>
      </trkpt>
      <trkpt lat="62.637669389553" lon="17.997423231576">
        <ele>55</ele>
        <time>2018-03-18T10:22:03Z</time>
      </trkpt>
      <trkpt lat="62.637657235798" lon="17.997464470524">
        <ele>55</ele>
        <time>2018-03-18T10:22:04Z</time>
      </trkpt>
      <trkpt lat="62.637649775907" lon="17.997504452187">
        <ele>54.8</ele>
        <time>2018-03-18T10:22:05Z</time>
      </trkpt>
      <trkpt lat="62.637633179745" lon="17.997555078863">
        <ele>55</ele>
        <time>2018-03-18T10:22:06Z</time>
      </trkpt>
      <trkpt lat="62.637623875836" lon="17.997605873177">
        <ele>55</ele>
        <time>2018-03-18T10:22:07Z</time>
      </trkpt>
      <trkpt lat="62.637602418172" lon="17.997656583672">
        <ele>55</ele>
        <time>2018-03-18T10:22:08Z</time>
      </trkpt>
      <trkpt lat="62.637606106208" lon="17.997716346619">
        <ele>55.2</ele>
        <time>2018-03-18T10:22:09Z</time>
      </trkpt>
      <trkpt lat="62.637586073467" lon="17.997766051286">
        <ele>55</ele>
        <time>2018-03-18T10:22:10Z</time>
      </trkpt>
      <trkpt lat="62.63757744011" lon="17.997824054034">
        <ele>55.2</ele>
        <time>2018-03-18T10:22:11Z</time>
      </trkpt>
      <trkpt lat="62.637553048781" lon="17.997876608547">
        <ele>55.2</ele>
        <time>2018-03-18T10:22:12Z</time>
      </trkpt>
      <trkpt lat="62.637535614429" lon="17.997932012906">
        <ele>55.4</ele>
        <time>2018-03-18T10:22:13Z</time>
      </trkpt>
      <trkpt lat="62.63751206129" lon="17.997982471944">
        <ele>55.4</ele>
        <time>2018-03-18T10:22:14Z</time>
      </trkpt>
      <trkpt lat="62.637495884223" lon="17.998037876303">
        <ele>55.6</ele>
        <time>2018-03-18T10:22:15Z</time>
      </trkpt>
      <trkpt lat="62.63747266636" lon="17.998088251522">
        <ele>55.6</ele>
        <time>2018-03-18T10:22:16Z</time>
      </trkpt>
      <trkpt lat="62.637448610307" lon="17.998127311176">
        <ele>55.6</ele>
        <time>2018-03-18T10:22:17Z</time>
      </trkpt>
      <trkpt lat="62.637425643901" lon="17.998175674739">
        <ele>55.8</ele>
        <time>2018-03-18T10:22:18Z</time>
      </trkpt>
      <trkpt lat="62.637401001115" lon="17.99819989843">
        <ele>55.8</ele>
        <time>2018-03-18T10:22:19Z</time>
      </trkpt>
      <trkpt lat="62.637378453804" lon="17.998234515677">
        <ele>56</ele>
        <time>2018-03-18T10:22:20Z</time>
      </trkpt>
      <trkpt lat="62.637359343072" lon="17.998270976942">
        <ele>56.2</ele>
        <time>2018-03-18T10:22:21Z</time>
      </trkpt>
      <trkpt lat="62.637334951743" lon="17.998305678008">
        <ele>56.4</ele>
        <time>2018-03-18T10:22:22Z</time>
      </trkpt>
      <trkpt lat="62.637316595382" lon="17.998341217264">
        <ele>56.4</ele>
        <time>2018-03-18T10:22:23Z</time>
      </trkpt>
      <trkpt lat="62.637293712795" lon="17.998388826456">
        <ele>56.6</ele>
        <time>2018-03-18T10:22:24Z</time>
      </trkpt>
      <trkpt lat="62.637270914027" lon="17.998438531123">
        <ele>56.8</ele>
        <time>2018-03-18T10:22:25Z</time>
      </trkpt>
      <trkpt lat="62.637255407512" lon="17.998483625745">
        <ele>57</ele>
        <time>2018-03-18T10:22:26Z</time>
      </trkpt>
      <trkpt lat="62.637237218789" lon="17.99854187995">
        <ele>57.2</ele>
        <time>2018-03-18T10:22:27Z</time>
      </trkpt>
      <trkpt lat="62.637213917107" lon="17.998589321504">
        <ele>57.2</ele>
        <time>2018-03-18T10:22:28Z</time>
      </trkpt>
      <trkpt lat="62.637193884366" lon="17.998648078623">
        <ele>57.2</ele>
        <time>2018-03-18T10:22:29Z</time>
      </trkpt>
      <trkpt lat="62.63717175615" lon="17.998697531833">
        <ele>57.2</ele>
        <time>2018-03-18T10:22:30Z</time>
      </trkpt>
      <trkpt lat="62.637145520803" lon="17.998753271468">
        <ele>57.2</ele>
        <time>2018-03-18T10:22:31Z</time>
      </trkpt>
      <trkpt lat="62.637111574108" lon="17.99880088066">
        <ele>57</ele>
        <time>2018-03-18T10:22:32Z</time>
      </trkpt>
      <trkpt lat="62.637092211919" lon="17.998851088241">
        <ele>57</ele>
        <time>2018-03-18T10:22:33Z</time>
      </trkpt>
      <trkpt lat="62.637060025423" lon="17.998884532022">
        <ele>56.8</ele>
        <time>2018-03-18T10:22:34Z</time>
      </trkpt>
      <trkpt lat="62.637043093985" lon="17.99892493278">
        <ele>56.6</ele>
        <time>2018-03-18T10:22:35Z</time>
      </trkpt>
      <trkpt lat="62.63701585281" lon="17.998956616362">
        <ele>56.8</ele>
        <time>2018-03-18T10:22:36Z</time>
      </trkpt>
      <trkpt lat="62.63699741263" lon="17.998992909989">
        <ele>56.6</ele>
        <time>2018-03-18T10:22:37Z</time>
      </trkpt>
      <trkpt lat="62.636976876975" lon="17.999024593571">
        <ele>56.8</ele>
        <time>2018-03-18T10:22:38Z</time>
      </trkpt>
      <trkpt lat="62.636949803438" lon="17.99905569042">
        <ele>57</ele>
        <time>2018-03-18T10:22:39Z</time>
      </trkpt>
      <trkpt lat="62.636934632199" lon="17.999067089804">
        <ele>57.2</ele>
        <time>2018-03-18T10:22:40Z</time>
      </trkpt>
      <trkpt lat="62.636908396852" lon="17.999094582436">
        <ele>57.4</ele>
        <time>2018-03-18T10:22:41Z</time>
      </trkpt>
      <trkpt lat="62.636888867025" lon="17.999132636262">
        <ele>57.6</ele>
        <time>2018-03-18T10:22:42Z</time>
      </trkpt>
      <trkpt lat="62.636871935587" lon="17.999160045075">
        <ele>57.8</ele>
        <time>2018-03-18T10:22:43Z</time>
      </trkpt>
      <trkpt lat="62.636849388276" lon="17.99919566815">
        <ele>58.2</ele>
        <time>2018-03-18T10:22:44Z</time>
      </trkpt>
      <trkpt lat="62.636829942268" lon="17.999226010628">
        <ele>58.2</ele>
        <time>2018-03-18T10:22:45Z</time>
      </trkpt>
      <trkpt lat="62.636807730233" lon="17.999260627875">
        <ele>58.4</ele>
        <time>2018-03-18T10:22:46Z</time>
      </trkpt>
      <trkpt lat="62.636782752171" lon="17.999289629249">
        <ele>58.4</ele>
        <time>2018-03-18T10:22:47Z</time>
      </trkpt>
      <trkpt lat="62.636761126869" lon="17.999329443274">
        <ele>58.6</ele>
        <time>2018-03-18T10:22:48Z</time>
      </trkpt>
      <trkpt lat="62.636736819359" lon="17.999366826548">
        <ele>58.6</ele>
        <time>2018-03-18T10:22:49Z</time>
      </trkpt>
      <trkpt lat="62.636719049731" lon="17.999394235361">
        <ele>58.6</ele>
        <time>2018-03-18T10:22:50Z</time>
      </trkpt>
      <trkpt lat="62.636698597895" lon="17.99943036135">
        <ele>58.6</ele>
        <time>2018-03-18T10:22:51Z</time>
      </trkpt>
      <trkpt lat="62.636668758331" lon="17.999455926145">
        <ele>58.6</ele>
        <time>2018-03-18T10:22:52Z</time>
      </trkpt>
      <trkpt lat="62.636654928196" lon="17.999491046306">
        <ele>58.6</ele>
        <time>2018-03-18T10:22:53Z</time>
      </trkpt>
      <trkpt lat="62.636629028125" lon="17.999541421525">
        <ele>58.6</ele>
        <time>2018-03-18T10:22:54Z</time>
      </trkpt>
      <trkpt lat="62.636617544922" lon="17.999587773432">
        <ele>58.6</ele>
        <time>2018-03-18T10:22:55Z</time>
      </trkpt>
      <trkpt lat="62.636597847457" lon="17.999648793664">
        <ele>58.6</ele>
        <time>2018-03-18T10:22:56Z</time>
      </trkpt>
      <trkpt lat="62.636584520236" lon="17.999701767272">
        <ele>58.6</ele>
        <time>2018-03-18T10:22:57Z</time>
      </trkpt>
      <trkpt lat="62.636574378137" lon="17.999745939885">
        <ele>58.6</ele>
        <time>2018-03-18T10:22:58Z</time>
      </trkpt>
      <trkpt lat="62.636563816943" lon="17.999793046163">
        <ele>58.6</ele>
        <time>2018-03-18T10:22:59Z</time>
      </trkpt>
      <trkpt lat="62.636558033432" lon="17.999825316478">
        <ele>58.4</ele>
        <time>2018-03-18T10:23:00Z</time>
      </trkpt>
      <trkpt lat="62.636545209125" lon="17.999879882647">
        <ele>58.6</ele>
        <time>2018-03-18T10:23:01Z</time>
      </trkpt>
      <trkpt lat="62.636528780601" lon="17.999918523206">
        <ele>58.4</ele>
        <time>2018-03-18T10:23:02Z</time>
      </trkpt>
      <trkpt lat="62.636519225235" lon="17.999960432706">
        <ele>58.4</ele>
        <time>2018-03-18T10:23:03Z</time>
      </trkpt>
      <trkpt lat="62.636505478919" lon="18.000010556468">
        <ele>58.6</ele>
        <time>2018-03-18T10:23:04Z</time>
      </trkpt>
      <trkpt lat="62.636499946865" lon="18.000050370493">
        <ele>58.6</ele>
        <time>2018-03-18T10:23:05Z</time>
      </trkpt>
      <trkpt lat="62.63648611673" lon="18.000111893639">
        <ele>58.4</ele>
        <time>2018-03-18T10:23:06Z</time>
      </trkpt>
      <trkpt lat="62.63646851474" lon="18.000161765944">
        <ele>58.4</ele>
        <time>2018-03-18T10:23:08Z</time>
      </trkpt>
      <trkpt lat="62.636453594958" lon="18.000231754809">
        <ele>58.6</ele>
        <time>2018-03-18T10:23:09Z</time>
      </trkpt>
      <trkpt lat="62.63644085447" lon="18.000284560779">
        <ele>58.6</ele>
        <time>2018-03-18T10:23:10Z</time>
      </trkpt>
      <trkpt lat="62.636430544733" lon="18.000341138604">
        <ele>58.8</ele>
        <time>2018-03-18T10:23:11Z</time>
      </trkpt>
      <trkpt lat="62.636419480625" lon="18.000390759452">
        <ele>58.8</ele>
        <time>2018-03-18T10:23:12Z</time>
      </trkpt>
      <trkpt lat="62.6364048123" lon="18.00043702754">
        <ele>58.8</ele>
        <time>2018-03-18T10:23:13Z</time>
      </trkpt>
      <trkpt lat="62.636391568898" lon="18.000484217637">
        <ele>59</ele>
        <time>2018-03-18T10:23:14Z</time>
      </trkpt>
      <trkpt lat="62.636378660772" lon="18.000534341399">
        <ele>59</ele>
        <time>2018-03-18T10:23:15Z</time>
      </trkpt>
      <trkpt lat="62.636357203108" lon="18.000591757414">
        <ele>59</ele>
        <time>2018-03-18T10:23:16Z</time>
      </trkpt>
      <trkpt lat="62.636339349661" lon="18.000636684398">
        <ele>59.2</ele>
        <time>2018-03-18T10:23:17Z</time>
      </trkpt>
      <trkpt lat="62.636322082947" lon="18.000687813988">
        <ele>59.4</ele>
        <time>2018-03-18T10:23:18Z</time>
      </trkpt>
      <trkpt lat="62.636309510097" lon="18.000732824791">
        <ele>59.6</ele>
        <time>2018-03-18T10:23:19Z</time>
      </trkpt>
      <trkpt lat="62.636293584487" lon="18.000775404843">
        <ele>59.8</ele>
        <time>2018-03-18T10:23:20Z</time>
      </trkpt>
      <trkpt lat="62.636275228126" lon="18.000829049003">
        <ele>60</ele>
        <time>2018-03-18T10:23:21Z</time>
      </trkpt>
      <trkpt lat="62.63625896724" lon="18.000877161109">
        <ele>60</ele>
        <time>2018-03-18T10:23:22Z</time>
      </trkpt>
      <trkpt lat="62.636247148761" lon="18.000918567695">
        <ele>60</ele>
        <time>2018-03-18T10:23:23Z</time>
      </trkpt>
      <trkpt lat="62.636216722464" lon="18.000974223511">
        <ele>60</ele>
        <time>2018-03-18T10:23:24Z</time>
      </trkpt>
      <trkpt lat="62.636197947008" lon="18.001021078332">
        <ele>60</ele>
        <time>2018-03-18T10:23:25Z</time>
      </trkpt>
      <trkpt lat="62.636177076077" lon="18.001079835451">
        <ele>60</ele>
        <time>2018-03-18T10:23:26Z</time>
      </trkpt>
      <trkpt lat="62.636161401924" lon="18.001128199014">
        <ele>59.8</ele>
        <time>2018-03-18T10:23:27Z</time>
      </trkpt>
      <trkpt lat="62.636146985056" lon="18.001174215645">
        <ele>59.8</ele>
        <time>2018-03-18T10:23:28Z</time>
      </trkpt>
      <trkpt lat="62.636128125781" lon="18.001221489561">
        <ele>59.8</ele>
        <time>2018-03-18T10:23:29Z</time>
      </trkpt>
      <trkpt lat="62.636105997565" lon="18.001269517848">
        <ele>59.6</ele>
        <time>2018-03-18T10:23:30Z</time>
      </trkpt>
      <trkpt lat="62.636080684227" lon="18.001325425121">
        <ele>59.6</ele>
        <time>2018-03-18T10:23:31Z</time>
      </trkpt>
      <trkpt lat="62.636062244047" lon="18.001362137843">
        <ele>59.6</ele>
        <time>2018-03-18T10:23:32Z</time>
      </trkpt>
      <trkpt lat="62.636043803867" lon="18.001401197497">
        <ele>59.6</ele>
        <time>2018-03-18T10:23:33Z</time>
      </trkpt>
      <trkpt lat="62.636023268212" lon="18.001446627395">
        <ele>59.6</ele>
        <time>2018-03-18T10:23:34Z</time>
      </trkpt>
      <trkpt lat="62.636003989842" lon="18.001486357601">
        <ele>59.8</ele>
        <time>2018-03-18T10:23:35Z</time>
      </trkpt>
      <trkpt lat="62.635974569373" lon="18.00155349662">
        <ele>59.6</ele>
        <time>2018-03-18T10:23:36Z</time>
      </trkpt>
      <trkpt lat="62.63595554246" lon="18.001612337558">
        <ele>59.6</ele>
        <time>2018-03-18T10:23:37Z</time>
      </trkpt>
      <trkpt lat="62.635939113936" lon="18.001666903727">
        <ele>59.6</ele>
        <time>2018-03-18T10:23:38Z</time>
      </trkpt>
      <trkpt lat="62.635915141702" lon="18.001719206783">
        <ele>59.6</ele>
        <time>2018-03-18T10:23:39Z</time>
      </trkpt>
      <trkpt lat="62.635895863332" lon="18.00175550041">
        <ele>59.6</ele>
        <time>2018-03-18T10:23:40Z</time>
      </trkpt>
      <trkpt lat="62.635873567478" lon="18.001797326091">
        <ele>59.6</ele>
        <time>2018-03-18T10:23:41Z</time>
      </trkpt>
      <trkpt lat="62.635848840873" lon="18.001854909744">
        <ele>59.8</ele>
        <time>2018-03-18T10:23:42Z</time>
      </trkpt>
      <trkpt lat="62.635828808132" lon="18.001901513108">
        <ele>60</ele>
        <time>2018-03-18T10:23:43Z</time>
      </trkpt>
      <trkpt lat="62.635809948857" lon="18.001942249142">
        <ele>60</ele>
        <time>2018-03-18T10:23:44Z</time>
      </trkpt>
      <trkpt lat="62.635799806758" lon="18.001992540542">
        <ele>60</ele>
        <time>2018-03-18T10:23:45Z</time>
      </trkpt>
      <trkpt lat="62.63578287532" lon="18.002054650421">
        <ele>59.8</ele>
        <time>2018-03-18T10:23:46Z</time>
      </trkpt>
      <trkpt lat="62.635761166199" lon="18.002102594889">
        <ele>59.8</ele>
        <time>2018-03-18T10:23:47Z</time>
      </trkpt>
      <trkpt lat="62.635740630544" lon="18.002162776931">
        <ele>59.8</ele>
        <time>2018-03-18T10:23:48Z</time>
      </trkpt>
      <trkpt lat="62.635724537296" lon="18.002221031136">
        <ele>59.8</ele>
        <time>2018-03-18T10:23:49Z</time>
      </trkpt>
      <trkpt lat="62.635712802636" lon="18.002262689179">
        <ele>59.6</ele>
        <time>2018-03-18T10:23:50Z</time>
      </trkpt>
      <trkpt lat="62.635699810691" lon="18.002325134334">
        <ele>59.6</ele>
        <time>2018-03-18T10:23:51Z</time>
      </trkpt>
      <trkpt lat="62.635688327488" lon="18.002398559778">
        <ele>59.4</ele>
        <time>2018-03-18T10:23:52Z</time>
      </trkpt>
      <trkpt lat="62.635680113226" lon="18.002462848951">
        <ele>59.4</ele>
        <time>2018-03-18T10:23:53Z</time>
      </trkpt>
      <trkpt lat="62.635661002494" lon="18.002547087046">
        <ele>59.4</ele>
        <time>2018-03-18T10:23:54Z</time>
      </trkpt>
      <trkpt lat="62.635651614766" lon="18.002613304056">
        <ele>59.2</ele>
        <time>2018-03-18T10:23:55Z</time>
      </trkpt>
      <trkpt lat="62.635637281717" lon="18.002691591002">
        <ele>58.8</ele>
        <time>2018-03-18T10:23:56Z</time>
      </trkpt>
      <trkpt lat="62.63561859008" lon="18.002781780246">
        <ele>58.4</ele>
        <time>2018-03-18T10:23:57Z</time>
      </trkpt>
      <trkpt lat="62.635597467692" lon="18.002863336133">
        <ele>58.2</ele>
        <time>2018-03-18T10:23:58Z</time>
      </trkpt>
      <trkpt lat="62.635572657268" lon="18.002948999151">
        <ele>57.8</ele>
        <time>2018-03-18T10:23:59Z</time>
      </trkpt>
      <trkpt lat="62.635548433577" lon="18.003033572522">
        <ele>57.6</ele>
        <time>2018-03-18T10:24:00Z</time>
      </trkpt>
      <trkpt lat="62.635530663949" lon="18.003075062927">
        <ele>57.4</ele>
        <time>2018-03-18T10:24:01Z</time>
      </trkpt>
      <trkpt lat="62.635503925688" lon="18.003183440894">
        <ele>57.4</ele>
        <time>2018-03-18T10:24:02Z</time>
      </trkpt>
      <trkpt lat="62.635486072241" lon="18.003261057288">
        <ele>57.6</ele>
        <time>2018-03-18T10:24:03Z</time>
      </trkpt>
      <trkpt lat="62.635468889346" lon="18.003349989247">
        <ele>57.6</ele>
        <time>2018-03-18T10:24:04Z</time>
      </trkpt>
      <trkpt lat="62.635455897401" lon="18.003429952573">
        <ele>57.6</ele>
        <time>2018-03-18T10:24:05Z</time>
      </trkpt>
      <trkpt lat="62.635431338434" lon="18.003521985835">
        <ele>57.2</ele>
        <time>2018-03-18T10:24:06Z</time>
      </trkpt>
      <trkpt lat="62.635411976245" lon="18.003614270554">
        <ele>57</ele>
        <time>2018-03-18T10:24:07Z</time>
      </trkpt>
      <trkpt lat="62.63540066068" lon="18.003705717083">
        <ele>57</ele>
        <time>2018-03-18T10:24:08Z</time>
      </trkpt>
      <trkpt lat="62.635387920192" lon="18.003786183323">
        <ele>56.8</ele>
        <time>2018-03-18T10:24:09Z</time>
      </trkpt>
      <trkpt lat="62.635375095885" lon="18.003850640134">
        <ele>56.6</ele>
        <time>2018-03-18T10:24:10Z</time>
      </trkpt>
      <trkpt lat="62.635370318202" lon="18.003917443877">
        <ele>56.4</ele>
        <time>2018-03-18T10:24:11Z</time>
      </trkpt>
      <trkpt lat="62.635362187759" lon="18.003999670316">
        <ele>56.2</ele>
        <time>2018-03-18T10:24:12Z</time>
      </trkpt>
      <trkpt lat="62.635348525262" lon="18.004077119072">
        <ele>56.2</ele>
        <time>2018-03-18T10:24:13Z</time>
      </trkpt>
      <trkpt lat="62.63533360548" lon="18.004144509548">
        <ele>56.2</ele>
        <time>2018-03-18T10:24:14Z</time>
      </trkpt>
      <trkpt lat="62.635326983779" lon="18.004202763753">
        <ele>56.2</ele>
        <time>2018-03-18T10:24:15Z</time>
      </trkpt>
      <trkpt lat="62.635297144215" lon="18.004284403459">
        <ele>56.2</ele>
        <time>2018-03-18T10:24:16Z</time>
      </trkpt>
      <trkpt lat="62.635275099818" lon="18.00434550751">
        <ele>56.2</ele>
        <time>2018-03-18T10:24:17Z</time>
      </trkpt>
      <trkpt lat="62.63525397743" lon="18.004413149443">
        <ele>56.2</ele>
        <time>2018-03-18T10:24:18Z</time>
      </trkpt>
      <trkpt lat="62.635235872526" lon="18.004470733096">
        <ele>56</ele>
        <time>2018-03-18T10:24:19Z</time>
      </trkpt>
      <trkpt lat="62.635213828129" lon="18.004525969817">
        <ele>56</ele>
        <time>2018-03-18T10:24:20Z</time>
      </trkpt>
      <trkpt lat="62.635190694085" lon="18.004581457995">
        <ele>56</ele>
        <time>2018-03-18T10:24:21Z</time>
      </trkpt>
      <trkpt lat="62.635164542557" lon="18.004629234825">
        <ele>56</ele>
        <time>2018-03-18T10:24:22Z</time>
      </trkpt>
      <trkpt lat="62.635135038269" lon="18.004676424922">
        <ele>56</ele>
        <time>2018-03-18T10:24:23Z</time>
      </trkpt>
      <trkpt lat="62.635106204533" lon="18.004719675526">
        <ele>56</ele>
        <time>2018-03-18T10:24:24Z</time>
      </trkpt>
      <trkpt lat="62.635078544263" lon="18.004759489551">
        <ele>56</ele>
        <time>2018-03-18T10:24:25Z</time>
      </trkpt>
      <trkpt lat="62.635048285604" lon="18.004806931105">
        <ele>56.2</ele>
        <time>2018-03-18T10:24:26Z</time>
      </trkpt>
      <trkpt lat="62.635022972266" lon="18.004848589148">
        <ele>56.2</ele>
        <time>2018-03-18T10:24:27Z</time>
      </trkpt>
      <trkpt lat="62.634999083851" lon="18.004891839752">
        <ele>56.2</ele>
        <time>2018-03-18T10:24:28Z</time>
      </trkpt>
      <trkpt lat="62.634978129101" lon="18.004929642121">
        <ele>56.4</ele>
        <time>2018-03-18T10:24:29Z</time>
      </trkpt>
      <trkpt lat="62.634963544595" lon="18.004967193033">
        <ele>56.4</ele>
        <time>2018-03-18T10:24:30Z</time>
      </trkpt>
      <trkpt lat="62.634932783022" lon="18.005029973464">
        <ele>56.4</ele>
        <time>2018-03-18T10:24:31Z</time>
      </trkpt>
      <trkpt lat="62.634911828272" lon="18.005075654819">
        <ele>56.6</ele>
        <time>2018-03-18T10:24:32Z</time>
      </trkpt>
      <trkpt lat="62.634891124979" lon="18.00512502421">
        <ele>56.6</ele>
        <time>2018-03-18T10:24:33Z</time>
      </trkpt>
      <trkpt lat="62.634873355351" lon="18.005170873203">
        <ele>56.4</ele>
        <time>2018-03-18T10:24:34Z</time>
      </trkpt>
      <trkpt lat="62.634862710338" lon="18.005210771047">
        <ele>56.6</ele>
        <time>2018-03-18T10:24:35Z</time>
      </trkpt>
      <trkpt lat="62.634831026756" lon="18.005263660836">
        <ele>56.6</ele>
        <time>2018-03-18T10:24:36Z</time>
      </trkpt>
      <trkpt lat="62.634807641255" lon="18.005300625015">
        <ele>56.4</ele>
        <time>2018-03-18T10:24:37Z</time>
      </trkpt>
      <trkpt lat="62.634779394252" lon="18.005333565882">
        <ele>56.4</ele>
        <time>2018-03-18T10:24:38Z</time>
      </trkpt>
      <trkpt lat="62.634754667647" lon="18.005362986351">
        <ele>56.4</ele>
        <time>2018-03-18T10:24:39Z</time>
      </trkpt>
      <trkpt lat="62.63472927049" lon="18.005390478983">
        <ele>56.4</ele>
        <time>2018-03-18T10:24:40Z</time>
      </trkpt>
      <trkpt lat="62.634700017659" lon="18.00542006709">
        <ele>56.4</ele>
        <time>2018-03-18T10:24:41Z</time>
      </trkpt>
      <trkpt lat="62.63467562633" lon="18.005445380428">
        <ele>56.4</ele>
        <time>2018-03-18T10:24:42Z</time>
      </trkpt>
      <trkpt lat="62.634653162838" lon="18.005466670454">
        <ele>56.4</ele>
        <time>2018-03-18T10:24:43Z</time>
      </trkpt>
      <trkpt lat="62.634630615527" lon="18.005491229421">
        <ele>56.6</ele>
        <time>2018-03-18T10:24:44Z</time>
      </trkpt>
      <trkpt lat="62.63461276208" lon="18.00551562075">
        <ele>56.6</ele>
        <time>2018-03-18T10:24:45Z</time>
      </trkpt>
      <trkpt lat="62.634594740995" lon="18.00554747197">
        <ele>56.6</ele>
        <time>2018-03-18T10:24:46Z</time>
      </trkpt>
      <trkpt lat="62.634576133177" lon="18.00557680862">
        <ele>56.8</ele>
        <time>2018-03-18T10:24:47Z</time>
      </trkpt>
      <trkpt lat="62.634557692997" lon="18.005614359532">
        <ele>56.8</ele>
        <time>2018-03-18T10:24:48Z</time>
      </trkpt>
      <trkpt lat="62.634538833722" lon="18.005669512434">
        <ele>57</ele>
        <time>2018-03-18T10:24:49Z</time>
      </trkpt>
      <trkpt lat="62.634518298067" lon="18.005701950387">
        <ele>57</ele>
        <time>2018-03-18T10:24:50Z</time>
      </trkpt>
      <trkpt lat="62.634500779896" lon="18.005746123">
        <ele>57</ele>
        <time>2018-03-18T10:24:51Z</time>
      </trkpt>
      <trkpt lat="62.634474628368" lon="18.005795157115">
        <ele>57.2</ele>
        <time>2018-03-18T10:24:52Z</time>
      </trkpt>
      <trkpt lat="62.634461468785" lon="18.005820302815">
        <ele>57.2</ele>
        <time>2018-03-18T10:24:53Z</time>
      </trkpt>
      <trkpt lat="62.634434143791" lon="18.005874030794">
        <ele>57.4</ele>
        <time>2018-03-18T10:24:54Z</time>
      </trkpt>
      <trkpt lat="62.634414781602" lon="18.005919712149">
        <ele>57.4</ele>
        <time>2018-03-18T10:24:55Z</time>
      </trkpt>
      <trkpt lat="62.634399358906" lon="18.005959190898">
        <ele>57.6</ele>
        <time>2018-03-18T10:24:56Z</time>
      </trkpt>
      <trkpt lat="62.634374380844" lon="18.00601015285">
        <ele>57.6</ele>
        <time>2018-03-18T10:24:57Z</time>
      </trkpt>
      <trkpt lat="62.634363400555" lon="18.006048374314">
        <ele>57.6</ele>
        <time>2018-03-18T10:24:58Z</time>
      </trkpt>
      <trkpt lat="62.634336243199" lon="18.006108053442">
        <ele>57.4</ele>
        <time>2018-03-18T10:24:59Z</time>
      </trkpt>
      <trkpt lat="62.634321407236" lon="18.006154572987">
        <ele>57.4</ele>
        <time>2018-03-18T10:25:00Z</time>
      </trkpt>
      <trkpt lat="62.6342925735" lon="18.006219281255">
        <ele>57.2</ele>
        <time>2018-03-18T10:25:01Z</time>
      </trkpt>
      <trkpt lat="62.634262985393" lon="18.006268818284">
        <ele>57.2</ele>
        <time>2018-03-18T10:25:02Z</time>
      </trkpt>
      <trkpt lat="62.634244712851" lon="18.006311230698">
        <ele>57.2</ele>
        <time>2018-03-18T10:25:03Z</time>
      </trkpt>
      <trkpt lat="62.634221243531" lon="18.006365713048">
        <ele>57.2</ele>
        <time>2018-03-18T10:25:04Z</time>
      </trkpt>
      <trkpt lat="62.634206491387" lon="18.006400162657">
        <ele>57.2</ele>
        <time>2018-03-18T10:25:05Z</time>
      </trkpt>
      <trkpt lat="62.63417355052" lon="18.006463529821">
        <ele>57.2</ele>
        <time>2018-03-18T10:25:06Z</time>
      </trkpt>
      <trkpt lat="62.634152763408" lon="18.006511893384">
        <ele>57.4</ele>
        <time>2018-03-18T10:25:07Z</time>
      </trkpt>
      <trkpt lat="62.63413164102" lon="18.00656084368">
        <ele>57.4</ele>
        <time>2018-03-18T10:25:08Z</time>
      </trkpt>
      <trkpt lat="62.634111273003" lon="18.006616750953">
        <ele>57.4</ele>
        <time>2018-03-18T10:25:09Z</time>
      </trkpt>
      <trkpt lat="62.634099538343" lon="18.006657570806">
        <ele>57.6</ele>
        <time>2018-03-18T10:25:10Z</time>
      </trkpt>
      <trkpt lat="62.634073973548" lon="18.006714903002">
        <ele>57.4</ele>
        <time>2018-03-18T10:25:11Z</time>
      </trkpt>
      <trkpt lat="62.634054611359" lon="18.006771564646">
        <ele>57.6</ele>
        <time>2018-03-18T10:25:12Z</time>
      </trkpt>
      <trkpt lat="62.634034494799" lon="18.006819592933">
        <ele>57.4</ele>
        <time>2018-03-18T10:25:13Z</time>
      </trkpt>
      <trkpt lat="62.634017144266" lon="18.00687348855">
        <ele>57.4</ele>
        <time>2018-03-18T10:25:14Z</time>
      </trkpt>
      <trkpt lat="62.634006080158" lon="18.006913386394">
        <ele>57.4</ele>
        <time>2018-03-18T10:25:15Z</time>
      </trkpt>
      <trkpt lat="62.633981940286" lon="18.006988152942">
        <ele>57.4</ele>
        <time>2018-03-18T10:25:16Z</time>
      </trkpt>
      <trkpt lat="62.633977833155" lon="18.007036348867">
        <ele>57.4</ele>
        <time>2018-03-18T10:25:17Z</time>
      </trkpt>
      <trkpt lat="62.633948245048" lon="18.007093848701">
        <ele>57.6</ele>
        <time>2018-03-18T10:25:18Z</time>
      </trkpt>
      <trkpt lat="62.633931145972" lon="18.007146906128">
        <ele>57.8</ele>
        <time>2018-03-18T10:25:19Z</time>
      </trkpt>
      <trkpt lat="62.633917818751" lon="18.007197281347">
        <ele>57.8</ele>
        <time>2018-03-18T10:25:20Z</time>
      </trkpt>
      <trkpt lat="62.633887643911" lon="18.007264001271">
        <ele>57.8</ele>
        <time>2018-03-18T10:25:21Z</time>
      </trkpt>
      <trkpt lat="62.633870293378" lon="18.00729425993">
        <ele>57.8</ele>
        <time>2018-03-18T10:25:22Z</time>
      </trkpt>
      <trkpt lat="62.633838023063" lon="18.007345054244">
        <ele>57.6</ele>
        <time>2018-03-18T10:25:23Z</time>
      </trkpt>
      <trkpt lat="62.633806507119" lon="18.007378581844">
        <ele>57.4</ele>
        <time>2018-03-18T10:25:24Z</time>
      </trkpt>
      <trkpt lat="62.633784295084" lon="18.00739484273">
        <ele>57.4</ele>
        <time>2018-03-18T10:25:25Z</time>
      </trkpt>
      <trkpt lat="62.63374775" lon="18.007403140811">
        <ele>57.4</ele>
        <time>2018-03-18T10:25:26Z</time>
      </trkpt>
      <trkpt lat="62.633721179377" lon="18.007403140811">
        <ele>57.6</ele>
        <time>2018-03-18T10:25:27Z</time>
      </trkpt>
      <trkpt lat="62.633690836899" lon="18.007382688975">
        <ele>57.8</ele>
        <time>2018-03-18T10:25:28Z</time>
      </trkpt>
      <trkpt lat="62.633665439742" lon="18.007369948487">
        <ele>57.8</ele>
        <time>2018-03-18T10:25:29Z</time>
      </trkpt>
      <trkpt lat="62.633646161372" lon="18.007363913519">
        <ele>57.8</ele>
        <time>2018-03-18T10:25:30Z</time>
      </trkpt>
      <trkpt lat="62.63361950693" lon="18.007341869122">
        <ele>58</ele>
        <time>2018-03-18T10:25:31Z</time>
      </trkpt>
      <trkpt lat="62.633597043438" lon="18.007323428942">
        <ele>58</ele>
        <time>2018-03-18T10:25:32Z</time>
      </trkpt>
      <trkpt lat="62.633577513611" lon="18.007316220508">
        <ele>58.2</ele>
        <time>2018-03-18T10:25:33Z</time>
      </trkpt>
      <trkpt lat="62.633558235241" lon="18.007293086464">
        <ele>58.2</ele>
        <time>2018-03-18T10:25:34Z</time>
      </trkpt>
      <trkpt lat="62.63354239345" lon="18.007282273813">
        <ele>58.6</ele>
        <time>2018-03-18T10:25:35Z</time>
      </trkpt>
      <trkpt lat="62.633519091768" lon="18.00726576147">
        <ele>58.6</ele>
        <time>2018-03-18T10:25:36Z</time>
      </trkpt>
      <trkpt lat="62.633498891389" lon="18.007244890539">
        <ele>58.8</ele>
        <time>2018-03-18T10:25:37Z</time>
      </trkpt>
      <trkpt lat="62.633479026286" lon="18.007233407336">
        <ele>59</ele>
        <time>2018-03-18T10:25:38Z</time>
      </trkpt>
      <trkpt lat="62.633452790939" lon="18.00720541179">
        <ele>59.2</ele>
        <time>2018-03-18T10:25:39Z</time>
      </trkpt>
      <trkpt lat="62.633428148153" lon="18.007186552515">
        <ele>59.4</ele>
        <time>2018-03-18T10:25:40Z</time>
      </trkpt>
      <trkpt lat="62.633405265566" lon="18.00716182591">
        <ele>59.6</ele>
        <time>2018-03-18T10:25:41Z</time>
      </trkpt>
      <trkpt lat="62.633380538961" lon="18.00713165107">
        <ele>60</ele>
        <time>2018-03-18T10:25:42Z</time>
      </trkpt>
      <trkpt lat="62.63335966803" lon="18.007112288881">
        <ele>60.4</ele>
        <time>2018-03-18T10:25:43Z</time>
      </trkpt>
      <trkpt lat="62.633341060212" lon="18.00707381596">
        <ele>60.6</ele>
        <time>2018-03-18T10:25:44Z</time>
      </trkpt>
      <trkpt lat="62.633323793498" lon="18.007039198713">
        <ele>60.8</ele>
        <time>2018-03-18T10:25:45Z</time>
      </trkpt>
      <trkpt lat="62.633299150712" lon="18.006996115747">
        <ele>60.8</ele>
        <time>2018-03-18T10:25:46Z</time>
      </trkpt>
      <trkpt lat="62.633286074948" lon="18.006951607858">
        <ele>60.8</ele>
        <time>2018-03-18T10:25:47Z</time>
      </trkpt>
      <trkpt lat="62.633275429935" lon="18.006905088313">
        <ele>60.8</ele>
        <time>2018-03-18T10:25:48Z</time>
      </trkpt>
      <trkpt lat="62.633259336687" lon="18.00687097398">
        <ele>60.4</ele>
        <time>2018-03-18T10:25:49Z</time>
      </trkpt>
      <trkpt lat="62.633254391366" lon="18.006828477747">
        <ele>60.4</ele>
        <time>2018-03-18T10:25:50Z</time>
      </trkpt>
      <trkpt lat="62.633246428561" lon="18.006772738112">
        <ele>60</ele>
        <time>2018-03-18T10:25:51Z</time>
      </trkpt>
      <trkpt lat="62.633239974498" lon="18.006719345409">
        <ele>60</ele>
        <time>2018-03-18T10:25:52Z</time>
      </trkpt>
      <trkpt lat="62.633235783548" lon="18.00667567571">
        <ele>60</ele>
        <time>2018-03-18T10:25:53Z</time>
      </trkpt>
      <trkpt lat="62.633235112996" lon="18.006622534464">
        <ele>60.2</ele>
        <time>2018-03-18T10:25:54Z</time>
      </trkpt>
      <trkpt lat="62.633229664761" lon="18.006583307172">
        <ele>60.4</ele>
        <time>2018-03-18T10:25:55Z</time>
      </trkpt>
      <trkpt lat="62.633229245666" lon="18.006535195066">
        <ele>60.4</ele>
        <time>2018-03-18T10:25:56Z</time>
      </trkpt>
      <trkpt lat="62.633228156019" lon="18.006489094616">
        <ele>60.2</ele>
        <time>2018-03-18T10:25:57Z</time>
      </trkpt>
      <trkpt lat="62.633222959241" lon="18.006458919776">
        <ele>60.4</ele>
        <time>2018-03-18T10:25:58Z</time>
      </trkpt>
      <trkpt lat="62.633225306173" lon="18.006417010276">
        <ele>60.2</ele>
        <time>2018-03-18T10:25:59Z</time>
      </trkpt>
      <trkpt lat="62.633218935929" lon="18.006385326694">
        <ele>60.2</ele>
        <time>2018-03-18T10:26:00Z</time>
      </trkpt>
      <trkpt lat="62.6332196903" lon="18.006331682534">
        <ele>60.4</ele>
        <time>2018-03-18T10:26:01Z</time>
      </trkpt>
      <trkpt lat="62.633217594825" lon="18.006283067514">
        <ele>61</ele>
        <time>2018-03-18T10:26:02Z</time>
      </trkpt>
      <trkpt lat="62.633214744979" lon="18.006240068367">
        <ele>61.4</ele>
        <time>2018-03-18T10:26:03Z</time>
      </trkpt>
      <trkpt lat="62.633216588997" lon="18.006199080876">
        <ele>61.8</ele>
        <time>2018-03-18T10:26:04Z</time>
      </trkpt>
      <trkpt lat="62.633213487694" lon="18.006171839701">
        <ele>61.8</ele>
        <time>2018-03-18T10:26:05Z</time>
      </trkpt>
      <trkpt lat="62.633212649504" lon="18.0061233085">
        <ele>62</ele>
        <time>2018-03-18T10:26:06Z</time>
      </trkpt>
      <trkpt lat="62.633212230409" lon="18.006085170855">
        <ele>62</ele>
        <time>2018-03-18T10:26:07Z</time>
      </trkpt>
      <trkpt lat="62.633209883477" lon="18.006052146169">
        <ele>62.2</ele>
        <time>2018-03-18T10:26:08Z</time>
      </trkpt>
      <trkpt lat="62.633211140762" lon="18.006006380995">
        <ele>62.2</ele>
        <time>2018-03-18T10:26:09Z</time>
      </trkpt>
      <trkpt lat="62.633215164074" lon="18.005972769576">
        <ele>62.4</ele>
        <time>2018-03-18T10:26:10Z</time>
      </trkpt>
      <trkpt lat="62.633208458554" lon="18.005933207008">
        <ele>62.6</ele>
        <time>2018-03-18T10:26:11Z</time>
      </trkpt>
      <trkpt lat="62.633208374735" lon="18.005907223118">
        <ele>62.6</ele>
        <time>2018-03-18T10:26:12Z</time>
      </trkpt>
      <trkpt lat="62.633207033631" lon="18.005888196205">
        <ele>62.6</ele>
        <time>2018-03-18T10:26:13Z</time>
      </trkpt>
      <trkpt lat="62.633209045287" lon="18.005877970287">
        <ele>62.6</ele>
        <time>2018-03-18T10:26:14Z</time>
      </trkpt>
      <trkpt lat="62.633208542373" lon="18.005861038849">
        <ele>62.6</ele>
        <time>2018-03-18T10:26:15Z</time>
      </trkpt>
      <trkpt lat="62.633207704183" lon="18.005834049131">
        <ele>62.6</ele>
        <time>2018-03-18T10:26:16Z</time>
      </trkpt>
      <trkpt lat="62.633206865993" lon="18.005813429657">
        <ele>62.6</ele>
        <time>2018-03-18T10:26:17Z</time>
      </trkpt>
      <trkpt lat="62.633207201269" lon="18.005795827667">
        <ele>62.6</ele>
        <time>2018-03-18T10:26:18Z</time>
      </trkpt>
      <trkpt lat="62.633208039459" lon="18.005785434111">
        <ele>62.8</ele>
        <time>2018-03-18T10:26:19Z</time>
      </trkpt>
      <trkpt lat="62.633209045287" lon="18.005772525985">
        <ele>63.2</ele>
        <time>2018-03-18T10:26:20Z</time>
      </trkpt>
      <trkpt lat="62.633209464382" lon="18.005751068321">
        <ele>63.6</ele>
        <time>2018-03-18T10:26:21Z</time>
      </trkpt>
      <trkpt lat="62.633209548201" lon="18.005730532666">
        <ele>64</ele>
        <time>2018-03-18T10:26:22Z</time>
      </trkpt>
      <trkpt lat="62.633207201269" lon="18.005713265952">
        <ele>64.6</ele>
        <time>2018-03-18T10:26:23Z</time>
      </trkpt>
      <trkpt lat="62.633206782174" lon="18.005695663962">
        <ele>65</ele>
        <time>2018-03-18T10:26:24Z</time>
      </trkpt>
      <trkpt lat="62.63320544107" lon="18.005680492723">
        <ele>65.2</ele>
        <time>2018-03-18T10:26:25Z</time>
      </trkpt>
      <trkpt lat="62.633207704183" lon="18.005671021176">
        <ele>65.4</ele>
        <time>2018-03-18T10:26:26Z</time>
      </trkpt>
      <trkpt lat="62.633208710011" lon="18.005652497177">
        <ele>65.6</ele>
        <time>2018-03-18T10:26:27Z</time>
      </trkpt>
      <trkpt lat="62.633209045287" lon="18.005627267658">
        <ele>66</ele>
        <time>2018-03-18T10:26:28Z</time>
      </trkpt>
      <trkpt lat="62.63320963202" lon="18.005603295424">
        <ele>66.2</ele>
        <time>2018-03-18T10:26:29Z</time>
      </trkpt>
      <trkpt lat="62.633208877649" lon="18.005582340674">
        <ele>66.6</ele>
        <time>2018-03-18T10:26:30Z</time>
      </trkpt>
      <trkpt lat="62.633209212925" lon="18.005561553562">
        <ele>66.8</ele>
        <time>2018-03-18T10:26:31Z</time>
      </trkpt>
      <trkpt lat="62.633209715839" lon="18.005559458087">
        <ele>66.8</ele>
        <time>2018-03-18T10:26:32Z</time>
      </trkpt>
      <trkpt lat="62.633210218753" lon="18.005538838613">
        <ele>66.8</ele>
        <time>2018-03-18T10:26:33Z</time>
      </trkpt>
      <trkpt lat="62.63320795564" lon="18.005513525275">
        <ele>67</ele>
        <time>2018-03-18T10:26:34Z</time>
      </trkpt>
      <trkpt lat="62.633206949812" lon="18.005497096751">
        <ele>66.8</ele>
        <time>2018-03-18T10:26:35Z</time>
      </trkpt>
      <trkpt lat="62.633205776346" lon="18.005474633259">
        <ele>66.6</ele>
        <time>2018-03-18T10:26:36Z</time>
      </trkpt>
      <trkpt lat="62.633205692527" lon="18.005460467848">
        <ele>67.2</ele>
        <time>2018-03-18T10:26:37Z</time>
      </trkpt>
      <trkpt lat="62.633206530717" lon="18.005447894998">
        <ele>67.6</ele>
        <time>2018-03-18T10:26:38Z</time>
      </trkpt>
      <trkpt lat="62.633207452726" lon="18.005423168393">
        <ele>67.8</ele>
        <time>2018-03-18T10:26:39Z</time>
      </trkpt>
      <trkpt lat="62.63320627926" lon="18.005394418476">
        <ele>68.2</ele>
        <time>2018-03-18T10:26:40Z</time>
      </trkpt>
      <trkpt lat="62.633205692527" lon="18.005363321627">
        <ele>68.8</ele>
        <time>2018-03-18T10:26:41Z</time>
      </trkpt>
      <trkpt lat="62.633203932328" lon="18.005341863963">
        <ele>69.4</ele>
        <time>2018-03-18T10:26:42Z</time>
      </trkpt>
      <trkpt lat="62.633204183785" lon="18.005322082679">
        <ele>69.6</ele>
        <time>2018-03-18T10:26:43Z</time>
      </trkpt>
      <trkpt lat="62.633204183785" lon="18.005310348019">
        <ele>70</ele>
        <time>2018-03-18T10:26:44Z</time>
      </trkpt>
      <trkpt lat="62.633205692527" lon="18.00529601497">
        <ele>70</ele>
        <time>2018-03-18T10:26:45Z</time>
      </trkpt>
      <trkpt lat="62.633206446898" lon="18.005262319732">
        <ele>70.4</ele>
        <time>2018-03-18T10:26:46Z</time>
      </trkpt>
      <trkpt lat="62.633205273432" lon="18.005234743281">
        <ele>70.4</ele>
        <time>2018-03-18T10:26:47Z</time>
      </trkpt>
      <trkpt lat="62.633203010319" lon="18.005206999192">
        <ele>70.6</ele>
        <time>2018-03-18T10:26:48Z</time>
      </trkpt>
      <trkpt lat="62.633201836853" lon="18.005183110777">
        <ele>71</ele>
        <time>2018-03-18T10:26:49Z</time>
      </trkpt>
      <trkpt lat="62.633200328111" lon="18.005171543755">
        <ele>71.4</ele>
        <time>2018-03-18T10:26:50Z</time>
      </trkpt>
      <trkpt lat="62.633199322283" lon="18.005157043068">
        <ele>71.6</ele>
        <time>2018-03-18T10:26:51Z</time>
      </trkpt>
      <trkpt lat="62.633197729722" lon="18.005140446906">
        <ele>71.8</ele>
        <time>2018-03-18T10:26:52Z</time>
      </trkpt>
      <trkpt lat="62.633193622591" lon="18.005119408337">
        <ele>72.2</ele>
        <time>2018-03-18T10:26:53Z</time>
      </trkpt>
      <trkpt lat="62.63319203003" lon="18.005096274293">
        <ele>72.4</ele>
        <time>2018-03-18T10:26:54Z</time>
      </trkpt>
      <trkpt lat="62.63319119184" lon="18.005073475525">
        <ele>72.4</ele>
        <time>2018-03-18T10:26:55Z</time>
      </trkpt>
      <trkpt lat="62.633187084709" lon="18.005051095852">
        <ele>72.4</ele>
        <time>2018-03-18T10:26:56Z</time>
      </trkpt>
      <trkpt lat="62.633183312854" lon="18.005038355364">
        <ele>72.4</ele>
        <time>2018-03-18T10:26:57Z</time>
      </trkpt>
      <trkpt lat="62.633182642302" lon="18.005028883817">
        <ele>72.4</ele>
        <time>2018-03-18T10:26:58Z</time>
      </trkpt>
      <trkpt lat="62.633180714465" lon="18.005016394786">
        <ele>72.4</ele>
        <time>2018-03-18T10:26:59Z</time>
      </trkpt>
      <trkpt lat="62.63317526623" lon="18.005001139728">
        <ele>72.2</ele>
        <time>2018-03-18T10:27:00Z</time>
      </trkpt>
      <trkpt lat="62.633167638701" lon="18.004978843874">
        <ele>72.2</ele>
        <time>2018-03-18T10:27:01Z</time>
      </trkpt>
      <trkpt lat="62.633162106647" lon="18.004970629612">
        <ele>73</ele>
        <time>2018-03-18T10:27:02Z</time>
      </trkpt>
      <trkpt lat="62.633148108874" lon="18.004950177776">
        <ele>73.2</ele>
        <time>2018-03-18T10:27:03Z</time>
      </trkpt>
      <trkpt lat="62.63313922406" lon="18.004933246338">
        <ele>73.4</ele>
        <time>2018-03-18T10:27:04Z</time>
      </trkpt>
      <trkpt lat="62.633131177436" lon="18.004920254393">
        <ele>73.8</ele>
        <time>2018-03-18T10:27:05Z</time>
      </trkpt>
      <trkpt lat="62.633118688405" lon="18.004904161145">
        <ele>74</ele>
        <time>2018-03-18T10:27:06Z</time>
      </trkpt>
      <trkpt lat="62.633106869926" lon="18.004888822268">
        <ele>74</ele>
        <time>2018-03-18T10:27:07Z</time>
      </trkpt>
      <trkpt lat="62.633094297076" lon="18.004880105092">
        <ele>74.2</ele>
        <time>2018-03-18T10:27:08Z</time>
      </trkpt>
      <trkpt lat="62.633078287647" lon="18.004872058468">
        <ele>74.4</ele>
        <time>2018-03-18T10:27:09Z</time>
      </trkpt>
      <trkpt lat="62.633068648462" lon="18.004874908314">
        <ele>74.6</ele>
        <time>2018-03-18T10:27:10Z</time>
      </trkpt>
      <trkpt lat="62.633051633205" lon="18.004873902486">
        <ele>75</ele>
        <time>2018-03-18T10:27:11Z</time>
      </trkpt>
      <trkpt lat="62.633030510817" lon="18.004871974649">
        <ele>75.2</ele>
        <time>2018-03-18T10:27:12Z</time>
      </trkpt>
      <trkpt lat="62.633005197479" lon="18.004879266902">
        <ele>75.4</ele>
        <time>2018-03-18T10:27:13Z</time>
      </trkpt>
      <trkpt lat="62.632986757299" lon="18.004897204168">
        <ele>75.8</ele>
        <time>2018-03-18T10:27:14Z</time>
      </trkpt>
      <trkpt lat="62.632966473101" lon="18.004906340439">
        <ele>76</ele>
        <time>2018-03-18T10:27:15Z</time>
      </trkpt>
      <trkpt lat="62.632937555546" lon="18.0049414606">
        <ele>76.4</ele>
        <time>2018-03-18T10:27:16Z</time>
      </trkpt>
      <trkpt lat="62.63292129466" lon="18.004977586589">
        <ele>76.6</ele>
        <time>2018-03-18T10:27:17Z</time>
      </trkpt>
      <trkpt lat="62.632900256091" lon="18.00501522132">
        <ele>76.8</ele>
        <time>2018-03-18T10:27:18Z</time>
      </trkpt>
      <trkpt lat="62.632886174499" lon="18.005066434729">
        <ele>76.6</ele>
        <time>2018-03-18T10:27:19Z</time>
      </trkpt>
      <trkpt lat="62.632866896129" lon="18.00510490765">
        <ele>76.8</ele>
        <time>2018-03-18T10:27:20Z</time>
      </trkpt>
      <trkpt lat="62.632848120673" lon="18.005169615918">
        <ele>76.8</ele>
        <time>2018-03-18T10:27:21Z</time>
      </trkpt>
      <trkpt lat="62.632828842303" lon="18.005216638377">
        <ele>76.8</ele>
        <time>2018-03-18T10:27:22Z</time>
      </trkpt>
      <trkpt lat="62.632806294992" lon="18.005265253397">
        <ele>76.8</ele>
        <time>2018-03-18T10:27:23Z</time>
      </trkpt>
      <trkpt lat="62.632777712713" lon="18.005312862589">
        <ele>76.8</ele>
        <time>2018-03-18T10:27:24Z</time>
      </trkpt>
      <trkpt lat="62.63274862752" lon="18.005349240035">
        <ele>76.6</ele>
        <time>2018-03-18T10:27:25Z</time>
      </trkpt>
      <trkpt lat="62.632710573694" lon="18.005382935273">
        <ele>76.4</ele>
        <time>2018-03-18T10:27:26Z</time>
      </trkpt>
      <trkpt lat="62.632685344175" lon="18.005392323001">
        <ele>76.4</ele>
        <time>2018-03-18T10:27:27Z</time>
      </trkpt>
      <trkpt lat="62.632666149624" lon="18.005394669933">
        <ele>76.2</ele>
        <time>2018-03-18T10:27:28Z</time>
      </trkpt>
      <trkpt lat="62.632649972557" lon="18.005406907507">
        <ele>76.2</ele>
        <time>2018-03-18T10:27:29Z</time>
      </trkpt>
      <trkpt lat="62.632631867653" lon="18.00540330329">
        <ele>76.4</ele>
        <time>2018-03-18T10:27:30Z</time>
      </trkpt>
      <trkpt lat="62.63260864979" lon="18.005409422077">
        <ele>76.6</ele>
        <time>2018-03-18T10:27:31Z</time>
      </trkpt>
      <trkpt lat="62.632588197954" lon="18.005414283579">
        <ele>76.8</ele>
        <time>2018-03-18T10:27:32Z</time>
      </trkpt>
      <trkpt lat="62.632566488833" lon="18.005413948303">
        <ele>77.2</ele>
        <time>2018-03-18T10:27:33Z</time>
      </trkpt>
      <trkpt lat="62.63254243278" lon="18.005413277751">
        <ele>77.4</ele>
        <time>2018-03-18T10:27:34Z</time>
      </trkpt>
      <trkpt lat="62.632525585161" lon="18.005411601371">
        <ele>77.4</ele>
        <time>2018-03-18T10:27:35Z</time>
      </trkpt>
      <trkpt lat="62.632498763081" lon="18.005401040177">
        <ele>77.6</ele>
        <time>2018-03-18T10:27:36Z</time>
      </trkpt>
      <trkpt lat="62.632472276277" lon="18.005392490639">
        <ele>77.8</ele>
        <time>2018-03-18T10:27:37Z</time>
      </trkpt>
      <trkpt lat="62.632458278504" lon="18.005387293861">
        <ele>77.8</ele>
        <time>2018-03-18T10:27:38Z</time>
      </trkpt>
      <trkpt lat="62.632416369004" lon="18.00538737768">
        <ele>78</ele>
        <time>2018-03-18T10:27:39Z</time>
      </trkpt>
      <trkpt lat="62.632396084806" lon="18.005392239182">
        <ele>78.2</ele>
        <time>2018-03-18T10:27:40Z</time>
      </trkpt>
      <trkpt lat="62.63237479478" lon="18.005401794548">
        <ele>78.4</ele>
        <time>2018-03-18T10:27:41Z</time>
      </trkpt>
      <trkpt lat="62.632352247469" lon="18.005411769009">
        <ele>78.4</ele>
        <time>2018-03-18T10:27:42Z</time>
      </trkpt>
      <trkpt lat="62.632326431217" lon="18.005418474529">
        <ele>78.6</ele>
        <time>2018-03-18T10:27:43Z</time>
      </trkpt>
      <trkpt lat="62.632307320485" lon="18.005440267469">
        <ele>78.6</ele>
        <time>2018-03-18T10:27:44Z</time>
      </trkpt>
      <trkpt lat="62.632288042115" lon="18.005451331577">
        <ele>78.6</ele>
        <time>2018-03-18T10:27:45Z</time>
      </trkpt>
      <trkpt lat="62.632268260831" lon="18.005475806725">
        <ele>78.8</ele>
        <time>2018-03-18T10:27:46Z</time>
      </trkpt>
      <trkpt lat="62.632243366588" lon="18.005486535557">
        <ele>79</ele>
        <time>2018-03-18T10:27:47Z</time>
      </trkpt>
      <trkpt lat="62.63221553868" lon="18.005494833638">
        <ele>79</ele>
        <time>2018-03-18T10:27:48Z</time>
      </trkpt>
      <trkpt lat="62.632191314989" lon="18.005516626578">
        <ele>79.2</ele>
        <time>2018-03-18T10:27:49Z</time>
      </trkpt>
      <trkpt lat="62.63216273271" lon="18.005524589383">
        <ele>79.4</ele>
        <time>2018-03-18T10:27:50Z</time>
      </trkpt>
      <trkpt lat="62.632134150431" lon="18.005528780333">
        <ele>79.4</ele>
        <time>2018-03-18T10:27:51Z</time>
      </trkpt>
      <trkpt lat="62.632114788242" lon="18.005544789762">
        <ele>79.4</ele>
        <time>2018-03-18T10:27:52Z</time>
      </trkpt>
      <trkpt lat="62.632086289782" lon="18.005546466142">
        <ele>79.4</ele>
        <time>2018-03-18T10:27:53Z</time>
      </trkpt>
      <trkpt lat="62.632057204589" lon="18.005582005398">
        <ele>79.6</ele>
        <time>2018-03-18T10:27:54Z</time>
      </trkpt>
      <trkpt lat="62.632033902907" lon="18.005568929634">
        <ele>79.6</ele>
        <time>2018-03-18T10:27:55Z</time>
      </trkpt>
      <trkpt lat="62.632012948157" lon="18.005587453633">
        <ele>79.4</ele>
        <time>2018-03-18T10:27:56Z</time>
      </trkpt>
      <trkpt lat="62.631981264575" lon="18.005580329018">
        <ele>79.4</ele>
        <time>2018-03-18T10:27:57Z</time>
      </trkpt>
      <trkpt lat="62.631959639273" lon="18.005602541053">
        <ele>79.2</ele>
        <time>2018-03-18T10:27:58Z</time>
      </trkpt>
      <trkpt lat="62.631928793881" lon="18.005599775026">
        <ele>79</ele>
        <time>2018-03-18T10:27:59Z</time>
      </trkpt>
      <trkpt lat="62.631903899638" lon="18.005612934609">
        <ele>79</ele>
        <time>2018-03-18T10:28:00Z</time>
      </trkpt>
      <trkpt lat="62.631871461685" lon="18.005613605161">
        <ele>79</ele>
        <time>2018-03-18T10:28:01Z</time>
      </trkpt>
      <trkpt lat="62.631841622121" lon="18.005604217433">
        <ele>79.2</ele>
        <time>2018-03-18T10:28:02Z</time>
      </trkpt>
      <trkpt lat="62.631820583552" lon="18.005601032311">
        <ele>79.4</ele>
        <time>2018-03-18T10:28:03Z</time>
      </trkpt>
      <trkpt lat="62.631794599662" lon="18.005574042593">
        <ele>79.4</ele>
        <time>2018-03-18T10:28:04Z</time>
      </trkpt>
      <trkpt lat="62.631774315464" lon="18.005574880783">
        <ele>79.6</ele>
        <time>2018-03-18T10:28:05Z</time>
      </trkpt>
      <trkpt lat="62.631745649366" lon="18.005547052875">
        <ele>79.6</ele>
        <time>2018-03-18T10:28:06Z</time>
      </trkpt>
      <trkpt lat="62.63172268296" lon="18.005525176116">
        <ele>79.6</ele>
        <time>2018-03-18T10:28:07Z</time>
      </trkpt>
      <trkpt lat="62.631703069314" lon="18.005480668227">
        <ele>79.8</ele>
        <time>2018-03-18T10:28:08Z</time>
      </trkpt>
      <trkpt lat="62.63167825889" lon="18.005442446763">
        <ele>79.6</ele>
        <time>2018-03-18T10:28:09Z</time>
      </trkpt>
      <trkpt lat="62.631662249461" lon="18.005410930819">
        <ele>79.8</ele>
        <time>2018-03-18T10:28:10Z</time>
      </trkpt>
      <trkpt lat="62.631643306367" lon="18.005357789573">
        <ele>79.8</ele>
        <time>2018-03-18T10:28:11Z</time>
      </trkpt>
      <trkpt lat="62.631620507599" lon="18.005328955837">
        <ele>80</ele>
        <time>2018-03-18T10:28:12Z</time>
      </trkpt>
      <trkpt lat="62.631605755455" lon="18.005277742428">
        <ele>80.4</ele>
        <time>2018-03-18T10:28:13Z</time>
      </trkpt>
      <trkpt lat="62.631588824017" lon="18.005225187915">
        <ele>80.6</ele>
        <time>2018-03-18T10:28:14Z</time>
      </trkpt>
      <trkpt lat="62.631575412977" lon="18.005187637003">
        <ele>80.6</ele>
        <time>2018-03-18T10:28:15Z</time>
      </trkpt>
      <trkpt lat="62.631553620037" lon="18.005126030038">
        <ele>80.8</ele>
        <time>2018-03-18T10:28:16Z</time>
      </trkpt>
      <trkpt lat="62.631528809613" lon="18.005079175217">
        <ele>81</ele>
        <time>2018-03-18T10:28:17Z</time>
      </trkpt>
      <trkpt lat="62.631508860691" lon="18.005041624305">
        <ele>81</ele>
        <time>2018-03-18T10:28:18Z</time>
      </trkpt>
      <trkpt lat="62.631490001416" lon="18.005001223547">
        <ele>81.2</ele>
        <time>2018-03-18T10:28:19Z</time>
      </trkpt>
      <trkpt lat="62.631471728874" lon="18.004974820562">
        <ele>81.4</ele>
        <time>2018-03-18T10:28:20Z</time>
      </trkpt>
      <trkpt lat="62.631447924278" lon="18.004947244111">
        <ele>81.6</ele>
        <time>2018-03-18T10:28:21Z</time>
      </trkpt>
      <trkpt lat="62.631422862397" lon="18.004902736222">
        <ele>81.6</ele>
        <time>2018-03-18T10:28:22Z</time>
      </trkpt>
      <trkpt lat="62.631402997294" lon="18.004881194739">
        <ele>81.8</ele>
        <time>2018-03-18T10:28:23Z</time>
      </trkpt>
      <trkpt lat="62.631381455811" lon="18.004829813692">
        <ele>82</ele>
        <time>2018-03-18T10:28:24Z</time>
      </trkpt>
      <trkpt lat="62.631367038943" lon="18.004796034635">
        <ele>82</ele>
        <time>2018-03-18T10:28:25Z</time>
      </trkpt>
      <trkpt lat="62.631344910727" lon="18.004771056573">
        <ele>82.2</ele>
        <time>2018-03-18T10:28:26Z</time>
      </trkpt>
      <trkpt lat="62.631319848846" lon="18.004750940013">
        <ele>82.4</ele>
        <time>2018-03-18T10:28:27Z</time>
      </trkpt>
      <trkpt lat="62.631299564648" lon="18.00474197138">
        <ele>82.4</ele>
        <time>2018-03-18T10:28:28Z</time>
      </trkpt>
      <trkpt lat="62.63127592769" lon="18.004719926983">
        <ele>82.4</ele>
        <time>2018-03-18T10:28:29Z</time>
      </trkpt>
      <trkpt lat="62.631252709827" lon="18.004717244775">
        <ele>82.4</ele>
        <time>2018-03-18T10:28:30Z</time>
      </trkpt>
      <trkpt lat="62.631227396489" lon="18.004697798767">
        <ele>82.8</ele>
        <time>2018-03-18T10:28:31Z</time>
      </trkpt>
      <trkpt lat="62.631210967965" lon="18.004693188722">
        <ele>82.8</ele>
        <time>2018-03-18T10:28:32Z</time>
      </trkpt>
      <trkpt lat="62.631189761758" lon="18.004661588959">
        <ele>82.8</ele>
        <time>2018-03-18T10:28:33Z</time>
      </trkpt>
      <trkpt lat="62.631164699877" lon="18.004651363041">
        <ele>83</ele>
        <time>2018-03-18T10:28:34Z</time>
      </trkpt>
      <trkpt lat="62.631146259697" lon="18.004628899549">
        <ele>83</ele>
        <time>2018-03-18T10:28:35Z</time>
      </trkpt>
      <trkpt lat="62.631117342142" lon="18.00460534641">
        <ele>83</ele>
        <time>2018-03-18T10:28:36Z</time>
      </trkpt>
      <trkpt lat="62.631101165075" lon="18.004577853778">
        <ele>83.2</ele>
        <time>2018-03-18T10:28:37Z</time>
      </trkpt>
      <trkpt lat="62.631079539773" lon="18.004549858232">
        <ele>83.4</ele>
        <time>2018-03-18T10:28:38Z</time>
      </trkpt>
      <trkpt lat="62.63105967467" lon="18.004527813835">
        <ele>83.4</ele>
        <time>2018-03-18T10:28:39Z</time>
      </trkpt>
      <trkpt lat="62.631040731576" lon="18.004500405022">
        <ele>83.6</ele>
        <time>2018-03-18T10:28:40Z</time>
      </trkpt>
      <trkpt lat="62.631016340247" lon="18.004479450272">
        <ele>83.8</ele>
        <time>2018-03-18T10:28:41Z</time>
      </trkpt>
      <trkpt lat="62.630995050221" lon="18.004467464155">
        <ele>83.8</ele>
        <time>2018-03-18T10:28:42Z</time>
      </trkpt>
      <trkpt lat="62.630969485426" lon="18.00444273755">
        <ele>84</ele>
        <time>2018-03-18T10:28:43Z</time>
      </trkpt>
      <trkpt lat="62.630949452685" lon="18.00442010642">
        <ele>84.2</ele>
        <time>2018-03-18T10:28:44Z</time>
      </trkpt>
      <trkpt lat="62.6309314316" lon="18.004398145842">
        <ele>84.4</ele>
        <time>2018-03-18T10:28:45Z</time>
      </trkpt>
      <trkpt lat="62.630902430226" lon="18.00436813864">
        <ele>84.6</ele>
        <time>2018-03-18T10:28:46Z</time>
      </trkpt>
      <trkpt lat="62.630885917883" lon="18.004346932433">
        <ele>84.8</ele>
        <time>2018-03-18T10:28:47Z</time>
      </trkpt>
      <trkpt lat="62.630867477703" lon="18.004304771476">
        <ele>84.8</ele>
        <time>2018-03-18T10:28:48Z</time>
      </trkpt>
      <trkpt lat="62.630845517125" lon="18.004274345179">
        <ele>84.8</ele>
        <time>2018-03-18T10:28:49Z</time>
      </trkpt>
      <trkpt lat="62.630833111913" lon="18.004222796494">
        <ele>85</ele>
        <time>2018-03-18T10:28:50Z</time>
      </trkpt>
      <trkpt lat="62.630821544891" lon="18.004176109311">
        <ele>85</ele>
        <time>2018-03-18T10:28:51Z</time>
      </trkpt>
      <trkpt lat="62.630811067516" lon="18.004144090453">
        <ele>85</ele>
        <time>2018-03-18T10:28:52Z</time>
      </trkpt>
      <trkpt lat="62.630799919589" lon="18.004099750202">
        <ele>85</ele>
        <time>2018-03-18T10:28:53Z</time>
      </trkpt>
      <trkpt lat="62.630787849653" lon="18.004053398295">
        <ele>85.4</ele>
        <time>2018-03-18T10:28:54Z</time>
      </trkpt>
      <trkpt lat="62.630781311771" lon="18.004017020849">
        <ele>85.6</ele>
        <time>2018-03-18T10:28:55Z</time>
      </trkpt>
      <trkpt lat="62.630772007862" lon="18.003979134661">
        <ele>85.8</ele>
        <time>2018-03-18T10:28:56Z</time>
      </trkpt>
      <trkpt lat="62.630766224351" lon="18.003942841034">
        <ele>85.8</ele>
        <time>2018-03-18T10:28:57Z</time>
      </trkpt>
      <trkpt lat="62.630759267374" lon="18.003901602086">
        <ele>86</ele>
        <time>2018-03-18T10:28:58Z</time>
      </trkpt>
      <trkpt lat="62.630748957637" lon="18.003863715898">
        <ele>86.2</ele>
        <time>2018-03-18T10:28:59Z</time>
      </trkpt>
      <trkpt lat="62.630741413927" lon="18.00381996238">
        <ele>86.2</ele>
        <time>2018-03-18T10:29:00Z</time>
      </trkpt>
      <trkpt lat="62.630742587393" lon="18.003764977116">
        <ele>86.2</ele>
        <time>2018-03-18T10:29:01Z</time>
      </trkpt>
      <trkpt lat="62.630747616533" lon="18.003716278277">
        <ele>86.4</ele>
        <time>2018-03-18T10:29:02Z</time>
      </trkpt>
      <trkpt lat="62.63074619161" lon="18.003669842551">
        <ele>86.6</ele>
        <time>2018-03-18T10:29:03Z</time>
      </trkpt>
      <trkpt lat="62.630750634017" lon="18.003620724617">
        <ele>86.6</ele>
        <time>2018-03-18T10:29:04Z</time>
      </trkpt>
      <trkpt lat="62.630749292913" lon="18.003588119026">
        <ele>86.6</ele>
        <time>2018-03-18T10:29:05Z</time>
      </trkpt>
      <trkpt lat="62.630752645673" lon="18.003541348024">
        <ele>86.8</ele>
        <time>2018-03-18T10:29:06Z</time>
      </trkpt>
      <trkpt lat="62.630750550198" lon="18.003491978633">
        <ele>86.8</ele>
        <time>2018-03-18T10:29:07Z</time>
      </trkpt>
      <trkpt lat="62.630753148587" lon="18.003440765224">
        <ele>87</ele>
        <time>2018-03-18T10:29:08Z</time>
      </trkpt>
      <trkpt lat="62.630757842451" lon="18.003389551815">
        <ele>87.2</ele>
        <time>2018-03-18T10:29:09Z</time>
      </trkpt>
      <trkpt lat="62.630759351193" lon="18.003345127745">
        <ele>87.4</ele>
        <time>2018-03-18T10:29:10Z</time>
      </trkpt>
      <trkpt lat="62.630765302342" lon="18.003293662879">
        <ele>87.4</ele>
        <time>2018-03-18T10:29:11Z</time>
      </trkpt>
      <trkpt lat="62.63076798455" lon="18.003234235208">
        <ele>87.8</ele>
        <time>2018-03-18T10:29:12Z</time>
      </trkpt>
      <trkpt lat="62.630774522432" lon="18.003182351247">
        <ele>87.8</ele>
        <time>2018-03-18T10:29:13Z</time>
      </trkpt>
      <trkpt lat="62.630777288459" lon="18.003110686002">
        <ele>88</ele>
        <time>2018-03-18T10:29:14Z</time>
      </trkpt>
      <trkpt lat="62.630776701726" lon="18.003061316611">
        <ele>88</ele>
        <time>2018-03-18T10:29:15Z</time>
      </trkpt>
      <trkpt lat="62.630778797201" lon="18.003013707419">
        <ele>88</ele>
        <time>2018-03-18T10:29:16Z</time>
      </trkpt>
      <trkpt lat="62.630776198812" lon="18.002965427675">
        <ele>88</ele>
        <time>2018-03-18T10:29:17Z</time>
      </trkpt>
      <trkpt lat="62.630780222124" lon="18.002908095479">
        <ele>88.2</ele>
        <time>2018-03-18T10:29:18Z</time>
      </trkpt>
      <trkpt lat="62.630778126649" lon="18.002850847102">
        <ele>88.2</ele>
        <time>2018-03-18T10:29:19Z</time>
      </trkpt>
      <trkpt lat="62.630773432785" lon="18.002807177403">
        <ele>88.2</ele>
        <time>2018-03-18T10:29:20Z</time>
      </trkpt>
      <trkpt lat="62.630768738921" lon="18.002748504103">
        <ele>88.4</ele>
        <time>2018-03-18T10:29:21Z</time>
      </trkpt>
      <trkpt lat="62.630762033401" lon="18.002708941535">
        <ele>88.6</ele>
        <time>2018-03-18T10:29:22Z</time>
      </trkpt>
      <trkpt lat="62.630760776116" lon="18.002650268235">
        <ele>88.6</ele>
        <time>2018-03-18T10:29:23Z</time>
      </trkpt>
      <trkpt lat="62.630751639845" lon="18.002607604364">
        <ele>89</ele>
        <time>2018-03-18T10:29:24Z</time>
      </trkpt>
      <trkpt lat="62.630748203266" lon="18.00255345729">
        <ele>89.2</ele>
        <time>2018-03-18T10:29:25Z</time>
      </trkpt>
      <trkpt lat="62.630738815538" lon="18.002508781763">
        <ele>89.4</ele>
        <time>2018-03-18T10:29:26Z</time>
      </trkpt>
      <trkpt lat="62.630740156642" lon="18.002453628861">
        <ele>89.2</ele>
        <time>2018-03-18T10:29:27Z</time>
      </trkpt>
      <trkpt lat="62.630738144986" lon="18.002407444592">
        <ele>89.4</ele>
        <time>2018-03-18T10:29:28Z</time>
      </trkpt>
      <trkpt lat="62.630736217149" lon="18.00235564445">
        <ele>89.4</ele>
        <time>2018-03-18T10:29:29Z</time>
      </trkpt>
      <trkpt lat="62.630726158869" lon="18.002312226208">
        <ele>89.6</ele>
        <time>2018-03-18T10:29:30Z</time>
      </trkpt>
      <trkpt lat="62.630724231032" lon="18.002260342247">
        <ele>89.6</ele>
        <time>2018-03-18T10:29:31Z</time>
      </trkpt>
      <trkpt lat="62.630722135557" lon="18.002222707516">
        <ele>89.6</ele>
        <time>2018-03-18T10:29:32Z</time>
      </trkpt>
      <trkpt lat="62.630711406725" lon="18.002180881835">
        <ele>89.6</ele>
        <time>2018-03-18T10:29:33Z</time>
      </trkpt>
      <trkpt lat="62.630711155268" lon="18.002129165512">
        <ele>89.6</ele>
        <time>2018-03-18T10:29:34Z</time>
      </trkpt>
      <trkpt lat="62.63070260573" lon="18.00209329098">
        <ele>90</ele>
        <time>2018-03-18T10:29:35Z</time>
      </trkpt>
      <trkpt lat="62.630692212174" lon="18.002037551345">
        <ele>90.2</ele>
        <time>2018-03-18T10:29:36Z</time>
      </trkpt>
      <trkpt lat="62.630687015396" lon="18.001985080651">
        <ele>90.2</ele>
        <time>2018-03-18T10:29:37Z</time>
      </trkpt>
      <trkpt lat="62.630682572989" lon="18.001931436491">
        <ele>90.6</ele>
        <time>2018-03-18T10:29:38Z</time>
      </trkpt>
      <trkpt lat="62.630679304048" lon="18.00187871434">
        <ele>90.6</ele>
        <time>2018-03-18T10:29:39Z</time>
      </trkpt>
      <trkpt lat="62.630672095614" lon="18.001831691881">
        <ele>90.4</ele>
        <time>2018-03-18T10:29:40Z</time>
      </trkpt>
      <trkpt lat="62.630675699831" lon="18.001769582002">
        <ele>90.4</ele>
        <time>2018-03-18T10:29:41Z</time>
      </trkpt>
      <trkpt lat="62.630671005967" lon="18.001713758548">
        <ele>90.4</ele>
        <time>2018-03-18T10:29:42Z</time>
      </trkpt>
      <trkpt lat="62.630668407578" lon="18.001655001429">
        <ele>90.2</ele>
        <time>2018-03-18T10:29:43Z</time>
      </trkpt>
      <trkpt lat="62.630661953515" lon="18.001596411948">
        <ele>90.4</ele>
        <time>2018-03-18T10:29:44Z</time>
      </trkpt>
      <trkpt lat="62.630654912719" lon="18.001554418629">
        <ele>90.6</ele>
        <time>2018-03-18T10:29:45Z</time>
      </trkpt>
      <trkpt lat="62.630652481968" lon="18.001491889655">
        <ele>90.8</ele>
        <time>2018-03-18T10:29:46Z</time>
      </trkpt>
      <trkpt lat="62.630649967398" lon="18.001435814744">
        <ele>90.8</ele>
        <time>2018-03-18T10:29:47Z</time>
      </trkpt>
      <trkpt lat="62.63064728519" lon="18.001378901643">
        <ele>90.8</ele>
        <time>2018-03-18T10:29:48Z</time>
      </trkpt>
      <trkpt lat="62.630640831127" lon="18.001323162008">
        <ele>90.6</ele>
        <time>2018-03-18T10:29:49Z</time>
      </trkpt>
      <trkpt lat="62.630634125607" lon="18.001276307187">
        <ele>90.6</ele>
        <time>2018-03-18T10:29:50Z</time>
      </trkpt>
      <trkpt lat="62.630632616865" lon="18.001219477905">
        <ele>90.6</ele>
        <time>2018-03-18T10:29:51Z</time>
      </trkpt>
      <trkpt lat="62.630622726223" lon="18.001178490414">
        <ele>90.6</ele>
        <time>2018-03-18T10:29:52Z</time>
      </trkpt>
      <trkpt lat="62.630619205825" lon="18.001122164046">
        <ele>90.6</ele>
        <time>2018-03-18T10:29:53Z</time>
      </trkpt>
      <trkpt lat="62.630601603835" lon="18.001062904013">
        <ele>90.8</ele>
        <time>2018-03-18T10:29:54Z</time>
      </trkpt>
      <trkpt lat="62.630600598007" lon="18.001007667292">
        <ele>90.8</ele>
        <time>2018-03-18T10:29:55Z</time>
      </trkpt>
      <trkpt lat="62.630593724849" lon="18.000944803042">
        <ele>91</ele>
        <time>2018-03-18T10:29:56Z</time>
      </trkpt>
      <trkpt lat="62.630586348777" lon="18.000899792239">
        <ele>91</ele>
        <time>2018-03-18T10:29:57Z</time>
      </trkpt>
      <trkpt lat="62.630575033212" lon="18.000846567174">
        <ele>91.2</ele>
        <time>2018-03-18T10:29:58Z</time>
      </trkpt>
      <trkpt lat="62.6305710099" lon="18.000810357366">
        <ele>91.4</ele>
        <time>2018-03-18T10:29:59Z</time>
      </trkpt>
      <trkpt lat="62.630563130914" lon="18.000754030998">
        <ele>91.4</ele>
        <time>2018-03-18T10:30:00Z</time>
      </trkpt>
      <trkpt lat="62.630549133141" lon="18.000709020195">
        <ele>91.6</ele>
        <time>2018-03-18T10:30:01Z</time>
      </trkpt>
      <trkpt lat="62.63053999687" lon="18.000654034931">
        <ele>91.8</ele>
        <time>2018-03-18T10:30:02Z</time>
      </trkpt>
      <trkpt lat="62.630537901395" lon="18.000612376888">
        <ele>91.8</ele>
        <time>2018-03-18T10:30:03Z</time>
      </trkpt>
      <trkpt lat="62.630527172563" lon="18.000560576746">
        <ele>91.8</ele>
        <time>2018-03-18T10:30:04Z</time>
      </trkpt>
      <trkpt lat="62.630520802319" lon="18.000519086341">
        <ele>91.8</ele>
        <time>2018-03-18T10:30:05Z</time>
      </trkpt>
      <trkpt lat="62.630500685759" lon="18.000464268715">
        <ele>91.8</ele>
        <time>2018-03-18T10:30:06Z</time>
      </trkpt>
      <trkpt lat="62.630490962755" lon="18.000417078618">
        <ele>91.8</ele>
        <time>2018-03-18T10:30:07Z</time>
      </trkpt>
      <trkpt lat="62.630482580855" lon="18.000363769734">
        <ele>91.6</ele>
        <time>2018-03-18T10:30:08Z</time>
      </trkpt>
      <trkpt lat="62.630472774032" lon="18.000319010388">
        <ele>91.6</ele>
        <time>2018-03-18T10:30:09Z</time>
      </trkpt>
      <trkpt lat="62.630466655245" lon="18.000266958789">
        <ele>91.6</ele>
        <time>2018-03-18T10:30:10Z</time>
      </trkpt>
      <trkpt lat="62.630457602793" lon="18.000229240239">
        <ele>91.6</ele>
        <time>2018-03-18T10:30:11Z</time>
      </trkpt>
      <trkpt lat="62.630448382703" lon="18.000171991862">
        <ele>91.4</ele>
        <time>2018-03-18T10:30:12Z</time>
      </trkpt>
      <trkpt lat="62.630433127645" lon="18.000133351303">
        <ele>91.6</ele>
        <time>2018-03-18T10:30:13Z</time>
      </trkpt>
      <trkpt lat="62.630426170668" lon="18.000070403234">
        <ele>91.8</ele>
        <time>2018-03-18T10:30:14Z</time>
      </trkpt>
      <trkpt lat="62.630411669981" lon="18.000025560069">
        <ele>92</ele>
        <time>2018-03-18T10:30:15Z</time>
      </trkpt>
      <trkpt lat="62.630401192606" lon="17.999971664452">
        <ele>92</ele>
        <time>2018-03-18T10:30:16Z</time>
      </trkpt>
      <trkpt lat="62.630387278652" lon="17.999926486011">
        <ele>92.2</ele>
        <time>2018-03-18T10:30:17Z</time>
      </trkpt>
      <trkpt lat="62.630377136553" lon="17.999881056113">
        <ele>92.6</ele>
        <time>2018-03-18T10:30:18Z</time>
      </trkpt>
      <trkpt lat="62.630362971142" lon="17.999828836876">
        <ele>92.8</ele>
        <time>2018-03-18T10:30:19Z</time>
      </trkpt>
      <trkpt lat="62.630352409948" lon="17.999794806362">
        <ele>92.8</ele>
        <time>2018-03-18T10:30:20Z</time>
      </trkpt>
      <trkpt lat="62.630340256193" lon="17.999745688428">
        <ele>93</ele>
        <time>2018-03-18T10:30:21Z</time>
      </trkpt>
      <trkpt lat="62.630328270076" lon="17.999711406457">
        <ele>93</ele>
        <time>2018-03-18T10:30:22Z</time>
      </trkpt>
      <trkpt lat="62.630313434113" lon="17.999662875256">
        <ele>93.2</ele>
        <time>2018-03-18T10:30:23Z</time>
      </trkpt>
      <trkpt lat="62.630299687797" lon="17.999617361539">
        <ele>93.4</ele>
        <time>2018-03-18T10:30:24Z</time>
      </trkpt>
      <trkpt lat="62.630288120775" lon="17.999564052655">
        <ele>93.6</ele>
        <time>2018-03-18T10:30:25Z</time>
      </trkpt>
      <trkpt lat="62.630271021699" lon="17.999522310793">
        <ele>93.8</ele>
        <time>2018-03-18T10:30:26Z</time>
      </trkpt>
      <trkpt lat="62.630264567636" lon="17.999458273077">
        <ele>93.8</ele>
        <time>2018-03-18T10:30:27Z</time>
      </trkpt>
      <trkpt lat="62.630244618714" lon="17.999412843179">
        <ele>94</ele>
        <time>2018-03-18T10:30:28Z</time>
      </trkpt>
      <trkpt lat="62.630237997013" lon="17.999356097716">
        <ele>93.8</ele>
        <time>2018-03-18T10:30:29Z</time>
      </trkpt>
      <trkpt lat="62.630218467186" lon="17.999309745809">
        <ele>93.8</ele>
        <time>2018-03-18T10:30:30Z</time>
      </trkpt>
      <trkpt lat="62.630214360055" lon="17.999253000346">
        <ele>93.8</ele>
        <time>2018-03-18T10:30:31Z</time>
      </trkpt>
      <trkpt lat="62.630200613739" lon="17.99919902091">
        <ele>93.8</ele>
        <time>2018-03-18T10:30:32Z</time>
      </trkpt>
      <trkpt lat="62.630196171332" lon="17.999143113637">
        <ele>93.8</ele>
        <time>2018-03-18T10:30:33Z</time>
      </trkpt>
      <trkpt lat="62.630189298174" lon="17.999082428681">
        <ele>94</ele>
        <time>2018-03-18T10:30:34Z</time>
      </trkpt>
      <trkpt lat="62.630183933758" lon="17.999048481986">
        <ele>94</ele>
        <time>2018-03-18T10:30:35Z</time>
      </trkpt>
      <trkpt lat="62.630179658989" lon="17.99898444427">
        <ele>94</ele>
        <time>2018-03-18T10:30:36Z</time>
      </trkpt>
      <trkpt lat="62.630168343424" lon="17.99894253477">
        <ele>94.2</ele>
        <time>2018-03-18T10:30:37Z</time>
      </trkpt>
      <trkpt lat="62.630166331768" lon="17.998872294448">
        <ele>94.4</ele>
        <time>2018-03-18T10:30:38Z</time>
      </trkpt>
      <trkpt lat="62.630164739207" lon="17.998806580352">
        <ele>94.4</ele>
        <time>2018-03-18T10:30:39Z</time>
      </trkpt>
      <trkpt lat="62.630162224637" lon="17.998747068862">
        <ele>94.6</ele>
        <time>2018-03-18T10:30:40Z</time>
      </trkpt>
      <trkpt lat="62.630160632076" lon="17.998680768033">
        <ele>94.6</ele>
        <time>2018-03-18T10:30:41Z</time>
      </trkpt>
      <trkpt lat="62.630150825253" lon="17.998626369502">
        <ele>94.6</ele>
        <time>2018-03-18T10:30:42Z</time>
      </trkpt>
      <trkpt lat="62.630152250176" lon="17.998560152492">
        <ele>94.6</ele>
        <time>2018-03-18T10:30:43Z</time>
      </trkpt>
      <trkpt lat="62.63014101843" lon="17.998494522215">
        <ele>94.4</ele>
        <time>2018-03-18T10:30:44Z</time>
      </trkpt>
      <trkpt lat="62.630143700638" lon="17.998437441476">
        <ele>94.4</ele>
        <time>2018-03-18T10:30:45Z</time>
      </trkpt>
      <trkpt lat="62.630145712294" lon="17.99836669824">
        <ele>94.4</ele>
        <time>2018-03-18T10:30:46Z</time>
      </trkpt>
      <trkpt lat="62.630144119733" lon="17.998305007456">
        <ele>94.6</ele>
        <time>2018-03-18T10:30:47Z</time>
      </trkpt>
      <trkpt lat="62.630149903244" lon="17.998225463225">
        <ele>94.8</ele>
        <time>2018-03-18T10:30:48Z</time>
      </trkpt>
      <trkpt lat="62.630146969579" lon="17.998163688622">
        <ele>94.8</ele>
        <time>2018-03-18T10:30:49Z</time>
      </trkpt>
      <trkpt lat="62.630158788058" lon="17.998099818544">
        <ele>95</ele>
        <time>2018-03-18T10:30:50Z</time>
      </trkpt>
      <trkpt lat="62.630164739207" lon="17.998023627073">
        <ele>95</ele>
        <time>2018-03-18T10:30:51Z</time>
      </trkpt>
      <trkpt lat="62.630169349252" lon="17.997971324017">
        <ele>94.6</ele>
        <time>2018-03-18T10:30:52Z</time>
      </trkpt>
      <trkpt lat="62.630176641505" lon="17.997910806699">
        <ele>94.8</ele>
        <time>2018-03-18T10:30:53Z</time>
      </trkpt>
      <trkpt lat="62.630184688129" lon="17.997856994901">
        <ele>94.8</ele>
        <time>2018-03-18T10:30:54Z</time>
      </trkpt>
      <trkpt lat="62.630194830228" lon="17.997806284406">
        <ele>94.8</ele>
        <time>2018-03-18T10:30:55Z</time>
      </trkpt>
      <trkpt lat="62.630209414734" lon="17.99774895221">
        <ele>94.8</ele>
        <time>2018-03-18T10:30:56Z</time>
      </trkpt>
      <trkpt lat="62.630215701159" lon="17.997685668865">
        <ele>95</ele>
        <time>2018-03-18T10:30:57Z</time>
      </trkpt>
      <trkpt lat="62.630224166878" lon="17.997628169031">
        <ele>95.2</ele>
        <time>2018-03-18T10:30:58Z</time>
      </trkpt>
      <trkpt lat="62.630233554606" lon="17.997566813523">
        <ele>95.2</ele>
        <time>2018-03-18T10:30:59Z</time>
      </trkpt>
      <trkpt lat="62.63023992485" lon="17.997510822431">
        <ele>95.2</ele>
        <time>2018-03-18T10:31:00Z</time>
      </trkpt>
      <trkpt lat="62.630253503528" lon="17.997443599593">
        <ele>95.2</ele>
        <time>2018-03-18T10:31:01Z</time>
      </trkpt>
      <trkpt lat="62.630262975075" lon="17.99738769232">
        <ele>95.2</ele>
        <time>2018-03-18T10:31:02Z</time>
      </trkpt>
      <trkpt lat="62.630275464106" lon="17.997338825843">
        <ele>95</ele>
        <time>2018-03-18T10:31:03Z</time>
      </trkpt>
      <trkpt lat="62.630296418856" lon="17.997275291041">
        <ele>95.2</ele>
        <time>2018-03-18T10:31:04Z</time>
      </trkpt>
      <trkpt lat="62.630303878747" lon="17.997226927478">
        <ele>95.2</ele>
        <time>2018-03-18T10:31:05Z</time>
      </trkpt>
      <trkpt lat="62.630322570384" lon="17.9971714393">
        <ele>95.4</ele>
        <time>2018-03-18T10:31:06Z</time>
      </trkpt>
      <trkpt lat="62.6303446986" lon="17.997118214235">
        <ele>95.2</ele>
        <time>2018-03-18T10:31:07Z</time>
      </trkpt>
      <trkpt lat="62.630358528735" lon="17.997031545389">
        <ele>95.4</ele>
        <time>2018-03-18T10:31:08Z</time>
      </trkpt>
      <trkpt lat="62.630372861784" lon="17.996984020016">
        <ele>95.4</ele>
        <time>2018-03-18T10:31:09Z</time>
      </trkpt>
      <trkpt lat="62.630386189005" lon="17.996945463276">
        <ele>95.4</ele>
        <time>2018-03-18T10:31:10Z</time>
      </trkpt>
      <trkpt lat="62.630402868986" lon="17.996918641196">
        <ele>95.4</ele>
        <time>2018-03-18T10:31:11Z</time>
      </trkpt>
      <trkpt lat="62.630418794596" lon="17.996877737524">
        <ele>95.4</ele>
        <time>2018-03-18T10:31:12Z</time>
      </trkpt>
      <trkpt lat="62.630441174269" lon="17.99682526683">
        <ele>95.6</ele>
        <time>2018-03-18T10:31:13Z</time>
      </trkpt>
      <trkpt lat="62.630459111535" lon="17.99677581362">
        <ele>95.6</ele>
        <time>2018-03-18T10:31:14Z</time>
      </trkpt>
      <trkpt lat="62.630477803172" lon="17.996729880808">
        <ele>95.6</ele>
        <time>2018-03-18T10:31:15Z</time>
      </trkpt>
      <trkpt lat="62.630490459841" lon="17.996662993246">
        <ele>95.8</ele>
        <time>2018-03-18T10:31:16Z</time>
      </trkpt>
      <trkpt lat="62.630500266664" lon="17.996616976615">
        <ele>96</ele>
        <time>2018-03-18T10:31:17Z</time>
      </trkpt>
      <trkpt lat="62.630518958301" lon="17.996548915587">
        <ele>96.2</ele>
        <time>2018-03-18T10:31:18Z</time>
      </trkpt>
      <trkpt lat="62.630527591658" lon="17.996489487916">
        <ele>96.2</ele>
        <time>2018-03-18T10:31:19Z</time>
      </trkpt>
      <trkpt lat="62.630536308834" lon="17.996439364154">
        <ele>96.2</ele>
        <time>2018-03-18T10:31:20Z</time>
      </trkpt>
      <trkpt lat="62.630550809521" lon="17.996387899288">
        <ele>96.2</ele>
        <time>2018-03-18T10:31:21Z</time>
      </trkpt>
      <trkpt lat="62.630562041267" lon="17.996343223761">
        <ele>95.8</ele>
        <time>2018-03-18T10:31:22Z</time>
      </trkpt>
      <trkpt lat="62.630565729303" lon="17.996290753067">
        <ele>95.8</ele>
        <time>2018-03-18T10:31:23Z</time>
      </trkpt>
      <trkpt lat="62.630583834207" lon="17.996232750319">
        <ele>95.8</ele>
        <time>2018-03-18T10:31:24Z</time>
      </trkpt>
      <trkpt lat="62.630595987962" lon="17.996180111987">
        <ele>95.6</ele>
        <time>2018-03-18T10:31:25Z</time>
      </trkpt>
      <trkpt lat="62.63060872845" lon="17.996116744823">
        <ele>95.6</ele>
        <time>2018-03-18T10:31:26Z</time>
      </trkpt>
      <trkpt lat="62.63063471234" lon="17.996064357948">
        <ele>95.6</ele>
        <time>2018-03-18T10:31:27Z</time>
      </trkpt>
      <trkpt lat="62.63066153442" lon="17.996018257498">
        <ele>95.2</ele>
        <time>2018-03-18T10:31:28Z</time>
      </trkpt>
      <trkpt lat="62.630689027052" lon="17.995995626368">
        <ele>95.2</ele>
        <time>2018-03-18T10:31:29Z</time>
      </trkpt>
      <trkpt lat="62.630723979575" lon="17.995966205899">
        <ele>95.2</ele>
        <time>2018-03-18T10:31:30Z</time>
      </trkpt>
      <trkpt lat="62.630754154415" lon="17.995923122933">
        <ele>95.4</ele>
        <time>2018-03-18T10:31:31Z</time>
      </trkpt>
      <trkpt lat="62.630781982323" lon="17.995902922554">
        <ele>95.6</ele>
        <time>2018-03-18T10:31:32Z</time>
      </trkpt>
      <trkpt lat="62.63081659957" lon="17.995870149325">
        <ele>95.8</ele>
        <time>2018-03-18T10:31:33Z</time>
      </trkpt>
      <trkpt lat="62.630838560148" lon="17.995838549562">
        <ele>95.8</ele>
        <time>2018-03-18T10:31:34Z</time>
      </trkpt>
      <trkpt lat="62.630859933993" lon="17.995812398034">
        <ele>95.8</ele>
        <time>2018-03-18T10:31:35Z</time>
      </trkpt>
      <trkpt lat="62.630889019186" lon="17.995780295357">
        <ele>96</ele>
        <time>2018-03-18T10:31:36Z</time>
      </trkpt>
      <trkpt lat="62.630905950624" lon="17.995753640915">
        <ele>96</ele>
        <time>2018-03-18T10:31:37Z</time>
      </trkpt>
      <trkpt lat="62.630931180143" lon="17.995724304265">
        <ele>96</ele>
        <time>2018-03-18T10:31:38Z</time>
      </trkpt>
      <trkpt lat="62.630958924232" lon="17.995695302891">
        <ele>96</ele>
        <time>2018-03-18T10:31:39Z</time>
      </trkpt>
      <trkpt lat="62.630978286421" lon="17.995660853282">
        <ele>96.2</ele>
        <time>2018-03-18T10:31:40Z</time>
      </trkpt>
      <trkpt lat="62.631007958347" lon="17.995633612107">
        <ele>96.4</ele>
        <time>2018-03-18T10:31:41Z</time>
      </trkpt>
      <trkpt lat="62.631031679124" lon="17.995587930752">
        <ele>96.4</ele>
        <time>2018-03-18T10:31:42Z</time>
      </trkpt>
      <trkpt lat="62.631058082109" lon="17.995560186663">
        <ele>96.6</ele>
        <time>2018-03-18T10:31:43Z</time>
      </trkpt>
      <trkpt lat="62.631089598053" lon="17.99552942509">
        <ele>96.6</ele>
        <time>2018-03-18T10:31:44Z</time>
      </trkpt>
      <trkpt lat="62.631118599427" lon="17.995498998793">
        <ele>96.6</ele>
        <time>2018-03-18T10:31:45Z</time>
      </trkpt>
      <trkpt lat="62.631143577489" lon="17.995471841437">
        <ele>96.4</ele>
        <time>2018-03-18T10:31:46Z</time>
      </trkpt>
      <trkpt lat="62.631173836148" lon="17.995437559466">
        <ele>96.4</ele>
        <time>2018-03-18T10:31:47Z</time>
      </trkpt>
      <trkpt lat="62.63119462326" lon="17.995389866455">
        <ele>96.4</ele>
        <time>2018-03-18T10:31:48Z</time>
      </trkpt>
      <trkpt lat="62.631206693196" lon="17.995361954728">
        <ele>96.4</ele>
        <time>2018-03-18T10:31:49Z</time>
      </trkpt>
      <trkpt lat="62.631229324326" lon="17.995324487635">
        <ele>96.4</ele>
        <time>2018-03-18T10:31:50Z</time>
      </trkpt>
      <trkpt lat="62.631242735366" lon="17.995273106588">
        <ele>96.4</ele>
        <time>2018-03-18T10:31:51Z</time>
      </trkpt>
      <trkpt lat="62.631253631836" lon="17.995222563731">
        <ele>96.6</ele>
        <time>2018-03-18T10:31:52Z</time>
      </trkpt>
      <trkpt lat="62.63127341312" lon="17.995182079154">
        <ele>96.6</ele>
        <time>2018-03-18T10:31:53Z</time>
      </trkpt>
      <trkpt lat="62.631293613499" lon="17.995117789981">
        <ele>96.6</ele>
        <time>2018-03-18T10:31:54Z</time>
      </trkpt>
      <trkpt lat="62.631308533281" lon="17.995069845513">
        <ele>96.6</ele>
        <time>2018-03-18T10:31:55Z</time>
      </trkpt>
      <trkpt lat="62.631326973461" lon="17.995026846366">
        <ele>96.6</ele>
        <time>2018-03-18T10:31:56Z</time>
      </trkpt>
      <trkpt lat="62.631337702293" lon="17.994968759799">
        <ele>96.4</ele>
        <time>2018-03-18T10:31:57Z</time>
      </trkpt>
      <trkpt lat="62.631346168012" lon="17.994923497539">
        <ele>96.4</ele>
        <time>2018-03-18T10:31:58Z</time>
      </trkpt>
      <trkpt lat="62.631360249604" lon="17.99487396051">
        <ele>96.4</ele>
        <time>2018-03-18T10:31:59Z</time>
      </trkpt>
      <trkpt lat="62.63137231954" lon="17.994802965817">
        <ele>96.6</ele>
        <time>2018-03-18T10:32:00Z</time>
      </trkpt>
      <trkpt lat="62.631382126363" lon="17.994739263377">
        <ele>96.6</ele>
        <time>2018-03-18T10:32:01Z</time>
      </trkpt>
      <trkpt lat="62.631397381421" lon="17.994658713318">
        <ele>96.6</ele>
        <time>2018-03-18T10:32:02Z</time>
      </trkpt>
      <trkpt lat="62.631405595683" lon="17.994587215711">
        <ele>96.8</ele>
        <time>2018-03-18T10:32:03Z</time>
      </trkpt>
      <trkpt lat="62.631402410561" lon="17.994536589035">
        <ele>96.8</ele>
        <time>2018-03-18T10:32:04Z</time>
      </trkpt>
      <trkpt lat="62.631412636479" lon="17.994482190504">
        <ele>96.8</ele>
        <time>2018-03-18T10:32:05Z</time>
      </trkpt>
      <trkpt lat="62.631414731954" lon="17.994395437839">
        <ele>96.8</ele>
        <time>2018-03-18T10:32:06Z</time>
      </trkpt>
      <trkpt lat="62.631411882108" lon="17.994324778422">
        <ele>96.6</ele>
        <time>2018-03-18T10:32:07Z</time>
      </trkpt>
      <trkpt lat="62.631406433873" lon="17.994253029358">
        <ele>96.4</ele>
        <time>2018-03-18T10:32:08Z</time>
      </trkpt>
      <trkpt lat="62.631395872679" lon="17.994193517868">
        <ele>96.4</ele>
        <time>2018-03-18T10:32:09Z</time>
      </trkpt>
      <trkpt lat="62.631392352281" lon="17.994140879536">
        <ele>96</ele>
        <time>2018-03-18T10:32:10Z</time>
      </trkpt>
      <trkpt lat="62.631384976209" lon="17.994076338906">
        <ele>95.8</ele>
        <time>2018-03-18T10:32:11Z</time>
      </trkpt>
      <trkpt lat="62.631382461639" lon="17.994011379181">
        <ele>95.8</ele>
        <time>2018-03-18T10:32:12Z</time>
      </trkpt>
      <trkpt lat="62.631372570997" lon="17.993965111093">
        <ele>95.4</ele>
        <time>2018-03-18T10:32:13Z</time>
      </trkpt>
      <trkpt lat="62.631357064482" lon="17.993907778897">
        <ele>95.2</ele>
        <time>2018-03-18T10:32:14Z</time>
      </trkpt>
      <trkpt lat="62.631347257659" lon="17.993843992638">
        <ele>95.4</ele>
        <time>2018-03-18T10:32:15Z</time>
      </trkpt>
      <trkpt lat="62.631347257659" lon="17.993779368189">
        <ele>95.2</ele>
        <time>2018-03-18T10:32:16Z</time>
      </trkpt>
      <trkpt lat="62.631346587107" lon="17.993705607469">
        <ele>95.2</ele>
        <time>2018-03-18T10:32:17Z</time>
      </trkpt>
      <trkpt lat="62.631344826908" lon="17.993630002731">
        <ele>95.2</ele>
        <time>2018-03-18T10:32:18Z</time>
      </trkpt>
      <trkpt lat="62.631352035342" lon="17.993555655278">
        <ele>95.4</ele>
        <time>2018-03-18T10:32:19Z</time>
      </trkpt>
      <trkpt lat="62.631356142473" lon="17.993480553454">
        <ele>95.2</ele>
        <time>2018-03-18T10:32:20Z</time>
      </trkpt>
      <trkpt lat="62.631361758346" lon="17.993403272336">
        <ele>95.2</ele>
        <time>2018-03-18T10:32:21Z</time>
      </trkpt>
      <trkpt lat="62.631378103051" lon="17.993311155255">
        <ele>95.4</ele>
        <time>2018-03-18T10:32:22Z</time>
      </trkpt>
      <trkpt lat="62.631388915702" lon="17.993235131422">
        <ele>95.4</ele>
        <time>2018-03-18T10:32:23Z</time>
      </trkpt>
      <trkpt lat="62.631399476896" lon="17.993155168096">
        <ele>95.2</ele>
        <time>2018-03-18T10:32:24Z</time>
      </trkpt>
      <trkpt lat="62.631416911248" lon="17.99306347011">
        <ele>95.2</ele>
        <time>2018-03-18T10:32:25Z</time>
      </trkpt>
      <trkpt lat="62.631429903193" lon="17.992969928106">
        <ele>95</ele>
        <time>2018-03-18T10:32:26Z</time>
      </trkpt>
      <trkpt lat="62.631443649509" lon="17.992896335024">
        <ele>94.8</ele>
        <time>2018-03-18T10:32:27Z</time>
      </trkpt>
      <trkpt lat="62.631456641454" lon="17.992821400838">
        <ele>94.6</ele>
        <time>2018-03-18T10:32:28Z</time>
      </trkpt>
      <trkpt lat="62.631465945363" lon="17.992768343411">
        <ele>94.4</ele>
        <time>2018-03-18T10:32:29Z</time>
      </trkpt>
      <trkpt lat="62.631480362231" lon="17.992712939052">
        <ele>94.4</ele>
        <time>2018-03-18T10:32:30Z</time>
      </trkpt>
      <trkpt lat="62.631491845434" lon="17.992659797806">
        <ele>94.2</ele>
        <time>2018-03-18T10:32:31Z</time>
      </trkpt>
      <trkpt lat="62.63150475356" lon="17.992584695982">
        <ele>94</ele>
        <time>2018-03-18T10:32:32Z</time>
      </trkpt>
      <trkpt lat="62.631523780473" lon="17.992514958574">
        <ele>94.2</ele>
        <time>2018-03-18T10:32:33Z</time>
      </trkpt>
      <trkpt lat="62.631546746879" lon="17.992458967482">
        <ele>94.2</ele>
        <time>2018-03-18T10:32:34Z</time>
      </trkpt>
      <trkpt lat="62.631569545647" lon="17.992417141801">
        <ele>94.2</ele>
        <time>2018-03-18T10:32:35Z</time>
      </trkpt>
      <trkpt lat="62.631600642496" lon="17.99237280155">
        <ele>94</ele>
        <time>2018-03-18T10:32:36Z</time>
      </trkpt>
      <trkpt lat="62.631630398241" lon="17.992354780465">
        <ele>94</ele>
        <time>2018-03-18T10:32:37Z</time>
      </trkpt>
      <trkpt lat="62.631660908357" lon="17.992341034149">
        <ele>93.8</ele>
        <time>2018-03-18T10:32:38Z</time>
      </trkpt>
      <trkpt lat="62.631692424301" lon="17.992331981697">
        <ele>94.2</ele>
        <time>2018-03-18T10:32:39Z</time>
      </trkpt>
      <trkpt lat="62.63172016839" lon="17.992307255092">
        <ele>94.4</ele>
        <time>2018-03-18T10:32:40Z</time>
      </trkpt>
      <trkpt lat="62.631753276895" lon="17.992290575111">
        <ele>94.8</ele>
        <time>2018-03-18T10:32:41Z</time>
      </trkpt>
      <trkpt lat="62.631784373744" lon="17.992286384161">
        <ele>95</ele>
        <time>2018-03-18T10:32:42Z</time>
      </trkpt>
      <trkpt lat="62.631813458937" lon="17.992284456324">
        <ele>95.4</ele>
        <time>2018-03-18T10:32:43Z</time>
      </trkpt>
      <trkpt lat="62.631839023732" lon="17.99228562979">
        <ele>95.6</ele>
        <time>2018-03-18T10:32:44Z</time>
      </trkpt>
      <trkpt lat="62.631864839984" lon="17.992279594822">
        <ele>95.4</ele>
        <time>2018-03-18T10:32:45Z</time>
      </trkpt>
      <trkpt lat="62.631888560761" lon="17.992271632017">
        <ele>95.6</ele>
        <time>2018-03-18T10:32:46Z</time>
      </trkpt>
      <trkpt lat="62.63190876114" lon="17.992252353647">
        <ele>95.6</ele>
        <time>2018-03-18T10:32:47Z</time>
      </trkpt>
      <trkpt lat="62.631932398098" lon="17.99223701477">
        <ele>95.8</ele>
        <time>2018-03-18T10:32:48Z</time>
      </trkpt>
      <trkpt lat="62.631957292341" lon="17.992217233486">
        <ele>96</ele>
        <time>2018-03-18T10:32:49Z</time>
      </trkpt>
      <trkpt lat="62.631975983978" lon="17.992202146066">
        <ele>96</ele>
        <time>2018-03-18T10:32:50Z</time>
      </trkpt>
      <trkpt lat="62.6320043148" lon="17.992191584872">
        <ele>96.2</ele>
        <time>2018-03-18T10:32:51Z</time>
      </trkpt>
      <trkpt lat="62.632031807432" lon="17.992169205199">
        <ele>96.4</ele>
        <time>2018-03-18T10:32:52Z</time>
      </trkpt>
      <trkpt lat="62.632057204589" lon="17.992167361181">
        <ele>96.6</ele>
        <time>2018-03-18T10:32:53Z</time>
      </trkpt>
      <trkpt lat="62.632084613402" lon="17.992148501906">
        <ele>96.6</ele>
        <time>2018-03-18T10:32:54Z</time>
      </trkpt>
      <trkpt lat="62.632107160713" lon="17.992137521617">
        <ele>96.8</ele>
        <time>2018-03-18T10:32:55Z</time>
      </trkpt>
      <trkpt lat="62.632134988621" lon="17.992115141944">
        <ele>97</ele>
        <time>2018-03-18T10:32:56Z</time>
      </trkpt>
      <trkpt lat="62.632160050502" lon="17.992099719248">
        <ele>97</ele>
        <time>2018-03-18T10:32:57Z</time>
      </trkpt>
      <trkpt lat="62.632187710772" lon="17.992089241873">
        <ele>97</ele>
        <time>2018-03-18T10:32:58Z</time>
      </trkpt>
      <trkpt lat="62.632209587531" lon="17.992058899395">
        <ele>97</ele>
        <time>2018-03-18T10:32:59Z</time>
      </trkpt>
      <trkpt lat="62.632243115131" lon="17.992052864427">
        <ele>97</ele>
        <time>2018-03-18T10:33:00Z</time>
      </trkpt>
      <trkpt lat="62.632275301627" lon="17.992018750094">
        <ele>97</ele>
        <time>2018-03-18T10:33:01Z</time>
      </trkpt>
      <trkpt lat="62.632302123707" lon="17.992012296031">
        <ele>97.2</ele>
        <time>2018-03-18T10:33:02Z</time>
      </trkpt>
      <trkpt lat="62.632332382366" lon="17.991967285228">
        <ele>97</ele>
        <time>2018-03-18T10:33:03Z</time>
      </trkpt>
      <trkpt lat="62.632354259125" lon="17.991957394586">
        <ele>97.2</ele>
        <time>2018-03-18T10:33:04Z</time>
      </trkpt>
      <trkpt lat="62.632389798381" lon="17.991936607474">
        <ele>97</ele>
        <time>2018-03-18T10:33:05Z</time>
      </trkpt>
      <trkpt lat="62.632421062868" lon="17.991918167294">
        <ele>97</ele>
        <time>2018-03-18T10:33:06Z</time>
      </trkpt>
      <trkpt lat="62.632455177201" lon="17.991921268597">
        <ele>96.8</ele>
        <time>2018-03-18T10:33:07Z</time>
      </trkpt>
      <trkpt lat="62.632489710629" lon="17.991896541992">
        <ele>96.6</ele>
        <time>2018-03-18T10:33:08Z</time>
      </trkpt>
      <trkpt lat="62.632524914609" lon="17.991886399893">
        <ele>96.6</ele>
        <time>2018-03-18T10:33:09Z</time>
      </trkpt>
      <trkpt lat="62.63255416744" lon="17.991891429033">
        <ele>96.4</ele>
        <time>2018-03-18T10:33:10Z</time>
      </trkpt>
      <trkpt lat="62.632576882389" lon="17.991862427659">
        <ele>96</ele>
        <time>2018-03-18T10:33:11Z</time>
      </trkpt>
      <trkpt lat="62.632589622877" lon="17.991819009417">
        <ele>96</ele>
        <time>2018-03-18T10:33:12Z</time>
      </trkpt>
      <trkpt lat="62.632588784687" lon="17.991752960045">
        <ele>96.2</ele>
        <time>2018-03-18T10:33:13Z</time>
      </trkpt>
      <trkpt lat="62.632599597338" lon="17.991707697785">
        <ele>96.2</ele>
        <time>2018-03-18T10:33:14Z</time>
      </trkpt>
      <trkpt lat="62.632617366966" lon="17.991647431924">
        <ele>96.2</ele>
        <time>2018-03-18T10:33:15Z</time>
      </trkpt>
      <trkpt lat="62.632624994495" lon="17.99158238838">
        <ele>96.2</ele>
        <time>2018-03-18T10:33:16Z</time>
      </trkpt>
      <trkpt lat="62.632651984213" lon="17.991558248508">
        <ele>96.4</ele>
        <time>2018-03-18T10:33:17Z</time>
      </trkpt>
      <trkpt lat="62.632674782981" lon="17.991508040927">
        <ele>96.4</ele>
        <time>2018-03-18T10:33:18Z</time>
      </trkpt>
      <trkpt lat="62.632690121858" lon="17.991467975445">
        <ele>96.4</ele>
        <time>2018-03-18T10:33:19Z</time>
      </trkpt>
      <trkpt lat="62.632711411884" lon="17.991416007665">
        <ele>96.2</ele>
        <time>2018-03-18T10:33:20Z</time>
      </trkpt>
      <trkpt lat="62.632720548155" lon="17.991372170328">
        <ele>96</ele>
        <time>2018-03-18T10:33:21Z</time>
      </trkpt>
      <trkpt lat="62.632747202597" lon="17.991322046566">
        <ele>95.8</ele>
        <time>2018-03-18T10:33:22Z</time>
      </trkpt>
      <trkpt lat="62.632759440171" lon="17.991287932233">
        <ele>95.8</ele>
        <time>2018-03-18T10:33:23Z</time>
      </trkpt>
      <trkpt lat="62.632787770993" lon="17.991244681629">
        <ele>95.6</ele>
        <time>2018-03-18T10:33:24Z</time>
      </trkpt>
      <trkpt lat="62.632795649979" lon="17.99120687926">
        <ele>95.4</ele>
        <time>2018-03-18T10:33:25Z</time>
      </trkpt>
      <trkpt lat="62.632825573362" lon="17.991150301435">
        <ele>95.4</ele>
        <time>2018-03-18T10:33:26Z</time>
      </trkpt>
      <trkpt lat="62.632833787624" lon="17.991111157962">
        <ele>95.4</ele>
        <time>2018-03-18T10:33:27Z</time>
      </trkpt>
      <trkpt lat="62.632858598048" lon="17.991051562653">
        <ele>95.6</ele>
        <time>2018-03-18T10:33:28Z</time>
      </trkpt>
      <trkpt lat="62.632859855333" lon="17.99100403728">
        <ele>95.8</ele>
        <time>2018-03-18T10:33:29Z</time>
      </trkpt>
      <trkpt lat="62.632885587766" lon="17.990948297645">
        <ele>96</ele>
        <time>2018-03-18T10:33:30Z</time>
      </trkpt>
      <trkpt lat="62.632892377105" lon="17.990890965449">
        <ele>96</ele>
        <time>2018-03-18T10:33:31Z</time>
      </trkpt>
      <trkpt lat="62.632914002407" lon="17.990840003497">
        <ele>96</ele>
        <time>2018-03-18T10:33:32Z</time>
      </trkpt>
      <trkpt lat="62.632933113139" lon="17.990787197527">
        <ele>95.8</ele>
        <time>2018-03-18T10:33:33Z</time>
      </trkpt>
      <trkpt lat="62.632948284378" lon="17.990762051827">
        <ele>95.8</ele>
        <time>2018-03-18T10:33:34Z</time>
      </trkpt>
      <trkpt lat="62.632965048178" lon="17.990720812879">
        <ele>95.6</ele>
        <time>2018-03-18T10:33:35Z</time>
      </trkpt>
      <trkpt lat="62.63297912977" lon="17.990689213116">
        <ele>95.6</ele>
        <time>2018-03-18T10:33:36Z</time>
      </trkpt>
      <trkpt lat="62.633001174167" lon="17.990632635291">
        <ele>95.4</ele>
        <time>2018-03-18T10:33:37Z</time>
      </trkpt>
      <trkpt lat="62.633019027614" lon="17.990575806009">
        <ele>95.4</ele>
        <time>2018-03-18T10:33:38Z</time>
      </trkpt>
      <trkpt lat="62.633041072011" lon="17.990551917594">
        <ele>95.4</ele>
        <time>2018-03-18T10:33:39Z</time>
      </trkpt>
      <trkpt lat="62.633064289874" lon="17.990507577343">
        <ele>95.4</ele>
        <time>2018-03-18T10:33:40Z</time>
      </trkpt>
      <trkpt lat="62.633086082814" lon="17.990475809942">
        <ele>95.6</ele>
        <time>2018-03-18T10:33:41Z</time>
      </trkpt>
      <trkpt lat="62.633120951518" lon="17.990448904043">
        <ele>95.4</ele>
        <time>2018-03-18T10:33:42Z</time>
      </trkpt>
      <trkpt lat="62.633142409182" lon="17.990438678125">
        <ele>95.6</ele>
        <time>2018-03-18T10:33:43Z</time>
      </trkpt>
      <trkpt lat="62.633170488547" lon="17.990435073908">
        <ele>95.6</ele>
        <time>2018-03-18T10:33:44Z</time>
      </trkpt>
      <trkpt lat="62.633207201269" lon="17.990407916552">
        <ele>95.2</ele>
        <time>2018-03-18T10:33:45Z</time>
      </trkpt>
      <trkpt lat="62.633226228182" lon="17.990394505512">
        <ele>95.4</ele>
        <time>2018-03-18T10:33:46Z</time>
      </trkpt>
      <trkpt lat="62.633249529864" lon="17.990375478599">
        <ele>95.2</ele>
        <time>2018-03-18T10:33:47Z</time>
      </trkpt>
      <trkpt lat="62.633282470731" lon="17.990366007052">
        <ele>95</ele>
        <time>2018-03-18T10:33:48Z</time>
      </trkpt>
      <trkpt lat="62.633308286983" lon="17.990344884664">
        <ele>95.2</ele>
        <time>2018-03-18T10:33:49Z</time>
      </trkpt>
      <trkpt lat="62.633335109063" lon="17.99032677976">
        <ele>95.2</ele>
        <time>2018-03-18T10:33:50Z</time>
      </trkpt>
      <trkpt lat="62.633364278075" lon="17.990302304612">
        <ele>95.4</ele>
        <time>2018-03-18T10:33:51Z</time>
      </trkpt>
      <trkpt lat="62.633393614725" lon="17.990272800324">
        <ele>95.6</ele>
        <time>2018-03-18T10:33:52Z</time>
      </trkpt>
      <trkpt lat="62.633425214488" lon="17.990238015439">
        <ele>95.8</ele>
        <time>2018-03-18T10:33:53Z</time>
      </trkpt>
      <trkpt lat="62.633443067935" lon="17.990195603025">
        <ele>96</ele>
        <time>2018-03-18T10:33:54Z</time>
      </trkpt>
      <trkpt lat="62.633470392929" lon="17.990156711009">
        <ele>96.2</ele>
        <time>2018-03-18T10:33:55Z</time>
      </trkpt>
      <trkpt lat="62.633498053199" lon="17.990111029654">
        <ele>96.2</ele>
        <time>2018-03-18T10:33:56Z</time>
      </trkpt>
      <trkpt lat="62.633526551659" lon="17.990043303902">
        <ele>96.2</ele>
        <time>2018-03-18T10:33:57Z</time>
      </trkpt>
      <trkpt lat="62.6335465844" lon="17.989973147399">
        <ele>96.2</ele>
        <time>2018-03-18T10:33:58Z</time>
      </trkpt>
      <trkpt lat="62.633556977956" lon="17.989928555691">
        <ele>96</ele>
        <time>2018-03-18T10:33:59Z</time>
      </trkpt>
      <trkpt lat="62.633581536923" lon="17.989865020889">
        <ele>95.8</ele>
        <time>2018-03-18T10:34:00Z</time>
      </trkpt>
      <trkpt lat="62.63360609589" lon="17.989794780567">
        <ele>95.8</ele>
        <time>2018-03-18T10:34:01Z</time>
      </trkpt>
      <trkpt lat="62.633627134459" lon="17.989746165547">
        <ele>95.8</ele>
        <time>2018-03-18T10:34:02Z</time>
      </trkpt>
      <trkpt lat="62.633655632919" lon="17.98969813726">
        <ele>95.6</ele>
        <time>2018-03-18T10:34:03Z</time>
      </trkpt>
      <trkpt lat="62.633713468029" lon="17.989643990186">
        <ele>95.6</ele>
        <time>2018-03-18T10:34:04Z</time>
      </trkpt>
      <trkpt lat="62.633743056136" lon="17.989655808665">
        <ele>95.6</ele>
        <time>2018-03-18T10:34:05Z</time>
      </trkpt>
      <trkpt lat="62.63377708665" lon="17.989606020179">
        <ele>95.6</ele>
        <time>2018-03-18T10:34:06Z</time>
      </trkpt>
      <trkpt lat="62.633798125219" lon="17.989569056">
        <ele>95.4</ele>
        <time>2018-03-18T10:34:07Z</time>
      </trkpt>
      <trkpt lat="62.633822181272" lon="17.989536534228">
        <ele>95.2</ele>
        <time>2018-03-18T10:34:08Z</time>
      </trkpt>
      <trkpt lat="62.633858139623" lon="17.989493115986">
        <ele>95.2</ele>
        <time>2018-03-18T10:34:09Z</time>
      </trkpt>
      <trkpt lat="62.633898121286" lon="17.989472245055">
        <ele>95</ele>
        <time>2018-03-18T10:34:10Z</time>
      </trkpt>
      <trkpt lat="62.633918573122" lon="17.989432095754">
        <ele>94.8</ele>
        <time>2018-03-18T10:34:11Z</time>
      </trkpt>
      <trkpt lat="62.633958722423" lon="17.989376356119">
        <ele>94.8</ele>
        <time>2018-03-18T10:34:12Z</time>
      </trkpt>
      <trkpt lat="62.633997195344" lon="17.989330255669">
        <ele>94.8</ele>
        <time>2018-03-18T10:34:13Z</time>
      </trkpt>
      <trkpt lat="62.63403524917" lon="17.989283149391">
        <ele>94.6</ele>
        <time>2018-03-18T10:34:14Z</time>
      </trkpt>
      <trkpt lat="62.634065591648" lon="17.989239731149">
        <ele>94.4</ele>
        <time>2018-03-18T10:34:15Z</time>
      </trkpt>
      <trkpt lat="62.634099538343" lon="17.989183404781">
        <ele>94.4</ele>
        <time>2018-03-18T10:34:16Z</time>
      </trkpt>
      <trkpt lat="62.634144884422" lon="17.989135041218">
        <ele>94.2</ele>
        <time>2018-03-18T10:34:17Z</time>
      </trkpt>
      <trkpt lat="62.634184866085" lon="17.989091371519">
        <ele>94</ele>
        <time>2018-03-18T10:34:18Z</time>
      </trkpt>
      <trkpt lat="62.634211688165" lon="17.989059352661">
        <ele>93.8</ele>
        <time>2018-03-18T10:34:19Z</time>
      </trkpt>
      <trkpt lat="62.634260219366" lon="17.989030267468">
        <ele>93.6</ele>
        <time>2018-03-18T10:34:20Z</time>
      </trkpt>
      <trkpt lat="62.634292824957" lon="17.988990369624">
        <ele>93.4</ele>
        <time>2018-03-18T10:34:21Z</time>
      </trkpt>
      <trkpt lat="62.634308415291" lon="17.988936138731">
        <ele>93.2</ele>
        <time>2018-03-18T10:34:22Z</time>
      </trkpt>
      <trkpt lat="62.634333896267" lon="17.988866066047">
        <ele>93.2</ele>
        <time>2018-03-18T10:34:23Z</time>
      </trkpt>
      <trkpt lat="62.634354934836" lon="17.988809991136">
        <ele>93</ele>
        <time>2018-03-18T10:34:24Z</time>
      </trkpt>
      <trkpt lat="62.634369351704" lon="17.988752323664">
        <ele>93</ele>
        <time>2018-03-18T10:34:25Z</time>
      </trkpt>
      <trkpt lat="62.6344015382" lon="17.988704630653">
        <ele>93</ele>
        <time>2018-03-18T10:34:26Z</time>
      </trkpt>
      <trkpt lat="62.634421319484" lon="17.988625421698">
        <ele>93</ele>
        <time>2018-03-18T10:34:27Z</time>
      </trkpt>
      <trkpt lat="62.634456188188" lon="17.9885799918">
        <ele>92.8</ele>
        <time>2018-03-18T10:34:28Z</time>
      </trkpt>
      <trkpt lat="62.634487620313" lon="17.988541351241">
        <ele>92.6</ele>
        <time>2018-03-18T10:34:29Z</time>
      </trkpt>
      <trkpt lat="62.634514442393" lon="17.988526431459">
        <ele>92.8</ele>
        <time>2018-03-18T10:34:30Z</time>
      </trkpt>
      <trkpt lat="62.634550903658" lon="17.98850036375">
        <ele>92.4</ele>
        <time>2018-03-18T10:34:31Z</time>
      </trkpt>
      <trkpt lat="62.634580575584" lon="17.988480750104">
        <ele>91.8</ele>
        <time>2018-03-18T10:34:32Z</time>
      </trkpt>
      <trkpt lat="62.634607313845" lon="17.988454933852">
        <ele>91.2</ele>
        <time>2018-03-18T10:34:33Z</time>
      </trkpt>
      <trkpt lat="62.634643439834" lon="17.988426770668">
        <ele>90.8</ele>
        <time>2018-03-18T10:34:34Z</time>
      </trkpt>
      <trkpt lat="62.634675291054" lon="17.988398523665">
        <ele>90.4</ele>
        <time>2018-03-18T10:34:35Z</time>
      </trkpt>
      <trkpt lat="62.634725666273" lon="17.988369941386">
        <ele>90.2</ele>
        <time>2018-03-18T10:34:36Z</time>
      </trkpt>
      <trkpt lat="62.634765647936" lon="17.988347142618">
        <ele>90.2</ele>
        <time>2018-03-18T10:34:37Z</time>
      </trkpt>
      <trkpt lat="62.634814682051" lon="17.988305316937">
        <ele>90.4</ele>
        <time>2018-03-18T10:34:38Z</time>
      </trkpt>
      <trkpt lat="62.634832703136" lon="17.988239351384">
        <ele>90.6</ele>
        <time>2018-03-18T10:34:39Z</time>
      </trkpt>
      <trkpt lat="62.634870170229" lon="17.98819358621">
        <ele>90.6</ele>
        <time>2018-03-18T10:34:40Z</time>
      </trkpt>
      <trkpt lat="62.634910570987" lon="17.988131392512">
        <ele>90.6</ele>
        <time>2018-03-18T10:34:41Z</time>
      </trkpt>
      <trkpt lat="62.634941500198" lon="17.98806282857">
        <ele>90.4</ele>
        <time>2018-03-18T10:34:42Z</time>
      </trkpt>
      <trkpt lat="62.63496228731" lon="17.987991247144">
        <ele>90.4</ele>
        <time>2018-03-18T10:34:43Z</time>
      </trkpt>
      <trkpt lat="62.634981481861" lon="17.987910780904">
        <ele>90.2</ele>
        <time>2018-03-18T10:34:44Z</time>
      </trkpt>
      <trkpt lat="62.634992545969" lon="17.987837271641">
        <ele>90.2</ele>
        <time>2018-03-18T10:34:45Z</time>
      </trkpt>
      <trkpt lat="62.635007465751" lon="17.987767031319">
        <ele>90</ele>
        <time>2018-03-18T10:34:46Z</time>
      </trkpt>
      <trkpt lat="62.635018110764" lon="17.98769486316">
        <ele>89.8</ele>
        <time>2018-03-18T10:34:47Z</time>
      </trkpt>
      <trkpt lat="62.635021882619" lon="17.98761774968">
        <ele>89.6</ele>
        <time>2018-03-18T10:34:48Z</time>
      </trkpt>
      <trkpt lat="62.635004364448" lon="17.987567961194">
        <ele>89.4</ele>
        <time>2018-03-18T10:34:49Z</time>
      </trkpt>
      <trkpt lat="62.634988522657" lon="17.987554969249">
        <ele>89.2</ele>
        <time>2018-03-18T10:34:50Z</time>
      </trkpt>
      <trkpt lat="62.634971926495" lon="17.987582713338">
        <ele>89.2</ele>
        <time>2018-03-18T10:34:51Z</time>
      </trkpt>
      <trkpt lat="62.634968825192" lon="17.987613307273">
        <ele>89.2</ele>
        <time>2018-03-18T10:34:52Z</time>
      </trkpt>
      <trkpt lat="62.63496480188" lon="17.987647170149">
        <ele>89.4</ele>
        <time>2018-03-18T10:34:53Z</time>
      </trkpt>
      <trkpt lat="62.634958599274" lon="17.987702658327">
        <ele>89.4</ele>
        <time>2018-03-18T10:34:54Z</time>
      </trkpt>
      <trkpt lat="62.634946110243" lon="17.987731240606">
        <ele>89.4</ele>
        <time>2018-03-18T10:34:55Z</time>
      </trkpt>
      <trkpt lat="62.634925658407" lon="17.98777281483">
        <ele>89.2</ele>
        <time>2018-03-18T10:34:56Z</time>
      </trkpt>
      <trkpt lat="62.634912917919" lon="17.987824531153">
        <ele>89.2</ele>
        <time>2018-03-18T10:34:57Z</time>
      </trkpt>
      <trkpt lat="62.634893136635" lon="17.987848754844">
        <ele>89.2</ele>
        <time>2018-03-18T10:34:58Z</time>
      </trkpt>
      <trkpt lat="62.634876624292" lon="17.987895693484">
        <ele>89.2</ele>
        <time>2018-03-18T10:34:59Z</time>
      </trkpt>
      <trkpt lat="62.634862123605" lon="17.987917151148">
        <ele>89.2</ele>
        <time>2018-03-18T10:35:00Z</time>
      </trkpt>
      <trkpt lat="62.634840246846" lon="17.987961323761">
        <ele>89.4</ele>
        <time>2018-03-18T10:35:01Z</time>
      </trkpt>
      <trkpt lat="62.63482650053" lon="17.987989235488">
        <ele>89.6</ele>
        <time>2018-03-18T10:35:02Z</time>
      </trkpt>
      <trkpt lat="62.634801606287" lon="17.988013459179">
        <ele>89.6</ele>
        <time>2018-03-18T10:35:03Z</time>
      </trkpt>
      <trkpt lat="62.634790793636" lon="17.988045058942">
        <ele>89.8</ele>
        <time>2018-03-18T10:35:04Z</time>
      </trkpt>
      <trkpt lat="62.634767408135" lon="17.98805360848">
        <ele>89.8</ele>
        <time>2018-03-18T10:35:05Z</time>
      </trkpt>
      <trkpt lat="62.634742597711" lon="17.988088728641">
        <ele>89.8</ele>
        <time>2018-03-18T10:35:06Z</time>
      </trkpt>
      <trkpt lat="62.634721056228" lon="17.988097529636">
        <ele>90</ele>
        <time>2018-03-18T10:35:07Z</time>
      </trkpt>
      <trkpt lat="62.634702364591" lon="17.988107923192">
        <ele>90</ele>
        <time>2018-03-18T10:35:08Z</time>
      </trkpt>
      <trkpt lat="62.634685265515" lon="17.988116808006">
        <ele>90.2</ele>
        <time>2018-03-18T10:35:09Z</time>
      </trkpt>
      <trkpt lat="62.634667076792" lon="17.988110773038">
        <ele>90.2</ele>
        <time>2018-03-18T10:35:10Z</time>
      </trkpt>
      <trkpt lat="62.634650732087" lon="17.988128710304">
        <ele>90.4</ele>
        <time>2018-03-18T10:35:11Z</time>
      </trkpt>
      <trkpt lat="62.634626005482" lon="17.988117730015">
        <ele>90.4</ele>
        <time>2018-03-18T10:35:12Z</time>
      </trkpt>
      <trkpt lat="62.634610498967" lon="17.988147234303">
        <ele>90.6</ele>
        <time>2018-03-18T10:35:13Z</time>
      </trkpt>
      <trkpt lat="62.634588706027" lon="17.988142037525">
        <ele>90.6</ele>
        <time>2018-03-18T10:35:14Z</time>
      </trkpt>
      <trkpt lat="62.634570601123" lon="17.988152933995">
        <ele>90.6</ele>
        <time>2018-03-18T10:35:15Z</time>
      </trkpt>
      <trkpt lat="62.634539420455" lon="17.98814916214">
        <ele>90.8</ele>
        <time>2018-03-18T10:35:16Z</time>
      </trkpt>
      <trkpt lat="62.634516286411" lon="17.988159807153">
        <ele>90.6</ele>
        <time>2018-03-18T10:35:17Z</time>
      </trkpt>
      <trkpt lat="62.63449038634" lon="17.988165339207">
        <ele>90.8</ele>
        <time>2018-03-18T10:35:18Z</time>
      </trkpt>
      <trkpt lat="62.634462223156" lon="17.988172882917">
        <ele>90.8</ele>
        <time>2018-03-18T10:35:19Z</time>
      </trkpt>
      <trkpt lat="62.63444847684" lon="17.988176235677">
        <ele>90.8</ele>
        <time>2018-03-18T10:35:20Z</time>
      </trkpt>
      <trkpt lat="62.634429366108" lon="17.98817011689">
        <ele>90.8</ele>
        <time>2018-03-18T10:35:21Z</time>
      </trkpt>
      <trkpt lat="62.634411093566" lon="17.98818017517">
        <ele>91</ele>
        <time>2018-03-18T10:35:22Z</time>
      </trkpt>
      <trkpt lat="62.634387540427" lon="17.988186126319">
        <ele>91</ele>
        <time>2018-03-18T10:35:23Z</time>
      </trkpt>
      <trkpt lat="62.634369938437" lon="17.988201549015">
        <ele>91</ele>
        <time>2018-03-18T10:35:24Z</time>
      </trkpt>
      <trkpt lat="62.63434873223" lon="17.988187048328">
        <ele>91.2</ele>
        <time>2018-03-18T10:35:25Z</time>
      </trkpt>
      <trkpt lat="62.634336578475" lon="17.988175648944">
        <ele>91.4</ele>
        <time>2018-03-18T10:35:26Z</time>
      </trkpt>
      <trkpt lat="62.634307325644" lon="17.988171877089">
        <ele>91.4</ele>
        <time>2018-03-18T10:35:27Z</time>
      </trkpt>
      <trkpt lat="62.634284107781" lon="17.9881692787">
        <ele>91.6</ele>
        <time>2018-03-18T10:35:28Z</time>
      </trkpt>
      <trkpt lat="62.634263404488" lon="17.988182941197">
        <ele>91.6</ele>
        <time>2018-03-18T10:35:29Z</time>
      </trkpt>
      <trkpt lat="62.634225266843" lon="17.988172296184">
        <ele>91.6</ele>
        <time>2018-03-18T10:35:30Z</time>
      </trkpt>
      <trkpt lat="62.634197271297" lon="17.988190736364">
        <ele>91.8</ele>
        <time>2018-03-18T10:35:31Z</time>
      </trkpt>
      <trkpt lat="62.634166845" lon="17.988168943424">
        <ele>91.8</ele>
        <time>2018-03-18T10:35:32Z</time>
      </trkpt>
      <trkpt lat="62.634148823915" lon="17.988172966736">
        <ele>91.8</ele>
        <time>2018-03-18T10:35:33Z</time>
      </trkpt>
      <trkpt lat="62.634118565256" lon="17.988143462448">
        <ele>91.8</ele>
        <time>2018-03-18T10:35:34Z</time>
      </trkpt>
      <trkpt lat="62.634094425384" lon="17.988140696421">
        <ele>91.8</ele>
        <time>2018-03-18T10:35:35Z</time>
      </trkpt>
      <trkpt lat="62.63406793858" lon="17.988122172422">
        <ele>91.8</ele>
        <time>2018-03-18T10:35:36Z</time>
      </trkpt>
      <trkpt lat="62.63404446926" lon="17.988121250413">
        <ele>91.8</ele>
        <time>2018-03-18T10:35:37Z</time>
      </trkpt>
      <trkpt lat="62.634017730999" lon="17.988094931247">
        <ele>92</ele>
        <time>2018-03-18T10:35:38Z</time>
      </trkpt>
      <trkpt lat="62.633976492051" lon="17.988111527409">
        <ele>92</ele>
        <time>2018-03-18T10:35:39Z</time>
      </trkpt>
      <trkpt lat="62.633953441826" lon="17.98809719436">
        <ele>92</ele>
        <time>2018-03-18T10:35:40Z</time>
      </trkpt>
      <trkpt lat="62.633927457936" lon="17.988065762235">
        <ele>92.2</ele>
        <time>2018-03-18T10:35:41Z</time>
      </trkpt>
      <trkpt lat="62.633899881485" lon="17.988068276805">
        <ele>92.2</ele>
        <time>2018-03-18T10:35:42Z</time>
      </trkpt>
      <trkpt lat="62.633868700817" lon="17.988036928499">
        <ele>92.2</ele>
        <time>2018-03-18T10:35:43Z</time>
      </trkpt>
      <trkpt lat="62.633836262864" lon="17.988017147215">
        <ele>92.2</ele>
        <time>2018-03-18T10:35:44Z</time>
      </trkpt>
      <trkpt lat="62.633814302286" lon="17.987994683723">
        <ele>92.4</ele>
        <time>2018-03-18T10:35:45Z</time>
      </trkpt>
      <trkpt lat="62.633784127446" lon="17.987976914095">
        <ele>92.4</ele>
        <time>2018-03-18T10:35:46Z</time>
      </trkpt>
      <trkpt lat="62.633762502144" lon="17.987953277137">
        <ele>92.4</ele>
        <time>2018-03-18T10:35:47Z</time>
      </trkpt>
      <trkpt lat="62.63373433896" lon="17.987915977682">
        <ele>92.6</ele>
        <time>2018-03-18T10:35:48Z</time>
      </trkpt>
      <trkpt lat="62.633704499396" lon="17.987909858895">
        <ele>92.8</ele>
        <time>2018-03-18T10:35:49Z</time>
      </trkpt>
      <trkpt lat="62.633672564357" lon="17.987873816725">
        <ele>92.6</ele>
        <time>2018-03-18T10:35:50Z</time>
      </trkpt>
      <trkpt lat="62.633652447797" lon="17.987850598862">
        <ele>92.8</ele>
        <time>2018-03-18T10:35:51Z</time>
      </trkpt>
      <trkpt lat="62.633622608233" lon="17.98781807709">
        <ele>92.8</ele>
        <time>2018-03-18T10:35:52Z</time>
      </trkpt>
      <trkpt lat="62.633603916596" lon="17.987800558919">
        <ele>93</ele>
        <time>2018-03-18T10:35:53Z</time>
      </trkpt>
      <trkpt lat="62.633591762841" lon="17.98779041682">
        <ele>93.2</ele>
        <time>2018-03-18T10:35:54Z</time>
      </trkpt>
      <trkpt lat="62.633569550806" lon="17.987757895048">
        <ele>93.2</ele>
        <time>2018-03-18T10:35:55Z</time>
      </trkpt>
      <trkpt lat="62.633545830029" lon="17.98772336162">
        <ele>93.4</ele>
        <time>2018-03-18T10:35:56Z</time>
      </trkpt>
      <trkpt lat="62.633527389849" lon="17.987708944752">
        <ele>93.8</ele>
        <time>2018-03-18T10:35:57Z</time>
      </trkpt>
      <trkpt lat="62.633499729579" lon="17.987671896754">
        <ele>94</ele>
        <time>2018-03-18T10:35:58Z</time>
      </trkpt>
      <trkpt lat="62.633472320766" lon="17.987643063018">
        <ele>94</ele>
        <time>2018-03-18T10:35:59Z</time>
      </trkpt>
      <trkpt lat="62.633453210034" lon="17.987597968396">
        <ele>94.2</ele>
        <time>2018-03-18T10:36:00Z</time>
      </trkpt>
      <trkpt lat="62.633419933891" lon="17.987568045013">
        <ele>94.2</ele>
        <time>2018-03-18T10:36:01Z</time>
      </trkpt>
      <trkpt lat="62.633406858127" lon="17.987548096091">
        <ele>94.4</ele>
        <time>2018-03-18T10:36:02Z</time>
      </trkpt>
      <trkpt lat="62.633385232825" lon="17.987513897939">
        <ele>94.6</ele>
        <time>2018-03-18T10:36:03Z</time>
      </trkpt>
      <trkpt lat="62.633371318871" lon="17.987475173561">
        <ele>94.8</ele>
        <time>2018-03-18T10:36:04Z</time>
      </trkpt>
      <trkpt lat="62.633361176772" lon="17.987445753092">
        <ele>95</ele>
        <time>2018-03-18T10:36:05Z</time>
      </trkpt>
      <trkpt lat="62.633342317497" lon="17.987401748117">
        <ele>95.2</ele>
        <time>2018-03-18T10:36:06Z</time>
      </trkpt>
      <trkpt lat="62.633326224249" lon="17.98736210173">
        <ele>95.2</ele>
        <time>2018-03-18T10:36:07Z</time>
      </trkpt>
      <trkpt lat="62.633304096033" lon="17.987297644919">
        <ele>95.4</ele>
        <time>2018-03-18T10:36:08Z</time>
      </trkpt>
      <trkpt lat="62.633283308921" lon="17.987243330207">
        <ele>95.8</ele>
        <time>2018-03-18T10:36:09Z</time>
      </trkpt>
      <trkpt lat="62.633264784922" lon="17.987169234211">
        <ele>95.6</ele>
        <time>2018-03-18T10:36:10Z</time>
      </trkpt>
      <trkpt lat="62.633235280634" lon="17.987073596732">
        <ele>95.6</ele>
        <time>2018-03-18T10:36:11Z</time>
      </trkpt>
      <trkpt lat="62.633211056943" lon="17.986963207109">
        <ele>95.4</ele>
        <time>2018-03-18T10:36:12Z</time>
      </trkpt>
      <trkpt lat="62.633193790229" lon="17.986877208815">
        <ele>94.8</ele>
        <time>2018-03-18T10:36:13Z</time>
      </trkpt>
      <trkpt lat="62.633180211551" lon="17.986791964892">
        <ele>93.8</ele>
        <time>2018-03-18T10:36:14Z</time>
      </trkpt>
      <trkpt lat="62.633174930954" lon="17.986696495051">
        <ele>93</ele>
        <time>2018-03-18T10:36:15Z</time>
      </trkpt>
      <trkpt lat="62.633165962321" lon="17.98658426141">
        <ele>92.4</ele>
        <time>2018-03-18T10:36:16Z</time>
      </trkpt>
      <trkpt lat="62.633155065851" lon="17.986515948925">
        <ele>92</ele>
        <time>2018-03-18T10:36:17Z</time>
      </trkpt>
      <trkpt lat="62.633144169381" lon="17.986419221799">
        <ele>92.2</ele>
        <time>2018-03-18T10:36:18Z</time>
      </trkpt>
      <trkpt lat="62.63314006225" lon="17.986338085007">
        <ele>92.2</ele>
        <time>2018-03-18T10:36:19Z</time>
      </trkpt>
      <trkpt lat="62.633140732802" lon="17.986250075057">
        <ele>92.4</ele>
        <time>2018-03-18T10:36:20Z</time>
      </trkpt>
      <trkpt lat="62.633144085562" lon="17.986156030139">
        <ele>92.2</ele>
        <time>2018-03-18T10:36:21Z</time>
      </trkpt>
      <trkpt lat="62.633142660639" lon="17.986059722108">
        <ele>91.6</ele>
        <time>2018-03-18T10:36:22Z</time>
      </trkpt>
      <trkpt lat="62.633141654811" lon="17.985990236157">
        <ele>91.2</ele>
        <time>2018-03-18T10:36:23Z</time>
      </trkpt>
      <trkpt lat="62.633142157725" lon="17.985892587022">
        <ele>90.8</ele>
        <time>2018-03-18T10:36:24Z</time>
      </trkpt>
      <trkpt lat="62.633148695607" lon="17.985815892637">
        <ele>90.4</ele>
        <time>2018-03-18T10:36:25Z</time>
      </trkpt>
      <trkpt lat="62.633143163553" lon="17.985703994272">
        <ele>90</ele>
        <time>2018-03-18T10:36:26Z</time>
      </trkpt>
      <trkpt lat="62.633136122757" lon="17.985618415073">
        <ele>90.2</ele>
        <time>2018-03-18T10:36:27Z</time>
      </trkpt>
      <trkpt lat="62.633128830504" lon="17.985531997684">
        <ele>90.2</ele>
        <time>2018-03-18T10:36:28Z</time>
      </trkpt>
      <trkpt lat="62.633136206576" lon="17.985442562811">
        <ele>90.2</ele>
        <time>2018-03-18T10:36:29Z</time>
      </trkpt>
      <trkpt lat="62.633145510485" lon="17.985334771577">
        <ele>90.2</ele>
        <time>2018-03-18T10:36:30Z</time>
      </trkpt>
      <trkpt lat="62.633162441923" lon="17.985208540163">
        <ele>90.4</ele>
        <time>2018-03-18T10:36:31Z</time>
      </trkpt>
      <trkpt lat="62.633178870447" lon="17.985093791952">
        <ele>89.8</ele>
        <time>2018-03-18T10:36:32Z</time>
      </trkpt>
      <trkpt lat="62.633194796057" lon="17.984977199723">
        <ele>89</ele>
        <time>2018-03-18T10:36:33Z</time>
      </trkpt>
      <trkpt lat="62.633217259549" lon="17.984896230569">
        <ele>88.2</ele>
        <time>2018-03-18T10:36:34Z</time>
      </trkpt>
      <trkpt lat="62.633240393593" lon="17.984825571152">
        <ele>87.4</ele>
        <time>2018-03-18T10:36:35Z</time>
      </trkpt>
      <trkpt lat="62.63326327618" lon="17.984735633365">
        <ele>86.4</ele>
        <time>2018-03-18T10:36:36Z</time>
      </trkpt>
      <trkpt lat="62.633289595346" lon="17.984641839904">
        <ele>86</ele>
        <time>2018-03-18T10:36:37Z</time>
      </trkpt>
      <trkpt lat="62.633307867888" lon="17.984554835782">
        <ele>86</ele>
        <time>2018-03-18T10:36:38Z</time>
      </trkpt>
      <trkpt lat="62.633319854005" lon="17.984457186647">
        <ele>86.4</ele>
        <time>2018-03-18T10:36:39Z</time>
      </trkpt>
      <trkpt lat="62.633335528158" lon="17.984370098706">
        <ele>86.6</ele>
        <time>2018-03-18T10:36:40Z</time>
      </trkpt>
      <trkpt lat="62.633356734365" lon="17.984304300791">
        <ele>87</ele>
        <time>2018-03-18T10:36:41Z</time>
      </trkpt>
      <trkpt lat="62.633362517876" lon="17.984225678569">
        <ele>87.2</ele>
        <time>2018-03-18T10:36:42Z</time>
      </trkpt>
      <trkpt lat="62.633369977767" lon="17.984127023606">
        <ele>87.4</ele>
        <time>2018-03-18T10:36:43Z</time>
      </trkpt>
      <trkpt lat="62.633378192029" lon="17.984044210434">
        <ele>87</ele>
        <time>2018-03-18T10:36:44Z</time>
      </trkpt>
      <trkpt lat="62.633377102382" lon="17.983982268193">
        <ele>87</ele>
        <time>2018-03-18T10:36:45Z</time>
      </trkpt>
      <trkpt lat="62.633386741567" lon="17.983906160541">
        <ele>86.8</ele>
        <time>2018-03-18T10:36:46Z</time>
      </trkpt>
      <trkpt lat="62.633389926689" lon="17.983837009866">
        <ele>87</ele>
        <time>2018-03-18T10:36:47Z</time>
      </trkpt>
      <trkpt lat="62.633389256137" lon="17.98376961939">
        <ele>86.8</ele>
        <time>2018-03-18T10:36:48Z</time>
      </trkpt>
      <trkpt lat="62.633382718255" lon="17.98368244763">
        <ele>86.8</ele>
        <time>2018-03-18T10:36:49Z</time>
      </trkpt>
      <trkpt lat="62.633397135123" lon="17.983627378547">
        <ele>86.8</ele>
        <time>2018-03-18T10:36:50Z</time>
      </trkpt>
      <trkpt lat="62.633407528679" lon="17.98355252818">
        <ele>87</ele>
        <time>2018-03-18T10:36:51Z</time>
      </trkpt>
      <trkpt lat="62.633416832588" lon="17.983481784944">
        <ele>87.2</ele>
        <time>2018-03-18T10:36:52Z</time>
      </trkpt>
      <trkpt lat="62.633435775682" lon="17.983415148839">
        <ele>87.6</ele>
        <time>2018-03-18T10:36:53Z</time>
      </trkpt>
      <trkpt lat="62.633448432351" lon="17.983344573241">
        <ele>87.8</ele>
        <time>2018-03-18T10:36:54Z</time>
      </trkpt>
      <trkpt lat="62.633456562794" lon="17.983295455307">
        <ele>88.2</ele>
        <time>2018-03-18T10:36:55Z</time>
      </trkpt>
      <trkpt lat="62.63348120558" lon="17.983222951872">
        <ele>88.4</ele>
        <time>2018-03-18T10:36:56Z</time>
      </trkpt>
      <trkpt lat="62.63348372015" lon="17.983151118989">
        <ele>88.4</ele>
        <time>2018-03-18T10:36:57Z</time>
      </trkpt>
      <trkpt lat="62.633508195298" lon="17.983107197833">
        <ele>88.4</ele>
        <time>2018-03-18T10:36:58Z</time>
      </trkpt>
      <trkpt lat="62.633520768148" lon="17.983039136805">
        <ele>88.4</ele>
        <time>2018-03-18T10:36:59Z</time>
      </trkpt>
      <trkpt lat="62.633528395677" lon="17.982968058293">
        <ele>88.4</ele>
        <time>2018-03-18T10:37:00Z</time>
      </trkpt>
      <trkpt lat="62.633554295748" lon="17.982905529319">
        <ele>88.4</ele>
        <time>2018-03-18T10:37:01Z</time>
      </trkpt>
      <trkpt lat="62.633556475042" lon="17.982835372816">
        <ele>88.6</ele>
        <time>2018-03-18T10:37:02Z</time>
      </trkpt>
      <trkpt lat="62.633575418136" lon="17.982780722828">
        <ele>88.6</ele>
        <time>2018-03-18T10:37:03Z</time>
      </trkpt>
      <trkpt lat="62.633590757013" lon="17.982710566325">
        <ele>88.8</ele>
        <time>2018-03-18T10:37:04Z</time>
      </trkpt>
      <trkpt lat="62.633616070351" lon="17.982668321549">
        <ele>88.8</ele>
        <time>2018-03-18T10:37:05Z</time>
      </trkpt>
      <trkpt lat="62.63363207978" lon="17.982592632992">
        <ele>89</ele>
        <time>2018-03-18T10:37:06Z</time>
      </trkpt>
      <trkpt lat="62.633641048413" lon="17.982512166752">
        <ele>89</ele>
        <time>2018-03-18T10:37:07Z</time>
      </trkpt>
      <trkpt lat="62.633654124177" lon="17.982457600583">
        <ele>89.2</ele>
        <time>2018-03-18T10:37:08Z</time>
      </trkpt>
      <trkpt lat="62.633660242964" lon="17.982384426596">
        <ele>89.2</ele>
        <time>2018-03-18T10:37:09Z</time>
      </trkpt>
      <trkpt lat="62.633659404774" lon="17.982330614798">
        <ele>89.2</ele>
        <time>2018-03-18T10:37:10Z</time>
      </trkpt>
      <trkpt lat="62.633673821642" lon="17.982271857679">
        <ele>89</ele>
        <time>2018-03-18T10:37:11Z</time>
      </trkpt>
      <trkpt lat="62.633673737823" lon="17.982193319276">
        <ele>89</ele>
        <time>2018-03-18T10:37:12Z</time>
      </trkpt>
      <trkpt lat="62.633693602926" lon="17.982134729795">
        <ele>88.8</ele>
        <time>2018-03-18T10:37:13Z</time>
      </trkpt>
      <trkpt lat="62.633694357297" lon="17.982070440622">
        <ele>88.8</ele>
        <time>2018-03-18T10:37:14Z</time>
      </trkpt>
      <trkpt lat="62.633700140808" lon="17.982025346">
        <ele>88.8</ele>
        <time>2018-03-18T10:37:15Z</time>
      </trkpt>
      <trkpt lat="62.633702152464" lon="17.981998021006">
        <ele>88.8</ele>
        <time>2018-03-18T10:37:16Z</time>
      </trkpt>
      <trkpt lat="62.633702403921" lon="17.981910346332">
        <ele>88.8</ele>
        <time>2018-03-18T10:37:17Z</time>
      </trkpt>
      <trkpt lat="62.633711372554" lon="17.98184345877">
        <ele>88.8</ele>
        <time>2018-03-18T10:37:18Z</time>
      </trkpt>
      <trkpt lat="62.63370416412" lon="17.981787719135">
        <ele>88.8</ele>
        <time>2018-03-18T10:37:19Z</time>
      </trkpt>
      <trkpt lat="62.6337142224" lon="17.981737763011">
        <ele>89</ele>
        <time>2018-03-18T10:37:20Z</time>
      </trkpt>
      <trkpt lat="62.633711372554" lon="17.981657129133">
        <ele>89</ele>
        <time>2018-03-18T10:37:21Z</time>
      </trkpt>
      <trkpt lat="62.633711037278" lon="17.981600886584">
        <ele>89.2</ele>
        <time>2018-03-18T10:37:22Z</time>
      </trkpt>
      <trkpt lat="62.633719502997" lon="17.981526371493">
        <ele>89</ele>
        <time>2018-03-18T10:37:23Z</time>
      </trkpt>
      <trkpt lat="62.633714976771" lon="17.981482617975">
        <ele>89</ele>
        <time>2018-03-18T10:37:24Z</time>
      </trkpt>
      <trkpt lat="62.633728723087" lon="17.981409192531">
        <ele>89</ele>
        <time>2018-03-18T10:37:25Z</time>
      </trkpt>
      <trkpt lat="62.633730064191" lon="17.981344400444">
        <ele>89.2</ele>
        <time>2018-03-18T10:37:26Z</time>
      </trkpt>
      <trkpt lat="62.63374188267" lon="17.98128103328">
        <ele>89</ele>
        <time>2018-03-18T10:37:27Z</time>
      </trkpt>
      <trkpt lat="62.633748001457" lon="17.981218504306">
        <ele>89</ele>
        <time>2018-03-18T10:37:28Z</time>
      </trkpt>
      <trkpt lat="62.633752527683" lon="17.981155472418">
        <ele>89.2</ele>
        <time>2018-03-18T10:37:29Z</time>
      </trkpt>
      <trkpt lat="62.633773147157" lon="17.981111886538">
        <ele>89.2</ele>
        <time>2018-03-18T10:37:30Z</time>
      </trkpt>
      <trkpt lat="62.633791419699" lon="17.981052794143">
        <ele>89.2</ele>
        <time>2018-03-18T10:37:31Z</time>
      </trkpt>
      <trkpt lat="62.633805417472" lon="17.980987415323">
        <ele>89.2</ele>
        <time>2018-03-18T10:37:32Z</time>
      </trkpt>
      <trkpt lat="62.63382402529" lon="17.980944416176">
        <ele>89.6</ele>
        <time>2018-03-18T10:37:33Z</time>
      </trkpt>
      <trkpt lat="62.633844896221" lon="17.980908709282">
        <ele>89.8</ele>
        <time>2018-03-18T10:37:34Z</time>
      </trkpt>
      <trkpt lat="62.633867275894" lon="17.980849700706">
        <ele>90</ele>
        <time>2018-03-18T10:37:35Z</time>
      </trkpt>
      <trkpt lat="62.633888649739" lon="17.980798571116">
        <ele>90.2</ele>
        <time>2018-03-18T10:37:36Z</time>
      </trkpt>
      <trkpt lat="62.633901725503" lon="17.980735706866">
        <ele>90.2</ele>
        <time>2018-03-18T10:37:37Z</time>
      </trkpt>
      <trkpt lat="62.633914717448" lon="17.980676782109">
        <ele>90.2</ele>
        <time>2018-03-18T10:37:38Z</time>
      </trkpt>
      <trkpt lat="62.633941958623" lon="17.98062053956">
        <ele>90</ele>
        <time>2018-03-18T10:37:39Z</time>
      </trkpt>
      <trkpt lat="62.633956375491" lon="17.980562033898">
        <ele>90</ele>
        <time>2018-03-18T10:37:40Z</time>
      </trkpt>
      <trkpt lat="62.633970289445" lon="17.980506880996">
        <ele>90</ele>
        <time>2018-03-18T10:37:41Z</time>
      </trkpt>
      <trkpt lat="62.63398914872" lon="17.980445860764">
        <ele>90.2</ele>
        <time>2018-03-18T10:37:42Z</time>
      </trkpt>
      <trkpt lat="62.634004319959" lon="17.980408896585">
        <ele>90</ele>
        <time>2018-03-18T10:37:43Z</time>
      </trkpt>
      <trkpt lat="62.634029046564" lon="17.980350223285">
        <ele>90.2</ele>
        <time>2018-03-18T10:37:44Z</time>
      </trkpt>
      <trkpt lat="62.634051090961" lon="17.980313845839">
        <ele>90.4</ele>
        <time>2018-03-18T10:37:45Z</time>
      </trkpt>
      <trkpt lat="62.634080343792" lon="17.980258609118">
        <ele>90.4</ele>
        <time>2018-03-18T10:37:46Z</time>
      </trkpt>
      <trkpt lat="62.634092078452" lon="17.980225416794">
        <ele>90.4</ele>
        <time>2018-03-18T10:37:47Z</time>
      </trkpt>
      <trkpt lat="62.63412661188" lon="17.980187698244">
        <ele>90.6</ele>
        <time>2018-03-18T10:37:48Z</time>
      </trkpt>
      <trkpt lat="62.634150332657" lon="17.980137239206">
        <ele>90.6</ele>
        <time>2018-03-18T10:37:49Z</time>
      </trkpt>
      <trkpt lat="62.634179669307" lon="17.980102202864">
        <ele>90.4</ele>
        <time>2018-03-18T10:37:50Z</time>
      </trkpt>
      <trkpt lat="62.634211017613" lon="17.980087199263">
        <ele>90.6</ele>
        <time>2018-03-18T10:37:51Z</time>
      </trkpt>
      <trkpt lat="62.634234654571" lon="17.980028023049">
        <ele>90.4</ele>
        <time>2018-03-18T10:37:52Z</time>
      </trkpt>
      <trkpt lat="62.634256950425" lon="17.9799717805">
        <ele>90.4</ele>
        <time>2018-03-18T10:37:53Z</time>
      </trkpt>
      <trkpt lat="62.634268685085" lon="17.979896091943">
        <ele>90.4</ele>
        <time>2018-03-18T10:37:54Z</time>
      </trkpt>
      <trkpt lat="62.63429173531" lon="17.97983599372">
        <ele>90.2</ele>
        <time>2018-03-18T10:37:55Z</time>
      </trkpt>
      <trkpt lat="62.634300536305" lon="17.979751085073">
        <ele>90.2</ele>
        <time>2018-03-18T10:37:56Z</time>
      </trkpt>
      <trkpt lat="62.634326855471" lon="17.979693417601">
        <ele>90.2</ele>
        <time>2018-03-18T10:37:57Z</time>
      </trkpt>
      <trkpt lat="62.634342781081" lon="17.979627200591">
        <ele>90.4</ele>
        <time>2018-03-18T10:37:58Z</time>
      </trkpt>
      <trkpt lat="62.634355521569" lon="17.979569281662">
        <ele>90.4</ele>
        <time>2018-03-18T10:37:59Z</time>
      </trkpt>
      <trkpt lat="62.634371111903" lon="17.97948898306">
        <ele>90.2</ele>
        <time>2018-03-18T10:38:00Z</time>
      </trkpt>
      <trkpt lat="62.634381924554" lon="17.979431650864">
        <ele>90.2</ele>
        <time>2018-03-18T10:38:01Z</time>
      </trkpt>
      <trkpt lat="62.634394748861" lon="17.979358895972">
        <ele>90</ele>
        <time>2018-03-18T10:38:02Z</time>
      </trkpt>
      <trkpt lat="62.634410339195" lon="17.979290499668">
        <ele>90</ele>
        <time>2018-03-18T10:38:03Z</time>
      </trkpt>
      <trkpt lat="62.634422912045" lon="17.979223025373">
        <ele>89.8</ele>
        <time>2018-03-18T10:38:04Z</time>
      </trkpt>
      <trkpt lat="62.634431461583" lon="17.979144570789">
        <ele>89.8</ele>
        <time>2018-03-18T10:38:05Z</time>
      </trkpt>
      <trkpt lat="62.634442106596" lon="17.979087825326">
        <ele>89.8</ele>
        <time>2018-03-18T10:38:06Z</time>
      </trkpt>
      <trkpt lat="62.63446188788" lon="17.97900953838">
        <ele>90</ele>
        <time>2018-03-18T10:38:07Z</time>
      </trkpt>
      <trkpt lat="62.63446356426" lon="17.978938040773">
        <ele>90</ele>
        <time>2018-03-18T10:38:08Z</time>
      </trkpt>
      <trkpt lat="62.634480830974" lon="17.978865202062">
        <ele>90</ele>
        <time>2018-03-18T10:38:09Z</time>
      </trkpt>
      <trkpt lat="62.634488458503" lon="17.978786747478">
        <ele>90</ele>
        <time>2018-03-18T10:38:10Z</time>
      </trkpt>
      <trkpt lat="62.634498432964" lon="17.978731846033">
        <ele>90</ele>
        <time>2018-03-18T10:38:11Z</time>
      </trkpt>
      <trkpt lat="62.634507485416" lon="17.978646183015">
        <ele>90</ele>
        <time>2018-03-18T10:38:12Z</time>
      </trkpt>
      <trkpt lat="62.634519052438" lon="17.978583989317">
        <ele>90</ele>
        <time>2018-03-18T10:38:13Z</time>
      </trkpt>
      <trkpt lat="62.634534475134" lon="17.978490531132">
        <ele>90</ele>
        <time>2018-03-18T10:38:14Z</time>
      </trkpt>
      <trkpt lat="62.634537073523" lon="17.978432444565">
        <ele>89.8</ele>
        <time>2018-03-18T10:38:15Z</time>
      </trkpt>
      <trkpt lat="62.634555597522" lon="17.978332029403">
        <ele>90</ele>
        <time>2018-03-18T10:38:16Z</time>
      </trkpt>
      <trkpt lat="62.634551658029" lon="17.97826857842">
        <ele>89.8</ele>
        <time>2018-03-18T10:38:17Z</time>
      </trkpt>
      <trkpt lat="62.634573031874" lon="17.978159529901">
        <ele>89.6</ele>
        <time>2018-03-18T10:38:18Z</time>
      </trkpt>
      <trkpt lat="62.634582251964" lon="17.978064982069">
        <ele>89.2</ele>
        <time>2018-03-18T10:38:19Z</time>
      </trkpt>
      <trkpt lat="62.634598177574" lon="17.978002536914">
        <ele>89.4</ele>
        <time>2018-03-18T10:38:20Z</time>
      </trkpt>
      <trkpt lat="62.634611253338" lon="17.977917460629">
        <ele>89</ele>
        <time>2018-03-18T10:38:21Z</time>
      </trkpt>
      <trkpt lat="62.634633968287" lon="17.97785786532">
        <ele>88.8</ele>
        <time>2018-03-18T10:38:22Z</time>
      </trkpt>
      <trkpt lat="62.634632962459" lon="17.977784272238">
        <ele>88.8</ele>
        <time>2018-03-18T10:38:23Z</time>
      </trkpt>
      <trkpt lat="62.634645535309" lon="17.977698357763">
        <ele>89.4</ele>
        <time>2018-03-18T10:38:24Z</time>
      </trkpt>
      <trkpt lat="62.634662466747" lon="17.977611772736">
        <ele>89.4</ele>
        <time>2018-03-18T10:38:25Z</time>
      </trkpt>
      <trkpt lat="62.634674117588" lon="17.977530468306">
        <ele>89.6</ele>
        <time>2018-03-18T10:38:26Z</time>
      </trkpt>
      <trkpt lat="62.63469574289" lon="17.977456623767">
        <ele>89.6</ele>
        <time>2018-03-18T10:38:27Z</time>
      </trkpt>
      <trkpt lat="62.634702867505" lon="17.977391244947">
        <ele>89.6</ele>
        <time>2018-03-18T10:38:28Z</time>
      </trkpt>
      <trkpt lat="62.634718876934" lon="17.97732896743">
        <ele>89.2</ele>
        <time>2018-03-18T10:38:29Z</time>
      </trkpt>
      <trkpt lat="62.634739999322" lon="17.977266354637">
        <ele>89.2</ele>
        <time>2018-03-18T10:38:30Z</time>
      </trkpt>
      <trkpt lat="62.634759361511" lon="17.97719653341">
        <ele>89.2</ele>
        <time>2018-03-18T10:38:31Z</time>
      </trkpt>
      <trkpt lat="62.63476363628" lon="17.97713450735">
        <ele>89.4</ele>
        <time>2018-03-18T10:38:32Z</time>
      </trkpt>
      <trkpt lat="62.634778891338" lon="17.977043312278">
        <ele>89.8</ele>
        <time>2018-03-18T10:38:33Z</time>
      </trkpt>
      <trkpt lat="62.634794984586" lon="17.97696016383">
        <ele>90</ele>
        <time>2018-03-18T10:38:34Z</time>
      </trkpt>
      <trkpt lat="62.634800265183" lon="17.976894952648">
        <ele>89.8</ele>
        <time>2018-03-18T10:38:35Z</time>
      </trkpt>
      <trkpt lat="62.634809652911" lon="17.976810546915">
        <ele>89.8</ele>
        <time>2018-03-18T10:38:36Z</time>
      </trkpt>
      <trkpt lat="62.634817448078" lon="17.976723710431">
        <ele>89.4</ele>
        <time>2018-03-18T10:38:37Z</time>
      </trkpt>
      <trkpt lat="62.634823566865" lon="17.976644250019">
        <ele>89</ele>
        <time>2018-03-18T10:38:38Z</time>
      </trkpt>
      <trkpt lat="62.634835385344" lon="17.976570740756">
        <ele>88.4</ele>
        <time>2018-03-18T10:38:39Z</time>
      </trkpt>
      <trkpt lat="62.634852987334" lon="17.976486251204">
        <ele>88</ele>
        <time>2018-03-18T10:38:40Z</time>
      </trkpt>
      <trkpt lat="62.634869080582" lon="17.976415675606">
        <ele>88</ele>
        <time>2018-03-18T10:38:41Z</time>
      </trkpt>
      <trkpt lat="62.634898836327" lon="17.97635750522">
        <ele>88.2</ele>
        <time>2018-03-18T10:38:42Z</time>
      </trkpt>
      <trkpt lat="62.634922640923" lon="17.976288186907">
        <ele>88</ele>
        <time>2018-03-18T10:38:43Z</time>
      </trkpt>
      <trkpt lat="62.63494719989" lon="17.976189448125">
        <ele>88</ele>
        <time>2018-03-18T10:38:44Z</time>
      </trkpt>
      <trkpt lat="62.634968070821" lon="17.976127673522">
        <ele>87.8</ele>
        <time>2018-03-18T10:38:45Z</time>
      </trkpt>
      <trkpt lat="62.634990953408" lon="17.97604737492">
        <ele>87.6</ele>
        <time>2018-03-18T10:38:46Z</time>
      </trkpt>
      <trkpt lat="62.635011824339" lon="17.975959281151">
        <ele>87.6</ele>
        <time>2018-03-18T10:38:47Z</time>
      </trkpt>
      <trkpt lat="62.635030599795" lon="17.975867499346">
        <ele>87.6</ele>
        <time>2018-03-18T10:38:48Z</time>
      </trkpt>
      <trkpt lat="62.635048201785" lon="17.97578334507">
        <ele>87.2</ele>
        <time>2018-03-18T10:38:49Z</time>
      </trkpt>
      <trkpt lat="62.635060774635" lon="17.975680582976">
        <ele>87</ele>
        <time>2018-03-18T10:38:50Z</time>
      </trkpt>
      <trkpt lat="62.635066977241" lon="17.975587460067">
        <ele>86.8</ele>
        <time>2018-03-18T10:38:51Z</time>
      </trkpt>
      <trkpt lat="62.635075862055" lon="17.975516213917">
        <ele>86.6</ele>
        <time>2018-03-18T10:38:52Z</time>
      </trkpt>
      <trkpt lat="62.635089021638" lon="17.975418900058">
        <ele>86.4</ele>
        <time>2018-03-18T10:38:53Z</time>
      </trkpt>
      <trkpt lat="62.635094888968" lon="17.975330051918">
        <ele>86.4</ele>
        <time>2018-03-18T10:38:54Z</time>
      </trkpt>
      <trkpt lat="62.63509975047" lon="17.975255033913">
        <ele>86.4</ele>
        <time>2018-03-18T10:38:55Z</time>
      </trkpt>
      <trkpt lat="62.635093966959" lon="17.975136681485">
        <ele>86.4</ele>
        <time>2018-03-18T10:38:56Z</time>
      </trkpt>
      <trkpt lat="62.63507376658" lon="17.975044732042">
        <ele>86.4</ele>
        <time>2018-03-18T10:38:57Z</time>
      </trkpt>
      <trkpt lat="62.635061361368" lon="17.974957895558">
        <ele>86.2</ele>
        <time>2018-03-18T10:38:58Z</time>
      </trkpt>
      <trkpt lat="62.635032359994" lon="17.974859575871">
        <ele>86.2</ele>
        <time>2018-03-18T10:38:59Z</time>
      </trkpt>
      <trkpt lat="62.635013333081" lon="17.974797801268">
        <ele>85.8</ele>
        <time>2018-03-18T10:39:00Z</time>
      </trkpt>
      <trkpt lat="62.634988187381" lon="17.974731165163">
        <ele>85.6</ele>
        <time>2018-03-18T10:39:01Z</time>
      </trkpt>
      <trkpt lat="62.634952815763" lon="17.974655811882">
        <ele>85.2</ele>
        <time>2018-03-18T10:39:02Z</time>
      </trkpt>
      <trkpt lat="62.634926412778" lon="17.974582889352">
        <ele>84.6</ele>
        <time>2018-03-18T10:39:03Z</time>
      </trkpt>
      <trkpt lat="62.634912163548" lon="17.974511391745">
        <ele>84.4</ele>
        <time>2018-03-18T10:39:04Z</time>
      </trkpt>
      <trkpt lat="62.634895735024" lon="17.974422627424">
        <ele>83.8</ele>
        <time>2018-03-18T10:39:05Z</time>
      </trkpt>
      <trkpt lat="62.634884000364" lon="17.974333024913">
        <ele>83.8</ele>
        <time>2018-03-18T10:39:06Z</time>
      </trkpt>
      <trkpt lat="62.634877797758" lon="17.974260270021">
        <ele>83.8</ele>
        <time>2018-03-18T10:39:07Z</time>
      </trkpt>
      <trkpt lat="62.634865811641" lon="17.974179300867">
        <ele>83.6</ele>
        <time>2018-03-18T10:39:08Z</time>
      </trkpt>
      <trkpt lat="62.634846533271" lon="17.97409942136">
        <ele>83.4</ele>
        <time>2018-03-18T10:39:09Z</time>
      </trkpt>
      <trkpt lat="62.634828679824" lon="17.974015183265">
        <ele>83.6</ele>
        <time>2018-03-18T10:39:10Z</time>
      </trkpt>
      <trkpt lat="62.634809233816" lon="17.973936980138">
        <ele>83.4</ele>
        <time>2018-03-18T10:39:11Z</time>
      </trkpt>
      <trkpt lat="62.634784842487" lon="17.973842683763">
        <ele>83.2</ele>
        <time>2018-03-18T10:39:12Z</time>
      </trkpt>
      <trkpt lat="62.634766737583" lon="17.973782669359">
        <ele>83.2</ele>
        <time>2018-03-18T10:39:13Z</time>
      </trkpt>
      <trkpt lat="62.634740753693" lon="17.973698431264">
        <ele>83.2</ele>
        <time>2018-03-18T10:39:14Z</time>
      </trkpt>
      <trkpt lat="62.634724157531" lon="17.973621401603">
        <ele>83</ele>
        <time>2018-03-18T10:39:15Z</time>
      </trkpt>
      <trkpt lat="62.634717452011" lon="17.97354370139">
        <ele>83</ele>
        <time>2018-03-18T10:39:16Z</time>
      </trkpt>
      <trkpt lat="62.634687863904" lon="17.973473880163">
        <ele>83</ele>
        <time>2018-03-18T10:39:17Z</time>
      </trkpt>
      <trkpt lat="62.634682415669" lon="17.973371285707">
        <ele>82.8</ele>
        <time>2018-03-18T10:39:18Z</time>
      </trkpt>
      <trkpt lat="62.634685181696" lon="17.973250753985">
        <ele>82.6</ele>
        <time>2018-03-18T10:39:20Z</time>
      </trkpt>
      <trkpt lat="62.634695994347" lon="17.973127372417">
        <ele>82.6</ele>
        <time>2018-03-18T10:39:21Z</time>
      </trkpt>
      <trkpt lat="62.634706220265" lon="17.9730231854">
        <ele>82.6</ele>
        <time>2018-03-18T10:39:22Z</time>
      </trkpt>
      <trkpt lat="62.634715272717" lon="17.97293433726">
        <ele>82.6</ele>
        <time>2018-03-18T10:39:23Z</time>
      </trkpt>
      <trkpt lat="62.63474268153" lon="17.97281782885">
        <ele>82.4</ele>
        <time>2018-03-18T10:39:24Z</time>
      </trkpt>
      <trkpt lat="62.634756427846" lon="17.972735350954">
        <ele>82.2</ele>
        <time>2018-03-18T10:39:25Z</time>
      </trkpt>
      <trkpt lat="62.63478794379" lon="17.972637031267">
        <ele>82.4</ele>
        <time>2018-03-18T10:39:26Z</time>
      </trkpt>
      <trkpt lat="62.634813676223" lon="17.972554804828">
        <ele>82</ele>
        <time>2018-03-18T10:39:27Z</time>
      </trkpt>
      <trkpt lat="62.634834463335" lon="17.972481211746">
        <ele>82</ele>
        <time>2018-03-18T10:39:28Z</time>
      </trkpt>
      <trkpt lat="62.634873690627" lon="17.972401080782">
        <ele>81.8</ele>
        <time>2018-03-18T10:39:29Z</time>
      </trkpt>
      <trkpt lat="62.634906212399" lon="17.972310472443">
        <ele>81.8</ele>
        <time>2018-03-18T10:39:30Z</time>
      </trkpt>
      <trkpt lat="62.634939823818" lon="17.972209386729">
        <ele>81.2</ele>
        <time>2018-03-18T10:39:31Z</time>
      </trkpt>
      <trkpt lat="62.634968825192" lon="17.97213135124">
        <ele>81</ele>
        <time>2018-03-18T10:39:32Z</time>
      </trkpt>
      <trkpt lat="62.634994809082" lon="17.972048789525">
        <ele>80.8</ele>
        <time>2018-03-18T10:39:33Z</time>
      </trkpt>
      <trkpt lat="62.635021295886" lon="17.971961533946">
        <ele>80.4</ele>
        <time>2018-03-18T10:39:34Z</time>
      </trkpt>
      <trkpt lat="62.635045938672" lon="17.971876792937">
        <ele>80.4</ele>
        <time>2018-03-18T10:39:35Z</time>
      </trkpt>
      <trkpt lat="62.635064881766" lon="17.971745700021">
        <ele>79.8</ele>
        <time>2018-03-18T10:39:36Z</time>
      </trkpt>
      <trkpt lat="62.63508298667" lon="17.971632209095">
        <ele>79.4</ele>
        <time>2018-03-18T10:39:37Z</time>
      </trkpt>
      <trkpt lat="62.635097822633" lon="17.971525507508">
        <ele>78.8</ele>
        <time>2018-03-18T10:39:38Z</time>
      </trkpt>
      <trkpt lat="62.635112910053" lon="17.971420901396">
        <ele>78.4</ele>
        <time>2018-03-18T10:39:39Z</time>
      </trkpt>
      <trkpt lat="62.635130009129" lon="17.97133087979">
        <ele>78</ele>
        <time>2018-03-18T10:39:40Z</time>
      </trkpt>
      <trkpt lat="62.635146940567" lon="17.971186794929">
        <ele>77</ele>
        <time>2018-03-18T10:39:41Z</time>
      </trkpt>
      <trkpt lat="62.635157166485" lon="17.971073304003">
        <ele>76.4</ele>
        <time>2018-03-18T10:39:42Z</time>
      </trkpt>
      <trkpt lat="62.635164458738" lon="17.970972385927">
        <ele>76.2</ele>
        <time>2018-03-18T10:39:43Z</time>
      </trkpt>
      <trkpt lat="62.635161441254" lon="17.970882280502">
        <ele>76.4</ele>
        <time>2018-03-18T10:39:44Z</time>
      </trkpt>
      <trkpt lat="62.635165213109" lon="17.970796366027">
        <ele>76.4</ele>
        <time>2018-03-18T10:39:45Z</time>
      </trkpt>
      <trkpt lat="62.635183904746" lon="17.97069134082">
        <ele>76.2</ele>
        <time>2018-03-18T10:39:46Z</time>
      </trkpt>
      <trkpt lat="62.635195974682" lon="17.970608695286">
        <ele>75.8</ele>
        <time>2018-03-18T10:39:47Z</time>
      </trkpt>
      <trkpt lat="62.63521206793" lon="17.970509788866">
        <ele>75.2</ele>
        <time>2018-03-18T10:39:48Z</time>
      </trkpt>
      <trkpt lat="62.635225311332" lon="17.970413816111">
        <ele>74.2</ele>
        <time>2018-03-18T10:39:49Z</time>
      </trkpt>
      <trkpt lat="62.635236962173" lon="17.970327817817">
        <ele>73.8</ele>
        <time>2018-03-18T10:39:50Z</time>
      </trkpt>
      <trkpt lat="62.635257497828" lon="17.970231593605">
        <ele>73</ele>
        <time>2018-03-18T10:39:51Z</time>
      </trkpt>
      <trkpt lat="62.635277530569" lon="17.97014567913">
        <ele>72.6</ele>
        <time>2018-03-18T10:39:52Z</time>
      </trkpt>
      <trkpt lat="62.635298904414" lon="17.970072840419">
        <ele>72.4</ele>
        <time>2018-03-18T10:39:53Z</time>
      </trkpt>
      <trkpt lat="62.635317931327" lon="17.969961025873">
        <ele>72</ele>
        <time>2018-03-18T10:39:54Z</time>
      </trkpt>
      <trkpt lat="62.635341316828" lon="17.969888019524">
        <ele>72</ele>
        <time>2018-03-18T10:39:55Z</time>
      </trkpt>
      <trkpt lat="62.635361852483" lon="17.969769918553">
        <ele>71.8</ele>
        <time>2018-03-18T10:39:56Z</time>
      </trkpt>
      <trkpt lat="62.635385824717" lon="17.969683668802">
        <ele>71.6</ele>
        <time>2018-03-18T10:39:57Z</time>
      </trkpt>
      <trkpt lat="62.6353989843" lon="17.969591048807">
        <ele>71.4</ele>
        <time>2018-03-18T10:39:58Z</time>
      </trkpt>
      <trkpt lat="62.635421699249" lon="17.969474959492">
        <ele>71</ele>
        <time>2018-03-18T10:39:59Z</time>
      </trkpt>
      <trkpt lat="62.635444665655" lon="17.969368760819">
        <ele>70.6</ele>
        <time>2018-03-18T10:40:00Z</time>
      </trkpt>
      <trkpt lat="62.635471990649" lon="17.969256443359">
        <ele>70.2</ele>
        <time>2018-03-18T10:40:01Z</time>
      </trkpt>
      <trkpt lat="62.635502333127" lon="17.969146472831">
        <ele>70</ele>
        <time>2018-03-18T10:40:02Z</time>
      </trkpt>
      <trkpt lat="62.63552387461" lon="17.969050667714">
        <ele>69.8</ele>
        <time>2018-03-18T10:40:03Z</time>
      </trkpt>
      <trkpt lat="62.635548098301" lon="17.968957712443">
        <ele>69.2</ele>
        <time>2018-03-18T10:40:04Z</time>
      </trkpt>
      <trkpt lat="62.635573076363" lon="17.968878503488">
        <ele>68.8</ele>
        <time>2018-03-18T10:40:05Z</time>
      </trkpt>
      <trkpt lat="62.635597467692" lon="17.968799965085">
        <ele>68.6</ele>
        <time>2018-03-18T10:40:06Z</time>
      </trkpt>
      <trkpt lat="62.635625211781" lon="17.968730060039">
        <ele>68.4</ele>
        <time>2018-03-18T10:40:07Z</time>
      </trkpt>
      <trkpt lat="62.635650357481" lon="17.968657975699">
        <ele>67.6</ele>
        <time>2018-03-18T10:40:08Z</time>
      </trkpt>
      <trkpt lat="62.635676341371" lon="17.968592680698">
        <ele>67.2</ele>
        <time>2018-03-18T10:40:09Z</time>
      </trkpt>
      <trkpt lat="62.635702911994" lon="17.96853635433">
        <ele>67</ele>
        <time>2018-03-18T10:40:10Z</time>
      </trkpt>
      <trkpt lat="62.635741049639" lon="17.968490002423">
        <ele>66</ele>
        <time>2018-03-18T10:40:11Z</time>
      </trkpt>
      <trkpt lat="62.635781785673" lon="17.968456558642">
        <ele>64.6</ele>
        <time>2018-03-18T10:40:12Z</time>
      </trkpt>
      <trkpt lat="62.635820258594" lon="17.968429736562">
        <ele>64.2</ele>
        <time>2018-03-18T10:40:13Z</time>
      </trkpt>
      <trkpt lat="62.635858228601" lon="17.968402579206">
        <ele>63.6</ele>
        <time>2018-03-18T10:40:14Z</time>
      </trkpt>
      <trkpt lat="62.63589016364" lon="17.968369973615">
        <ele>63</ele>
        <time>2018-03-18T10:40:15Z</time>
      </trkpt>
      <trkpt lat="62.635936599366" lon="17.968394029668">
        <ele>62.2</ele>
        <time>2018-03-18T10:40:16Z</time>
      </trkpt>
    </trkseg>
  </trk>
</gpx>